<?xml version="1.0" encoding="UTF-8" standalone="no" ?>
<gpx xmlns="http://www.topografix.com/GPX/1/1" xmlns:xsi="http://www.w3.org/2001/XMLSchema-instance" xsi:schemaLocation="http://www.topografix.com/GPX/1/1 http://www.topografix.com/GPX/1/1/gpx.xsd" version="1.1" creator="VisuGPX - https://www.visugpx.com">
  <metadata>
    <name>130209 - WE Les Coches</name>
    <desc><![CDATA[Une belle journée de ski, par temps frais.... (-23°C à 3000m)]]></desc>
  </metadata>
  <trk>
    <name><![CDATA[130209 - WE Les Coches_1]]></name>
    <trkseg>
      <trkpt lat="45.54879" lon="6.78746">
        <ele>2152</ele>
        <time>2013-02-09T08:53:16Z</time>
      </trkpt>
      <trkpt lat="45.54879" lon="6.78746">
        <ele>2152</ele>
        <time>2013-02-09T08:53:17Z</time>
      </trkpt>
      <trkpt lat="45.54873" lon="6.78765">
        <ele>2164</ele>
        <time>2013-02-09T08:53:27Z</time>
      </trkpt>
      <trkpt lat="45.54862" lon="6.78802">
        <ele>2168</ele>
        <time>2013-02-09T08:53:43Z</time>
      </trkpt>
      <trkpt lat="45.54856" lon="6.78824">
        <ele>2171</ele>
        <time>2013-02-09T08:53:53Z</time>
      </trkpt>
      <trkpt lat="45.5485" lon="6.78845">
        <ele>2181</ele>
        <time>2013-02-09T08:54:03Z</time>
      </trkpt>
      <trkpt lat="45.54843" lon="6.78879">
        <ele>2185</ele>
        <time>2013-02-09T08:54:16Z</time>
      </trkpt>
      <trkpt lat="45.5484" lon="6.78905">
        <ele>2189</ele>
        <time>2013-02-09T08:54:26Z</time>
      </trkpt>
      <trkpt lat="45.54823" lon="6.78923">
        <ele>2194</ele>
        <time>2013-02-09T08:54:36Z</time>
      </trkpt>
      <trkpt lat="45.54823" lon="6.78923">
        <ele>2194</ele>
        <time>2013-02-09T08:54:42Z</time>
      </trkpt>
      <trkpt lat="45.54823" lon="6.78923">
        <ele>2194</ele>
        <time>2013-02-09T08:54:42Z</time>
      </trkpt>
      <trkpt lat="45.54817" lon="6.78895">
        <ele>2184</ele>
        <time>2013-02-09T08:55:15Z</time>
      </trkpt>
      <trkpt lat="45.54817" lon="6.78895">
        <ele>2184</ele>
        <time>2013-02-09T08:55:15Z</time>
      </trkpt>
      <trkpt lat="45.54822" lon="6.78869">
        <ele>2181</ele>
        <time>2013-02-09T08:55:18Z</time>
      </trkpt>
      <trkpt lat="45.54835" lon="6.7884">
        <ele>2179</ele>
        <time>2013-02-09T08:55:21Z</time>
      </trkpt>
      <trkpt lat="45.54863" lon="6.78771">
        <ele>2165</ele>
        <time>2013-02-09T08:55:27Z</time>
      </trkpt>
      <trkpt lat="45.54879" lon="6.78709">
        <ele>2149</ele>
        <time>2013-02-09T08:55:32Z</time>
      </trkpt>
      <trkpt lat="45.54895" lon="6.78632">
        <ele>2131</ele>
        <time>2013-02-09T08:55:38Z</time>
      </trkpt>
      <trkpt lat="45.549" lon="6.78593">
        <ele>2125</ele>
        <time>2013-02-09T08:55:41Z</time>
      </trkpt>
      <trkpt lat="45.54906" lon="6.78523">
        <ele>2109</ele>
        <time>2013-02-09T08:55:46Z</time>
      </trkpt>
      <trkpt lat="45.54937" lon="6.7846">
        <ele>2091</ele>
        <time>2013-02-09T08:55:52Z</time>
      </trkpt>
      <trkpt lat="45.54962" lon="6.78337">
        <ele>2068</ele>
        <time>2013-02-09T08:55:59Z</time>
      </trkpt>
      <trkpt lat="45.54987" lon="6.7826">
        <ele>2050</ele>
        <time>2013-02-09T08:56:04Z</time>
      </trkpt>
      <trkpt lat="45.55004" lon="6.78193">
        <ele>2036</ele>
        <time>2013-02-09T08:56:09Z</time>
      </trkpt>
      <trkpt lat="45.55017" lon="6.78106">
        <ele>2028</ele>
        <time>2013-02-09T08:56:14Z</time>
      </trkpt>
      <trkpt lat="45.55026" lon="6.78037">
        <ele>2018</ele>
        <time>2013-02-09T08:56:20Z</time>
      </trkpt>
      <trkpt lat="45.55036" lon="6.77967">
        <ele>2004</ele>
        <time>2013-02-09T08:56:26Z</time>
      </trkpt>
      <trkpt lat="45.55041" lon="6.77858">
        <ele>1981</ele>
        <time>2013-02-09T08:56:34Z</time>
      </trkpt>
      <trkpt lat="45.55073" lon="6.77736">
        <ele>1945</ele>
        <time>2013-02-09T08:56:40Z</time>
      </trkpt>
      <trkpt lat="45.55097" lon="6.77616">
        <ele>1921</ele>
        <time>2013-02-09T08:56:46Z</time>
      </trkpt>
      <trkpt lat="45.55107" lon="6.77561">
        <ele>1910</ele>
        <time>2013-02-09T08:56:49Z</time>
      </trkpt>
      <trkpt lat="45.55123" lon="6.77483">
        <ele>1897</ele>
        <time>2013-02-09T08:56:54Z</time>
      </trkpt>
      <trkpt lat="45.55147" lon="6.77408">
        <ele>1882</ele>
        <time>2013-02-09T08:56:59Z</time>
      </trkpt>
      <trkpt lat="45.55172" lon="6.77391">
        <ele>1874</ele>
        <time>2013-02-09T08:57:02Z</time>
      </trkpt>
      <trkpt lat="45.55198" lon="6.77334">
        <ele>1867</ele>
        <time>2013-02-09T08:57:08Z</time>
      </trkpt>
      <trkpt lat="45.552" lon="6.77301">
        <ele>1856</ele>
        <time>2013-02-09T08:57:11Z</time>
      </trkpt>
      <trkpt lat="45.55245" lon="6.77203">
        <ele>1837</ele>
        <time>2013-02-09T08:57:19Z</time>
      </trkpt>
      <trkpt lat="45.55277" lon="6.77109">
        <ele>1815</ele>
        <time>2013-02-09T08:57:25Z</time>
      </trkpt>
      <trkpt lat="45.55272" lon="6.77001">
        <ele>1796</ele>
        <time>2013-02-09T08:57:32Z</time>
      </trkpt>
      <trkpt lat="45.55281" lon="6.76947">
        <ele>1777</ele>
        <time>2013-02-09T08:57:37Z</time>
      </trkpt>
      <trkpt lat="45.55294" lon="6.76837">
        <ele>1749</ele>
        <time>2013-02-09T08:57:45Z</time>
      </trkpt>
      <trkpt lat="45.55284" lon="6.76761">
        <ele>1726</ele>
        <time>2013-02-09T08:57:51Z</time>
      </trkpt>
      <trkpt lat="45.55267" lon="6.76717">
        <ele>1710</ele>
        <time>2013-02-09T08:57:55Z</time>
      </trkpt>
      <trkpt lat="45.55259" lon="6.76653">
        <ele>1693</ele>
        <time>2013-02-09T08:58:01Z</time>
      </trkpt>
      <trkpt lat="45.5522" lon="6.76542">
        <ele>1660</ele>
        <time>2013-02-09T08:58:09Z</time>
      </trkpt>
      <trkpt lat="45.55157" lon="6.76527">
        <ele>1653</ele>
        <time>2013-02-09T08:58:15Z</time>
      </trkpt>
      <trkpt lat="45.5513" lon="6.76467">
        <ele>1635</ele>
        <time>2013-02-09T08:58:21Z</time>
      </trkpt>
      <trkpt lat="45.55111" lon="6.76374">
        <ele>1615</ele>
        <time>2013-02-09T08:58:28Z</time>
      </trkpt>
      <trkpt lat="45.55091" lon="6.76351">
        <ele>1613</ele>
        <time>2013-02-09T08:58:34Z</time>
      </trkpt>
      <trkpt lat="45.5509" lon="6.76347">
        <ele>1612</ele>
        <time>2013-02-09T08:58:37Z</time>
      </trkpt>
      <trkpt lat="45.5509" lon="6.76347">
        <ele>1612</ele>
        <time>2013-02-09T08:58:42Z</time>
      </trkpt>
      <trkpt lat="45.55072" lon="6.76348">
        <ele>1614</ele>
        <time>2013-02-09T08:59:28Z</time>
      </trkpt>
      <trkpt lat="45.55072" lon="6.76348">
        <ele>1614</ele>
        <time>2013-02-09T08:59:28Z</time>
      </trkpt>
      <trkpt lat="45.55065" lon="6.76368">
        <ele>1617</ele>
        <time>2013-02-09T08:59:37Z</time>
      </trkpt>
      <trkpt lat="45.5506" lon="6.76409">
        <ele>1621</ele>
        <time>2013-02-09T08:59:45Z</time>
      </trkpt>
      <trkpt lat="45.55055" lon="6.76441">
        <ele>1634</ele>
        <time>2013-02-09T08:59:52Z</time>
      </trkpt>
      <trkpt lat="45.55051" lon="6.76475">
        <ele>1639</ele>
        <time>2013-02-09T08:59:59Z</time>
      </trkpt>
      <trkpt lat="45.55046" lon="6.76503">
        <ele>1651</ele>
        <time>2013-02-09T09:00:05Z</time>
      </trkpt>
      <trkpt lat="45.5504" lon="6.76542">
        <ele>1654</ele>
        <time>2013-02-09T09:00:12Z</time>
      </trkpt>
      <trkpt lat="45.55035" lon="6.76575">
        <ele>1657</ele>
        <time>2013-02-09T09:00:19Z</time>
      </trkpt>
      <trkpt lat="45.55031" lon="6.76604">
        <ele>1669</ele>
        <time>2013-02-09T09:00:25Z</time>
      </trkpt>
      <trkpt lat="45.55026" lon="6.76632">
        <ele>1672</ele>
        <time>2013-02-09T09:00:31Z</time>
      </trkpt>
      <trkpt lat="45.55021" lon="6.76672">
        <ele>1685</ele>
        <time>2013-02-09T09:00:39Z</time>
      </trkpt>
      <trkpt lat="45.55015" lon="6.76705">
        <ele>1690</ele>
        <time>2013-02-09T09:00:46Z</time>
      </trkpt>
      <trkpt lat="45.5501" lon="6.76739">
        <ele>1696</ele>
        <time>2013-02-09T09:00:53Z</time>
      </trkpt>
      <trkpt lat="45.55005" lon="6.76772">
        <ele>1710</ele>
        <time>2013-02-09T09:01:00Z</time>
      </trkpt>
      <trkpt lat="45.55" lon="6.768">
        <ele>1718</ele>
        <time>2013-02-09T09:01:06Z</time>
      </trkpt>
      <trkpt lat="45.54997" lon="6.76834">
        <ele>1727</ele>
        <time>2013-02-09T09:01:13Z</time>
      </trkpt>
      <trkpt lat="45.55" lon="6.76863">
        <ele>1741</ele>
        <time>2013-02-09T09:01:19Z</time>
      </trkpt>
      <trkpt lat="45.54994" lon="6.76905">
        <ele>1745</ele>
        <time>2013-02-09T09:01:27Z</time>
      </trkpt>
      <trkpt lat="45.54988" lon="6.76938">
        <ele>1761</ele>
        <time>2013-02-09T09:01:34Z</time>
      </trkpt>
      <trkpt lat="45.54988" lon="6.76967">
        <ele>1769</ele>
        <time>2013-02-09T09:01:41Z</time>
      </trkpt>
      <trkpt lat="45.54988" lon="6.7699">
        <ele>1778</ele>
        <time>2013-02-09T09:01:46Z</time>
      </trkpt>
      <trkpt lat="45.54985" lon="6.7703">
        <ele>1794</ele>
        <time>2013-02-09T09:01:54Z</time>
      </trkpt>
      <trkpt lat="45.54981" lon="6.77062">
        <ele>1802</ele>
        <time>2013-02-09T09:02:00Z</time>
      </trkpt>
      <trkpt lat="45.54974" lon="6.77095">
        <ele>1820</ele>
        <time>2013-02-09T09:02:07Z</time>
      </trkpt>
      <trkpt lat="45.54976" lon="6.77124">
        <ele>1825</ele>
        <time>2013-02-09T09:02:13Z</time>
      </trkpt>
      <trkpt lat="45.54969" lon="6.77157">
        <ele>1830</ele>
        <time>2013-02-09T09:02:20Z</time>
      </trkpt>
      <trkpt lat="45.54961" lon="6.77183">
        <ele>1847</ele>
        <time>2013-02-09T09:02:26Z</time>
      </trkpt>
      <trkpt lat="45.54955" lon="6.77213">
        <ele>1851</ele>
        <time>2013-02-09T09:02:32Z</time>
      </trkpt>
      <trkpt lat="45.5495" lon="6.77236">
        <ele>1854</ele>
        <time>2013-02-09T09:02:37Z</time>
      </trkpt>
      <trkpt lat="45.54946" lon="6.77259">
        <ele>1870</ele>
        <time>2013-02-09T09:02:42Z</time>
      </trkpt>
      <trkpt lat="45.54942" lon="6.77293">
        <ele>1875</ele>
        <time>2013-02-09T09:02:49Z</time>
      </trkpt>
      <trkpt lat="45.54937" lon="6.77327">
        <ele>1880</ele>
        <time>2013-02-09T09:02:56Z</time>
      </trkpt>
      <trkpt lat="45.54931" lon="6.77359">
        <ele>1893</ele>
        <time>2013-02-09T09:03:03Z</time>
      </trkpt>
      <trkpt lat="45.54923" lon="6.77383">
        <ele>1897</ele>
        <time>2013-02-09T09:03:09Z</time>
      </trkpt>
      <trkpt lat="45.5492" lon="6.77413">
        <ele>1903</ele>
        <time>2013-02-09T09:03:14Z</time>
      </trkpt>
      <trkpt lat="45.54913" lon="6.77445">
        <ele>1910</ele>
        <time>2013-02-09T09:03:21Z</time>
      </trkpt>
      <trkpt lat="45.54912" lon="6.77469">
        <ele>1913</ele>
        <time>2013-02-09T09:03:26Z</time>
      </trkpt>
      <trkpt lat="45.54901" lon="6.77504">
        <ele>1926</ele>
        <time>2013-02-09T09:03:34Z</time>
      </trkpt>
      <trkpt lat="45.54903" lon="6.77545">
        <ele>1932</ele>
        <time>2013-02-09T09:03:41Z</time>
      </trkpt>
      <trkpt lat="45.54899" lon="6.77574">
        <ele>1935</ele>
        <time>2013-02-09T09:03:47Z</time>
      </trkpt>
      <trkpt lat="45.54897" lon="6.77593">
        <ele>1948</ele>
        <time>2013-02-09T09:03:52Z</time>
      </trkpt>
      <trkpt lat="45.54892" lon="6.77629">
        <ele>1956</ele>
        <time>2013-02-09T09:04:00Z</time>
      </trkpt>
      <trkpt lat="45.54889" lon="6.77648">
        <ele>1960</ele>
        <time>2013-02-09T09:04:05Z</time>
      </trkpt>
      <trkpt lat="45.54879" lon="6.77689">
        <ele>1980</ele>
        <time>2013-02-09T09:04:13Z</time>
      </trkpt>
      <trkpt lat="45.54872" lon="6.77717">
        <ele>1984</ele>
        <time>2013-02-09T09:04:19Z</time>
      </trkpt>
      <trkpt lat="45.54867" lon="6.77745">
        <ele>1988</ele>
        <time>2013-02-09T09:04:25Z</time>
      </trkpt>
      <trkpt lat="45.54861" lon="6.77775">
        <ele>2002</ele>
        <time>2013-02-09T09:04:31Z</time>
      </trkpt>
      <trkpt lat="45.54852" lon="6.7781">
        <ele>2006</ele>
        <time>2013-02-09T09:04:38Z</time>
      </trkpt>
      <trkpt lat="45.54849" lon="6.77834">
        <ele>2015</ele>
        <time>2013-02-09T09:04:43Z</time>
      </trkpt>
      <trkpt lat="45.54841" lon="6.77869">
        <ele>2016</ele>
        <time>2013-02-09T09:04:50Z</time>
      </trkpt>
      <trkpt lat="45.54837" lon="6.77893">
        <ele>2018</ele>
        <time>2013-02-09T09:04:55Z</time>
      </trkpt>
      <trkpt lat="45.54829" lon="6.77927">
        <ele>2025</ele>
        <time>2013-02-09T09:05:02Z</time>
      </trkpt>
      <trkpt lat="45.54825" lon="6.77958">
        <ele>2027</ele>
        <time>2013-02-09T09:05:08Z</time>
      </trkpt>
      <trkpt lat="45.5482" lon="6.77983">
        <ele>2029</ele>
        <time>2013-02-09T09:05:13Z</time>
      </trkpt>
      <trkpt lat="45.54815" lon="6.78013">
        <ele>2035</ele>
        <time>2013-02-09T09:05:19Z</time>
      </trkpt>
      <trkpt lat="45.54815" lon="6.78039">
        <ele>2038</ele>
        <time>2013-02-09T09:05:24Z</time>
      </trkpt>
      <trkpt lat="45.54808" lon="6.78067">
        <ele>2040</ele>
        <time>2013-02-09T09:05:30Z</time>
      </trkpt>
      <trkpt lat="45.54801" lon="6.78096">
        <ele>2050</ele>
        <time>2013-02-09T09:05:36Z</time>
      </trkpt>
      <trkpt lat="45.54795" lon="6.78133">
        <ele>2054</ele>
        <time>2013-02-09T09:05:44Z</time>
      </trkpt>
      <trkpt lat="45.5479" lon="6.78161">
        <ele>2056</ele>
        <time>2013-02-09T09:05:50Z</time>
      </trkpt>
      <trkpt lat="45.54785" lon="6.78197">
        <ele>2064</ele>
        <time>2013-02-09T09:05:57Z</time>
      </trkpt>
      <trkpt lat="45.54781" lon="6.78225">
        <ele>2066</ele>
        <time>2013-02-09T09:06:02Z</time>
      </trkpt>
      <trkpt lat="45.54772" lon="6.78274">
        <ele>2073</ele>
        <time>2013-02-09T09:06:10Z</time>
      </trkpt>
      <trkpt lat="45.54826" lon="6.78353">
        <ele>2080</ele>
        <time>2013-02-09T09:06:40Z</time>
      </trkpt>
      <trkpt lat="45.54793" lon="6.78359">
        <ele>2082</ele>
        <time>2013-02-09T09:06:47Z</time>
      </trkpt>
      <trkpt lat="45.54793" lon="6.78359">
        <ele>2082</ele>
        <time>2013-02-09T09:06:55Z</time>
      </trkpt>
      <trkpt lat="45.54793" lon="6.78359">
        <ele>2082</ele>
        <time>2013-02-09T09:07:01Z</time>
      </trkpt>
      <trkpt lat="45.5482" lon="6.78343">
        <ele>2079</ele>
        <time>2013-02-09T09:07:01Z</time>
      </trkpt>
      <trkpt lat="45.54829" lon="6.78336">
        <ele>2077</ele>
        <time>2013-02-09T09:07:06Z</time>
      </trkpt>
      <trkpt lat="45.54829" lon="6.78336">
        <ele>2077</ele>
        <time>2013-02-09T09:07:12Z</time>
      </trkpt>
      <trkpt lat="45.54829" lon="6.78336">
        <ele>2077</ele>
        <time>2013-02-09T09:07:33Z</time>
      </trkpt>
      <trkpt lat="45.54849" lon="6.78323">
        <ele>2070</ele>
        <time>2013-02-09T09:07:33Z</time>
      </trkpt>
      <trkpt lat="45.54881" lon="6.78292">
        <ele>2066</ele>
        <time>2013-02-09T09:07:40Z</time>
      </trkpt>
      <trkpt lat="45.54922" lon="6.78243">
        <ele>2053</ele>
        <time>2013-02-09T09:07:46Z</time>
      </trkpt>
      <trkpt lat="45.54968" lon="6.78163">
        <ele>2036</ele>
        <time>2013-02-09T09:07:51Z</time>
      </trkpt>
      <trkpt lat="45.54988" lon="6.78116">
        <ele>2033</ele>
        <time>2013-02-09T09:07:54Z</time>
      </trkpt>
      <trkpt lat="45.55016" lon="6.78082">
        <ele>2023</ele>
        <time>2013-02-09T09:07:57Z</time>
      </trkpt>
      <trkpt lat="45.55036" lon="6.77993">
        <ele>2006</ele>
        <time>2013-02-09T09:08:03Z</time>
      </trkpt>
      <trkpt lat="45.55025" lon="6.77912">
        <ele>1989</ele>
        <time>2013-02-09T09:08:08Z</time>
      </trkpt>
      <trkpt lat="45.55039" lon="6.77824">
        <ele>1967</ele>
        <time>2013-02-09T09:08:13Z</time>
      </trkpt>
      <trkpt lat="45.55067" lon="6.77718">
        <ele>1943</ele>
        <time>2013-02-09T09:08:19Z</time>
      </trkpt>
      <trkpt lat="45.55086" lon="6.77593">
        <ele>1918</ele>
        <time>2013-02-09T09:08:25Z</time>
      </trkpt>
      <trkpt lat="45.5511" lon="6.77485">
        <ele>1897</ele>
        <time>2013-02-09T09:08:31Z</time>
      </trkpt>
      <trkpt lat="45.5513" lon="6.77439">
        <ele>1893</ele>
        <time>2013-02-09T09:08:34Z</time>
      </trkpt>
      <trkpt lat="45.55169" lon="6.77355">
        <ele>1869</ele>
        <time>2013-02-09T09:08:40Z</time>
      </trkpt>
      <trkpt lat="45.55217" lon="6.77291">
        <ele>1854</ele>
        <time>2013-02-09T09:08:46Z</time>
      </trkpt>
      <trkpt lat="45.55241" lon="6.77207">
        <ele>1837</ele>
        <time>2013-02-09T09:08:52Z</time>
      </trkpt>
      <trkpt lat="45.55255" lon="6.77121">
        <ele>1817</ele>
        <time>2013-02-09T09:08:58Z</time>
      </trkpt>
      <trkpt lat="45.55268" lon="6.77045">
        <ele>1801</ele>
        <time>2013-02-09T09:09:03Z</time>
      </trkpt>
      <trkpt lat="45.55283" lon="6.76965">
        <ele>1780</ele>
        <time>2013-02-09T09:09:09Z</time>
      </trkpt>
      <trkpt lat="45.55285" lon="6.76902">
        <ele>1758</ele>
        <time>2013-02-09T09:09:15Z</time>
      </trkpt>
      <trkpt lat="45.55294" lon="6.76867">
        <ele>1753</ele>
        <time>2013-02-09T09:09:18Z</time>
      </trkpt>
      <trkpt lat="45.55297" lon="6.76826">
        <ele>1734</ele>
        <time>2013-02-09T09:09:21Z</time>
      </trkpt>
      <trkpt lat="45.55289" lon="6.76779">
        <ele>1729</ele>
        <time>2013-02-09T09:09:25Z</time>
      </trkpt>
      <trkpt lat="45.55269" lon="6.76713">
        <ele>1710</ele>
        <time>2013-02-09T09:09:30Z</time>
      </trkpt>
      <trkpt lat="45.5526" lon="6.76635">
        <ele>1690</ele>
        <time>2013-02-09T09:09:36Z</time>
      </trkpt>
      <trkpt lat="45.55222" lon="6.76557">
        <ele>1662</ele>
        <time>2013-02-09T09:09:42Z</time>
      </trkpt>
      <trkpt lat="45.55192" lon="6.76535">
        <ele>1658</ele>
        <time>2013-02-09T09:09:45Z</time>
      </trkpt>
      <trkpt lat="45.55132" lon="6.76497">
        <ele>1638</ele>
        <time>2013-02-09T09:09:51Z</time>
      </trkpt>
      <trkpt lat="45.5512" lon="6.76409">
        <ele>1618</ele>
        <time>2013-02-09T09:09:57Z</time>
      </trkpt>
      <trkpt lat="45.55088" lon="6.7636">
        <ele>1614</ele>
        <time>2013-02-09T09:10:04Z</time>
      </trkpt>
      <trkpt lat="45.55085" lon="6.76345">
        <ele>1611</ele>
        <time>2013-02-09T09:10:11Z</time>
      </trkpt>
      <trkpt lat="45.55085" lon="6.76345">
        <ele>1611</ele>
        <time>2013-02-09T09:10:19Z</time>
      </trkpt>
      <trkpt lat="45.55085" lon="6.76345">
        <ele>1611</ele>
        <time>2013-02-09T09:10:19Z</time>
      </trkpt>
      <trkpt lat="45.55085" lon="6.76345">
        <ele>1611</ele>
        <time>2013-02-09T09:10:52Z</time>
      </trkpt>
      <trkpt lat="45.55065" lon="6.76369">
        <ele>1617</ele>
        <time>2013-02-09T09:10:52Z</time>
      </trkpt>
      <trkpt lat="45.55062" lon="6.76395">
        <ele>1620</ele>
        <time>2013-02-09T09:10:57Z</time>
      </trkpt>
      <trkpt lat="45.55058" lon="6.76418">
        <ele>1632</ele>
        <time>2013-02-09T09:11:02Z</time>
      </trkpt>
      <trkpt lat="45.55055" lon="6.76441">
        <ele>1634</ele>
        <time>2013-02-09T09:11:07Z</time>
      </trkpt>
      <trkpt lat="45.5505" lon="6.76474">
        <ele>1639</ele>
        <time>2013-02-09T09:11:14Z</time>
      </trkpt>
      <trkpt lat="45.55048" lon="6.76489">
        <ele>1640</ele>
        <time>2013-02-09T09:11:17Z</time>
      </trkpt>
      <trkpt lat="45.55045" lon="6.76504">
        <ele>1651</ele>
        <time>2013-02-09T09:11:20Z</time>
      </trkpt>
      <trkpt lat="45.55043" lon="6.76518">
        <ele>1652</ele>
        <time>2013-02-09T09:11:23Z</time>
      </trkpt>
      <trkpt lat="45.55041" lon="6.76533">
        <ele>1653</ele>
        <time>2013-02-09T09:11:26Z</time>
      </trkpt>
      <trkpt lat="45.55039" lon="6.76547">
        <ele>1655</ele>
        <time>2013-02-09T09:11:29Z</time>
      </trkpt>
      <trkpt lat="45.55033" lon="6.7658">
        <ele>1657</ele>
        <time>2013-02-09T09:11:36Z</time>
      </trkpt>
      <trkpt lat="45.55028" lon="6.76616">
        <ele>1670</ele>
        <time>2013-02-09T09:11:43Z</time>
      </trkpt>
      <trkpt lat="45.55023" lon="6.76644">
        <ele>1673</ele>
        <time>2013-02-09T09:11:49Z</time>
      </trkpt>
      <trkpt lat="45.55021" lon="6.76659">
        <ele>1674</ele>
        <time>2013-02-09T09:11:52Z</time>
      </trkpt>
      <trkpt lat="45.55016" lon="6.76692">
        <ele>1688</ele>
        <time>2013-02-09T09:11:59Z</time>
      </trkpt>
      <trkpt lat="45.55012" lon="6.7672">
        <ele>1693</ele>
        <time>2013-02-09T09:12:05Z</time>
      </trkpt>
      <trkpt lat="45.55008" lon="6.76748">
        <ele>1697</ele>
        <time>2013-02-09T09:12:11Z</time>
      </trkpt>
      <trkpt lat="45.55005" lon="6.76777">
        <ele>1712</ele>
        <time>2013-02-09T09:12:17Z</time>
      </trkpt>
      <trkpt lat="45.55002" lon="6.76801">
        <ele>1718</ele>
        <time>2013-02-09T09:12:22Z</time>
      </trkpt>
      <trkpt lat="45.54996" lon="6.7683">
        <ele>1722</ele>
        <time>2013-02-09T09:12:28Z</time>
      </trkpt>
      <trkpt lat="45.54992" lon="6.76857">
        <ele>1732</ele>
        <time>2013-02-09T09:12:34Z</time>
      </trkpt>
      <trkpt lat="45.54989" lon="6.76885">
        <ele>1738</ele>
        <time>2013-02-09T09:12:41Z</time>
      </trkpt>
      <trkpt lat="45.54984" lon="6.7693">
        <ele>1759</ele>
        <time>2013-02-09T09:12:49Z</time>
      </trkpt>
      <trkpt lat="45.54982" lon="6.76961">
        <ele>1766</ele>
        <time>2013-02-09T09:12:55Z</time>
      </trkpt>
      <trkpt lat="45.54978" lon="6.76984">
        <ele>1772</ele>
        <time>2013-02-09T09:13:00Z</time>
      </trkpt>
      <trkpt lat="45.54968" lon="6.77016">
        <ele>1791</ele>
        <time>2013-02-09T09:13:07Z</time>
      </trkpt>
      <trkpt lat="45.54974" lon="6.77052">
        <ele>1798</ele>
        <time>2013-02-09T09:13:14Z</time>
      </trkpt>
      <trkpt lat="45.54978" lon="6.7708">
        <ele>1805</ele>
        <time>2013-02-09T09:13:20Z</time>
      </trkpt>
      <trkpt lat="45.54971" lon="6.77117">
        <ele>1823</ele>
        <time>2013-02-09T09:13:29Z</time>
      </trkpt>
      <trkpt lat="45.54966" lon="6.77141">
        <ele>1826</ele>
        <time>2013-02-09T09:13:34Z</time>
      </trkpt>
      <trkpt lat="45.54971" lon="6.77178">
        <ele>1848</ele>
        <time>2013-02-09T09:13:41Z</time>
      </trkpt>
      <trkpt lat="45.54965" lon="6.77225">
        <ele>1854</ele>
        <time>2013-02-09T09:13:51Z</time>
      </trkpt>
      <trkpt lat="45.54952" lon="6.77266">
        <ele>1872</ele>
        <time>2013-02-09T09:13:59Z</time>
      </trkpt>
      <trkpt lat="45.54931" lon="6.77298">
        <ele>1876</ele>
        <time>2013-02-09T09:14:05Z</time>
      </trkpt>
      <trkpt lat="45.54924" lon="6.77311">
        <ele>1879</ele>
        <time>2013-02-09T09:14:08Z</time>
      </trkpt>
      <trkpt lat="45.54918" lon="6.77341">
        <ele>1888</ele>
        <time>2013-02-09T09:14:14Z</time>
      </trkpt>
      <trkpt lat="45.54914" lon="6.77363">
        <ele>1890</ele>
        <time>2013-02-09T09:14:19Z</time>
      </trkpt>
      <trkpt lat="45.54908" lon="6.77405">
        <ele>1898</ele>
        <time>2013-02-09T09:14:27Z</time>
      </trkpt>
      <trkpt lat="45.54902" lon="6.77432">
        <ele>1908</ele>
        <time>2013-02-09T09:14:33Z</time>
      </trkpt>
      <trkpt lat="45.54897" lon="6.7746">
        <ele>1912</ele>
        <time>2013-02-09T09:14:40Z</time>
      </trkpt>
      <trkpt lat="45.5489" lon="6.77506">
        <ele>1927</ele>
        <time>2013-02-09T09:14:49Z</time>
      </trkpt>
      <trkpt lat="45.54885" lon="6.77538">
        <ele>1931</ele>
        <time>2013-02-09T09:14:55Z</time>
      </trkpt>
      <trkpt lat="45.54879" lon="6.77559">
        <ele>1934</ele>
        <time>2013-02-09T09:15:01Z</time>
      </trkpt>
      <trkpt lat="45.54877" lon="6.77591">
        <ele>1951</ele>
        <time>2013-02-09T09:15:07Z</time>
      </trkpt>
      <trkpt lat="45.54873" lon="6.77624">
        <ele>1956</ele>
        <time>2013-02-09T09:15:14Z</time>
      </trkpt>
      <trkpt lat="45.54865" lon="6.77647">
        <ele>1961</ele>
        <time>2013-02-09T09:15:20Z</time>
      </trkpt>
      <trkpt lat="45.54862" lon="6.77684">
        <ele>1980</ele>
        <time>2013-02-09T09:15:27Z</time>
      </trkpt>
      <trkpt lat="45.54857" lon="6.77721">
        <ele>1986</ele>
        <time>2013-02-09T09:15:35Z</time>
      </trkpt>
      <trkpt lat="45.54854" lon="6.77758">
        <ele>2001</ele>
        <time>2013-02-09T09:15:42Z</time>
      </trkpt>
      <trkpt lat="45.54846" lon="6.77787">
        <ele>2004</ele>
        <time>2013-02-09T09:15:49Z</time>
      </trkpt>
      <trkpt lat="45.54841" lon="6.77824">
        <ele>2011</ele>
        <time>2013-02-09T09:15:56Z</time>
      </trkpt>
      <trkpt lat="45.54838" lon="6.77842">
        <ele>2016</ele>
        <time>2013-02-09T09:16:00Z</time>
      </trkpt>
      <trkpt lat="45.54834" lon="6.77868">
        <ele>2016</ele>
        <time>2013-02-09T09:16:05Z</time>
      </trkpt>
      <trkpt lat="45.5483" lon="6.77898">
        <ele>2021</ele>
        <time>2013-02-09T09:16:11Z</time>
      </trkpt>
      <trkpt lat="45.54824" lon="6.77933">
        <ele>2026</ele>
        <time>2013-02-09T09:16:18Z</time>
      </trkpt>
      <trkpt lat="45.5482" lon="6.77963">
        <ele>2028</ele>
        <time>2013-02-09T09:16:24Z</time>
      </trkpt>
      <trkpt lat="45.54815" lon="6.77989">
        <ele>2029</ele>
        <time>2013-02-09T09:16:29Z</time>
      </trkpt>
      <trkpt lat="45.54809" lon="6.78028">
        <ele>2037</ele>
        <time>2013-02-09T09:16:37Z</time>
      </trkpt>
      <trkpt lat="45.54803" lon="6.78067">
        <ele>2041</ele>
        <time>2013-02-09T09:16:45Z</time>
      </trkpt>
      <trkpt lat="45.54799" lon="6.78088">
        <ele>2050</ele>
        <time>2013-02-09T09:16:51Z</time>
      </trkpt>
      <trkpt lat="45.54792" lon="6.78134">
        <ele>2054</ele>
        <time>2013-02-09T09:16:59Z</time>
      </trkpt>
      <trkpt lat="45.54787" lon="6.78166">
        <ele>2056</ele>
        <time>2013-02-09T09:17:05Z</time>
      </trkpt>
      <trkpt lat="45.54783" lon="6.78191">
        <ele>2064</ele>
        <time>2013-02-09T09:17:10Z</time>
      </trkpt>
      <trkpt lat="45.54781" lon="6.78206">
        <ele>2065</ele>
        <time>2013-02-09T09:17:13Z</time>
      </trkpt>
      <trkpt lat="45.54778" lon="6.78221">
        <ele>2066</ele>
        <time>2013-02-09T09:17:16Z</time>
      </trkpt>
      <trkpt lat="45.54776" lon="6.78241">
        <ele>2067</ele>
        <time>2013-02-09T09:17:20Z</time>
      </trkpt>
      <trkpt lat="45.54772" lon="6.78267">
        <ele>2073</ele>
        <time>2013-02-09T09:17:25Z</time>
      </trkpt>
      <trkpt lat="45.54767" lon="6.78291">
        <ele>2074</ele>
        <time>2013-02-09T09:17:30Z</time>
      </trkpt>
      <trkpt lat="45.54744" lon="6.78327">
        <ele>2078</ele>
        <time>2013-02-09T09:17:37Z</time>
      </trkpt>
      <trkpt lat="45.54743" lon="6.78358">
        <ele>2078</ele>
        <time>2013-02-09T09:17:44Z</time>
      </trkpt>
      <trkpt lat="45.54773" lon="6.78351">
        <ele>2082</ele>
        <time>2013-02-09T09:17:53Z</time>
      </trkpt>
      <trkpt lat="45.54799" lon="6.78344">
        <ele>2081</ele>
        <time>2013-02-09T09:18:05Z</time>
      </trkpt>
      <trkpt lat="45.54821" lon="6.78334">
        <ele>2078</ele>
        <time>2013-02-09T09:18:12Z</time>
      </trkpt>
      <trkpt lat="45.54831" lon="6.78329">
        <ele>2075</ele>
        <time>2013-02-09T09:18:18Z</time>
      </trkpt>
      <trkpt lat="45.54831" lon="6.78329">
        <ele>2075</ele>
        <time>2013-02-09T09:18:26Z</time>
      </trkpt>
      <trkpt lat="45.54831" lon="6.78329">
        <ele>2075</ele>
        <time>2013-02-09T09:18:26Z</time>
      </trkpt>
      <trkpt lat="45.54831" lon="6.78329">
        <ele>2075</ele>
        <time>2013-02-09T09:18:40Z</time>
      </trkpt>
      <trkpt lat="45.54846" lon="6.78323">
        <ele>2071</ele>
        <time>2013-02-09T09:18:40Z</time>
      </trkpt>
      <trkpt lat="45.5487" lon="6.783">
        <ele>2067</ele>
        <time>2013-02-09T09:18:45Z</time>
      </trkpt>
      <trkpt lat="45.54909" lon="6.78241">
        <ele>2056</ele>
        <time>2013-02-09T09:18:50Z</time>
      </trkpt>
      <trkpt lat="45.54936" lon="6.78207">
        <ele>2047</ele>
        <time>2013-02-09T09:18:53Z</time>
      </trkpt>
      <trkpt lat="45.54974" lon="6.78146">
        <ele>2035</ele>
        <time>2013-02-09T09:18:58Z</time>
      </trkpt>
      <trkpt lat="45.54998" lon="6.78104">
        <ele>2032</ele>
        <time>2013-02-09T09:19:01Z</time>
      </trkpt>
      <trkpt lat="45.5504" lon="6.78058">
        <ele>2020</ele>
        <time>2013-02-09T09:19:07Z</time>
      </trkpt>
      <trkpt lat="45.55091" lon="6.77987">
        <ele>2000</ele>
        <time>2013-02-09T09:19:13Z</time>
      </trkpt>
      <trkpt lat="45.55209" lon="6.77994">
        <ele>1983</ele>
        <time>2013-02-09T09:19:24Z</time>
      </trkpt>
      <trkpt lat="45.55223" lon="6.77992">
        <ele>1982</ele>
        <time>2013-02-09T09:19:30Z</time>
      </trkpt>
      <trkpt lat="45.55223" lon="6.77961">
        <ele>1978</ele>
        <time>2013-02-09T09:19:33Z</time>
      </trkpt>
      <trkpt lat="45.55226" lon="6.77919">
        <ele>1973</ele>
        <time>2013-02-09T09:19:36Z</time>
      </trkpt>
      <trkpt lat="45.55246" lon="6.77849">
        <ele>1954</ele>
        <time>2013-02-09T09:19:41Z</time>
      </trkpt>
      <trkpt lat="45.55288" lon="6.77775">
        <ele>1937</ele>
        <time>2013-02-09T09:19:46Z</time>
      </trkpt>
      <trkpt lat="45.55339" lon="6.77684">
        <ele>1910</ele>
        <time>2013-02-09T09:19:52Z</time>
      </trkpt>
      <trkpt lat="45.55378" lon="6.77613">
        <ele>1897</ele>
        <time>2013-02-09T09:19:57Z</time>
      </trkpt>
      <trkpt lat="45.55405" lon="6.7755">
        <ele>1881</ele>
        <time>2013-02-09T09:20:03Z</time>
      </trkpt>
      <trkpt lat="45.55416" lon="6.77486">
        <ele>1866</ele>
        <time>2013-02-09T09:20:08Z</time>
      </trkpt>
      <trkpt lat="45.55444" lon="6.77391">
        <ele>1841</ele>
        <time>2013-02-09T09:20:15Z</time>
      </trkpt>
      <trkpt lat="45.55462" lon="6.77332">
        <ele>1822</ele>
        <time>2013-02-09T09:20:20Z</time>
      </trkpt>
      <trkpt lat="45.55475" lon="6.77301">
        <ele>1818</ele>
        <time>2013-02-09T09:20:23Z</time>
      </trkpt>
      <trkpt lat="45.55485" lon="6.77238">
        <ele>1799</ele>
        <time>2013-02-09T09:20:29Z</time>
      </trkpt>
      <trkpt lat="45.55513" lon="6.77185">
        <ele>1781</ele>
        <time>2013-02-09T09:20:34Z</time>
      </trkpt>
      <trkpt lat="45.55537" lon="6.77105">
        <ele>1759</ele>
        <time>2013-02-09T09:20:40Z</time>
      </trkpt>
      <trkpt lat="45.55563" lon="6.77024">
        <ele>1734</ele>
        <time>2013-02-09T09:20:46Z</time>
      </trkpt>
      <trkpt lat="45.55533" lon="6.76935">
        <ele>1715</ele>
        <time>2013-02-09T09:20:53Z</time>
      </trkpt>
      <trkpt lat="45.55514" lon="6.76837">
        <ele>1691</ele>
        <time>2013-02-09T09:20:59Z</time>
      </trkpt>
      <trkpt lat="45.55505" lon="6.76785">
        <ele>1675</ele>
        <time>2013-02-09T09:21:02Z</time>
      </trkpt>
      <trkpt lat="45.55496" lon="6.76751">
        <ele>1673</ele>
        <time>2013-02-09T09:21:05Z</time>
      </trkpt>
      <trkpt lat="45.55498" lon="6.7669">
        <ele>1663</ele>
        <time>2013-02-09T09:21:11Z</time>
      </trkpt>
      <trkpt lat="45.55516" lon="6.76685">
        <ele>1653</ele>
        <time>2013-02-09T09:21:16Z</time>
      </trkpt>
      <trkpt lat="45.55539" lon="6.76647">
        <ele>1639</ele>
        <time>2013-02-09T09:21:21Z</time>
      </trkpt>
      <trkpt lat="45.55569" lon="6.7657">
        <ele>1623</ele>
        <time>2013-02-09T09:21:27Z</time>
      </trkpt>
      <trkpt lat="45.55563" lon="6.76488">
        <ele>1608</ele>
        <time>2013-02-09T09:21:33Z</time>
      </trkpt>
      <trkpt lat="45.55549" lon="6.7649">
        <ele>1608</ele>
        <time>2013-02-09T09:21:39Z</time>
      </trkpt>
      <trkpt lat="45.55546" lon="6.76503">
        <ele>1618</ele>
        <time>2013-02-09T09:21:47Z</time>
      </trkpt>
      <trkpt lat="45.55546" lon="6.76511">
        <ele>1618</ele>
        <time>2013-02-09T09:21:51Z</time>
      </trkpt>
      <trkpt lat="45.55546" lon="6.76511">
        <ele>1618</ele>
        <time>2013-02-09T09:21:59Z</time>
      </trkpt>
      <trkpt lat="45.55546" lon="6.76511">
        <ele>1618</ele>
        <time>2013-02-09T09:22:03Z</time>
      </trkpt>
      <trkpt lat="45.5554" lon="6.76518">
        <ele>1619</ele>
        <time>2013-02-09T09:22:03Z</time>
      </trkpt>
      <trkpt lat="45.55525" lon="6.76579">
        <ele>1625</ele>
        <time>2013-02-09T09:22:14Z</time>
      </trkpt>
      <trkpt lat="45.55517" lon="6.76619">
        <ele>1637</ele>
        <time>2013-02-09T09:22:21Z</time>
      </trkpt>
      <trkpt lat="45.55517" lon="6.76648">
        <ele>1641</ele>
        <time>2013-02-09T09:22:26Z</time>
      </trkpt>
      <trkpt lat="45.55514" lon="6.76678">
        <ele>1652</ele>
        <time>2013-02-09T09:22:32Z</time>
      </trkpt>
      <trkpt lat="45.55503" lon="6.76709">
        <ele>1656</ele>
        <time>2013-02-09T09:22:38Z</time>
      </trkpt>
      <trkpt lat="45.55495" lon="6.76735">
        <ele>1670</ele>
        <time>2013-02-09T09:22:43Z</time>
      </trkpt>
      <trkpt lat="45.55488" lon="6.76762">
        <ele>1681</ele>
        <time>2013-02-09T09:22:48Z</time>
      </trkpt>
      <trkpt lat="45.55488" lon="6.76791">
        <ele>1689</ele>
        <time>2013-02-09T09:22:53Z</time>
      </trkpt>
      <trkpt lat="45.5548" lon="6.76833">
        <ele>1692</ele>
        <time>2013-02-09T09:23:00Z</time>
      </trkpt>
      <trkpt lat="45.55458" lon="6.76881">
        <ele>1717</ele>
        <time>2013-02-09T09:23:08Z</time>
      </trkpt>
      <trkpt lat="45.55478" lon="6.76949">
        <ele>1733</ele>
        <time>2013-02-09T09:23:24Z</time>
      </trkpt>
      <trkpt lat="45.55467" lon="6.7698">
        <ele>1738</ele>
        <time>2013-02-09T09:23:30Z</time>
      </trkpt>
      <trkpt lat="45.55463" lon="6.77013">
        <ele>1754</ele>
        <time>2013-02-09T09:23:35Z</time>
      </trkpt>
      <trkpt lat="45.55445" lon="6.77041">
        <ele>1761</ele>
        <time>2013-02-09T09:23:42Z</time>
      </trkpt>
      <trkpt lat="45.55428" lon="6.77067">
        <ele>1769</ele>
        <time>2013-02-09T09:23:48Z</time>
      </trkpt>
      <trkpt lat="45.55412" lon="6.77082">
        <ele>1783</ele>
        <time>2013-02-09T09:23:51Z</time>
      </trkpt>
      <trkpt lat="45.55403" lon="6.77101">
        <ele>1794</ele>
        <time>2013-02-09T09:23:54Z</time>
      </trkpt>
      <trkpt lat="45.55392" lon="6.7712">
        <ele>1799</ele>
        <time>2013-02-09T09:23:58Z</time>
      </trkpt>
      <trkpt lat="45.55385" lon="6.77143">
        <ele>1802</ele>
        <time>2013-02-09T09:24:06Z</time>
      </trkpt>
      <trkpt lat="45.5538" lon="6.7718">
        <ele>1814</ele>
        <time>2013-02-09T09:24:13Z</time>
      </trkpt>
      <trkpt lat="45.55371" lon="6.77206">
        <ele>1818</ele>
        <time>2013-02-09T09:24:19Z</time>
      </trkpt>
      <trkpt lat="45.55361" lon="6.77236">
        <ele>1821</ele>
        <time>2013-02-09T09:24:25Z</time>
      </trkpt>
      <trkpt lat="45.55356" lon="6.77261">
        <ele>1832</ele>
        <time>2013-02-09T09:24:31Z</time>
      </trkpt>
      <trkpt lat="45.55341" lon="6.77312">
        <ele>1837</ele>
        <time>2013-02-09T09:24:40Z</time>
      </trkpt>
      <trkpt lat="45.55328" lon="6.77348">
        <ele>1849</ele>
        <time>2013-02-09T09:24:48Z</time>
      </trkpt>
      <trkpt lat="45.55314" lon="6.77388">
        <ele>1855</ele>
        <time>2013-02-09T09:24:55Z</time>
      </trkpt>
      <trkpt lat="45.55308" lon="6.77413">
        <ele>1856</ele>
        <time>2013-02-09T09:25:00Z</time>
      </trkpt>
      <trkpt lat="45.55299" lon="6.77449">
        <ele>1868</ele>
        <time>2013-02-09T09:25:06Z</time>
      </trkpt>
      <trkpt lat="45.55281" lon="6.77493">
        <ele>1873</ele>
        <time>2013-02-09T09:25:14Z</time>
      </trkpt>
      <trkpt lat="45.55306" lon="6.77577">
        <ele>1891</ele>
        <time>2013-02-09T09:25:22Z</time>
      </trkpt>
      <trkpt lat="45.55277" lon="6.77588">
        <ele>1903</ele>
        <time>2013-02-09T09:25:29Z</time>
      </trkpt>
      <trkpt lat="45.55257" lon="6.7767">
        <ele>1920</ele>
        <time>2013-02-09T09:25:39Z</time>
      </trkpt>
      <trkpt lat="45.55249" lon="6.77678">
        <ele>1923</ele>
        <time>2013-02-09T09:25:44Z</time>
      </trkpt>
      <trkpt lat="45.55231" lon="6.77699">
        <ele>1928</ele>
        <time>2013-02-09T09:25:50Z</time>
      </trkpt>
      <trkpt lat="45.55225" lon="6.77721">
        <ele>1931</ele>
        <time>2013-02-09T09:25:57Z</time>
      </trkpt>
      <trkpt lat="45.55224" lon="6.77757">
        <ele>1942</ele>
        <time>2013-02-09T09:26:03Z</time>
      </trkpt>
      <trkpt lat="45.55217" lon="6.77786">
        <ele>1945</ele>
        <time>2013-02-09T09:26:09Z</time>
      </trkpt>
      <trkpt lat="45.55214" lon="6.77813">
        <ele>1947</ele>
        <time>2013-02-09T09:26:13Z</time>
      </trkpt>
      <trkpt lat="45.55206" lon="6.77825">
        <ele>1948</ele>
        <time>2013-02-09T09:26:18Z</time>
      </trkpt>
      <trkpt lat="45.55194" lon="6.77863">
        <ele>1960</ele>
        <time>2013-02-09T09:26:26Z</time>
      </trkpt>
      <trkpt lat="45.55185" lon="6.77895">
        <ele>1964</ele>
        <time>2013-02-09T09:26:32Z</time>
      </trkpt>
      <trkpt lat="45.55178" lon="6.77931">
        <ele>1975</ele>
        <time>2013-02-09T09:26:39Z</time>
      </trkpt>
      <trkpt lat="45.55175" lon="6.78024">
        <ele>1997</ele>
        <time>2013-02-09T09:27:03Z</time>
      </trkpt>
      <trkpt lat="45.55151" lon="6.78066">
        <ele>2011</ele>
        <time>2013-02-09T09:27:10Z</time>
      </trkpt>
      <trkpt lat="45.55131" lon="6.78101">
        <ele>2021</ele>
        <time>2013-02-09T09:27:16Z</time>
      </trkpt>
      <trkpt lat="45.55123" lon="6.78128">
        <ele>2023</ele>
        <time>2013-02-09T09:27:21Z</time>
      </trkpt>
      <trkpt lat="45.55114" lon="6.78219">
        <ele>2036</ele>
        <time>2013-02-09T09:27:39Z</time>
      </trkpt>
      <trkpt lat="45.55097" lon="6.7824">
        <ele>2038</ele>
        <time>2013-02-09T09:27:44Z</time>
      </trkpt>
      <trkpt lat="45.55089" lon="6.78256">
        <ele>2044</ele>
        <time>2013-02-09T09:27:47Z</time>
      </trkpt>
      <trkpt lat="45.5507" lon="6.78291">
        <ele>2049</ele>
        <time>2013-02-09T09:27:54Z</time>
      </trkpt>
      <trkpt lat="45.55062" lon="6.78325">
        <ele>2052</ele>
        <time>2013-02-09T09:28:01Z</time>
      </trkpt>
      <trkpt lat="45.55045" lon="6.7836">
        <ele>2064</ele>
        <time>2013-02-09T09:28:08Z</time>
      </trkpt>
      <trkpt lat="45.5504" lon="6.78383">
        <ele>2066</ele>
        <time>2013-02-09T09:28:13Z</time>
      </trkpt>
      <trkpt lat="45.55033" lon="6.78413">
        <ele>2069</ele>
        <time>2013-02-09T09:28:19Z</time>
      </trkpt>
      <trkpt lat="45.55023" lon="6.78444">
        <ele>2083</ele>
        <time>2013-02-09T09:28:25Z</time>
      </trkpt>
      <trkpt lat="45.55012" lon="6.78474">
        <ele>2088</ele>
        <time>2013-02-09T09:28:31Z</time>
      </trkpt>
      <trkpt lat="45.55003" lon="6.78509">
        <ele>2100</ele>
        <time>2013-02-09T09:28:38Z</time>
      </trkpt>
      <trkpt lat="45.54996" lon="6.7854">
        <ele>2107</ele>
        <time>2013-02-09T09:28:45Z</time>
      </trkpt>
      <trkpt lat="45.5499" lon="6.7857">
        <ele>2111</ele>
        <time>2013-02-09T09:28:50Z</time>
      </trkpt>
      <trkpt lat="45.5498" lon="6.78595">
        <ele>2120</ele>
        <time>2013-02-09T09:28:55Z</time>
      </trkpt>
      <trkpt lat="45.54976" lon="6.78618">
        <ele>2123</ele>
        <time>2013-02-09T09:28:59Z</time>
      </trkpt>
      <trkpt lat="45.54968" lon="6.78645">
        <ele>2126</ele>
        <time>2013-02-09T09:29:05Z</time>
      </trkpt>
      <trkpt lat="45.54956" lon="6.78692">
        <ele>2139</ele>
        <time>2013-02-09T09:29:14Z</time>
      </trkpt>
      <trkpt lat="45.54945" lon="6.78731">
        <ele>2145</ele>
        <time>2013-02-09T09:29:21Z</time>
      </trkpt>
      <trkpt lat="45.54936" lon="6.78759">
        <ele>2157</ele>
        <time>2013-02-09T09:29:26Z</time>
      </trkpt>
      <trkpt lat="45.54931" lon="6.78786">
        <ele>2160</ele>
        <time>2013-02-09T09:29:32Z</time>
      </trkpt>
      <trkpt lat="45.54923" lon="6.78817">
        <ele>2166</ele>
        <time>2013-02-09T09:29:39Z</time>
      </trkpt>
      <trkpt lat="45.54908" lon="6.78857">
        <ele>2180</ele>
        <time>2013-02-09T09:29:47Z</time>
      </trkpt>
      <trkpt lat="45.54914" lon="6.78886">
        <ele>2184</ele>
        <time>2013-02-09T09:29:52Z</time>
      </trkpt>
      <trkpt lat="45.54905" lon="6.78915">
        <ele>2188</ele>
        <time>2013-02-09T09:29:58Z</time>
      </trkpt>
      <trkpt lat="45.5489" lon="6.7895">
        <ele>2199</ele>
        <time>2013-02-09T09:30:05Z</time>
      </trkpt>
      <trkpt lat="45.54877" lon="6.78977">
        <ele>2202</ele>
        <time>2013-02-09T09:30:11Z</time>
      </trkpt>
      <trkpt lat="45.54868" lon="6.79011">
        <ele>2217</ele>
        <time>2013-02-09T09:30:18Z</time>
      </trkpt>
      <trkpt lat="45.54863" lon="6.79035">
        <ele>2220</ele>
        <time>2013-02-09T09:30:23Z</time>
      </trkpt>
      <trkpt lat="45.54851" lon="6.79072">
        <ele>2227</ele>
        <time>2013-02-09T09:30:31Z</time>
      </trkpt>
      <trkpt lat="45.54846" lon="6.79103">
        <ele>2240</ele>
        <time>2013-02-09T09:30:37Z</time>
      </trkpt>
      <trkpt lat="45.54832" lon="6.7914">
        <ele>2248</ele>
        <time>2013-02-09T09:30:44Z</time>
      </trkpt>
      <trkpt lat="45.54826" lon="6.79166">
        <ele>2254</ele>
        <time>2013-02-09T09:30:49Z</time>
      </trkpt>
      <trkpt lat="45.54817" lon="6.79193">
        <ele>2265</ele>
        <time>2013-02-09T09:30:55Z</time>
      </trkpt>
      <trkpt lat="45.54805" lon="6.79225">
        <ele>2269</ele>
        <time>2013-02-09T09:31:04Z</time>
      </trkpt>
      <trkpt lat="45.54805" lon="6.79225">
        <ele>2269</ele>
        <time>2013-02-09T09:31:09Z</time>
      </trkpt>
      <trkpt lat="45.54805" lon="6.79225">
        <ele>2269</ele>
        <time>2013-02-09T09:31:10Z</time>
      </trkpt>
      <trkpt lat="45.54805" lon="6.79225">
        <ele>2269</ele>
        <time>2013-02-09T09:31:45Z</time>
      </trkpt>
      <trkpt lat="45.54835" lon="6.79233">
        <ele>2268</ele>
        <time>2013-02-09T09:31:45Z</time>
      </trkpt>
      <trkpt lat="45.54849" lon="6.79221">
        <ele>2264</ele>
        <time>2013-02-09T09:31:48Z</time>
      </trkpt>
      <trkpt lat="45.54892" lon="6.79189">
        <ele>2257</ele>
        <time>2013-02-09T09:31:54Z</time>
      </trkpt>
      <trkpt lat="45.54936" lon="6.79139">
        <ele>2232</ele>
        <time>2013-02-09T09:32:00Z</time>
      </trkpt>
      <trkpt lat="45.54971" lon="6.79092">
        <ele>2222</ele>
        <time>2013-02-09T09:32:05Z</time>
      </trkpt>
      <trkpt lat="45.55009" lon="6.79051">
        <ele>2198</ele>
        <time>2013-02-09T09:32:10Z</time>
      </trkpt>
      <trkpt lat="45.55061" lon="6.79003">
        <ele>2188</ele>
        <time>2013-02-09T09:32:16Z</time>
      </trkpt>
      <trkpt lat="45.5509" lon="6.78972">
        <ele>2170</ele>
        <time>2013-02-09T09:32:20Z</time>
      </trkpt>
      <trkpt lat="45.5509" lon="6.78972">
        <ele>2170</ele>
        <time>2013-02-09T09:32:25Z</time>
      </trkpt>
      <trkpt lat="45.5509" lon="6.78972">
        <ele>2170</ele>
        <time>2013-02-09T09:32:40Z</time>
      </trkpt>
      <trkpt lat="45.55108" lon="6.78957">
        <ele>2166</ele>
        <time>2013-02-09T09:32:40Z</time>
      </trkpt>
      <trkpt lat="45.55144" lon="6.78922">
        <ele>2159</ele>
        <time>2013-02-09T09:32:47Z</time>
      </trkpt>
      <trkpt lat="45.55194" lon="6.78842">
        <ele>2138</ele>
        <time>2013-02-09T09:32:54Z</time>
      </trkpt>
      <trkpt lat="45.55212" lon="6.78781">
        <ele>2124</ele>
        <time>2013-02-09T09:32:59Z</time>
      </trkpt>
      <trkpt lat="45.55235" lon="6.78689">
        <ele>2106</ele>
        <time>2013-02-09T09:33:05Z</time>
      </trkpt>
      <trkpt lat="45.55231" lon="6.78615">
        <ele>2096</ele>
        <time>2013-02-09T09:33:10Z</time>
      </trkpt>
      <trkpt lat="45.55223" lon="6.78558">
        <ele>2089</ele>
        <time>2013-02-09T09:33:15Z</time>
      </trkpt>
      <trkpt lat="45.55219" lon="6.78518">
        <ele>2088</ele>
        <time>2013-02-09T09:33:18Z</time>
      </trkpt>
      <trkpt lat="45.55221" lon="6.78483">
        <ele>2080</ele>
        <time>2013-02-09T09:33:21Z</time>
      </trkpt>
      <trkpt lat="45.55207" lon="6.78401">
        <ele>2065</ele>
        <time>2013-02-09T09:33:27Z</time>
      </trkpt>
      <trkpt lat="45.55185" lon="6.7828">
        <ele>2044</ele>
        <time>2013-02-09T09:33:33Z</time>
      </trkpt>
      <trkpt lat="45.55211" lon="6.78183">
        <ele>2025</ele>
        <time>2013-02-09T09:33:38Z</time>
      </trkpt>
      <trkpt lat="45.55235" lon="6.78127">
        <ele>2011</ele>
        <time>2013-02-09T09:33:41Z</time>
      </trkpt>
      <trkpt lat="45.55245" lon="6.78063">
        <ele>1997</ele>
        <time>2013-02-09T09:33:46Z</time>
      </trkpt>
      <trkpt lat="45.55237" lon="6.77972">
        <ele>1980</ele>
        <time>2013-02-09T09:33:54Z</time>
      </trkpt>
      <trkpt lat="45.55239" lon="6.77881">
        <ele>1960</ele>
        <time>2013-02-09T09:34:00Z</time>
      </trkpt>
      <trkpt lat="45.55243" lon="6.77778">
        <ele>1942</ele>
        <time>2013-02-09T09:34:05Z</time>
      </trkpt>
      <trkpt lat="45.55284" lon="6.77693">
        <ele>1920</ele>
        <time>2013-02-09T09:34:11Z</time>
      </trkpt>
      <trkpt lat="45.55311" lon="6.77653">
        <ele>1906</ele>
        <time>2013-02-09T09:34:14Z</time>
      </trkpt>
      <trkpt lat="45.55341" lon="6.77618">
        <ele>1898</ele>
        <time>2013-02-09T09:34:17Z</time>
      </trkpt>
      <trkpt lat="45.55378" lon="6.77561">
        <ele>1883</ele>
        <time>2013-02-09T09:34:22Z</time>
      </trkpt>
      <trkpt lat="45.55422" lon="6.77442">
        <ele>1857</ele>
        <time>2013-02-09T09:34:31Z</time>
      </trkpt>
      <trkpt lat="45.55433" lon="6.77346">
        <ele>1837</ele>
        <time>2013-02-09T09:34:36Z</time>
      </trkpt>
      <trkpt lat="45.55443" lon="6.77298">
        <ele>1821</ele>
        <time>2013-02-09T09:34:39Z</time>
      </trkpt>
      <trkpt lat="45.55446" lon="6.77245">
        <ele>1804</ele>
        <time>2013-02-09T09:34:42Z</time>
      </trkpt>
      <trkpt lat="45.55483" lon="6.77176">
        <ele>1788</ele>
        <time>2013-02-09T09:34:48Z</time>
      </trkpt>
      <trkpt lat="45.55517" lon="6.77097">
        <ele>1759</ele>
        <time>2013-02-09T09:34:54Z</time>
      </trkpt>
      <trkpt lat="45.55553" lon="6.76993">
        <ele>1720</ele>
        <time>2013-02-09T09:35:01Z</time>
      </trkpt>
      <trkpt lat="45.55534" lon="6.76898">
        <ele>1700</ele>
        <time>2013-02-09T09:35:06Z</time>
      </trkpt>
      <trkpt lat="45.55513" lon="6.76851">
        <ele>1693</ele>
        <time>2013-02-09T09:35:09Z</time>
      </trkpt>
      <trkpt lat="45.55489" lon="6.76729">
        <ele>1671</ele>
        <time>2013-02-09T09:35:15Z</time>
      </trkpt>
      <trkpt lat="45.55467" lon="6.76614">
        <ele>1650</ele>
        <time>2013-02-09T09:35:21Z</time>
      </trkpt>
      <trkpt lat="45.55472" lon="6.7656">
        <ele>1634</ele>
        <time>2013-02-09T09:35:24Z</time>
      </trkpt>
      <trkpt lat="45.55508" lon="6.76488">
        <ele>1612</ele>
        <time>2013-02-09T09:35:29Z</time>
      </trkpt>
      <trkpt lat="45.55528" lon="6.76431">
        <ele>1605</ele>
        <time>2013-02-09T09:35:33Z</time>
      </trkpt>
      <trkpt lat="45.55528" lon="6.76352">
        <ele>1594</ele>
        <time>2013-02-09T09:35:38Z</time>
      </trkpt>
      <trkpt lat="45.55527" lon="6.76346">
        <ele>1594</ele>
        <time>2013-02-09T09:35:39Z</time>
      </trkpt>
      <trkpt lat="45.55527" lon="6.76346">
        <ele>1594</ele>
        <time>2013-02-09T09:35:45Z</time>
      </trkpt>
      <trkpt lat="45.55527" lon="6.76346">
        <ele>1594</ele>
        <time>2013-02-09T09:35:53Z</time>
      </trkpt>
      <trkpt lat="45.55522" lon="6.76375">
        <ele>1596</ele>
        <time>2013-02-09T09:35:53Z</time>
      </trkpt>
      <trkpt lat="45.55525" lon="6.76386">
        <ele>1596</ele>
        <time>2013-02-09T09:35:56Z</time>
      </trkpt>
      <trkpt lat="45.55525" lon="6.76386">
        <ele>1596</ele>
        <time>2013-02-09T09:36:02Z</time>
      </trkpt>
      <trkpt lat="45.55525" lon="6.76386">
        <ele>1596</ele>
        <time>2013-02-09T09:36:15Z</time>
      </trkpt>
      <trkpt lat="45.55524" lon="6.76413">
        <ele>1599</ele>
        <time>2013-02-09T09:36:15Z</time>
      </trkpt>
      <trkpt lat="45.55525" lon="6.76418">
        <ele>1605</ele>
        <time>2013-02-09T09:36:19Z</time>
      </trkpt>
      <trkpt lat="45.55525" lon="6.76418">
        <ele>1605</ele>
        <time>2013-02-09T09:36:25Z</time>
      </trkpt>
      <trkpt lat="45.55525" lon="6.76418">
        <ele>1605</ele>
        <time>2013-02-09T09:36:28Z</time>
      </trkpt>
      <trkpt lat="45.55519" lon="6.76436">
        <ele>1606</ele>
        <time>2013-02-09T09:36:28Z</time>
      </trkpt>
      <trkpt lat="45.55508" lon="6.76478">
        <ele>1610</ele>
        <time>2013-02-09T09:36:33Z</time>
      </trkpt>
      <trkpt lat="45.55503" lon="6.76499">
        <ele>1615</ele>
        <time>2013-02-09T09:36:36Z</time>
      </trkpt>
      <trkpt lat="45.55497" lon="6.76537">
        <ele>1629</ele>
        <time>2013-02-09T09:36:42Z</time>
      </trkpt>
      <trkpt lat="45.55493" lon="6.76569">
        <ele>1633</ele>
        <time>2013-02-09T09:36:47Z</time>
      </trkpt>
      <trkpt lat="45.5549" lon="6.76587">
        <ele>1639</ele>
        <time>2013-02-09T09:36:50Z</time>
      </trkpt>
      <trkpt lat="45.55484" lon="6.76618">
        <ele>1648</ele>
        <time>2013-02-09T09:36:55Z</time>
      </trkpt>
      <trkpt lat="45.55477" lon="6.76656">
        <ele>1653</ele>
        <time>2013-02-09T09:37:01Z</time>
      </trkpt>
      <trkpt lat="45.55472" lon="6.76687">
        <ele>1668</ele>
        <time>2013-02-09T09:37:06Z</time>
      </trkpt>
      <trkpt lat="45.55467" lon="6.76724">
        <ele>1673</ele>
        <time>2013-02-09T09:37:12Z</time>
      </trkpt>
      <trkpt lat="45.55462" lon="6.7676">
        <ele>1689</ele>
        <time>2013-02-09T09:37:18Z</time>
      </trkpt>
      <trkpt lat="45.55457" lon="6.76787">
        <ele>1693</ele>
        <time>2013-02-09T09:37:23Z</time>
      </trkpt>
      <trkpt lat="45.55451" lon="6.76821">
        <ele>1699</ele>
        <time>2013-02-09T09:37:29Z</time>
      </trkpt>
      <trkpt lat="45.55444" lon="6.76853">
        <ele>1716</ele>
        <time>2013-02-09T09:37:35Z</time>
      </trkpt>
      <trkpt lat="45.55436" lon="6.76886">
        <ele>1723</ele>
        <time>2013-02-09T09:37:42Z</time>
      </trkpt>
      <trkpt lat="45.5543" lon="6.76923">
        <ele>1742</ele>
        <time>2013-02-09T09:37:49Z</time>
      </trkpt>
      <trkpt lat="45.55424" lon="6.76952">
        <ele>1743</ele>
        <time>2013-02-09T09:37:55Z</time>
      </trkpt>
      <trkpt lat="45.55417" lon="6.76983">
        <ele>1752</ele>
        <time>2013-02-09T09:38:01Z</time>
      </trkpt>
      <trkpt lat="45.5541" lon="6.77014">
        <ele>1774</ele>
        <time>2013-02-09T09:38:07Z</time>
      </trkpt>
      <trkpt lat="45.55404" lon="6.77044">
        <ele>1782</ele>
        <time>2013-02-09T09:38:13Z</time>
      </trkpt>
      <trkpt lat="45.55397" lon="6.77073">
        <ele>1785</ele>
        <time>2013-02-09T09:38:19Z</time>
      </trkpt>
      <trkpt lat="45.55388" lon="6.77109">
        <ele>1798</ele>
        <time>2013-02-09T09:38:26Z</time>
      </trkpt>
      <trkpt lat="45.55381" lon="6.77135">
        <ele>1802</ele>
        <time>2013-02-09T09:38:31Z</time>
      </trkpt>
      <trkpt lat="45.55375" lon="6.7716">
        <ele>1804</ele>
        <time>2013-02-09T09:38:36Z</time>
      </trkpt>
      <trkpt lat="45.55366" lon="6.77195">
        <ele>1817</ele>
        <time>2013-02-09T09:38:43Z</time>
      </trkpt>
      <trkpt lat="45.5536" lon="6.7722">
        <ele>1820</ele>
        <time>2013-02-09T09:38:48Z</time>
      </trkpt>
      <trkpt lat="45.55356" lon="6.77235">
        <ele>1822</ele>
        <time>2013-02-09T09:38:51Z</time>
      </trkpt>
      <trkpt lat="45.55351" lon="6.77256">
        <ele>1832</ele>
        <time>2013-02-09T09:38:55Z</time>
      </trkpt>
      <trkpt lat="45.55339" lon="6.77298">
        <ele>1835</ele>
        <time>2013-02-09T09:39:03Z</time>
      </trkpt>
      <trkpt lat="45.55331" lon="6.77328">
        <ele>1844</ele>
        <time>2013-02-09T09:39:09Z</time>
      </trkpt>
      <trkpt lat="45.5532" lon="6.77364">
        <ele>1852</ele>
        <time>2013-02-09T09:39:16Z</time>
      </trkpt>
      <trkpt lat="45.55312" lon="6.77394">
        <ele>1855</ele>
        <time>2013-02-09T09:39:22Z</time>
      </trkpt>
      <trkpt lat="45.55306" lon="6.77419">
        <ele>1864</ele>
        <time>2013-02-09T09:39:27Z</time>
      </trkpt>
      <trkpt lat="45.55296" lon="6.77451">
        <ele>1868</ele>
        <time>2013-02-09T09:39:33Z</time>
      </trkpt>
      <trkpt lat="45.55275" lon="6.77494">
        <ele>1874</ele>
        <time>2013-02-09T09:39:42Z</time>
      </trkpt>
      <trkpt lat="45.55273" lon="6.7754">
        <ele>1888</ele>
        <time>2013-02-09T09:39:51Z</time>
      </trkpt>
      <trkpt lat="45.55265" lon="6.77578">
        <ele>1894</ele>
        <time>2013-02-09T09:39:58Z</time>
      </trkpt>
      <trkpt lat="45.55253" lon="6.7761">
        <ele>1904</ele>
        <time>2013-02-09T09:40:04Z</time>
      </trkpt>
      <trkpt lat="45.55244" lon="6.77638">
        <ele>1915</ele>
        <time>2013-02-09T09:40:10Z</time>
      </trkpt>
      <trkpt lat="45.55236" lon="6.77669">
        <ele>1924</ele>
        <time>2013-02-09T09:40:16Z</time>
      </trkpt>
      <trkpt lat="45.55227" lon="6.77699">
        <ele>1929</ele>
        <time>2013-02-09T09:40:22Z</time>
      </trkpt>
      <trkpt lat="45.55227" lon="6.77781">
        <ele>1944</ele>
        <time>2013-02-09T09:40:41Z</time>
      </trkpt>
      <trkpt lat="45.55202" lon="6.77835">
        <ele>1958</ele>
        <time>2013-02-09T09:40:49Z</time>
      </trkpt>
      <trkpt lat="45.55196" lon="6.77851">
        <ele>1959</ele>
        <time>2013-02-09T09:40:52Z</time>
      </trkpt>
      <trkpt lat="45.55185" lon="6.77883">
        <ele>1962</ele>
        <time>2013-02-09T09:40:58Z</time>
      </trkpt>
      <trkpt lat="45.55176" lon="6.77915">
        <ele>1968</ele>
        <time>2013-02-09T09:41:04Z</time>
      </trkpt>
      <trkpt lat="45.5517" lon="6.77935">
        <ele>1976</ele>
        <time>2013-02-09T09:41:08Z</time>
      </trkpt>
      <trkpt lat="45.5516" lon="6.77968">
        <ele>1990</ele>
        <time>2013-02-09T09:41:14Z</time>
      </trkpt>
      <trkpt lat="45.55149" lon="6.78002">
        <ele>2002</ele>
        <time>2013-02-09T09:41:21Z</time>
      </trkpt>
      <trkpt lat="45.55142" lon="6.78026">
        <ele>2006</ele>
        <time>2013-02-09T09:41:26Z</time>
      </trkpt>
      <trkpt lat="45.55139" lon="6.78041">
        <ele>2009</ele>
        <time>2013-02-09T09:41:29Z</time>
      </trkpt>
      <trkpt lat="45.55132" lon="6.78066">
        <ele>2011</ele>
        <time>2013-02-09T09:41:34Z</time>
      </trkpt>
      <trkpt lat="45.55124" lon="6.78096">
        <ele>2021</ele>
        <time>2013-02-09T09:41:40Z</time>
      </trkpt>
      <trkpt lat="45.55112" lon="6.78134">
        <ele>2024</ele>
        <time>2013-02-09T09:41:47Z</time>
      </trkpt>
      <trkpt lat="45.55107" lon="6.78231">
        <ele>2037</ele>
        <time>2013-02-09T09:42:08Z</time>
      </trkpt>
      <trkpt lat="45.55097" lon="6.78255">
        <ele>2044</ele>
        <time>2013-02-09T09:42:11Z</time>
      </trkpt>
      <trkpt lat="45.5509" lon="6.7827">
        <ele>2045</ele>
        <time>2013-02-09T09:42:14Z</time>
      </trkpt>
      <trkpt lat="45.5508" lon="6.78296">
        <ele>2050</ele>
        <time>2013-02-09T09:42:19Z</time>
      </trkpt>
      <trkpt lat="45.55067" lon="6.78337">
        <ele>2060</ele>
        <time>2013-02-09T09:42:27Z</time>
      </trkpt>
      <trkpt lat="45.55059" lon="6.78362">
        <ele>2064</ele>
        <time>2013-02-09T09:42:32Z</time>
      </trkpt>
      <trkpt lat="45.55053" lon="6.78381">
        <ele>2066</ele>
        <time>2013-02-09T09:42:36Z</time>
      </trkpt>
      <trkpt lat="45.55044" lon="6.78414">
        <ele>2069</ele>
        <time>2013-02-09T09:42:42Z</time>
      </trkpt>
      <trkpt lat="45.55034" lon="6.78444">
        <ele>2083</ele>
        <time>2013-02-09T09:42:48Z</time>
      </trkpt>
      <trkpt lat="45.55026" lon="6.78474">
        <ele>2087</ele>
        <time>2013-02-09T09:42:54Z</time>
      </trkpt>
      <trkpt lat="45.55017" lon="6.78504">
        <ele>2100</ele>
        <time>2013-02-09T09:43:00Z</time>
      </trkpt>
      <trkpt lat="45.55002" lon="6.78541">
        <ele>2104</ele>
        <time>2013-02-09T09:43:07Z</time>
      </trkpt>
      <trkpt lat="45.54995" lon="6.78572">
        <ele>2112</ele>
        <time>2013-02-09T09:43:12Z</time>
      </trkpt>
      <trkpt lat="45.55" lon="6.78623">
        <ele>2123</ele>
        <time>2013-02-09T09:43:21Z</time>
      </trkpt>
      <trkpt lat="45.54984" lon="6.78647">
        <ele>2126</ele>
        <time>2013-02-09T09:43:26Z</time>
      </trkpt>
      <trkpt lat="45.54972" lon="6.78672">
        <ele>2137</ele>
        <time>2013-02-09T09:43:32Z</time>
      </trkpt>
      <trkpt lat="45.54964" lon="6.78702">
        <ele>2140</ele>
        <time>2013-02-09T09:43:39Z</time>
      </trkpt>
      <trkpt lat="45.54939" lon="6.78752">
        <ele>2157</ele>
        <time>2013-02-09T09:43:48Z</time>
      </trkpt>
      <trkpt lat="45.54932" lon="6.78776">
        <ele>2158</ele>
        <time>2013-02-09T09:43:53Z</time>
      </trkpt>
      <trkpt lat="45.54923" lon="6.7881">
        <ele>2164</ele>
        <time>2013-02-09T09:44:00Z</time>
      </trkpt>
      <trkpt lat="45.54919" lon="6.78824">
        <ele>2169</ele>
        <time>2013-02-09T09:44:03Z</time>
      </trkpt>
      <trkpt lat="45.54909" lon="6.7886">
        <ele>2180</ele>
        <time>2013-02-09T09:44:10Z</time>
      </trkpt>
      <trkpt lat="45.54901" lon="6.7889">
        <ele>2185</ele>
        <time>2013-02-09T09:44:16Z</time>
      </trkpt>
      <trkpt lat="45.54893" lon="6.7892">
        <ele>2196</ele>
        <time>2013-02-09T09:44:22Z</time>
      </trkpt>
      <trkpt lat="45.54889" lon="6.78935">
        <ele>2198</ele>
        <time>2013-02-09T09:44:25Z</time>
      </trkpt>
      <trkpt lat="45.5488" lon="6.78965">
        <ele>2201</ele>
        <time>2013-02-09T09:44:31Z</time>
      </trkpt>
      <trkpt lat="45.54876" lon="6.78979">
        <ele>2203</ele>
        <time>2013-02-09T09:44:34Z</time>
      </trkpt>
      <trkpt lat="45.54868" lon="6.79009">
        <ele>2217</ele>
        <time>2013-02-09T09:44:40Z</time>
      </trkpt>
      <trkpt lat="45.5486" lon="6.79038">
        <ele>2220</ele>
        <time>2013-02-09T09:44:46Z</time>
      </trkpt>
      <trkpt lat="45.54856" lon="6.79054">
        <ele>2223</ele>
        <time>2013-02-09T09:44:49Z</time>
      </trkpt>
      <trkpt lat="45.54847" lon="6.79084">
        <ele>2238</ele>
        <time>2013-02-09T09:44:55Z</time>
      </trkpt>
      <trkpt lat="45.54838" lon="6.79119">
        <ele>2242</ele>
        <time>2013-02-09T09:45:02Z</time>
      </trkpt>
      <trkpt lat="45.54834" lon="6.79135">
        <ele>2246</ele>
        <time>2013-02-09T09:45:05Z</time>
      </trkpt>
      <trkpt lat="45.54825" lon="6.79168">
        <ele>2260</ele>
        <time>2013-02-09T09:45:11Z</time>
      </trkpt>
      <trkpt lat="45.54819" lon="6.79193">
        <ele>2264</ele>
        <time>2013-02-09T09:45:16Z</time>
      </trkpt>
      <trkpt lat="45.5481" lon="6.79225">
        <ele>2269</ele>
        <time>2013-02-09T09:45:22Z</time>
      </trkpt>
      <trkpt lat="45.54806" lon="6.79239">
        <ele>2271</ele>
        <time>2013-02-09T09:45:25Z</time>
      </trkpt>
      <trkpt lat="45.54806" lon="6.79239">
        <ele>2271</ele>
        <time>2013-02-09T09:45:32Z</time>
      </trkpt>
      <trkpt lat="45.54806" lon="6.79239">
        <ele>2271</ele>
        <time>2013-02-09T09:45:39Z</time>
      </trkpt>
      <trkpt lat="45.5482" lon="6.79238">
        <ele>2271</ele>
        <time>2013-02-09T09:45:39Z</time>
      </trkpt>
      <trkpt lat="45.5482" lon="6.79238">
        <ele>2271</ele>
        <time>2013-02-09T09:45:46Z</time>
      </trkpt>
      <trkpt lat="45.5482" lon="6.79238">
        <ele>2271</ele>
        <time>2013-02-09T09:45:46Z</time>
      </trkpt>
      <trkpt lat="45.5482" lon="6.79238">
        <ele>2271</ele>
        <time>2013-02-09T09:47:02Z</time>
      </trkpt>
      <trkpt lat="45.54835" lon="6.79223">
        <ele>2265</ele>
        <time>2013-02-09T09:47:02Z</time>
      </trkpt>
      <trkpt lat="45.54862" lon="6.79198">
        <ele>2260</ele>
        <time>2013-02-09T09:47:07Z</time>
      </trkpt>
      <trkpt lat="45.549" lon="6.79167">
        <ele>2253</ele>
        <time>2013-02-09T09:47:13Z</time>
      </trkpt>
      <trkpt lat="45.54939" lon="6.7913">
        <ele>2230</ele>
        <time>2013-02-09T09:47:19Z</time>
      </trkpt>
      <trkpt lat="45.5497" lon="6.79096">
        <ele>2223</ele>
        <time>2013-02-09T09:47:24Z</time>
      </trkpt>
      <trkpt lat="45.54988" lon="6.79081">
        <ele>2210</ele>
        <time>2013-02-09T09:47:27Z</time>
      </trkpt>
      <trkpt lat="45.5502" lon="6.7905">
        <ele>2197</ele>
        <time>2013-02-09T09:47:33Z</time>
      </trkpt>
      <trkpt lat="45.55036" lon="6.79036">
        <ele>2194</ele>
        <time>2013-02-09T09:47:36Z</time>
      </trkpt>
      <trkpt lat="45.55062" lon="6.79011">
        <ele>2189</ele>
        <time>2013-02-09T09:47:41Z</time>
      </trkpt>
      <trkpt lat="45.55079" lon="6.78987">
        <ele>2178</ele>
        <time>2013-02-09T09:47:46Z</time>
      </trkpt>
      <trkpt lat="45.551" lon="6.78981">
        <ele>2171</ele>
        <time>2013-02-09T09:47:52Z</time>
      </trkpt>
      <trkpt lat="45.55118" lon="6.78957">
        <ele>2166</ele>
        <time>2013-02-09T09:47:57Z</time>
      </trkpt>
      <trkpt lat="45.55142" lon="6.78914">
        <ele>2149</ele>
        <time>2013-02-09T09:48:03Z</time>
      </trkpt>
      <trkpt lat="45.55193" lon="6.78822">
        <ele>2129</ele>
        <time>2013-02-09T09:48:10Z</time>
      </trkpt>
      <trkpt lat="45.55204" lon="6.78748">
        <ele>2114</ele>
        <time>2013-02-09T09:48:15Z</time>
      </trkpt>
      <trkpt lat="45.55199" lon="6.78685">
        <ele>2110</ele>
        <time>2013-02-09T09:48:19Z</time>
      </trkpt>
      <trkpt lat="45.5521" lon="6.78596">
        <ele>2097</ele>
        <time>2013-02-09T09:48:24Z</time>
      </trkpt>
      <trkpt lat="45.55215" lon="6.78548">
        <ele>2089</ele>
        <time>2013-02-09T09:48:27Z</time>
      </trkpt>
      <trkpt lat="45.55223" lon="6.78496">
        <ele>2080</ele>
        <time>2013-02-09T09:48:33Z</time>
      </trkpt>
      <trkpt lat="45.55211" lon="6.78421">
        <ele>2076</ele>
        <time>2013-02-09T09:48:40Z</time>
      </trkpt>
      <trkpt lat="45.55212" lon="6.78326">
        <ele>2048</ele>
        <time>2013-02-09T09:48:46Z</time>
      </trkpt>
      <trkpt lat="45.55222" lon="6.78243">
        <ele>2030</ele>
        <time>2013-02-09T09:48:51Z</time>
      </trkpt>
      <trkpt lat="45.55251" lon="6.78138">
        <ele>2005</ele>
        <time>2013-02-09T09:48:58Z</time>
      </trkpt>
      <trkpt lat="45.55248" lon="6.78045">
        <ele>1995</ele>
        <time>2013-02-09T09:49:03Z</time>
      </trkpt>
      <trkpt lat="45.55238" lon="6.78001">
        <ele>1989</ele>
        <time>2013-02-09T09:49:06Z</time>
      </trkpt>
      <trkpt lat="45.55222" lon="6.77952">
        <ele>1977</ele>
        <time>2013-02-09T09:49:12Z</time>
      </trkpt>
      <trkpt lat="45.5525" lon="6.77909">
        <ele>1962</ele>
        <time>2013-02-09T09:49:17Z</time>
      </trkpt>
      <trkpt lat="45.55244" lon="6.77807">
        <ele>1946</ele>
        <time>2013-02-09T09:49:23Z</time>
      </trkpt>
      <trkpt lat="45.55264" lon="6.77765">
        <ele>1937</ele>
        <time>2013-02-09T09:49:26Z</time>
      </trkpt>
      <trkpt lat="45.55296" lon="6.77694">
        <ele>1919</ele>
        <time>2013-02-09T09:49:31Z</time>
      </trkpt>
      <trkpt lat="45.55342" lon="6.77597">
        <ele>1896</ele>
        <time>2013-02-09T09:49:37Z</time>
      </trkpt>
      <trkpt lat="45.55379" lon="6.77549">
        <ele>1881</ele>
        <time>2013-02-09T09:49:42Z</time>
      </trkpt>
      <trkpt lat="45.55413" lon="6.77524">
        <ele>1877</ele>
        <time>2013-02-09T09:49:47Z</time>
      </trkpt>
      <trkpt lat="45.55442" lon="6.77444">
        <ele>1857</ele>
        <time>2013-02-09T09:49:53Z</time>
      </trkpt>
      <trkpt lat="45.55459" lon="6.77341">
        <ele>1835</ele>
        <time>2013-02-09T09:49:59Z</time>
      </trkpt>
      <trkpt lat="45.55466" lon="6.77242">
        <ele>1800</ele>
        <time>2013-02-09T09:50:05Z</time>
      </trkpt>
      <trkpt lat="45.55497" lon="6.77155">
        <ele>1777</ele>
        <time>2013-02-09T09:50:11Z</time>
      </trkpt>
      <trkpt lat="45.55523" lon="6.77069">
        <ele>1745</ele>
        <time>2013-02-09T09:50:17Z</time>
      </trkpt>
      <trkpt lat="45.55546" lon="6.76955">
        <ele>1716</ele>
        <time>2013-02-09T09:50:22Z</time>
      </trkpt>
      <trkpt lat="45.55525" lon="6.76852">
        <ele>1694</ele>
        <time>2013-02-09T09:50:27Z</time>
      </trkpt>
      <trkpt lat="45.555" lon="6.76741">
        <ele>1665</ele>
        <time>2013-02-09T09:50:33Z</time>
      </trkpt>
      <trkpt lat="45.55476" lon="6.76631">
        <ele>1651</ele>
        <time>2013-02-09T09:50:39Z</time>
      </trkpt>
      <trkpt lat="45.55463" lon="6.76583">
        <ele>1636</ele>
        <time>2013-02-09T09:50:42Z</time>
      </trkpt>
      <trkpt lat="45.5547" lon="6.76535">
        <ele>1631</ele>
        <time>2013-02-09T09:50:45Z</time>
      </trkpt>
      <trkpt lat="45.5552" lon="6.7643">
        <ele>1605</ele>
        <time>2013-02-09T09:50:52Z</time>
      </trkpt>
      <trkpt lat="45.55503" lon="6.76321">
        <ele>1589</ele>
        <time>2013-02-09T09:50:58Z</time>
      </trkpt>
      <trkpt lat="45.55499" lon="6.76338">
        <ele>1595</ele>
        <time>2013-02-09T09:51:06Z</time>
      </trkpt>
      <trkpt lat="45.55503" lon="6.76357">
        <ele>1595</ele>
        <time>2013-02-09T09:51:16Z</time>
      </trkpt>
      <trkpt lat="45.55498" lon="6.76377">
        <ele>1600</ele>
        <time>2013-02-09T09:51:30Z</time>
      </trkpt>
      <trkpt lat="45.55498" lon="6.76377">
        <ele>1600</ele>
        <time>2013-02-09T09:51:38Z</time>
      </trkpt>
      <trkpt lat="45.55498" lon="6.76377">
        <ele>1600</ele>
        <time>2013-02-09T09:51:38Z</time>
      </trkpt>
      <trkpt lat="45.55498" lon="6.76377">
        <ele>1600</ele>
        <time>2013-02-09T09:51:54Z</time>
      </trkpt>
      <trkpt lat="45.55498" lon="6.76431">
        <ele>1609</ele>
        <time>2013-02-09T09:51:54Z</time>
      </trkpt>
      <trkpt lat="45.55498" lon="6.765">
        <ele>1616</ele>
        <time>2013-02-09T09:51:59Z</time>
      </trkpt>
      <trkpt lat="45.55495" lon="6.76551">
        <ele>1631</ele>
        <time>2013-02-09T09:52:05Z</time>
      </trkpt>
      <trkpt lat="45.55498" lon="6.76587">
        <ele>1636</ele>
        <time>2013-02-09T09:52:10Z</time>
      </trkpt>
      <trkpt lat="45.55484" lon="6.76634">
        <ele>1651</ele>
        <time>2013-02-09T09:52:16Z</time>
      </trkpt>
      <trkpt lat="45.5548" lon="6.76669">
        <ele>1662</ele>
        <time>2013-02-09T09:52:22Z</time>
      </trkpt>
      <trkpt lat="45.5547" lon="6.76702">
        <ele>1670</ele>
        <time>2013-02-09T09:52:28Z</time>
      </trkpt>
      <trkpt lat="45.5547" lon="6.76736">
        <ele>1673</ele>
        <time>2013-02-09T09:52:35Z</time>
      </trkpt>
      <trkpt lat="45.55464" lon="6.76773">
        <ele>1690</ele>
        <time>2013-02-09T09:52:43Z</time>
      </trkpt>
      <trkpt lat="45.55459" lon="6.76798">
        <ele>1694</ele>
        <time>2013-02-09T09:52:48Z</time>
      </trkpt>
      <trkpt lat="45.55452" lon="6.7685">
        <ele>1714</ele>
        <time>2013-02-09T09:52:57Z</time>
      </trkpt>
      <trkpt lat="45.55448" lon="6.76877">
        <ele>1718</ele>
        <time>2013-02-09T09:53:02Z</time>
      </trkpt>
      <trkpt lat="45.5544" lon="6.76902">
        <ele>1726</ele>
        <time>2013-02-09T09:53:08Z</time>
      </trkpt>
      <trkpt lat="45.55432" lon="6.76943">
        <ele>1742</ele>
        <time>2013-02-09T09:53:15Z</time>
      </trkpt>
      <trkpt lat="45.55427" lon="6.76972">
        <ele>1747</ele>
        <time>2013-02-09T09:53:21Z</time>
      </trkpt>
      <trkpt lat="45.55417" lon="6.77008">
        <ele>1763</ele>
        <time>2013-02-09T09:53:28Z</time>
      </trkpt>
      <trkpt lat="45.55401" lon="6.77052">
        <ele>1783</ele>
        <time>2013-02-09T09:53:35Z</time>
      </trkpt>
      <trkpt lat="45.554" lon="6.7708">
        <ele>1784</ele>
        <time>2013-02-09T09:53:41Z</time>
      </trkpt>
      <trkpt lat="45.55393" lon="6.77108">
        <ele>1797</ele>
        <time>2013-02-09T09:53:47Z</time>
      </trkpt>
      <trkpt lat="45.5539" lon="6.77142">
        <ele>1801</ele>
        <time>2013-02-09T09:53:53Z</time>
      </trkpt>
      <trkpt lat="45.55382" lon="6.77172">
        <ele>1813</ele>
        <time>2013-02-09T09:53:59Z</time>
      </trkpt>
      <trkpt lat="45.55373" lon="6.772">
        <ele>1817</ele>
        <time>2013-02-09T09:54:05Z</time>
      </trkpt>
      <trkpt lat="45.55363" lon="6.77228">
        <ele>1820</ele>
        <time>2013-02-09T09:54:11Z</time>
      </trkpt>
      <trkpt lat="45.55354" lon="6.77254">
        <ele>1831</ele>
        <time>2013-02-09T09:54:17Z</time>
      </trkpt>
      <trkpt lat="45.55346" lon="6.77284">
        <ele>1833</ele>
        <time>2013-02-09T09:54:22Z</time>
      </trkpt>
      <trkpt lat="45.55336" lon="6.77316">
        <ele>1838</ele>
        <time>2013-02-09T09:54:28Z</time>
      </trkpt>
      <trkpt lat="45.5533" lon="6.77345">
        <ele>1848</ele>
        <time>2013-02-09T09:54:33Z</time>
      </trkpt>
      <trkpt lat="45.55324" lon="6.77378">
        <ele>1854</ele>
        <time>2013-02-09T09:54:39Z</time>
      </trkpt>
      <trkpt lat="45.55306" lon="6.77402">
        <ele>1856</ele>
        <time>2013-02-09T09:54:45Z</time>
      </trkpt>
      <trkpt lat="45.55317" lon="6.77458">
        <ele>1868</ele>
        <time>2013-02-09T09:54:58Z</time>
      </trkpt>
      <trkpt lat="45.55307" lon="6.77493">
        <ele>1871</ele>
        <time>2013-02-09T09:55:03Z</time>
      </trkpt>
      <trkpt lat="45.55295" lon="6.77526">
        <ele>1885</ele>
        <time>2013-02-09T09:55:10Z</time>
      </trkpt>
      <trkpt lat="45.55282" lon="6.77556">
        <ele>1889</ele>
        <time>2013-02-09T09:55:16Z</time>
      </trkpt>
      <trkpt lat="45.55266" lon="6.77594">
        <ele>1903</ele>
        <time>2013-02-09T09:55:23Z</time>
      </trkpt>
      <trkpt lat="45.55254" lon="6.77622">
        <ele>1906</ele>
        <time>2013-02-09T09:55:29Z</time>
      </trkpt>
      <trkpt lat="45.55246" lon="6.77654">
        <ele>1917</ele>
        <time>2013-02-09T09:55:35Z</time>
      </trkpt>
      <trkpt lat="45.55241" lon="6.77678">
        <ele>1924</ele>
        <time>2013-02-09T09:55:40Z</time>
      </trkpt>
      <trkpt lat="45.55225" lon="6.77695">
        <ele>1928</ele>
        <time>2013-02-09T09:55:44Z</time>
      </trkpt>
      <trkpt lat="45.55233" lon="6.7772">
        <ele>1931</ele>
        <time>2013-02-09T09:55:50Z</time>
      </trkpt>
      <trkpt lat="45.55233" lon="6.77759">
        <ele>1940</ele>
        <time>2013-02-09T09:55:56Z</time>
      </trkpt>
      <trkpt lat="45.55225" lon="6.77782">
        <ele>1944</ele>
        <time>2013-02-09T09:56:02Z</time>
      </trkpt>
      <trkpt lat="45.55211" lon="6.77814">
        <ele>1947</ele>
        <time>2013-02-09T09:56:08Z</time>
      </trkpt>
      <trkpt lat="45.55201" lon="6.77843">
        <ele>1958</ele>
        <time>2013-02-09T09:56:13Z</time>
      </trkpt>
      <trkpt lat="45.55192" lon="6.77865">
        <ele>1960</ele>
        <time>2013-02-09T09:56:18Z</time>
      </trkpt>
      <trkpt lat="45.55183" lon="6.7789">
        <ele>1963</ele>
        <time>2013-02-09T09:56:23Z</time>
      </trkpt>
      <trkpt lat="45.55174" lon="6.77914">
        <ele>1968</ele>
        <time>2013-02-09T09:56:28Z</time>
      </trkpt>
      <trkpt lat="45.55168" lon="6.77942">
        <ele>1977</ele>
        <time>2013-02-09T09:56:33Z</time>
      </trkpt>
      <trkpt lat="45.55164" lon="6.77969">
        <ele>1990</ele>
        <time>2013-02-09T09:56:38Z</time>
      </trkpt>
      <trkpt lat="45.5519" lon="6.77981">
        <ele>1983</ele>
        <time>2013-02-09T09:56:43Z</time>
      </trkpt>
      <trkpt lat="45.55157" lon="6.78021">
        <ele>2004</ele>
        <time>2013-02-09T09:56:49Z</time>
      </trkpt>
      <trkpt lat="45.55143" lon="6.78044">
        <ele>2009</ele>
        <time>2013-02-09T09:56:54Z</time>
      </trkpt>
      <trkpt lat="45.55139" lon="6.78071">
        <ele>2011</ele>
        <time>2013-02-09T09:57:00Z</time>
      </trkpt>
      <trkpt lat="45.55122" lon="6.78099">
        <ele>2021</ele>
        <time>2013-02-09T09:57:05Z</time>
      </trkpt>
      <trkpt lat="45.55117" lon="6.78132">
        <ele>2023</ele>
        <time>2013-02-09T09:57:11Z</time>
      </trkpt>
      <trkpt lat="45.55109" lon="6.78164">
        <ele>2026</ele>
        <time>2013-02-09T09:57:17Z</time>
      </trkpt>
      <trkpt lat="45.55106" lon="6.78182">
        <ele>2033</ele>
        <time>2013-02-09T09:57:22Z</time>
      </trkpt>
      <trkpt lat="45.55095" lon="6.78214">
        <ele>2036</ele>
        <time>2013-02-09T09:57:28Z</time>
      </trkpt>
      <trkpt lat="45.5509" lon="6.78229">
        <ele>2037</ele>
        <time>2013-02-09T09:57:31Z</time>
      </trkpt>
      <trkpt lat="45.55067" lon="6.78268">
        <ele>2047</ele>
        <time>2013-02-09T09:57:38Z</time>
      </trkpt>
      <trkpt lat="45.55086" lon="6.78294">
        <ele>2048</ele>
        <time>2013-02-09T09:57:44Z</time>
      </trkpt>
      <trkpt lat="45.55054" lon="6.78425">
        <ele>2080</ele>
        <time>2013-02-09T09:58:10Z</time>
      </trkpt>
      <trkpt lat="45.55044" lon="6.7844">
        <ele>2082</ele>
        <time>2013-02-09T09:58:13Z</time>
      </trkpt>
      <trkpt lat="45.55043" lon="6.78463">
        <ele>2085</ele>
        <time>2013-02-09T09:58:19Z</time>
      </trkpt>
      <trkpt lat="45.5502" lon="6.78496">
        <ele>2091</ele>
        <time>2013-02-09T09:58:25Z</time>
      </trkpt>
      <trkpt lat="45.55009" lon="6.78524">
        <ele>2102</ele>
        <time>2013-02-09T09:58:30Z</time>
      </trkpt>
      <trkpt lat="45.55" lon="6.78555">
        <ele>2109</ele>
        <time>2013-02-09T09:58:36Z</time>
      </trkpt>
      <trkpt lat="45.54988" lon="6.78596">
        <ele>2119</ele>
        <time>2013-02-09T09:58:42Z</time>
      </trkpt>
      <trkpt lat="45.54978" lon="6.78623">
        <ele>2124</ele>
        <time>2013-02-09T09:58:47Z</time>
      </trkpt>
      <trkpt lat="45.54972" lon="6.78653">
        <ele>2126</ele>
        <time>2013-02-09T09:58:53Z</time>
      </trkpt>
      <trkpt lat="45.54968" lon="6.78683">
        <ele>2138</ele>
        <time>2013-02-09T09:59:01Z</time>
      </trkpt>
      <trkpt lat="45.54956" lon="6.78724">
        <ele>2143</ele>
        <time>2013-02-09T09:59:09Z</time>
      </trkpt>
      <trkpt lat="45.54945" lon="6.78759">
        <ele>2157</ele>
        <time>2013-02-09T09:59:15Z</time>
      </trkpt>
      <trkpt lat="45.54938" lon="6.78784">
        <ele>2159</ele>
        <time>2013-02-09T09:59:20Z</time>
      </trkpt>
      <trkpt lat="45.54928" lon="6.78816">
        <ele>2165</ele>
        <time>2013-02-09T09:59:26Z</time>
      </trkpt>
      <trkpt lat="45.54917" lon="6.78856">
        <ele>2176</ele>
        <time>2013-02-09T09:59:33Z</time>
      </trkpt>
      <trkpt lat="45.54908" lon="6.78901">
        <ele>2187</ele>
        <time>2013-02-09T09:59:41Z</time>
      </trkpt>
      <trkpt lat="45.54902" lon="6.78933">
        <ele>2196</ele>
        <time>2013-02-09T09:59:48Z</time>
      </trkpt>
      <trkpt lat="45.54874" lon="6.78975">
        <ele>2202</ele>
        <time>2013-02-09T09:59:55Z</time>
      </trkpt>
      <trkpt lat="45.54893" lon="6.79003">
        <ele>2215</ele>
        <time>2013-02-09T10:00:03Z</time>
      </trkpt>
      <trkpt lat="45.54889" lon="6.79034">
        <ele>2219</ele>
        <time>2013-02-09T10:00:09Z</time>
      </trkpt>
      <trkpt lat="45.54881" lon="6.79064">
        <ele>2223</ele>
        <time>2013-02-09T10:00:15Z</time>
      </trkpt>
      <trkpt lat="45.54869" lon="6.79091">
        <ele>2238</ele>
        <time>2013-02-09T10:00:20Z</time>
      </trkpt>
      <trkpt lat="45.54861" lon="6.7912">
        <ele>2242</ele>
        <time>2013-02-09T10:00:25Z</time>
      </trkpt>
      <trkpt lat="45.54844" lon="6.79149">
        <ele>2249</ele>
        <time>2013-02-09T10:00:31Z</time>
      </trkpt>
      <trkpt lat="45.54834" lon="6.79174">
        <ele>2259</ele>
        <time>2013-02-09T10:00:36Z</time>
      </trkpt>
      <trkpt lat="45.5483" lon="6.79202">
        <ele>2266</ele>
        <time>2013-02-09T10:00:41Z</time>
      </trkpt>
      <trkpt lat="45.54825" lon="6.79225">
        <ele>2269</ele>
        <time>2013-02-09T10:00:46Z</time>
      </trkpt>
      <trkpt lat="45.54813" lon="6.79244">
        <ele>2271</ele>
        <time>2013-02-09T10:00:55Z</time>
      </trkpt>
      <trkpt lat="45.54816" lon="6.79254">
        <ele>2281</ele>
        <time>2013-02-09T10:01:00Z</time>
      </trkpt>
      <trkpt lat="45.54816" lon="6.79254">
        <ele>2281</ele>
        <time>2013-02-09T10:01:05Z</time>
      </trkpt>
      <trkpt lat="45.54816" lon="6.79254">
        <ele>2281</ele>
        <time>2013-02-09T10:01:22Z</time>
      </trkpt>
      <trkpt lat="45.54834" lon="6.79244">
        <ele>2272</ele>
        <time>2013-02-09T10:01:22Z</time>
      </trkpt>
      <trkpt lat="45.54877" lon="6.79212">
        <ele>2261</ele>
        <time>2013-02-09T10:01:29Z</time>
      </trkpt>
      <trkpt lat="45.54912" lon="6.79195">
        <ele>2256</ele>
        <time>2013-02-09T10:01:33Z</time>
      </trkpt>
      <trkpt lat="45.54946" lon="6.79151">
        <ele>2232</ele>
        <time>2013-02-09T10:01:39Z</time>
      </trkpt>
      <trkpt lat="45.54969" lon="6.7913">
        <ele>2227</ele>
        <time>2013-02-09T10:01:44Z</time>
      </trkpt>
      <trkpt lat="45.54979" lon="6.7911">
        <ele>2223</ele>
        <time>2013-02-09T10:01:47Z</time>
      </trkpt>
      <trkpt lat="45.54986" lon="6.7909">
        <ele>2218</ele>
        <time>2013-02-09T10:01:50Z</time>
      </trkpt>
      <trkpt lat="45.55016" lon="6.79069">
        <ele>2201</ele>
        <time>2013-02-09T10:01:55Z</time>
      </trkpt>
      <trkpt lat="45.55058" lon="6.79032">
        <ele>2192</ele>
        <time>2013-02-09T10:02:00Z</time>
      </trkpt>
      <trkpt lat="45.55101" lon="6.79008">
        <ele>2182</ele>
        <time>2013-02-09T10:02:06Z</time>
      </trkpt>
      <trkpt lat="45.55121" lon="6.78977">
        <ele>2168</ele>
        <time>2013-02-09T10:02:11Z</time>
      </trkpt>
      <trkpt lat="45.55129" lon="6.78949">
        <ele>2164</ele>
        <time>2013-02-09T10:02:19Z</time>
      </trkpt>
      <trkpt lat="45.55177" lon="6.78874">
        <ele>2141</ele>
        <time>2013-02-09T10:02:32Z</time>
      </trkpt>
      <trkpt lat="45.5519" lon="6.78844">
        <ele>2138</ele>
        <time>2013-02-09T10:02:36Z</time>
      </trkpt>
      <trkpt lat="45.55206" lon="6.78796">
        <ele>2126</ele>
        <time>2013-02-09T10:02:41Z</time>
      </trkpt>
      <trkpt lat="45.55212" lon="6.78763">
        <ele>2123</ele>
        <time>2013-02-09T10:02:44Z</time>
      </trkpt>
      <trkpt lat="45.5524" lon="6.78682">
        <ele>2104</ele>
        <time>2013-02-09T10:02:52Z</time>
      </trkpt>
      <trkpt lat="45.55272" lon="6.78645">
        <ele>2093</ele>
        <time>2013-02-09T10:02:58Z</time>
      </trkpt>
      <trkpt lat="45.55294" lon="6.78586">
        <ele>2089</ele>
        <time>2013-02-09T10:03:06Z</time>
      </trkpt>
      <trkpt lat="45.55329" lon="6.78551">
        <ele>2081</ele>
        <time>2013-02-09T10:03:13Z</time>
      </trkpt>
      <trkpt lat="45.55361" lon="6.7855">
        <ele>2074</ele>
        <time>2013-02-09T10:03:18Z</time>
      </trkpt>
      <trkpt lat="45.55434" lon="6.78608">
        <ele>2071</ele>
        <time>2013-02-09T10:03:26Z</time>
      </trkpt>
      <trkpt lat="45.55471" lon="6.78611">
        <ele>2067</ele>
        <time>2013-02-09T10:03:32Z</time>
      </trkpt>
      <trkpt lat="45.55519" lon="6.78601">
        <ele>2054</ele>
        <time>2013-02-09T10:03:37Z</time>
      </trkpt>
      <trkpt lat="45.55568" lon="6.78536">
        <ele>2036</ele>
        <time>2013-02-09T10:03:42Z</time>
      </trkpt>
      <trkpt lat="45.55612" lon="6.78441">
        <ele>2016</ele>
        <time>2013-02-09T10:03:48Z</time>
      </trkpt>
      <trkpt lat="45.55619" lon="6.78371">
        <ele>2006</ele>
        <time>2013-02-09T10:03:53Z</time>
      </trkpt>
      <trkpt lat="45.55646" lon="6.78315">
        <ele>1994</ele>
        <time>2013-02-09T10:03:58Z</time>
      </trkpt>
      <trkpt lat="45.5569" lon="6.78261">
        <ele>1983</ele>
        <time>2013-02-09T10:04:03Z</time>
      </trkpt>
      <trkpt lat="45.55733" lon="6.78209">
        <ele>1970</ele>
        <time>2013-02-09T10:04:08Z</time>
      </trkpt>
      <trkpt lat="45.55743" lon="6.78108">
        <ele>1950</ele>
        <time>2013-02-09T10:04:14Z</time>
      </trkpt>
      <trkpt lat="45.55752" lon="6.78033">
        <ele>1935</ele>
        <time>2013-02-09T10:04:20Z</time>
      </trkpt>
      <trkpt lat="45.55739" lon="6.77974">
        <ele>1934</ele>
        <time>2013-02-09T10:04:25Z</time>
      </trkpt>
      <trkpt lat="45.55725" lon="6.77972">
        <ele>1934</ele>
        <time>2013-02-09T10:04:33Z</time>
      </trkpt>
      <trkpt lat="45.55725" lon="6.77972">
        <ele>1934</ele>
        <time>2013-02-09T10:04:40Z</time>
      </trkpt>
      <trkpt lat="45.55725" lon="6.77972">
        <ele>1934</ele>
        <time>2013-02-09T10:04:40Z</time>
      </trkpt>
      <trkpt lat="45.55725" lon="6.77972">
        <ele>1934</ele>
        <time>2013-02-09T10:05:12Z</time>
      </trkpt>
      <trkpt lat="45.55707" lon="6.77998">
        <ele>1936</ele>
        <time>2013-02-09T10:05:12Z</time>
      </trkpt>
      <trkpt lat="45.55698" lon="6.78017">
        <ele>1942</ele>
        <time>2013-02-09T10:05:17Z</time>
      </trkpt>
      <trkpt lat="45.55699" lon="6.78061">
        <ele>1944</ele>
        <time>2013-02-09T10:05:23Z</time>
      </trkpt>
      <trkpt lat="45.55701" lon="6.7809">
        <ele>1954</ele>
        <time>2013-02-09T10:05:29Z</time>
      </trkpt>
      <trkpt lat="45.55707" lon="6.78109">
        <ele>1954</ele>
        <time>2013-02-09T10:05:35Z</time>
      </trkpt>
      <trkpt lat="45.5571" lon="6.78143">
        <ele>1958</ele>
        <time>2013-02-09T10:05:42Z</time>
      </trkpt>
      <trkpt lat="45.55713" lon="6.7818">
        <ele>1969</ele>
        <time>2013-02-09T10:05:50Z</time>
      </trkpt>
      <trkpt lat="45.55712" lon="6.7822">
        <ele>1972</ele>
        <time>2013-02-09T10:05:59Z</time>
      </trkpt>
      <trkpt lat="45.55711" lon="6.7825">
        <ele>1981</ele>
        <time>2013-02-09T10:06:05Z</time>
      </trkpt>
      <trkpt lat="45.55712" lon="6.78275">
        <ele>1982</ele>
        <time>2013-02-09T10:06:11Z</time>
      </trkpt>
      <trkpt lat="45.55712" lon="6.78304">
        <ele>1984</ele>
        <time>2013-02-09T10:06:17Z</time>
      </trkpt>
      <trkpt lat="45.55707" lon="6.78334">
        <ele>1995</ele>
        <time>2013-02-09T10:06:23Z</time>
      </trkpt>
      <trkpt lat="45.55706" lon="6.78359">
        <ele>1996</ele>
        <time>2013-02-09T10:06:28Z</time>
      </trkpt>
      <trkpt lat="45.55703" lon="6.78388">
        <ele>1999</ele>
        <time>2013-02-09T10:06:34Z</time>
      </trkpt>
      <trkpt lat="45.55702" lon="6.7841">
        <ele>2001</ele>
        <time>2013-02-09T10:06:39Z</time>
      </trkpt>
      <trkpt lat="45.557" lon="6.78449">
        <ele>2011</ele>
        <time>2013-02-09T10:06:46Z</time>
      </trkpt>
      <trkpt lat="45.55698" lon="6.7847">
        <ele>2013</ele>
        <time>2013-02-09T10:06:51Z</time>
      </trkpt>
      <trkpt lat="45.55698" lon="6.78501">
        <ele>2021</ele>
        <time>2013-02-09T10:06:57Z</time>
      </trkpt>
      <trkpt lat="45.55696" lon="6.7853">
        <ele>2022</ele>
        <time>2013-02-09T10:07:03Z</time>
      </trkpt>
      <trkpt lat="45.55694" lon="6.78566">
        <ele>2024</ele>
        <time>2013-02-09T10:07:10Z</time>
      </trkpt>
      <trkpt lat="45.55688" lon="6.78598">
        <ele>2031</ele>
        <time>2013-02-09T10:07:15Z</time>
      </trkpt>
      <trkpt lat="45.55686" lon="6.78626">
        <ele>2033</ele>
        <time>2013-02-09T10:07:21Z</time>
      </trkpt>
      <trkpt lat="45.55683" lon="6.78668">
        <ele>2042</ele>
        <time>2013-02-09T10:07:30Z</time>
      </trkpt>
      <trkpt lat="45.55688" lon="6.78735">
        <ele>2046</ele>
        <time>2013-02-09T10:07:45Z</time>
      </trkpt>
      <trkpt lat="45.55682" lon="6.78767">
        <ele>2054</ele>
        <time>2013-02-09T10:07:52Z</time>
      </trkpt>
      <trkpt lat="45.55678" lon="6.788">
        <ele>2057</ele>
        <time>2013-02-09T10:07:58Z</time>
      </trkpt>
      <trkpt lat="45.55672" lon="6.78834">
        <ele>2067</ele>
        <time>2013-02-09T10:08:04Z</time>
      </trkpt>
      <trkpt lat="45.55676" lon="6.7894">
        <ele>2087</ele>
        <time>2013-02-09T10:08:31Z</time>
      </trkpt>
      <trkpt lat="45.55666" lon="6.7899">
        <ele>2101</ele>
        <time>2013-02-09T10:08:38Z</time>
      </trkpt>
      <trkpt lat="45.55658" lon="6.79025">
        <ele>2111</ele>
        <time>2013-02-09T10:08:44Z</time>
      </trkpt>
      <trkpt lat="45.55662" lon="6.79066">
        <ele>2116</ele>
        <time>2013-02-09T10:08:52Z</time>
      </trkpt>
      <trkpt lat="45.55656" lon="6.79092">
        <ele>2122</ele>
        <time>2013-02-09T10:08:57Z</time>
      </trkpt>
      <trkpt lat="45.55652" lon="6.79119">
        <ele>2128</ele>
        <time>2013-02-09T10:09:02Z</time>
      </trkpt>
      <trkpt lat="45.55654" lon="6.79148">
        <ele>2132</ele>
        <time>2013-02-09T10:09:08Z</time>
      </trkpt>
      <trkpt lat="45.55657" lon="6.79178">
        <ele>2140</ele>
        <time>2013-02-09T10:09:14Z</time>
      </trkpt>
      <trkpt lat="45.55658" lon="6.79212">
        <ele>2147</ele>
        <time>2013-02-09T10:09:21Z</time>
      </trkpt>
      <trkpt lat="45.55657" lon="6.79238">
        <ele>2151</ele>
        <time>2013-02-09T10:09:26Z</time>
      </trkpt>
      <trkpt lat="45.55657" lon="6.79267">
        <ele>2161</ele>
        <time>2013-02-09T10:09:32Z</time>
      </trkpt>
      <trkpt lat="45.55654" lon="6.79297">
        <ele>2167</ele>
        <time>2013-02-09T10:09:38Z</time>
      </trkpt>
      <trkpt lat="45.55655" lon="6.7933">
        <ele>2169</ele>
        <time>2013-02-09T10:09:45Z</time>
      </trkpt>
      <trkpt lat="45.55647" lon="6.79384">
        <ele>2186</ele>
        <time>2013-02-09T10:09:55Z</time>
      </trkpt>
      <trkpt lat="45.55645" lon="6.79416">
        <ele>2188</ele>
        <time>2013-02-09T10:10:01Z</time>
      </trkpt>
      <trkpt lat="45.55642" lon="6.7945">
        <ele>2205</ele>
        <time>2013-02-09T10:10:07Z</time>
      </trkpt>
      <trkpt lat="45.55638" lon="6.79488">
        <ele>2211</ele>
        <time>2013-02-09T10:10:15Z</time>
      </trkpt>
      <trkpt lat="45.55636" lon="6.7952">
        <ele>2228</ele>
        <time>2013-02-09T10:10:22Z</time>
      </trkpt>
      <trkpt lat="45.55634" lon="6.79551">
        <ele>2233</ele>
        <time>2013-02-09T10:10:29Z</time>
      </trkpt>
      <trkpt lat="45.55632" lon="6.79585">
        <ele>2250</ele>
        <time>2013-02-09T10:10:36Z</time>
      </trkpt>
      <trkpt lat="45.55631" lon="6.79599">
        <ele>2251</ele>
        <time>2013-02-09T10:10:39Z</time>
      </trkpt>
      <trkpt lat="45.55631" lon="6.79617">
        <ele>2254</ele>
        <time>2013-02-09T10:10:43Z</time>
      </trkpt>
      <trkpt lat="45.55629" lon="6.79643">
        <ele>2257</ele>
        <time>2013-02-09T10:10:49Z</time>
      </trkpt>
      <trkpt lat="45.55629" lon="6.79666">
        <ele>2259</ele>
        <time>2013-02-09T10:10:54Z</time>
      </trkpt>
      <trkpt lat="45.55628" lon="6.79699">
        <ele>2278</ele>
        <time>2013-02-09T10:11:01Z</time>
      </trkpt>
      <trkpt lat="45.55627" lon="6.79718">
        <ele>2281</ele>
        <time>2013-02-09T10:11:05Z</time>
      </trkpt>
      <trkpt lat="45.55625" lon="6.79735">
        <ele>2284</ele>
        <time>2013-02-09T10:11:09Z</time>
      </trkpt>
      <trkpt lat="45.55623" lon="6.79762">
        <ele>2300</ele>
        <time>2013-02-09T10:11:15Z</time>
      </trkpt>
      <trkpt lat="45.5562" lon="6.79793">
        <ele>2304</ele>
        <time>2013-02-09T10:11:22Z</time>
      </trkpt>
      <trkpt lat="45.55616" lon="6.79833">
        <ele>2308</ele>
        <time>2013-02-09T10:11:34Z</time>
      </trkpt>
      <trkpt lat="45.55617" lon="6.79846">
        <ele>2316</ele>
        <time>2013-02-09T10:11:39Z</time>
      </trkpt>
      <trkpt lat="45.55617" lon="6.79846">
        <ele>2316</ele>
        <time>2013-02-09T10:11:48Z</time>
      </trkpt>
      <trkpt lat="45.55617" lon="6.79846">
        <ele>2316</ele>
        <time>2013-02-09T10:12:58Z</time>
      </trkpt>
      <trkpt lat="45.556" lon="6.79854">
        <ele>2317</ele>
        <time>2013-02-09T10:12:58Z</time>
      </trkpt>
      <trkpt lat="45.55541" lon="6.79821">
        <ele>2301</ele>
        <time>2013-02-09T10:13:04Z</time>
      </trkpt>
      <trkpt lat="45.55476" lon="6.79744">
        <ele>2278</ele>
        <time>2013-02-09T10:13:10Z</time>
      </trkpt>
      <trkpt lat="45.55449" lon="6.79709">
        <ele>2275</ele>
        <time>2013-02-09T10:13:13Z</time>
      </trkpt>
      <trkpt lat="45.55412" lon="6.7964">
        <ele>2263</ele>
        <time>2013-02-09T10:13:18Z</time>
      </trkpt>
      <trkpt lat="45.55405" lon="6.79554">
        <ele>2250</ele>
        <time>2013-02-09T10:13:23Z</time>
      </trkpt>
      <trkpt lat="45.55443" lon="6.79515">
        <ele>2244</ele>
        <time>2013-02-09T10:13:27Z</time>
      </trkpt>
      <trkpt lat="45.55482" lon="6.79462">
        <ele>2233</ele>
        <time>2013-02-09T10:13:32Z</time>
      </trkpt>
      <trkpt lat="45.55517" lon="6.79398">
        <ele>2212</ele>
        <time>2013-02-09T10:13:37Z</time>
      </trkpt>
      <trkpt lat="45.55584" lon="6.79385">
        <ele>2193</ele>
        <time>2013-02-09T10:13:43Z</time>
      </trkpt>
      <trkpt lat="45.5563" lon="6.79346">
        <ele>2184</ele>
        <time>2013-02-09T10:13:48Z</time>
      </trkpt>
      <trkpt lat="45.55651" lon="6.79296">
        <ele>2167</ele>
        <time>2013-02-09T10:13:52Z</time>
      </trkpt>
      <trkpt lat="45.55663" lon="6.79252">
        <ele>2155</ele>
        <time>2013-02-09T10:13:55Z</time>
      </trkpt>
      <trkpt lat="45.55671" lon="6.79205">
        <ele>2141</ele>
        <time>2013-02-09T10:13:58Z</time>
      </trkpt>
      <trkpt lat="45.55672" lon="6.79102">
        <ele>2120</ele>
        <time>2013-02-09T10:14:04Z</time>
      </trkpt>
      <trkpt lat="45.55677" lon="6.79023">
        <ele>2105</ele>
        <time>2013-02-09T10:14:09Z</time>
      </trkpt>
      <trkpt lat="45.55679" lon="6.78917">
        <ele>2085</ele>
        <time>2013-02-09T10:14:15Z</time>
      </trkpt>
      <trkpt lat="45.55686" lon="6.78803">
        <ele>2057</ele>
        <time>2013-02-09T10:14:21Z</time>
      </trkpt>
      <trkpt lat="45.55711" lon="6.78698">
        <ele>2043</ele>
        <time>2013-02-09T10:14:27Z</time>
      </trkpt>
      <trkpt lat="45.55738" lon="6.78596">
        <ele>2029</ele>
        <time>2013-02-09T10:14:33Z</time>
      </trkpt>
      <trkpt lat="45.55754" lon="6.78519">
        <ele>2017</ele>
        <time>2013-02-09T10:14:39Z</time>
      </trkpt>
      <trkpt lat="45.55764" lon="6.78453">
        <ele>2007</ele>
        <time>2013-02-09T10:14:45Z</time>
      </trkpt>
      <trkpt lat="45.55781" lon="6.78386">
        <ele>1993</ele>
        <time>2013-02-09T10:14:50Z</time>
      </trkpt>
      <trkpt lat="45.55799" lon="6.78318">
        <ele>1977</ele>
        <time>2013-02-09T10:14:55Z</time>
      </trkpt>
      <trkpt lat="45.55831" lon="6.78235">
        <ele>1961</ele>
        <time>2013-02-09T10:15:01Z</time>
      </trkpt>
      <trkpt lat="45.55846" lon="6.78197">
        <ele>1951</ele>
        <time>2013-02-09T10:15:04Z</time>
      </trkpt>
      <trkpt lat="45.55842" lon="6.78131">
        <ele>1939</ele>
        <time>2013-02-09T10:15:09Z</time>
      </trkpt>
      <trkpt lat="45.55829" lon="6.78091">
        <ele>1938</ele>
        <time>2013-02-09T10:15:12Z</time>
      </trkpt>
      <trkpt lat="45.55803" lon="6.78053">
        <ele>1934</ele>
        <time>2013-02-09T10:15:15Z</time>
      </trkpt>
      <trkpt lat="45.55772" lon="6.78004">
        <ele>1934</ele>
        <time>2013-02-09T10:15:22Z</time>
      </trkpt>
      <trkpt lat="45.55751" lon="6.7798">
        <ele>1930</ele>
        <time>2013-02-09T10:15:28Z</time>
      </trkpt>
      <trkpt lat="45.55743" lon="6.77969">
        <ele>1934</ele>
        <time>2013-02-09T10:15:33Z</time>
      </trkpt>
      <trkpt lat="45.55727" lon="6.77973">
        <ele>1934</ele>
        <time>2013-02-09T10:15:44Z</time>
      </trkpt>
      <trkpt lat="45.55729" lon="6.77982">
        <ele>1935</ele>
        <time>2013-02-09T10:15:55Z</time>
      </trkpt>
      <trkpt lat="45.55721" lon="6.78035">
        <ele>1941</ele>
        <time>2013-02-09T10:16:38Z</time>
      </trkpt>
      <trkpt lat="45.55721" lon="6.78064">
        <ele>1943</ele>
        <time>2013-02-09T10:16:43Z</time>
      </trkpt>
      <trkpt lat="45.55719" lon="6.78093">
        <ele>1951</ele>
        <time>2013-02-09T10:16:49Z</time>
      </trkpt>
      <trkpt lat="45.55717" lon="6.78127">
        <ele>1955</ele>
        <time>2013-02-09T10:16:56Z</time>
      </trkpt>
      <trkpt lat="45.55715" lon="6.78162">
        <ele>1958</ele>
        <time>2013-02-09T10:17:03Z</time>
      </trkpt>
      <trkpt lat="45.55712" lon="6.78196">
        <ele>1970</ele>
        <time>2013-02-09T10:17:10Z</time>
      </trkpt>
      <trkpt lat="45.55711" lon="6.7823">
        <ele>1973</ele>
        <time>2013-02-09T10:17:17Z</time>
      </trkpt>
      <trkpt lat="45.55709" lon="6.78269">
        <ele>1982</ele>
        <time>2013-02-09T10:17:25Z</time>
      </trkpt>
      <trkpt lat="45.55706" lon="6.78308">
        <ele>1985</ele>
        <time>2013-02-09T10:17:33Z</time>
      </trkpt>
      <trkpt lat="45.55704" lon="6.78333">
        <ele>1986</ele>
        <time>2013-02-09T10:17:38Z</time>
      </trkpt>
      <trkpt lat="45.55704" lon="6.78358">
        <ele>1996</ele>
        <time>2013-02-09T10:17:43Z</time>
      </trkpt>
      <trkpt lat="45.55703" lon="6.78378">
        <ele>1998</ele>
        <time>2013-02-09T10:17:47Z</time>
      </trkpt>
      <trkpt lat="45.55701" lon="6.78413">
        <ele>2001</ele>
        <time>2013-02-09T10:17:54Z</time>
      </trkpt>
      <trkpt lat="45.557" lon="6.78438">
        <ele>2011</ele>
        <time>2013-02-09T10:17:59Z</time>
      </trkpt>
      <trkpt lat="45.55698" lon="6.78467">
        <ele>2013</ele>
        <time>2013-02-09T10:18:05Z</time>
      </trkpt>
      <trkpt lat="45.55696" lon="6.78497">
        <ele>2014</ele>
        <time>2013-02-09T10:18:11Z</time>
      </trkpt>
      <trkpt lat="45.55694" lon="6.78528">
        <ele>2022</ele>
        <time>2013-02-09T10:18:17Z</time>
      </trkpt>
      <trkpt lat="45.55693" lon="6.78543">
        <ele>2023</ele>
        <time>2013-02-09T10:18:20Z</time>
      </trkpt>
      <trkpt lat="45.55691" lon="6.78579">
        <ele>2025</ele>
        <time>2013-02-09T10:18:27Z</time>
      </trkpt>
      <trkpt lat="45.55689" lon="6.78614">
        <ele>2032</ele>
        <time>2013-02-09T10:18:34Z</time>
      </trkpt>
      <trkpt lat="45.55687" lon="6.78649">
        <ele>2035</ele>
        <time>2013-02-09T10:18:41Z</time>
      </trkpt>
      <trkpt lat="45.55685" lon="6.78674">
        <ele>2042</ele>
        <time>2013-02-09T10:18:46Z</time>
      </trkpt>
      <trkpt lat="45.55683" lon="6.78703">
        <ele>2044</ele>
        <time>2013-02-09T10:18:52Z</time>
      </trkpt>
      <trkpt lat="45.55682" lon="6.78718">
        <ele>2045</ele>
        <time>2013-02-09T10:18:55Z</time>
      </trkpt>
      <trkpt lat="45.55681" lon="6.78733">
        <ele>2047</ele>
        <time>2013-02-09T10:18:58Z</time>
      </trkpt>
      <trkpt lat="45.5568" lon="6.78752">
        <ele>2053</ele>
        <time>2013-02-09T10:19:02Z</time>
      </trkpt>
      <trkpt lat="45.55678" lon="6.78782">
        <ele>2055</ele>
        <time>2013-02-09T10:19:08Z</time>
      </trkpt>
      <trkpt lat="45.55677" lon="6.78813">
        <ele>2059</ele>
        <time>2013-02-09T10:19:14Z</time>
      </trkpt>
      <trkpt lat="45.55676" lon="6.78848">
        <ele>2068</ele>
        <time>2013-02-09T10:19:21Z</time>
      </trkpt>
      <trkpt lat="45.55675" lon="6.78862">
        <ele>2070</ele>
        <time>2013-02-09T10:19:24Z</time>
      </trkpt>
      <trkpt lat="45.55672" lon="6.78897">
        <ele>2075</ele>
        <time>2013-02-09T10:19:31Z</time>
      </trkpt>
      <trkpt lat="45.55671" lon="6.78911">
        <ele>2080</ele>
        <time>2013-02-09T10:19:34Z</time>
      </trkpt>
      <trkpt lat="45.5567" lon="6.78941">
        <ele>2087</ele>
        <time>2013-02-09T10:19:40Z</time>
      </trkpt>
      <trkpt lat="45.55668" lon="6.7897">
        <ele>2092</ele>
        <time>2013-02-09T10:19:46Z</time>
      </trkpt>
      <trkpt lat="45.55666" lon="6.79003">
        <ele>2103</ele>
        <time>2013-02-09T10:19:53Z</time>
      </trkpt>
      <trkpt lat="45.55664" lon="6.79031">
        <ele>2112</ele>
        <time>2013-02-09T10:19:59Z</time>
      </trkpt>
      <trkpt lat="45.55663" lon="6.79066">
        <ele>2116</ele>
        <time>2013-02-09T10:20:06Z</time>
      </trkpt>
      <trkpt lat="45.55661" lon="6.79091">
        <ele>2121</ele>
        <time>2013-02-09T10:20:11Z</time>
      </trkpt>
      <trkpt lat="45.5566" lon="6.79106">
        <ele>2125</ele>
        <time>2013-02-09T10:20:14Z</time>
      </trkpt>
      <trkpt lat="45.55658" lon="6.7914">
        <ele>2131</ele>
        <time>2013-02-09T10:20:21Z</time>
      </trkpt>
      <trkpt lat="45.55656" lon="6.79169">
        <ele>2138</ele>
        <time>2013-02-09T10:20:27Z</time>
      </trkpt>
      <trkpt lat="45.55655" lon="6.79198">
        <ele>2145</ele>
        <time>2013-02-09T10:20:33Z</time>
      </trkpt>
      <trkpt lat="45.55654" lon="6.79213">
        <ele>2148</ele>
        <time>2013-02-09T10:20:36Z</time>
      </trkpt>
      <trkpt lat="45.55653" lon="6.79232">
        <ele>2150</ele>
        <time>2013-02-09T10:20:40Z</time>
      </trkpt>
      <trkpt lat="45.55652" lon="6.79258">
        <ele>2160</ele>
        <time>2013-02-09T10:20:45Z</time>
      </trkpt>
      <trkpt lat="45.5565" lon="6.79287">
        <ele>2165</ele>
        <time>2013-02-09T10:20:51Z</time>
      </trkpt>
      <trkpt lat="45.55648" lon="6.79321">
        <ele>2169</ele>
        <time>2013-02-09T10:20:58Z</time>
      </trkpt>
      <trkpt lat="45.55646" lon="6.79356">
        <ele>2182</ele>
        <time>2013-02-09T10:21:05Z</time>
      </trkpt>
      <trkpt lat="45.55645" lon="6.7937">
        <ele>2185</ele>
        <time>2013-02-09T10:21:08Z</time>
      </trkpt>
      <trkpt lat="45.55644" lon="6.79398">
        <ele>2188</ele>
        <time>2013-02-09T10:21:14Z</time>
      </trkpt>
      <trkpt lat="45.55642" lon="6.79427">
        <ele>2201</ele>
        <time>2013-02-09T10:21:20Z</time>
      </trkpt>
      <trkpt lat="45.5564" lon="6.79455">
        <ele>2206</ele>
        <time>2013-02-09T10:21:26Z</time>
      </trkpt>
      <trkpt lat="45.55639" lon="6.79469">
        <ele>2209</ele>
        <time>2013-02-09T10:21:29Z</time>
      </trkpt>
      <trkpt lat="45.55638" lon="6.79482">
        <ele>2210</ele>
        <time>2013-02-09T10:21:32Z</time>
      </trkpt>
      <trkpt lat="45.55635" lon="6.79518">
        <ele>2228</ele>
        <time>2013-02-09T10:21:40Z</time>
      </trkpt>
      <trkpt lat="45.55634" lon="6.79549">
        <ele>2232</ele>
        <time>2013-02-09T10:21:47Z</time>
      </trkpt>
      <trkpt lat="45.55637" lon="6.79604">
        <ele>2252</ele>
        <time>2013-02-09T10:21:59Z</time>
      </trkpt>
      <trkpt lat="45.55637" lon="6.79631">
        <ele>2256</ele>
        <time>2013-02-09T10:22:05Z</time>
      </trkpt>
      <trkpt lat="45.55632" lon="6.79662">
        <ele>2259</ele>
        <time>2013-02-09T10:22:11Z</time>
      </trkpt>
      <trkpt lat="45.55623" lon="6.79723">
        <ele>2282</ele>
        <time>2013-02-09T10:22:20Z</time>
      </trkpt>
      <trkpt lat="45.5562" lon="6.79749">
        <ele>2285</ele>
        <time>2013-02-09T10:22:27Z</time>
      </trkpt>
      <trkpt lat="45.55619" lon="6.79768">
        <ele>2301</ele>
        <time>2013-02-09T10:22:32Z</time>
      </trkpt>
      <trkpt lat="45.55618" lon="6.79799">
        <ele>2305</ele>
        <time>2013-02-09T10:22:39Z</time>
      </trkpt>
      <trkpt lat="45.55616" lon="6.79829">
        <ele>2308</ele>
        <time>2013-02-09T10:22:50Z</time>
      </trkpt>
      <trkpt lat="45.55623" lon="6.79858">
        <ele>2316</ele>
        <time>2013-02-09T10:23:01Z</time>
      </trkpt>
      <trkpt lat="45.55623" lon="6.79858">
        <ele>2316</ele>
        <time>2013-02-09T10:23:09Z</time>
      </trkpt>
      <trkpt lat="45.55623" lon="6.79858">
        <ele>2316</ele>
        <time>2013-02-09T10:23:09Z</time>
      </trkpt>
      <trkpt lat="45.55623" lon="6.79858">
        <ele>2316</ele>
        <time>2013-02-09T10:23:50Z</time>
      </trkpt>
      <trkpt lat="45.55643" lon="6.79904">
        <ele>2317</ele>
        <time>2013-02-09T10:23:50Z</time>
      </trkpt>
      <trkpt lat="45.55643" lon="6.79904">
        <ele>2317</ele>
        <time>2013-02-09T10:23:57Z</time>
      </trkpt>
      <trkpt lat="45.55643" lon="6.79904">
        <ele>2317</ele>
        <time>2013-02-09T10:23:58Z</time>
      </trkpt>
      <trkpt lat="45.55643" lon="6.79904">
        <ele>2317</ele>
        <time>2013-02-09T10:24:49Z</time>
      </trkpt>
      <trkpt lat="45.55652" lon="6.79934">
        <ele>2322</ele>
        <time>2013-02-09T10:24:49Z</time>
      </trkpt>
      <trkpt lat="45.55682" lon="6.79957">
        <ele>2311</ele>
        <time>2013-02-09T10:24:54Z</time>
      </trkpt>
      <trkpt lat="45.55731" lon="6.79944">
        <ele>2304</ele>
        <time>2013-02-09T10:24:59Z</time>
      </trkpt>
      <trkpt lat="45.55763" lon="6.79928">
        <ele>2291</ele>
        <time>2013-02-09T10:25:02Z</time>
      </trkpt>
      <trkpt lat="45.5578" lon="6.7991">
        <ele>2281</ele>
        <time>2013-02-09T10:25:05Z</time>
      </trkpt>
      <trkpt lat="45.55807" lon="6.79876">
        <ele>2275</ele>
        <time>2013-02-09T10:25:10Z</time>
      </trkpt>
      <trkpt lat="45.55827" lon="6.79841">
        <ele>2266</ele>
        <time>2013-02-09T10:25:16Z</time>
      </trkpt>
      <trkpt lat="45.55846" lon="6.79794">
        <ele>2243</ele>
        <time>2013-02-09T10:25:21Z</time>
      </trkpt>
      <trkpt lat="45.55863" lon="6.79757">
        <ele>2236</ele>
        <time>2013-02-09T10:25:27Z</time>
      </trkpt>
      <trkpt lat="45.55887" lon="6.79739">
        <ele>2215</ele>
        <time>2013-02-09T10:25:33Z</time>
      </trkpt>
      <trkpt lat="45.55918" lon="6.79701">
        <ele>2197</ele>
        <time>2013-02-09T10:25:39Z</time>
      </trkpt>
      <trkpt lat="45.55959" lon="6.79667">
        <ele>2192</ele>
        <time>2013-02-09T10:25:44Z</time>
      </trkpt>
      <trkpt lat="45.56001" lon="6.79638">
        <ele>2174</ele>
        <time>2013-02-09T10:25:49Z</time>
      </trkpt>
      <trkpt lat="45.5603" lon="6.7959">
        <ele>2170</ele>
        <time>2013-02-09T10:25:55Z</time>
      </trkpt>
      <trkpt lat="45.56047" lon="6.79575">
        <ele>2158</ele>
        <time>2013-02-09T10:25:58Z</time>
      </trkpt>
      <trkpt lat="45.56082" lon="6.79555">
        <ele>2154</ele>
        <time>2013-02-09T10:26:03Z</time>
      </trkpt>
      <trkpt lat="45.56121" lon="6.79543">
        <ele>2138</ele>
        <time>2013-02-09T10:26:09Z</time>
      </trkpt>
      <trkpt lat="45.56165" lon="6.79484">
        <ele>2120</ele>
        <time>2013-02-09T10:26:14Z</time>
      </trkpt>
      <trkpt lat="45.56181" lon="6.79457">
        <ele>2112</ele>
        <time>2013-02-09T10:26:17Z</time>
      </trkpt>
      <trkpt lat="45.56195" lon="6.7947">
        <ele>2112</ele>
        <time>2013-02-09T10:26:21Z</time>
      </trkpt>
      <trkpt lat="45.56231" lon="6.79471">
        <ele>2110</ele>
        <time>2013-02-09T10:26:26Z</time>
      </trkpt>
      <trkpt lat="45.56243" lon="6.79458">
        <ele>2109</ele>
        <time>2013-02-09T10:26:29Z</time>
      </trkpt>
      <trkpt lat="45.56243" lon="6.79458">
        <ele>2109</ele>
        <time>2013-02-09T10:26:35Z</time>
      </trkpt>
      <trkpt lat="45.56243" lon="6.79458">
        <ele>2109</ele>
        <time>2013-02-09T10:26:46Z</time>
      </trkpt>
      <trkpt lat="45.5625" lon="6.79432">
        <ele>2103</ele>
        <time>2013-02-09T10:26:46Z</time>
      </trkpt>
      <trkpt lat="45.56265" lon="6.79379">
        <ele>2093</ele>
        <time>2013-02-09T10:26:51Z</time>
      </trkpt>
      <trkpt lat="45.56282" lon="6.79294">
        <ele>2076</ele>
        <time>2013-02-09T10:26:57Z</time>
      </trkpt>
      <trkpt lat="45.56295" lon="6.79255">
        <ele>2071</ele>
        <time>2013-02-09T10:27:00Z</time>
      </trkpt>
      <trkpt lat="45.56338" lon="6.79195">
        <ele>2045</ele>
        <time>2013-02-09T10:27:06Z</time>
      </trkpt>
      <trkpt lat="45.56384" lon="6.79188">
        <ele>2042</ele>
        <time>2013-02-09T10:27:11Z</time>
      </trkpt>
      <trkpt lat="45.56449" lon="6.7917">
        <ele>2030</ele>
        <time>2013-02-09T10:27:18Z</time>
      </trkpt>
      <trkpt lat="45.56486" lon="6.79108">
        <ele>2010</ele>
        <time>2013-02-09T10:27:24Z</time>
      </trkpt>
      <trkpt lat="45.56497" lon="6.79065">
        <ele>1996</ele>
        <time>2013-02-09T10:27:27Z</time>
      </trkpt>
      <trkpt lat="45.5651" lon="6.78999">
        <ele>1969</ele>
        <time>2013-02-09T10:27:31Z</time>
      </trkpt>
      <trkpt lat="45.56527" lon="6.78908">
        <ele>1941</ele>
        <time>2013-02-09T10:27:37Z</time>
      </trkpt>
      <trkpt lat="45.56563" lon="6.78845">
        <ele>1928</ele>
        <time>2013-02-09T10:27:43Z</time>
      </trkpt>
      <trkpt lat="45.56588" lon="6.78775">
        <ele>1904</ele>
        <time>2013-02-09T10:27:49Z</time>
      </trkpt>
      <trkpt lat="45.56659" lon="6.78674">
        <ele>1884</ele>
        <time>2013-02-09T10:27:57Z</time>
      </trkpt>
      <trkpt lat="45.56701" lon="6.78624">
        <ele>1868</ele>
        <time>2013-02-09T10:28:03Z</time>
      </trkpt>
      <trkpt lat="45.56751" lon="6.7856">
        <ele>1851</ele>
        <time>2013-02-09T10:28:08Z</time>
      </trkpt>
      <trkpt lat="45.56782" lon="6.78532">
        <ele>1848</ele>
        <time>2013-02-09T10:28:11Z</time>
      </trkpt>
      <trkpt lat="45.5684" lon="6.78466">
        <ele>1831</ele>
        <time>2013-02-09T10:28:17Z</time>
      </trkpt>
      <trkpt lat="45.56867" lon="6.78412">
        <ele>1823</ele>
        <time>2013-02-09T10:28:22Z</time>
      </trkpt>
      <trkpt lat="45.56892" lon="6.78375">
        <ele>1818</ele>
        <time>2013-02-09T10:28:25Z</time>
      </trkpt>
      <trkpt lat="45.56938" lon="6.78287">
        <ele>1797</ele>
        <time>2013-02-09T10:28:30Z</time>
      </trkpt>
      <trkpt lat="45.56981" lon="6.78225">
        <ele>1786</ele>
        <time>2013-02-09T10:28:36Z</time>
      </trkpt>
      <trkpt lat="45.57021" lon="6.78163">
        <ele>1769</ele>
        <time>2013-02-09T10:28:41Z</time>
      </trkpt>
      <trkpt lat="45.5704" lon="6.7813">
        <ele>1763</ele>
        <time>2013-02-09T10:28:45Z</time>
      </trkpt>
      <trkpt lat="45.57101" lon="6.78071">
        <ele>1741</ele>
        <time>2013-02-09T10:28:50Z</time>
      </trkpt>
      <trkpt lat="45.57133" lon="6.78037">
        <ele>1736</ele>
        <time>2013-02-09T10:28:53Z</time>
      </trkpt>
      <trkpt lat="45.57172" lon="6.77963">
        <ele>1719</ele>
        <time>2013-02-09T10:28:58Z</time>
      </trkpt>
      <trkpt lat="45.57196" lon="6.77926">
        <ele>1715</ele>
        <time>2013-02-09T10:29:01Z</time>
      </trkpt>
      <trkpt lat="45.57174" lon="6.77879">
        <ele>1706</ele>
        <time>2013-02-09T10:29:06Z</time>
      </trkpt>
      <trkpt lat="45.57153" lon="6.77873">
        <ele>1712</ele>
        <time>2013-02-09T10:29:30Z</time>
      </trkpt>
      <trkpt lat="45.57153" lon="6.77873">
        <ele>1712</ele>
        <time>2013-02-09T10:29:35Z</time>
      </trkpt>
      <trkpt lat="45.57153" lon="6.77873">
        <ele>1712</ele>
        <time>2013-02-09T10:29:36Z</time>
      </trkpt>
      <trkpt lat="45.57153" lon="6.77873">
        <ele>1712</ele>
        <time>2013-02-09T10:32:18Z</time>
      </trkpt>
      <trkpt lat="45.57145" lon="6.7791">
        <ele>1714</ele>
        <time>2013-02-09T10:32:18Z</time>
      </trkpt>
      <trkpt lat="45.57131" lon="6.77945">
        <ele>1724</ele>
        <time>2013-02-09T10:32:24Z</time>
      </trkpt>
      <trkpt lat="45.57108" lon="6.77981">
        <ele>1729</ele>
        <time>2013-02-09T10:32:30Z</time>
      </trkpt>
      <trkpt lat="45.57089" lon="6.78017">
        <ele>1738</ele>
        <time>2013-02-09T10:32:37Z</time>
      </trkpt>
      <trkpt lat="45.57077" lon="6.78036">
        <ele>1746</ele>
        <time>2013-02-09T10:32:42Z</time>
      </trkpt>
      <trkpt lat="45.5706" lon="6.78068">
        <ele>1749</ele>
        <time>2013-02-09T10:32:48Z</time>
      </trkpt>
      <trkpt lat="45.57049" lon="6.78096">
        <ele>1759</ele>
        <time>2013-02-09T10:32:53Z</time>
      </trkpt>
      <trkpt lat="45.57031" lon="6.78125">
        <ele>1763</ele>
        <time>2013-02-09T10:32:59Z</time>
      </trkpt>
      <trkpt lat="45.57016" lon="6.78155">
        <ele>1769</ele>
        <time>2013-02-09T10:33:05Z</time>
      </trkpt>
      <trkpt lat="45.57002" lon="6.7818">
        <ele>1777</ele>
        <time>2013-02-09T10:33:11Z</time>
      </trkpt>
      <trkpt lat="45.56985" lon="6.78213">
        <ele>1786</ele>
        <time>2013-02-09T10:33:18Z</time>
      </trkpt>
      <trkpt lat="45.56969" lon="6.78243">
        <ele>1788</ele>
        <time>2013-02-09T10:33:24Z</time>
      </trkpt>
      <trkpt lat="45.5695" lon="6.78271">
        <ele>1796</ele>
        <time>2013-02-09T10:33:30Z</time>
      </trkpt>
      <trkpt lat="45.56931" lon="6.78306">
        <ele>1799</ele>
        <time>2013-02-09T10:33:37Z</time>
      </trkpt>
      <trkpt lat="45.56914" lon="6.78337">
        <ele>1810</ele>
        <time>2013-02-09T10:33:43Z</time>
      </trkpt>
      <trkpt lat="45.569" lon="6.78362">
        <ele>1817</ele>
        <time>2013-02-09T10:33:49Z</time>
      </trkpt>
      <trkpt lat="45.56876" lon="6.78401">
        <ele>1821</ele>
        <time>2013-02-09T10:33:57Z</time>
      </trkpt>
      <trkpt lat="45.56858" lon="6.78433">
        <ele>1829</ele>
        <time>2013-02-09T10:34:04Z</time>
      </trkpt>
      <trkpt lat="45.56842" lon="6.78465">
        <ele>1831</ele>
        <time>2013-02-09T10:34:11Z</time>
      </trkpt>
      <trkpt lat="45.56829" lon="6.7849">
        <ele>1839</ele>
        <time>2013-02-09T10:34:16Z</time>
      </trkpt>
      <trkpt lat="45.5682" lon="6.78509">
        <ele>1843</ele>
        <time>2013-02-09T10:34:20Z</time>
      </trkpt>
      <trkpt lat="45.56806" lon="6.78532">
        <ele>1846</ele>
        <time>2013-02-09T10:34:25Z</time>
      </trkpt>
      <trkpt lat="45.56796" lon="6.78552">
        <ele>1848</ele>
        <time>2013-02-09T10:34:29Z</time>
      </trkpt>
      <trkpt lat="45.5678" lon="6.78582">
        <ele>1850</ele>
        <time>2013-02-09T10:34:35Z</time>
      </trkpt>
      <trkpt lat="45.56764" lon="6.78607">
        <ele>1856</ele>
        <time>2013-02-09T10:34:41Z</time>
      </trkpt>
      <trkpt lat="45.56752" lon="6.78631">
        <ele>1858</ele>
        <time>2013-02-09T10:34:46Z</time>
      </trkpt>
      <trkpt lat="45.56734" lon="6.78656">
        <ele>1868</ele>
        <time>2013-02-09T10:34:52Z</time>
      </trkpt>
      <trkpt lat="45.5672" lon="6.7868">
        <ele>1876</ele>
        <time>2013-02-09T10:34:57Z</time>
      </trkpt>
      <trkpt lat="45.56703" lon="6.78714">
        <ele>1881</ele>
        <time>2013-02-09T10:35:04Z</time>
      </trkpt>
      <trkpt lat="45.5671" lon="6.78735">
        <ele>1881</ele>
        <time>2013-02-09T10:35:10Z</time>
      </trkpt>
      <trkpt lat="45.56678" lon="6.78762">
        <ele>1891</ele>
        <time>2013-02-09T10:35:15Z</time>
      </trkpt>
      <trkpt lat="45.56669" lon="6.78778">
        <ele>1891</ele>
        <time>2013-02-09T10:35:18Z</time>
      </trkpt>
      <trkpt lat="45.56652" lon="6.7881">
        <ele>1901</ele>
        <time>2013-02-09T10:35:24Z</time>
      </trkpt>
      <trkpt lat="45.56642" lon="6.78825">
        <ele>1902</ele>
        <time>2013-02-09T10:35:27Z</time>
      </trkpt>
      <trkpt lat="45.56627" lon="6.78853">
        <ele>1913</ele>
        <time>2013-02-09T10:35:33Z</time>
      </trkpt>
      <trkpt lat="45.56617" lon="6.7887">
        <ele>1915</ele>
        <time>2013-02-09T10:35:37Z</time>
      </trkpt>
      <trkpt lat="45.56607" lon="6.78888">
        <ele>1918</ele>
        <time>2013-02-09T10:35:41Z</time>
      </trkpt>
      <trkpt lat="45.56594" lon="6.7891">
        <ele>1925</ele>
        <time>2013-02-09T10:35:47Z</time>
      </trkpt>
      <trkpt lat="45.56577" lon="6.78939">
        <ele>1945</ele>
        <time>2013-02-09T10:35:52Z</time>
      </trkpt>
      <trkpt lat="45.56564" lon="6.78963">
        <ele>1952</ele>
        <time>2013-02-09T10:35:57Z</time>
      </trkpt>
      <trkpt lat="45.56554" lon="6.78979">
        <ele>1955</ele>
        <time>2013-02-09T10:36:01Z</time>
      </trkpt>
      <trkpt lat="45.56542" lon="6.78999">
        <ele>1958</ele>
        <time>2013-02-09T10:36:06Z</time>
      </trkpt>
      <trkpt lat="45.56534" lon="6.79012">
        <ele>1974</ele>
        <time>2013-02-09T10:36:09Z</time>
      </trkpt>
      <trkpt lat="45.56526" lon="6.79027">
        <ele>1977</ele>
        <time>2013-02-09T10:36:12Z</time>
      </trkpt>
      <trkpt lat="45.56516" lon="6.79045">
        <ele>1980</ele>
        <time>2013-02-09T10:36:16Z</time>
      </trkpt>
      <trkpt lat="45.56502" lon="6.79072">
        <ele>1990</ele>
        <time>2013-02-09T10:36:22Z</time>
      </trkpt>
      <trkpt lat="45.56494" lon="6.79085">
        <ele>2002</ele>
        <time>2013-02-09T10:36:25Z</time>
      </trkpt>
      <trkpt lat="45.56482" lon="6.79105">
        <ele>2010</ele>
        <time>2013-02-09T10:36:29Z</time>
      </trkpt>
      <trkpt lat="45.56466" lon="6.79131">
        <ele>2015</ele>
        <time>2013-02-09T10:36:35Z</time>
      </trkpt>
      <trkpt lat="45.56445" lon="6.79168">
        <ele>2031</ele>
        <time>2013-02-09T10:36:43Z</time>
      </trkpt>
      <trkpt lat="45.56424" lon="6.79209">
        <ele>2035</ele>
        <time>2013-02-09T10:36:52Z</time>
      </trkpt>
      <trkpt lat="45.56411" lon="6.7923">
        <ele>2046</ele>
        <time>2013-02-09T10:36:57Z</time>
      </trkpt>
      <trkpt lat="45.56401" lon="6.79252">
        <ele>2056</ele>
        <time>2013-02-09T10:37:01Z</time>
      </trkpt>
      <trkpt lat="45.56387" lon="6.7928">
        <ele>2062</ele>
        <time>2013-02-09T10:37:07Z</time>
      </trkpt>
      <trkpt lat="45.56372" lon="6.793">
        <ele>2066</ele>
        <time>2013-02-09T10:37:12Z</time>
      </trkpt>
      <trkpt lat="45.56357" lon="6.79336">
        <ele>2081</ele>
        <time>2013-02-09T10:37:19Z</time>
      </trkpt>
      <trkpt lat="45.56342" lon="6.79361">
        <ele>2083</ele>
        <time>2013-02-09T10:37:25Z</time>
      </trkpt>
      <trkpt lat="45.56329" lon="6.79384">
        <ele>2091</ele>
        <time>2013-02-09T10:37:30Z</time>
      </trkpt>
      <trkpt lat="45.56313" lon="6.79412">
        <ele>2094</ele>
        <time>2013-02-09T10:37:36Z</time>
      </trkpt>
      <trkpt lat="45.56294" lon="6.79445">
        <ele>2103</ele>
        <time>2013-02-09T10:37:43Z</time>
      </trkpt>
      <trkpt lat="45.56294" lon="6.79445">
        <ele>2103</ele>
        <time>2013-02-09T10:37:49Z</time>
      </trkpt>
      <trkpt lat="45.56294" lon="6.79445">
        <ele>2103</ele>
        <time>2013-02-09T10:37:49Z</time>
      </trkpt>
      <trkpt lat="45.56294" lon="6.79445">
        <ele>2103</ele>
        <time>2013-02-09T10:42:08Z</time>
      </trkpt>
      <trkpt lat="45.56262" lon="6.79455">
        <ele>2104</ele>
        <time>2013-02-09T10:42:08Z</time>
      </trkpt>
      <trkpt lat="45.56254" lon="6.79494">
        <ele>2109</ele>
        <time>2013-02-09T10:42:13Z</time>
      </trkpt>
      <trkpt lat="45.56236" lon="6.79522">
        <ele>2119</ele>
        <time>2013-02-09T10:42:18Z</time>
      </trkpt>
      <trkpt lat="45.56216" lon="6.79547">
        <ele>2123</ele>
        <time>2013-02-09T10:42:24Z</time>
      </trkpt>
      <trkpt lat="45.56196" lon="6.79568">
        <ele>2127</ele>
        <time>2013-02-09T10:42:30Z</time>
      </trkpt>
      <trkpt lat="45.56184" lon="6.79582">
        <ele>2130</ele>
        <time>2013-02-09T10:42:34Z</time>
      </trkpt>
      <trkpt lat="45.56172" lon="6.79595">
        <ele>2137</ele>
        <time>2013-02-09T10:42:37Z</time>
      </trkpt>
      <trkpt lat="45.56154" lon="6.7962">
        <ele>2149</ele>
        <time>2013-02-09T10:42:43Z</time>
      </trkpt>
      <trkpt lat="45.56132" lon="6.79641">
        <ele>2153</ele>
        <time>2013-02-09T10:42:49Z</time>
      </trkpt>
      <trkpt lat="45.56118" lon="6.79665">
        <ele>2156</ele>
        <time>2013-02-09T10:42:54Z</time>
      </trkpt>
      <trkpt lat="45.56108" lon="6.79675">
        <ele>2162</ele>
        <time>2013-02-09T10:42:57Z</time>
      </trkpt>
      <trkpt lat="45.56089" lon="6.79699">
        <ele>2162</ele>
        <time>2013-02-09T10:43:04Z</time>
      </trkpt>
      <trkpt lat="45.56073" lon="6.79716">
        <ele>2173</ele>
        <time>2013-02-09T10:43:09Z</time>
      </trkpt>
      <trkpt lat="45.56051" lon="6.79739">
        <ele>2175</ele>
        <time>2013-02-09T10:43:15Z</time>
      </trkpt>
      <trkpt lat="45.56036" lon="6.79759">
        <ele>2185</ele>
        <time>2013-02-09T10:43:20Z</time>
      </trkpt>
      <trkpt lat="45.56021" lon="6.79779">
        <ele>2189</ele>
        <time>2013-02-09T10:43:25Z</time>
      </trkpt>
      <trkpt lat="45.55994" lon="6.7982">
        <ele>2214</ele>
        <time>2013-02-09T10:43:34Z</time>
      </trkpt>
      <trkpt lat="45.55974" lon="6.79847">
        <ele>2235</ele>
        <time>2013-02-09T10:43:40Z</time>
      </trkpt>
      <trkpt lat="45.55965" lon="6.7986">
        <ele>2241</ele>
        <time>2013-02-09T10:43:43Z</time>
      </trkpt>
      <trkpt lat="45.55952" lon="6.79877">
        <ele>2246</ele>
        <time>2013-02-09T10:43:48Z</time>
      </trkpt>
      <trkpt lat="45.55936" lon="6.79888">
        <ele>2251</ele>
        <time>2013-02-09T10:43:53Z</time>
      </trkpt>
      <trkpt lat="45.55914" lon="6.79911">
        <ele>2269</ele>
        <time>2013-02-09T10:44:00Z</time>
      </trkpt>
      <trkpt lat="45.5589" lon="6.7993">
        <ele>2276</ele>
        <time>2013-02-09T10:44:07Z</time>
      </trkpt>
      <trkpt lat="45.55872" lon="6.79948">
        <ele>2278</ele>
        <time>2013-02-09T10:44:12Z</time>
      </trkpt>
      <trkpt lat="45.55847" lon="6.7997">
        <ele>2281</ele>
        <time>2013-02-09T10:44:19Z</time>
      </trkpt>
      <trkpt lat="45.55832" lon="6.79996">
        <ele>2288</ele>
        <time>2013-02-09T10:44:24Z</time>
      </trkpt>
      <trkpt lat="45.55814" lon="6.80015">
        <ele>2296</ele>
        <time>2013-02-09T10:44:29Z</time>
      </trkpt>
      <trkpt lat="45.55798" lon="6.80039">
        <ele>2301</ele>
        <time>2013-02-09T10:44:35Z</time>
      </trkpt>
      <trkpt lat="45.55775" lon="6.80067">
        <ele>2306</ele>
        <time>2013-02-09T10:44:42Z</time>
      </trkpt>
      <trkpt lat="45.55755" lon="6.80076">
        <ele>2312</ele>
        <time>2013-02-09T10:44:47Z</time>
      </trkpt>
      <trkpt lat="45.5573" lon="6.80093">
        <ele>2328</ele>
        <time>2013-02-09T10:44:53Z</time>
      </trkpt>
      <trkpt lat="45.55716" lon="6.80103">
        <ele>2333</ele>
        <time>2013-02-09T10:44:56Z</time>
      </trkpt>
      <trkpt lat="45.55695" lon="6.80123">
        <ele>2339</ele>
        <time>2013-02-09T10:45:02Z</time>
      </trkpt>
      <trkpt lat="45.55685" lon="6.80163">
        <ele>2350</ele>
        <time>2013-02-09T10:45:08Z</time>
      </trkpt>
      <trkpt lat="45.55679" lon="6.80196">
        <ele>2367</ele>
        <time>2013-02-09T10:45:13Z</time>
      </trkpt>
      <trkpt lat="45.55671" lon="6.80225">
        <ele>2377</ele>
        <time>2013-02-09T10:45:18Z</time>
      </trkpt>
      <trkpt lat="45.55656" lon="6.80252">
        <ele>2413</ele>
        <time>2013-02-09T10:45:24Z</time>
      </trkpt>
      <trkpt lat="45.55645" lon="6.80279">
        <ele>2431</ele>
        <time>2013-02-09T10:45:29Z</time>
      </trkpt>
      <trkpt lat="45.55626" lon="6.80308">
        <ele>2443</ele>
        <time>2013-02-09T10:45:35Z</time>
      </trkpt>
      <trkpt lat="45.55618" lon="6.8032">
        <ele>2448</ele>
        <time>2013-02-09T10:45:38Z</time>
      </trkpt>
      <trkpt lat="45.55604" lon="6.80337">
        <ele>2463</ele>
        <time>2013-02-09T10:45:43Z</time>
      </trkpt>
      <trkpt lat="45.5559" lon="6.8036">
        <ele>2463</ele>
        <time>2013-02-09T10:45:51Z</time>
      </trkpt>
      <trkpt lat="45.55578" lon="6.80372">
        <ele>2479</ele>
        <time>2013-02-09T10:45:55Z</time>
      </trkpt>
      <trkpt lat="45.55561" lon="6.80395">
        <ele>2479</ele>
        <time>2013-02-09T10:46:01Z</time>
      </trkpt>
      <trkpt lat="45.55546" lon="6.80415">
        <ele>2481</ele>
        <time>2013-02-09T10:46:06Z</time>
      </trkpt>
      <trkpt lat="45.55518" lon="6.80445">
        <ele>2473</ele>
        <time>2013-02-09T10:46:14Z</time>
      </trkpt>
      <trkpt lat="45.55495" lon="6.80479">
        <ele>2480</ele>
        <time>2013-02-09T10:46:21Z</time>
      </trkpt>
      <trkpt lat="45.55464" lon="6.80518">
        <ele>2465</ele>
        <time>2013-02-09T10:46:30Z</time>
      </trkpt>
      <trkpt lat="45.55442" lon="6.80545">
        <ele>2463</ele>
        <time>2013-02-09T10:46:37Z</time>
      </trkpt>
      <trkpt lat="45.55418" lon="6.80576">
        <ele>2457</ele>
        <time>2013-02-09T10:46:45Z</time>
      </trkpt>
      <trkpt lat="45.554" lon="6.80599">
        <ele>2461</ele>
        <time>2013-02-09T10:46:51Z</time>
      </trkpt>
      <trkpt lat="45.55383" lon="6.80627">
        <ele>2463</ele>
        <time>2013-02-09T10:46:57Z</time>
      </trkpt>
      <trkpt lat="45.55361" lon="6.80652">
        <ele>2466</ele>
        <time>2013-02-09T10:47:03Z</time>
      </trkpt>
      <trkpt lat="45.55348" lon="6.80673">
        <ele>2469</ele>
        <time>2013-02-09T10:47:07Z</time>
      </trkpt>
      <trkpt lat="45.55328" lon="6.80703">
        <ele>2480</ele>
        <time>2013-02-09T10:47:13Z</time>
      </trkpt>
      <trkpt lat="45.55307" lon="6.80728">
        <ele>2482</ele>
        <time>2013-02-09T10:47:19Z</time>
      </trkpt>
      <trkpt lat="45.55291" lon="6.80749">
        <ele>2483</ele>
        <time>2013-02-09T10:47:24Z</time>
      </trkpt>
      <trkpt lat="45.55273" lon="6.80774">
        <ele>2484</ele>
        <time>2013-02-09T10:47:30Z</time>
      </trkpt>
      <trkpt lat="45.55252" lon="6.80806">
        <ele>2484</ele>
        <time>2013-02-09T10:47:37Z</time>
      </trkpt>
      <trkpt lat="45.55235" lon="6.80833">
        <ele>2488</ele>
        <time>2013-02-09T10:47:43Z</time>
      </trkpt>
      <trkpt lat="45.55209" lon="6.80863">
        <ele>2493</ele>
        <time>2013-02-09T10:47:50Z</time>
      </trkpt>
      <trkpt lat="45.55188" lon="6.80891">
        <ele>2496</ele>
        <time>2013-02-09T10:47:56Z</time>
      </trkpt>
      <trkpt lat="45.55166" lon="6.80917">
        <ele>2506</ele>
        <time>2013-02-09T10:48:02Z</time>
      </trkpt>
      <trkpt lat="45.55145" lon="6.80941">
        <ele>2519</ele>
        <time>2013-02-09T10:48:08Z</time>
      </trkpt>
      <trkpt lat="45.55123" lon="6.80969">
        <ele>2525</ele>
        <time>2013-02-09T10:48:14Z</time>
      </trkpt>
      <trkpt lat="45.55105" lon="6.80989">
        <ele>2531</ele>
        <time>2013-02-09T10:48:19Z</time>
      </trkpt>
      <trkpt lat="45.55092" lon="6.81016">
        <ele>2536</ele>
        <time>2013-02-09T10:48:25Z</time>
      </trkpt>
      <trkpt lat="45.55085" lon="6.81021">
        <ele>2536</ele>
        <time>2013-02-09T10:48:27Z</time>
      </trkpt>
      <trkpt lat="45.55085" lon="6.81021">
        <ele>2536</ele>
        <time>2013-02-09T10:48:32Z</time>
      </trkpt>
      <trkpt lat="45.55085" lon="6.81021">
        <ele>2536</ele>
        <time>2013-02-09T10:48:59Z</time>
      </trkpt>
      <trkpt lat="45.55075" lon="6.81026">
        <ele>2541</ele>
        <time>2013-02-09T10:48:59Z</time>
      </trkpt>
      <trkpt lat="45.55075" lon="6.81037">
        <ele>2540</ele>
        <time>2013-02-09T10:49:10Z</time>
      </trkpt>
      <trkpt lat="45.55075" lon="6.81037">
        <ele>2540</ele>
        <time>2013-02-09T10:49:18Z</time>
      </trkpt>
      <trkpt lat="45.55075" lon="6.81037">
        <ele>2540</ele>
        <time>2013-02-09T10:50:58Z</time>
      </trkpt>
      <trkpt lat="45.55077" lon="6.81057">
        <ele>2541</ele>
        <time>2013-02-09T10:50:58Z</time>
      </trkpt>
      <trkpt lat="45.55074" lon="6.81078">
        <ele>2541</ele>
        <time>2013-02-09T10:51:04Z</time>
      </trkpt>
      <trkpt lat="45.55074" lon="6.81085">
        <ele>2539</ele>
        <time>2013-02-09T10:51:07Z</time>
      </trkpt>
      <trkpt lat="45.55074" lon="6.81085">
        <ele>2539</ele>
        <time>2013-02-09T10:51:14Z</time>
      </trkpt>
      <trkpt lat="45.55074" lon="6.81085">
        <ele>2539</ele>
        <time>2013-02-09T10:52:25Z</time>
      </trkpt>
      <trkpt lat="45.55069" lon="6.81111">
        <ele>2534</ele>
        <time>2013-02-09T10:52:25Z</time>
      </trkpt>
      <trkpt lat="45.55057" lon="6.81153">
        <ele>2530</ele>
        <time>2013-02-09T10:52:30Z</time>
      </trkpt>
      <trkpt lat="45.5505" lon="6.81188">
        <ele>2520</ele>
        <time>2013-02-09T10:52:33Z</time>
      </trkpt>
      <trkpt lat="45.55039" lon="6.81251">
        <ele>2509</ele>
        <time>2013-02-09T10:52:37Z</time>
      </trkpt>
      <trkpt lat="45.55023" lon="6.81295">
        <ele>2507</ele>
        <time>2013-02-09T10:52:40Z</time>
      </trkpt>
      <trkpt lat="45.54986" lon="6.81387">
        <ele>2498</ele>
        <time>2013-02-09T10:52:46Z</time>
      </trkpt>
      <trkpt lat="45.54971" lon="6.81468">
        <ele>2493</ele>
        <time>2013-02-09T10:52:52Z</time>
      </trkpt>
      <trkpt lat="45.54963" lon="6.81508">
        <ele>2488</ele>
        <time>2013-02-09T10:52:55Z</time>
      </trkpt>
      <trkpt lat="45.5496" lon="6.81562">
        <ele>2485</ele>
        <time>2013-02-09T10:53:00Z</time>
      </trkpt>
      <trkpt lat="45.5495" lon="6.81635">
        <ele>2475</ele>
        <time>2013-02-09T10:53:06Z</time>
      </trkpt>
      <trkpt lat="45.54936" lon="6.81698">
        <ele>2467</ele>
        <time>2013-02-09T10:53:11Z</time>
      </trkpt>
      <trkpt lat="45.5492" lon="6.81733">
        <ele>2465</ele>
        <time>2013-02-09T10:53:14Z</time>
      </trkpt>
      <trkpt lat="45.54897" lon="6.81769">
        <ele>2459</ele>
        <time>2013-02-09T10:53:19Z</time>
      </trkpt>
      <trkpt lat="45.54882" lon="6.8179">
        <ele>2458</ele>
        <time>2013-02-09T10:53:27Z</time>
      </trkpt>
      <trkpt lat="45.5486" lon="6.81833">
        <ele>2458</ele>
        <time>2013-02-09T10:53:46Z</time>
      </trkpt>
      <trkpt lat="45.5486" lon="6.81833">
        <ele>2458</ele>
        <time>2013-02-09T10:53:53Z</time>
      </trkpt>
      <trkpt lat="45.5486" lon="6.81833">
        <ele>2458</ele>
        <time>2013-02-09T10:53:53Z</time>
      </trkpt>
      <trkpt lat="45.5486" lon="6.81833">
        <ele>2458</ele>
        <time>2013-02-09T10:54:35Z</time>
      </trkpt>
      <trkpt lat="45.54855" lon="6.81848">
        <ele>2458</ele>
        <time>2013-02-09T10:54:35Z</time>
      </trkpt>
      <trkpt lat="45.5485" lon="6.8188">
        <ele>2458</ele>
        <time>2013-02-09T10:54:44Z</time>
      </trkpt>
      <trkpt lat="45.54847" lon="6.819">
        <ele>2460</ele>
        <time>2013-02-09T10:54:49Z</time>
      </trkpt>
      <trkpt lat="45.5484" lon="6.81928">
        <ele>2459</ele>
        <time>2013-02-09T10:54:55Z</time>
      </trkpt>
      <trkpt lat="45.54833" lon="6.81964">
        <ele>2462</ele>
        <time>2013-02-09T10:55:01Z</time>
      </trkpt>
      <trkpt lat="45.54828" lon="6.82001">
        <ele>2462</ele>
        <time>2013-02-09T10:55:07Z</time>
      </trkpt>
      <trkpt lat="45.54826" lon="6.8204">
        <ele>2463</ele>
        <time>2013-02-09T10:55:14Z</time>
      </trkpt>
      <trkpt lat="45.54831" lon="6.82066">
        <ele>2462</ele>
        <time>2013-02-09T10:55:20Z</time>
      </trkpt>
      <trkpt lat="45.54844" lon="6.82092">
        <ele>2453</ele>
        <time>2013-02-09T10:55:29Z</time>
      </trkpt>
      <trkpt lat="45.54852" lon="6.82115">
        <ele>2448</ele>
        <time>2013-02-09T10:55:38Z</time>
      </trkpt>
      <trkpt lat="45.54857" lon="6.82148">
        <ele>2450</ele>
        <time>2013-02-09T10:55:48Z</time>
      </trkpt>
      <trkpt lat="45.54858" lon="6.82182">
        <ele>2452</ele>
        <time>2013-02-09T10:55:56Z</time>
      </trkpt>
      <trkpt lat="45.54856" lon="6.82206">
        <ele>2452</ele>
        <time>2013-02-09T10:56:02Z</time>
      </trkpt>
      <trkpt lat="45.54854" lon="6.82225">
        <ele>2453</ele>
        <time>2013-02-09T10:56:08Z</time>
      </trkpt>
      <trkpt lat="45.54843" lon="6.82263">
        <ele>2458</ele>
        <time>2013-02-09T10:56:18Z</time>
      </trkpt>
      <trkpt lat="45.54835" lon="6.82294">
        <ele>2455</ele>
        <time>2013-02-09T10:56:25Z</time>
      </trkpt>
      <trkpt lat="45.5483" lon="6.82325">
        <ele>2464</ele>
        <time>2013-02-09T10:56:31Z</time>
      </trkpt>
      <trkpt lat="45.54825" lon="6.8236">
        <ele>2461</ele>
        <time>2013-02-09T10:56:38Z</time>
      </trkpt>
      <trkpt lat="45.5482" lon="6.82395">
        <ele>2460</ele>
        <time>2013-02-09T10:56:45Z</time>
      </trkpt>
      <trkpt lat="45.54817" lon="6.82419">
        <ele>2455</ele>
        <time>2013-02-09T10:56:50Z</time>
      </trkpt>
      <trkpt lat="45.54814" lon="6.82433">
        <ele>2454</ele>
        <time>2013-02-09T10:56:54Z</time>
      </trkpt>
      <trkpt lat="45.54801" lon="6.8246">
        <ele>2453</ele>
        <time>2013-02-09T10:57:03Z</time>
      </trkpt>
      <trkpt lat="45.54797" lon="6.82495">
        <ele>2452</ele>
        <time>2013-02-09T10:57:21Z</time>
      </trkpt>
      <trkpt lat="45.54788" lon="6.82505">
        <ele>2453</ele>
        <time>2013-02-09T10:57:27Z</time>
      </trkpt>
      <trkpt lat="45.54788" lon="6.82505">
        <ele>2453</ele>
        <time>2013-02-09T10:57:35Z</time>
      </trkpt>
      <trkpt lat="45.54788" lon="6.82505">
        <ele>2453</ele>
        <time>2013-02-09T10:57:43Z</time>
      </trkpt>
      <trkpt lat="45.54787" lon="6.82517">
        <ele>2453</ele>
        <time>2013-02-09T10:57:43Z</time>
      </trkpt>
      <trkpt lat="45.5478" lon="6.82542">
        <ele>2455</ele>
        <time>2013-02-09T10:57:50Z</time>
      </trkpt>
      <trkpt lat="45.54773" lon="6.82569">
        <ele>2457</ele>
        <time>2013-02-09T10:57:58Z</time>
      </trkpt>
      <trkpt lat="45.54767" lon="6.82586">
        <ele>2465</ele>
        <time>2013-02-09T10:58:06Z</time>
      </trkpt>
      <trkpt lat="45.54735" lon="6.82611">
        <ele>2476</ele>
        <time>2013-02-09T10:58:16Z</time>
      </trkpt>
      <trkpt lat="45.54735" lon="6.82611">
        <ele>2476</ele>
        <time>2013-02-09T10:58:23Z</time>
      </trkpt>
      <trkpt lat="45.54735" lon="6.82611">
        <ele>2476</ele>
        <time>2013-02-09T10:58:26Z</time>
      </trkpt>
      <trkpt lat="45.54742" lon="6.82631">
        <ele>2478</ele>
        <time>2013-02-09T10:58:26Z</time>
      </trkpt>
      <trkpt lat="45.5474" lon="6.82657">
        <ele>2479</ele>
        <time>2013-02-09T10:58:34Z</time>
      </trkpt>
      <trkpt lat="45.54725" lon="6.82692">
        <ele>2484</ele>
        <time>2013-02-09T10:58:47Z</time>
      </trkpt>
      <trkpt lat="45.54718" lon="6.82733">
        <ele>2486</ele>
        <time>2013-02-09T10:59:02Z</time>
      </trkpt>
      <trkpt lat="45.5471" lon="6.82775">
        <ele>2488</ele>
        <time>2013-02-09T10:59:17Z</time>
      </trkpt>
      <trkpt lat="45.54709" lon="6.82782">
        <ele>2488</ele>
        <time>2013-02-09T10:59:20Z</time>
      </trkpt>
      <trkpt lat="45.54709" lon="6.82782">
        <ele>2488</ele>
        <time>2013-02-09T10:59:25Z</time>
      </trkpt>
      <trkpt lat="45.54709" lon="6.82782">
        <ele>2488</ele>
        <time>2013-02-09T11:00:26Z</time>
      </trkpt>
      <trkpt lat="45.54705" lon="6.82804">
        <ele>2488</ele>
        <time>2013-02-09T11:00:26Z</time>
      </trkpt>
      <trkpt lat="45.54699" lon="6.82836">
        <ele>2489</ele>
        <time>2013-02-09T11:00:37Z</time>
      </trkpt>
      <trkpt lat="45.54693" lon="6.82855">
        <ele>2489</ele>
        <time>2013-02-09T11:00:44Z</time>
      </trkpt>
      <trkpt lat="45.54683" lon="6.82886">
        <ele>2489</ele>
        <time>2013-02-09T11:00:56Z</time>
      </trkpt>
      <trkpt lat="45.54675" lon="6.82915">
        <ele>2488</ele>
        <time>2013-02-09T11:01:07Z</time>
      </trkpt>
      <trkpt lat="45.5467" lon="6.82934">
        <ele>2490</ele>
        <time>2013-02-09T11:01:14Z</time>
      </trkpt>
      <trkpt lat="45.54663" lon="6.82961">
        <ele>2497</ele>
        <time>2013-02-09T11:01:24Z</time>
      </trkpt>
      <trkpt lat="45.54655" lon="6.82987">
        <ele>2498</ele>
        <time>2013-02-09T11:01:34Z</time>
      </trkpt>
      <trkpt lat="45.5465" lon="6.83004">
        <ele>2505</ele>
        <time>2013-02-09T11:01:41Z</time>
      </trkpt>
      <trkpt lat="45.54647" lon="6.83018">
        <ele>2508</ele>
        <time>2013-02-09T11:01:46Z</time>
      </trkpt>
      <trkpt lat="45.54645" lon="6.83026">
        <ele>2510</ele>
        <time>2013-02-09T11:01:49Z</time>
      </trkpt>
      <trkpt lat="45.54637" lon="6.83053">
        <ele>2514</ele>
        <time>2013-02-09T11:01:59Z</time>
      </trkpt>
      <trkpt lat="45.54628" lon="6.83082">
        <ele>2517</ele>
        <time>2013-02-09T11:02:10Z</time>
      </trkpt>
      <trkpt lat="45.54623" lon="6.83105">
        <ele>2530</ele>
        <time>2013-02-09T11:02:19Z</time>
      </trkpt>
      <trkpt lat="45.54615" lon="6.83132">
        <ele>2533</ele>
        <time>2013-02-09T11:02:29Z</time>
      </trkpt>
      <trkpt lat="45.54608" lon="6.83157">
        <ele>2535</ele>
        <time>2013-02-09T11:02:39Z</time>
      </trkpt>
      <trkpt lat="45.54603" lon="6.83177">
        <ele>2550</ele>
        <time>2013-02-09T11:02:47Z</time>
      </trkpt>
      <trkpt lat="45.54595" lon="6.83203">
        <ele>2550</ele>
        <time>2013-02-09T11:02:58Z</time>
      </trkpt>
      <trkpt lat="45.54586" lon="6.83234">
        <ele>2550</ele>
        <time>2013-02-09T11:03:10Z</time>
      </trkpt>
      <trkpt lat="45.54581" lon="6.83255">
        <ele>2596.5</ele>
        <time>2013-02-09T11:03:19Z</time>
      </trkpt>
      <trkpt lat="45.54572" lon="6.83284">
        <ele>2600.3</ele>
        <time>2013-02-09T11:03:30Z</time>
      </trkpt>
      <trkpt lat="45.54567" lon="6.83301">
        <ele>2600.2</ele>
        <time>2013-02-09T11:03:37Z</time>
      </trkpt>
      <trkpt lat="45.54563" lon="6.83314">
        <ele>2600.1</ele>
        <time>2013-02-09T11:03:42Z</time>
      </trkpt>
      <trkpt lat="45.54556" lon="6.83337">
        <ele>2601.6</ele>
        <time>2013-02-09T11:03:51Z</time>
      </trkpt>
      <trkpt lat="45.5455" lon="6.83359">
        <ele>2605.1</ele>
        <time>2013-02-09T11:03:59Z</time>
      </trkpt>
      <trkpt lat="45.54544" lon="6.83381">
        <ele>2609.4</ele>
        <time>2013-02-09T11:04:07Z</time>
      </trkpt>
      <trkpt lat="45.54542" lon="6.83395">
        <ele>2612</ele>
        <time>2013-02-09T11:04:13Z</time>
      </trkpt>
      <trkpt lat="45.54531" lon="6.83425">
        <ele>2618.3</ele>
        <time>2013-02-09T11:04:24Z</time>
      </trkpt>
      <trkpt lat="45.54521" lon="6.83461">
        <ele>2622.2</ele>
        <time>2013-02-09T11:04:37Z</time>
      </trkpt>
      <trkpt lat="45.54514" lon="6.83484">
        <ele>2625.5</ele>
        <time>2013-02-09T11:04:46Z</time>
      </trkpt>
      <trkpt lat="45.54506" lon="6.83515">
        <ele>2631.9</ele>
        <time>2013-02-09T11:04:58Z</time>
      </trkpt>
      <trkpt lat="45.54504" lon="6.83529">
        <ele>2635.6</ele>
        <time>2013-02-09T11:05:03Z</time>
      </trkpt>
      <trkpt lat="45.54504" lon="6.83529">
        <ele>2635.6</ele>
        <time>2013-02-09T11:05:22Z</time>
      </trkpt>
      <trkpt lat="45.54504" lon="6.83529">
        <ele>2635.6</ele>
        <time>2013-02-09T11:05:24Z</time>
      </trkpt>
      <trkpt lat="45.54485" lon="6.83583">
        <ele>2650.6</ele>
        <time>2013-02-09T11:05:24Z</time>
      </trkpt>
      <trkpt lat="45.5448" lon="6.83608">
        <ele>2659.5</ele>
        <time>2013-02-09T11:05:34Z</time>
      </trkpt>
      <trkpt lat="45.54475" lon="6.83629">
        <ele>2667.1</ele>
        <time>2013-02-09T11:05:42Z</time>
      </trkpt>
      <trkpt lat="45.5447" lon="6.83655">
        <ele>2675.4</ele>
        <time>2013-02-09T11:05:53Z</time>
      </trkpt>
      <trkpt lat="45.54463" lon="6.83678">
        <ele>2681.2</ele>
        <time>2013-02-09T11:06:02Z</time>
      </trkpt>
      <trkpt lat="45.5446" lon="6.83693">
        <ele>2683</ele>
        <time>2013-02-09T11:06:08Z</time>
      </trkpt>
      <trkpt lat="45.54456" lon="6.83706">
        <ele>2683.8</ele>
        <time>2013-02-09T11:06:13Z</time>
      </trkpt>
      <trkpt lat="45.54448" lon="6.8373">
        <ele>2684.2</ele>
        <time>2013-02-09T11:06:22Z</time>
      </trkpt>
      <trkpt lat="45.54443" lon="6.83745">
        <ele>2684.2</ele>
        <time>2013-02-09T11:06:28Z</time>
      </trkpt>
      <trkpt lat="45.54435" lon="6.83778">
        <ele>2687</ele>
        <time>2013-02-09T11:06:39Z</time>
      </trkpt>
      <trkpt lat="45.54427" lon="6.83807">
        <ele>2696.9</ele>
        <time>2013-02-09T11:06:49Z</time>
      </trkpt>
      <trkpt lat="45.5442" lon="6.83829">
        <ele>2706.9</ele>
        <time>2013-02-09T11:06:57Z</time>
      </trkpt>
      <trkpt lat="45.54413" lon="6.83856">
        <ele>2718.2</ele>
        <time>2013-02-09T11:07:08Z</time>
      </trkpt>
      <trkpt lat="45.54409" lon="6.83872">
        <ele>2725.3</ele>
        <time>2013-02-09T11:07:15Z</time>
      </trkpt>
      <trkpt lat="45.54402" lon="6.83899">
        <ele>2737.8</ele>
        <time>2013-02-09T11:07:25Z</time>
      </trkpt>
      <trkpt lat="45.54395" lon="6.83925">
        <ele>2751</ele>
        <time>2013-02-09T11:07:36Z</time>
      </trkpt>
      <trkpt lat="45.54388" lon="6.83949">
        <ele>2763.8</ele>
        <time>2013-02-09T11:07:47Z</time>
      </trkpt>
      <trkpt lat="45.54382" lon="6.83969">
        <ele>2774.2</ele>
        <time>2013-02-09T11:07:56Z</time>
      </trkpt>
      <trkpt lat="45.54374" lon="6.84">
        <ele>2787.9</ele>
        <time>2013-02-09T11:08:09Z</time>
      </trkpt>
      <trkpt lat="45.54369" lon="6.84022">
        <ele>2820</ele>
        <time>2013-02-09T11:08:17Z</time>
      </trkpt>
      <trkpt lat="45.54365" lon="6.84038">
        <ele>2820</ele>
        <time>2013-02-09T11:08:24Z</time>
      </trkpt>
      <trkpt lat="45.5436" lon="6.84069">
        <ele>2820</ele>
        <time>2013-02-09T11:08:37Z</time>
      </trkpt>
      <trkpt lat="45.5435" lon="6.84108">
        <ele>2823</ele>
        <time>2013-02-09T11:08:51Z</time>
      </trkpt>
      <trkpt lat="45.5434" lon="6.84129">
        <ele>2825</ele>
        <time>2013-02-09T11:09:01Z</time>
      </trkpt>
      <trkpt lat="45.54329" lon="6.84136">
        <ele>2829</ele>
        <time>2013-02-09T11:09:11Z</time>
      </trkpt>
      <trkpt lat="45.54315" lon="6.84101">
        <ele>2826</ele>
        <time>2013-02-09T11:09:44Z</time>
      </trkpt>
      <trkpt lat="45.54317" lon="6.84069">
        <ele>2822</ele>
        <time>2013-02-09T11:09:51Z</time>
      </trkpt>
      <trkpt lat="45.54327" lon="6.84032">
        <ele>2823</ele>
        <time>2013-02-09T11:09:56Z</time>
      </trkpt>
      <trkpt lat="45.54333" lon="6.83989">
        <ele>2795.9</ele>
        <time>2013-02-09T11:10:02Z</time>
      </trkpt>
      <trkpt lat="45.54335" lon="6.8396">
        <ele>2788.1</ele>
        <time>2013-02-09T11:10:05Z</time>
      </trkpt>
      <trkpt lat="45.54337" lon="6.83921">
        <ele>2780.6</ele>
        <time>2013-02-09T11:10:10Z</time>
      </trkpt>
      <trkpt lat="45.54346" lon="6.83891">
        <ele>2768.4</ele>
        <time>2013-02-09T11:10:16Z</time>
      </trkpt>
      <trkpt lat="45.54355" lon="6.83883">
        <ele>2760.8</ele>
        <time>2013-02-09T11:10:19Z</time>
      </trkpt>
      <trkpt lat="45.54355" lon="6.83883">
        <ele>2760.8</ele>
        <time>2013-02-09T11:10:24Z</time>
      </trkpt>
      <trkpt lat="45.54355" lon="6.83883">
        <ele>2760.8</ele>
        <time>2013-02-09T11:10:28Z</time>
      </trkpt>
      <trkpt lat="45.54363" lon="6.83881">
        <ele>2755.5</ele>
        <time>2013-02-09T11:10:28Z</time>
      </trkpt>
      <trkpt lat="45.54376" lon="6.83861">
        <ele>2741.2</ele>
        <time>2013-02-09T11:10:37Z</time>
      </trkpt>
      <trkpt lat="45.54378" lon="6.83853">
        <ele>2737.8</ele>
        <time>2013-02-09T11:10:39Z</time>
      </trkpt>
      <trkpt lat="45.54378" lon="6.83853">
        <ele>2737.8</ele>
        <time>2013-02-09T11:10:50Z</time>
      </trkpt>
      <trkpt lat="45.54378" lon="6.83853">
        <ele>2737.8</ele>
        <time>2013-02-09T11:10:54Z</time>
      </trkpt>
      <trkpt lat="45.54387" lon="6.83853">
        <ele>2732.5</ele>
        <time>2013-02-09T11:10:54Z</time>
      </trkpt>
      <trkpt lat="45.54406" lon="6.83826">
        <ele>2713.2</ele>
        <time>2013-02-09T11:10:59Z</time>
      </trkpt>
      <trkpt lat="45.54415" lon="6.83815">
        <ele>2704.8</ele>
        <time>2013-02-09T11:11:06Z</time>
      </trkpt>
      <trkpt lat="45.54428" lon="6.83796">
        <ele>2693.8</ele>
        <time>2013-02-09T11:11:18Z</time>
      </trkpt>
      <trkpt lat="45.54423" lon="6.83782">
        <ele>2693.4</ele>
        <time>2013-02-09T11:11:21Z</time>
      </trkpt>
      <trkpt lat="45.54423" lon="6.83782">
        <ele>2693.4</ele>
        <time>2013-02-09T11:11:26Z</time>
      </trkpt>
      <trkpt lat="45.54423" lon="6.83782">
        <ele>2693.4</ele>
        <time>2013-02-09T11:11:38Z</time>
      </trkpt>
      <trkpt lat="45.54436" lon="6.83794">
        <ele>2690.1</ele>
        <time>2013-02-09T11:11:38Z</time>
      </trkpt>
      <trkpt lat="45.54457" lon="6.83804">
        <ele>2686.5</ele>
        <time>2013-02-09T11:11:45Z</time>
      </trkpt>
      <trkpt lat="45.5447" lon="6.83789">
        <ele>2681.4</ele>
        <time>2013-02-09T11:11:52Z</time>
      </trkpt>
      <trkpt lat="45.54486" lon="6.83744">
        <ele>2676</ele>
        <time>2013-02-09T11:11:59Z</time>
      </trkpt>
      <trkpt lat="45.54494" lon="6.83714">
        <ele>2674.9</ele>
        <time>2013-02-09T11:12:04Z</time>
      </trkpt>
      <trkpt lat="45.545" lon="6.83693">
        <ele>2673.8</ele>
        <time>2013-02-09T11:12:10Z</time>
      </trkpt>
      <trkpt lat="45.5451" lon="6.83672">
        <ele>2671.5</ele>
        <time>2013-02-09T11:12:20Z</time>
      </trkpt>
      <trkpt lat="45.5451" lon="6.83672">
        <ele>2671.5</ele>
        <time>2013-02-09T11:12:28Z</time>
      </trkpt>
      <trkpt lat="45.5451" lon="6.83672">
        <ele>2671.5</ele>
        <time>2013-02-09T11:12:28Z</time>
      </trkpt>
      <trkpt lat="45.5451" lon="6.83672">
        <ele>2671.5</ele>
        <time>2013-02-09T11:12:46Z</time>
      </trkpt>
      <trkpt lat="45.5452" lon="6.83654">
        <ele>2667.5</ele>
        <time>2013-02-09T11:12:46Z</time>
      </trkpt>
      <trkpt lat="45.54538" lon="6.83514">
        <ele>2629.7</ele>
        <time>2013-02-09T11:13:01Z</time>
      </trkpt>
      <trkpt lat="45.54544" lon="6.8343">
        <ele>2617.5</ele>
        <time>2013-02-09T11:13:07Z</time>
      </trkpt>
      <trkpt lat="45.54477" lon="6.83284">
        <ele>2591.5</ele>
        <time>2013-02-09T11:13:25Z</time>
      </trkpt>
      <trkpt lat="45.54503" lon="6.83254">
        <ele>2585.9</ele>
        <time>2013-02-09T11:13:30Z</time>
      </trkpt>
      <trkpt lat="45.54517" lon="6.83248">
        <ele>2585.8</ele>
        <time>2013-02-09T11:13:35Z</time>
      </trkpt>
      <trkpt lat="45.5454" lon="6.83231">
        <ele>2580.1</ele>
        <time>2013-02-09T11:13:40Z</time>
      </trkpt>
      <trkpt lat="45.54555" lon="6.83211">
        <ele>2571.6</ele>
        <time>2013-02-09T11:13:45Z</time>
      </trkpt>
      <trkpt lat="45.54558" lon="6.83186">
        <ele>2561.1</ele>
        <time>2013-02-09T11:13:51Z</time>
      </trkpt>
      <trkpt lat="45.54555" lon="6.83161">
        <ele>2535</ele>
        <time>2013-02-09T11:13:58Z</time>
      </trkpt>
      <trkpt lat="45.54555" lon="6.83131">
        <ele>2534</ele>
        <time>2013-02-09T11:14:05Z</time>
      </trkpt>
      <trkpt lat="45.54566" lon="6.83129">
        <ele>2534</ele>
        <time>2013-02-09T11:14:09Z</time>
      </trkpt>
      <trkpt lat="45.54566" lon="6.83129">
        <ele>2534</ele>
        <time>2013-02-09T11:14:15Z</time>
      </trkpt>
      <trkpt lat="45.54566" lon="6.83129">
        <ele>2534</ele>
        <time>2013-02-09T11:14:18Z</time>
      </trkpt>
      <trkpt lat="45.54563" lon="6.83106">
        <ele>2533</ele>
        <time>2013-02-09T11:14:18Z</time>
      </trkpt>
      <trkpt lat="45.54586" lon="6.8307">
        <ele>2523</ele>
        <time>2013-02-09T11:14:24Z</time>
      </trkpt>
      <trkpt lat="45.54611" lon="6.83036">
        <ele>2514</ele>
        <time>2013-02-09T11:14:28Z</time>
      </trkpt>
      <trkpt lat="45.54639" lon="6.82963">
        <ele>2498</ele>
        <time>2013-02-09T11:14:33Z</time>
      </trkpt>
      <trkpt lat="45.54666" lon="6.82917">
        <ele>2489</ele>
        <time>2013-02-09T11:14:36Z</time>
      </trkpt>
      <trkpt lat="45.54707" lon="6.8284">
        <ele>2489</ele>
        <time>2013-02-09T11:14:42Z</time>
      </trkpt>
      <trkpt lat="45.54722" lon="6.82809">
        <ele>2489</ele>
        <time>2013-02-09T11:14:45Z</time>
      </trkpt>
      <trkpt lat="45.54738" lon="6.82777">
        <ele>2488</ele>
        <time>2013-02-09T11:14:50Z</time>
      </trkpt>
      <trkpt lat="45.54744" lon="6.82754">
        <ele>2488</ele>
        <time>2013-02-09T11:14:58Z</time>
      </trkpt>
      <trkpt lat="45.54749" lon="6.82735">
        <ele>2487</ele>
        <time>2013-02-09T11:15:09Z</time>
      </trkpt>
      <trkpt lat="45.54755" lon="6.8272">
        <ele>2485</ele>
        <time>2013-02-09T11:15:25Z</time>
      </trkpt>
      <trkpt lat="45.54755" lon="6.8272">
        <ele>2485</ele>
        <time>2013-02-09T11:15:33Z</time>
      </trkpt>
      <trkpt lat="45.54755" lon="6.8272">
        <ele>2485</ele>
        <time>2013-02-09T11:15:33Z</time>
      </trkpt>
      <trkpt lat="45.54755" lon="6.8272">
        <ele>2485</ele>
        <time>2013-02-09T11:16:10Z</time>
      </trkpt>
      <trkpt lat="45.54764" lon="6.82706">
        <ele>2484</ele>
        <time>2013-02-09T11:16:10Z</time>
      </trkpt>
      <trkpt lat="45.5477" lon="6.82691">
        <ele>2483</ele>
        <time>2013-02-09T11:16:21Z</time>
      </trkpt>
      <trkpt lat="45.54784" lon="6.82632">
        <ele>2468</ele>
        <time>2013-02-09T11:16:28Z</time>
      </trkpt>
      <trkpt lat="45.54847" lon="6.82549">
        <ele>2445</ele>
        <time>2013-02-09T11:16:35Z</time>
      </trkpt>
      <trkpt lat="45.54883" lon="6.82585">
        <ele>2444</ele>
        <time>2013-02-09T11:16:38Z</time>
      </trkpt>
      <trkpt lat="45.54923" lon="6.82675">
        <ele>2431</ele>
        <time>2013-02-09T11:16:44Z</time>
      </trkpt>
      <trkpt lat="45.54989" lon="6.8273">
        <ele>2422</ele>
        <time>2013-02-09T11:16:50Z</time>
      </trkpt>
      <trkpt lat="45.55056" lon="6.82733">
        <ele>2402</ele>
        <time>2013-02-09T11:16:55Z</time>
      </trkpt>
      <trkpt lat="45.55095" lon="6.82728">
        <ele>2397</ele>
        <time>2013-02-09T11:16:58Z</time>
      </trkpt>
      <trkpt lat="45.55131" lon="6.8271">
        <ele>2393</ele>
        <time>2013-02-09T11:17:01Z</time>
      </trkpt>
      <trkpt lat="45.55164" lon="6.82682">
        <ele>2387</ele>
        <time>2013-02-09T11:17:04Z</time>
      </trkpt>
      <trkpt lat="45.55218" lon="6.82627">
        <ele>2376</ele>
        <time>2013-02-09T11:17:09Z</time>
      </trkpt>
      <trkpt lat="45.55269" lon="6.82564">
        <ele>2368</ele>
        <time>2013-02-09T11:17:15Z</time>
      </trkpt>
      <trkpt lat="45.55305" lon="6.82509">
        <ele>2366</ele>
        <time>2013-02-09T11:17:21Z</time>
      </trkpt>
      <trkpt lat="45.55327" lon="6.82471">
        <ele>2361</ele>
        <time>2013-02-09T11:17:26Z</time>
      </trkpt>
      <trkpt lat="45.5535" lon="6.82433">
        <ele>2362</ele>
        <time>2013-02-09T11:17:32Z</time>
      </trkpt>
      <trkpt lat="45.55361" lon="6.8242">
        <ele>2361</ele>
        <time>2013-02-09T11:17:35Z</time>
      </trkpt>
      <trkpt lat="45.55387" lon="6.82402">
        <ele>2356</ele>
        <time>2013-02-09T11:17:41Z</time>
      </trkpt>
      <trkpt lat="45.55411" lon="6.82385">
        <ele>2355</ele>
        <time>2013-02-09T11:17:48Z</time>
      </trkpt>
      <trkpt lat="45.5542" lon="6.8237">
        <ele>2353</ele>
        <time>2013-02-09T11:17:54Z</time>
      </trkpt>
      <trkpt lat="45.55424" lon="6.82365">
        <ele>2353</ele>
        <time>2013-02-09T11:17:59Z</time>
      </trkpt>
      <trkpt lat="45.55424" lon="6.82365">
        <ele>2353</ele>
        <time>2013-02-09T11:18:06Z</time>
      </trkpt>
      <trkpt lat="45.55424" lon="6.82365">
        <ele>2353</ele>
        <time>2013-02-09T11:18:10Z</time>
      </trkpt>
      <trkpt lat="45.55431" lon="6.82357">
        <ele>2352</ele>
        <time>2013-02-09T11:18:10Z</time>
      </trkpt>
      <trkpt lat="45.55475" lon="6.82302">
        <ele>2342</ele>
        <time>2013-02-09T11:18:20Z</time>
      </trkpt>
      <trkpt lat="45.55498" lon="6.8228">
        <ele>2339</ele>
        <time>2013-02-09T11:18:23Z</time>
      </trkpt>
      <trkpt lat="45.55518" lon="6.82251">
        <ele>2338</ele>
        <time>2013-02-09T11:18:26Z</time>
      </trkpt>
      <trkpt lat="45.55542" lon="6.82219">
        <ele>2330</ele>
        <time>2013-02-09T11:18:29Z</time>
      </trkpt>
      <trkpt lat="45.55562" lon="6.82184">
        <ele>2327</ele>
        <time>2013-02-09T11:18:32Z</time>
      </trkpt>
      <trkpt lat="45.55609" lon="6.82151">
        <ele>2313</ele>
        <time>2013-02-09T11:18:38Z</time>
      </trkpt>
      <trkpt lat="45.55657" lon="6.82147">
        <ele>2309</ele>
        <time>2013-02-09T11:18:44Z</time>
      </trkpt>
      <trkpt lat="45.55725" lon="6.82125">
        <ele>2294</ele>
        <time>2013-02-09T11:18:50Z</time>
      </trkpt>
      <trkpt lat="45.55792" lon="6.82117">
        <ele>2283</ele>
        <time>2013-02-09T11:18:56Z</time>
      </trkpt>
      <trkpt lat="45.55845" lon="6.82115">
        <ele>2272</ele>
        <time>2013-02-09T11:19:01Z</time>
      </trkpt>
      <trkpt lat="45.55875" lon="6.82129">
        <ele>2271</ele>
        <time>2013-02-09T11:19:04Z</time>
      </trkpt>
      <trkpt lat="45.55924" lon="6.82148">
        <ele>2260</ele>
        <time>2013-02-09T11:19:09Z</time>
      </trkpt>
      <trkpt lat="45.55973" lon="6.82189">
        <ele>2255</ele>
        <time>2013-02-09T11:19:15Z</time>
      </trkpt>
      <trkpt lat="45.56027" lon="6.82248">
        <ele>2243</ele>
        <time>2013-02-09T11:19:21Z</time>
      </trkpt>
      <trkpt lat="45.56068" lon="6.82314">
        <ele>2238</ele>
        <time>2013-02-09T11:19:26Z</time>
      </trkpt>
      <trkpt lat="45.56099" lon="6.82362">
        <ele>2224</ele>
        <time>2013-02-09T11:19:30Z</time>
      </trkpt>
      <trkpt lat="45.56123" lon="6.82399">
        <ele>2221</ele>
        <time>2013-02-09T11:19:33Z</time>
      </trkpt>
      <trkpt lat="45.56178" lon="6.8243">
        <ele>2211</ele>
        <time>2013-02-09T11:19:38Z</time>
      </trkpt>
      <trkpt lat="45.56224" lon="6.82439">
        <ele>2208</ele>
        <time>2013-02-09T11:19:43Z</time>
      </trkpt>
      <trkpt lat="45.56277" lon="6.8245">
        <ele>2202</ele>
        <time>2013-02-09T11:19:49Z</time>
      </trkpt>
      <trkpt lat="45.56306" lon="6.82459">
        <ele>2200</ele>
        <time>2013-02-09T11:19:52Z</time>
      </trkpt>
      <trkpt lat="45.56332" lon="6.8247">
        <ele>2199</ele>
        <time>2013-02-09T11:19:55Z</time>
      </trkpt>
      <trkpt lat="45.56356" lon="6.82471">
        <ele>2194</ele>
        <time>2013-02-09T11:19:58Z</time>
      </trkpt>
      <trkpt lat="45.5639" lon="6.82482">
        <ele>2192</ele>
        <time>2013-02-09T11:20:04Z</time>
      </trkpt>
      <trkpt lat="45.56421" lon="6.825">
        <ele>2189</ele>
        <time>2013-02-09T11:20:09Z</time>
      </trkpt>
      <trkpt lat="45.56454" lon="6.82519">
        <ele>2189</ele>
        <time>2013-02-09T11:20:14Z</time>
      </trkpt>
      <trkpt lat="45.56483" lon="6.82537">
        <ele>2188</ele>
        <time>2013-02-09T11:20:19Z</time>
      </trkpt>
      <trkpt lat="45.56508" lon="6.82551">
        <ele>2183</ele>
        <time>2013-02-09T11:20:24Z</time>
      </trkpt>
      <trkpt lat="45.56528" lon="6.82567">
        <ele>2183</ele>
        <time>2013-02-09T11:20:30Z</time>
      </trkpt>
      <trkpt lat="45.56529" lon="6.82582">
        <ele>2183</ele>
        <time>2013-02-09T11:20:40Z</time>
      </trkpt>
      <trkpt lat="45.56541" lon="6.82605">
        <ele>2187</ele>
        <time>2013-02-09T11:21:03Z</time>
      </trkpt>
      <trkpt lat="45.5655" lon="6.8262">
        <ele>2187</ele>
        <time>2013-02-09T11:21:12Z</time>
      </trkpt>
      <trkpt lat="45.56564" lon="6.82649">
        <ele>2188</ele>
        <time>2013-02-09T11:21:29Z</time>
      </trkpt>
      <trkpt lat="45.56577" lon="6.82668">
        <ele>2188</ele>
        <time>2013-02-09T11:21:39Z</time>
      </trkpt>
      <trkpt lat="45.5659" lon="6.8269">
        <ele>2183</ele>
        <time>2013-02-09T11:21:51Z</time>
      </trkpt>
      <trkpt lat="45.56597" lon="6.82702">
        <ele>2182</ele>
        <time>2013-02-09T11:21:58Z</time>
      </trkpt>
      <trkpt lat="45.56608" lon="6.8271">
        <ele>2182</ele>
        <time>2013-02-09T11:22:05Z</time>
      </trkpt>
      <trkpt lat="45.56608" lon="6.8271">
        <ele>2182</ele>
        <time>2013-02-09T11:22:12Z</time>
      </trkpt>
      <trkpt lat="45.56608" lon="6.8271">
        <ele>2182</ele>
        <time>2013-02-09T11:22:37Z</time>
      </trkpt>
      <trkpt lat="45.56619" lon="6.82729">
        <ele>2181</ele>
        <time>2013-02-09T11:22:37Z</time>
      </trkpt>
      <trkpt lat="45.56678" lon="6.82768">
        <ele>2169</ele>
        <time>2013-02-09T11:22:43Z</time>
      </trkpt>
      <trkpt lat="45.56707" lon="6.82798">
        <ele>2167</ele>
        <time>2013-02-09T11:22:46Z</time>
      </trkpt>
      <trkpt lat="45.56729" lon="6.82824">
        <ele>2165</ele>
        <time>2013-02-09T11:22:49Z</time>
      </trkpt>
      <trkpt lat="45.56772" lon="6.82853">
        <ele>2154</ele>
        <time>2013-02-09T11:22:54Z</time>
      </trkpt>
      <trkpt lat="45.56826" lon="6.82866">
        <ele>2148</ele>
        <time>2013-02-09T11:22:59Z</time>
      </trkpt>
      <trkpt lat="45.56864" lon="6.8284">
        <ele>2135</ele>
        <time>2013-02-09T11:23:04Z</time>
      </trkpt>
      <trkpt lat="45.56909" lon="6.82787">
        <ele>2127</ele>
        <time>2013-02-09T11:23:09Z</time>
      </trkpt>
      <trkpt lat="45.56955" lon="6.8279">
        <ele>2115</ele>
        <time>2013-02-09T11:23:14Z</time>
      </trkpt>
      <trkpt lat="45.56955" lon="6.8279">
        <ele>2115</ele>
        <time>2013-02-09T11:23:19Z</time>
      </trkpt>
      <trkpt lat="45.56955" lon="6.8279">
        <ele>2115</ele>
        <time>2013-02-09T11:24:55Z</time>
      </trkpt>
      <trkpt lat="45.56934" lon="6.82814">
        <ele>2118</ele>
        <time>2013-02-09T11:24:55Z</time>
      </trkpt>
      <trkpt lat="45.56921" lon="6.82821">
        <ele>2120</ele>
        <time>2013-02-09T11:24:58Z</time>
      </trkpt>
      <trkpt lat="45.56891" lon="6.82838">
        <ele>2130</ele>
        <time>2013-02-09T11:25:05Z</time>
      </trkpt>
      <trkpt lat="45.56867" lon="6.82848">
        <ele>2134</ele>
        <time>2013-02-09T11:25:11Z</time>
      </trkpt>
      <trkpt lat="45.56855" lon="6.82854">
        <ele>2136</ele>
        <time>2013-02-09T11:25:14Z</time>
      </trkpt>
      <trkpt lat="45.56832" lon="6.82866">
        <ele>2147</ele>
        <time>2013-02-09T11:25:20Z</time>
      </trkpt>
      <trkpt lat="45.56803" lon="6.82881">
        <ele>2150</ele>
        <time>2013-02-09T11:25:27Z</time>
      </trkpt>
      <trkpt lat="45.56778" lon="6.82894">
        <ele>2153</ele>
        <time>2013-02-09T11:25:33Z</time>
      </trkpt>
      <trkpt lat="45.56755" lon="6.82907">
        <ele>2158</ele>
        <time>2013-02-09T11:25:39Z</time>
      </trkpt>
      <trkpt lat="45.56735" lon="6.82918">
        <ele>2165</ele>
        <time>2013-02-09T11:25:44Z</time>
      </trkpt>
      <trkpt lat="45.56716" lon="6.82928">
        <ele>2168</ele>
        <time>2013-02-09T11:25:49Z</time>
      </trkpt>
      <trkpt lat="45.56694" lon="6.8294">
        <ele>2171</ele>
        <time>2013-02-09T11:25:55Z</time>
      </trkpt>
      <trkpt lat="45.56673" lon="6.8295">
        <ele>2172</ele>
        <time>2013-02-09T11:26:00Z</time>
      </trkpt>
      <trkpt lat="45.56646" lon="6.82965">
        <ele>2177</ele>
        <time>2013-02-09T11:26:07Z</time>
      </trkpt>
      <trkpt lat="45.5662" lon="6.82981">
        <ele>2177</ele>
        <time>2013-02-09T11:26:13Z</time>
      </trkpt>
      <trkpt lat="45.56592" lon="6.82996">
        <ele>2177</ele>
        <time>2013-02-09T11:26:20Z</time>
      </trkpt>
      <trkpt lat="45.56568" lon="6.83006">
        <ele>2179</ele>
        <time>2013-02-09T11:26:25Z</time>
      </trkpt>
      <trkpt lat="45.56549" lon="6.83018">
        <ele>2181</ele>
        <time>2013-02-09T11:26:29Z</time>
      </trkpt>
      <trkpt lat="45.56525" lon="6.83031">
        <ele>2183</ele>
        <time>2013-02-09T11:26:36Z</time>
      </trkpt>
      <trkpt lat="45.56504" lon="6.8304">
        <ele>2184</ele>
        <time>2013-02-09T11:26:41Z</time>
      </trkpt>
      <trkpt lat="45.56475" lon="6.83054">
        <ele>2199</ele>
        <time>2013-02-09T11:26:47Z</time>
      </trkpt>
      <trkpt lat="45.56457" lon="6.83065">
        <ele>2202</ele>
        <time>2013-02-09T11:26:52Z</time>
      </trkpt>
      <trkpt lat="45.56434" lon="6.83079">
        <ele>2208</ele>
        <time>2013-02-09T11:26:59Z</time>
      </trkpt>
      <trkpt lat="45.56404" lon="6.83095">
        <ele>2220</ele>
        <time>2013-02-09T11:27:06Z</time>
      </trkpt>
      <trkpt lat="45.56389" lon="6.83104">
        <ele>2222</ele>
        <time>2013-02-09T11:27:10Z</time>
      </trkpt>
      <trkpt lat="45.56373" lon="6.83114">
        <ele>2224</ele>
        <time>2013-02-09T11:27:14Z</time>
      </trkpt>
      <trkpt lat="45.56343" lon="6.83129">
        <ele>2225</ele>
        <time>2013-02-09T11:27:21Z</time>
      </trkpt>
      <trkpt lat="45.56322" lon="6.8314">
        <ele>2231</ele>
        <time>2013-02-09T11:27:27Z</time>
      </trkpt>
      <trkpt lat="45.563" lon="6.83154">
        <ele>2232</ele>
        <time>2013-02-09T11:27:33Z</time>
      </trkpt>
      <trkpt lat="45.56274" lon="6.8316">
        <ele>2233</ele>
        <time>2013-02-09T11:27:39Z</time>
      </trkpt>
      <trkpt lat="45.56247" lon="6.83177">
        <ele>2239</ele>
        <time>2013-02-09T11:27:45Z</time>
      </trkpt>
      <trkpt lat="45.56227" lon="6.83192">
        <ele>2245</ele>
        <time>2013-02-09T11:27:51Z</time>
      </trkpt>
      <trkpt lat="45.56201" lon="6.83206">
        <ele>2249</ele>
        <time>2013-02-09T11:27:57Z</time>
      </trkpt>
      <trkpt lat="45.5619" lon="6.83211">
        <ele>2251</ele>
        <time>2013-02-09T11:28:00Z</time>
      </trkpt>
      <trkpt lat="45.56158" lon="6.83228">
        <ele>2277</ele>
        <time>2013-02-09T11:28:09Z</time>
      </trkpt>
      <trkpt lat="45.56134" lon="6.83238">
        <ele>2284</ele>
        <time>2013-02-09T11:28:16Z</time>
      </trkpt>
      <trkpt lat="45.56097" lon="6.83259">
        <ele>2299</ele>
        <time>2013-02-09T11:28:25Z</time>
      </trkpt>
      <trkpt lat="45.56081" lon="6.8327">
        <ele>2324</ele>
        <time>2013-02-09T11:28:31Z</time>
      </trkpt>
      <trkpt lat="45.56047" lon="6.83288">
        <ele>2333</ele>
        <time>2013-02-09T11:28:40Z</time>
      </trkpt>
      <trkpt lat="45.5603" lon="6.83299">
        <ele>2338</ele>
        <time>2013-02-09T11:28:45Z</time>
      </trkpt>
      <trkpt lat="45.55997" lon="6.8332">
        <ele>2368</ele>
        <time>2013-02-09T11:28:52Z</time>
      </trkpt>
      <trkpt lat="45.55976" lon="6.83325">
        <ele>2375</ele>
        <time>2013-02-09T11:28:57Z</time>
      </trkpt>
      <trkpt lat="45.55953" lon="6.8334">
        <ele>2386</ele>
        <time>2013-02-09T11:29:06Z</time>
      </trkpt>
      <trkpt lat="45.55915" lon="6.8336">
        <ele>2426</ele>
        <time>2013-02-09T11:29:17Z</time>
      </trkpt>
      <trkpt lat="45.55892" lon="6.83373">
        <ele>2433</ele>
        <time>2013-02-09T11:29:24Z</time>
      </trkpt>
      <trkpt lat="45.55882" lon="6.83378">
        <ele>2436</ele>
        <time>2013-02-09T11:29:27Z</time>
      </trkpt>
      <trkpt lat="45.55854" lon="6.83392">
        <ele>2446</ele>
        <time>2013-02-09T11:29:35Z</time>
      </trkpt>
      <trkpt lat="45.55836" lon="6.83402">
        <ele>2456</ele>
        <time>2013-02-09T11:29:41Z</time>
      </trkpt>
      <trkpt lat="45.55814" lon="6.83412">
        <ele>2478</ele>
        <time>2013-02-09T11:29:46Z</time>
      </trkpt>
      <trkpt lat="45.55789" lon="6.83428">
        <ele>2494</ele>
        <time>2013-02-09T11:29:52Z</time>
      </trkpt>
      <trkpt lat="45.55765" lon="6.83441">
        <ele>2501</ele>
        <time>2013-02-09T11:29:57Z</time>
      </trkpt>
      <trkpt lat="45.55744" lon="6.83451">
        <ele>2524</ele>
        <time>2013-02-09T11:30:03Z</time>
      </trkpt>
      <trkpt lat="45.55723" lon="6.83461">
        <ele>2527</ele>
        <time>2013-02-09T11:30:09Z</time>
      </trkpt>
      <trkpt lat="45.557" lon="6.83474">
        <ele>2530</ele>
        <time>2013-02-09T11:30:16Z</time>
      </trkpt>
      <trkpt lat="45.55678" lon="6.83484">
        <ele>2531</ele>
        <time>2013-02-09T11:30:22Z</time>
      </trkpt>
      <trkpt lat="45.55654" lon="6.83497">
        <ele>2551</ele>
        <time>2013-02-09T11:30:29Z</time>
      </trkpt>
      <trkpt lat="45.55632" lon="6.83509">
        <ele>2588.7</ele>
        <time>2013-02-09T11:30:35Z</time>
      </trkpt>
      <trkpt lat="45.55612" lon="6.83519">
        <ele>2602</ele>
        <time>2013-02-09T11:30:41Z</time>
      </trkpt>
      <trkpt lat="45.556" lon="6.83526">
        <ele>2610</ele>
        <time>2013-02-09T11:30:44Z</time>
      </trkpt>
      <trkpt lat="45.55578" lon="6.83537">
        <ele>2623.6</ele>
        <time>2013-02-09T11:30:51Z</time>
      </trkpt>
      <trkpt lat="45.55561" lon="6.83546">
        <ele>2633.7</ele>
        <time>2013-02-09T11:30:56Z</time>
      </trkpt>
      <trkpt lat="45.55541" lon="6.83558">
        <ele>2648.8</ele>
        <time>2013-02-09T11:31:02Z</time>
      </trkpt>
      <trkpt lat="45.55518" lon="6.83569">
        <ele>2665.8</ele>
        <time>2013-02-09T11:31:08Z</time>
      </trkpt>
      <trkpt lat="45.55494" lon="6.83582">
        <ele>2678</ele>
        <time>2013-02-09T11:31:15Z</time>
      </trkpt>
      <trkpt lat="45.55492" lon="6.83583">
        <ele>2678.2</ele>
        <time>2013-02-09T11:31:20Z</time>
      </trkpt>
      <trkpt lat="45.55492" lon="6.83583">
        <ele>2678.2</ele>
        <time>2013-02-09T11:31:26Z</time>
      </trkpt>
      <trkpt lat="45.55492" lon="6.83583">
        <ele>2678.2</ele>
        <time>2013-02-09T11:32:57Z</time>
      </trkpt>
      <trkpt lat="45.55489" lon="6.83551">
        <ele>2674.6</ele>
        <time>2013-02-09T11:32:57Z</time>
      </trkpt>
      <trkpt lat="45.55494" lon="6.83532">
        <ele>2670.9</ele>
        <time>2013-02-09T11:33:00Z</time>
      </trkpt>
      <trkpt lat="45.5551" lon="6.83485">
        <ele>2656.3</ele>
        <time>2013-02-09T11:33:08Z</time>
      </trkpt>
      <trkpt lat="45.55519" lon="6.83462">
        <ele>2645.3</ele>
        <time>2013-02-09T11:33:14Z</time>
      </trkpt>
      <trkpt lat="45.55533" lon="6.8344">
        <ele>2631.1</ele>
        <time>2013-02-09T11:33:20Z</time>
      </trkpt>
      <trkpt lat="45.55549" lon="6.83423">
        <ele>2617.3</ele>
        <time>2013-02-09T11:33:27Z</time>
      </trkpt>
      <trkpt lat="45.55566" lon="6.83412">
        <ele>2604.4</ele>
        <time>2013-02-09T11:33:33Z</time>
      </trkpt>
      <trkpt lat="45.55568" lon="6.83377">
        <ele>2591.3</ele>
        <time>2013-02-09T11:33:41Z</time>
      </trkpt>
      <trkpt lat="45.55585" lon="6.83354">
        <ele>2539</ele>
        <time>2013-02-09T11:33:50Z</time>
      </trkpt>
      <trkpt lat="45.55592" lon="6.83325">
        <ele>2526</ele>
        <time>2013-02-09T11:33:58Z</time>
      </trkpt>
      <trkpt lat="45.55601" lon="6.83322">
        <ele>2526</ele>
        <time>2013-02-09T11:34:00Z</time>
      </trkpt>
      <trkpt lat="45.55601" lon="6.83322">
        <ele>2526</ele>
        <time>2013-02-09T11:34:06Z</time>
      </trkpt>
      <trkpt lat="45.55601" lon="6.83322">
        <ele>2526</ele>
        <time>2013-02-09T11:34:32Z</time>
      </trkpt>
      <trkpt lat="45.55601" lon="6.83299">
        <ele>2527</ele>
        <time>2013-02-09T11:34:32Z</time>
      </trkpt>
      <trkpt lat="45.55605" lon="6.83274">
        <ele>2528</ele>
        <time>2013-02-09T11:34:38Z</time>
      </trkpt>
      <trkpt lat="45.55622" lon="6.83247">
        <ele>2514</ele>
        <time>2013-02-09T11:34:44Z</time>
      </trkpt>
      <trkpt lat="45.55635" lon="6.83216">
        <ele>2508</ele>
        <time>2013-02-09T11:34:50Z</time>
      </trkpt>
      <trkpt lat="45.55648" lon="6.83194">
        <ele>2502</ele>
        <time>2013-02-09T11:34:55Z</time>
      </trkpt>
      <trkpt lat="45.55666" lon="6.83173">
        <ele>2488</ele>
        <time>2013-02-09T11:35:02Z</time>
      </trkpt>
      <trkpt lat="45.55686" lon="6.83166">
        <ele>2470</ele>
        <time>2013-02-09T11:35:11Z</time>
      </trkpt>
      <trkpt lat="45.55709" lon="6.83165">
        <ele>2461</ele>
        <time>2013-02-09T11:35:19Z</time>
      </trkpt>
      <trkpt lat="45.55727" lon="6.83129">
        <ele>2456</ele>
        <time>2013-02-09T11:35:24Z</time>
      </trkpt>
      <trkpt lat="45.55767" lon="6.83061">
        <ele>2432</ele>
        <time>2013-02-09T11:35:30Z</time>
      </trkpt>
      <trkpt lat="45.5579" lon="6.83019">
        <ele>2427</ele>
        <time>2013-02-09T11:35:35Z</time>
      </trkpt>
      <trkpt lat="45.558" lon="6.82975">
        <ele>2415</ele>
        <time>2013-02-09T11:35:42Z</time>
      </trkpt>
      <trkpt lat="45.55817" lon="6.82934">
        <ele>2407</ele>
        <time>2013-02-09T11:35:48Z</time>
      </trkpt>
      <trkpt lat="45.55834" lon="6.82917">
        <ele>2396</ele>
        <time>2013-02-09T11:35:51Z</time>
      </trkpt>
      <trkpt lat="45.55837" lon="6.8288">
        <ele>2385</ele>
        <time>2013-02-09T11:35:57Z</time>
      </trkpt>
      <trkpt lat="45.55844" lon="6.82847">
        <ele>2381</ele>
        <time>2013-02-09T11:36:02Z</time>
      </trkpt>
      <trkpt lat="45.55837" lon="6.82801">
        <ele>2367</ele>
        <time>2013-02-09T11:36:07Z</time>
      </trkpt>
      <trkpt lat="45.55841" lon="6.82781">
        <ele>2365</ele>
        <time>2013-02-09T11:36:10Z</time>
      </trkpt>
      <trkpt lat="45.55847" lon="6.82744">
        <ele>2356</ele>
        <time>2013-02-09T11:36:16Z</time>
      </trkpt>
      <trkpt lat="45.55848" lon="6.82717">
        <ele>2348</ele>
        <time>2013-02-09T11:36:23Z</time>
      </trkpt>
      <trkpt lat="45.55849" lon="6.82711">
        <ele>2346</ele>
        <time>2013-02-09T11:36:27Z</time>
      </trkpt>
      <trkpt lat="45.55849" lon="6.82711">
        <ele>2346</ele>
        <time>2013-02-09T11:36:34Z</time>
      </trkpt>
      <trkpt lat="45.55849" lon="6.82711">
        <ele>2346</ele>
        <time>2013-02-09T11:36:57Z</time>
      </trkpt>
      <trkpt lat="45.5585" lon="6.82701">
        <ele>2345</ele>
        <time>2013-02-09T11:36:57Z</time>
      </trkpt>
      <trkpt lat="45.55867" lon="6.82706">
        <ele>2342</ele>
        <time>2013-02-09T11:37:02Z</time>
      </trkpt>
      <trkpt lat="45.55887" lon="6.82718">
        <ele>2339</ele>
        <time>2013-02-09T11:37:06Z</time>
      </trkpt>
      <trkpt lat="45.55916" lon="6.82746">
        <ele>2335</ele>
        <time>2013-02-09T11:37:13Z</time>
      </trkpt>
      <trkpt lat="45.55958" lon="6.82759">
        <ele>2334</ele>
        <time>2013-02-09T11:37:21Z</time>
      </trkpt>
      <trkpt lat="45.5599" lon="6.82762">
        <ele>2325</ele>
        <time>2013-02-09T11:37:26Z</time>
      </trkpt>
      <trkpt lat="45.56007" lon="6.8275">
        <ele>2305</ele>
        <time>2013-02-09T11:37:31Z</time>
      </trkpt>
      <trkpt lat="45.56032" lon="6.82725">
        <ele>2289</ele>
        <time>2013-02-09T11:37:37Z</time>
      </trkpt>
      <trkpt lat="45.56033" lon="6.8268">
        <ele>2280</ele>
        <time>2013-02-09T11:37:46Z</time>
      </trkpt>
      <trkpt lat="45.56065" lon="6.82681">
        <ele>2273</ele>
        <time>2013-02-09T11:37:58Z</time>
      </trkpt>
      <trkpt lat="45.5608" lon="6.82639">
        <ele>2255</ele>
        <time>2013-02-09T11:38:05Z</time>
      </trkpt>
      <trkpt lat="45.56085" lon="6.82564">
        <ele>2231</ele>
        <time>2013-02-09T11:38:11Z</time>
      </trkpt>
      <trkpt lat="45.56091" lon="6.82532">
        <ele>2227</ele>
        <time>2013-02-09T11:38:17Z</time>
      </trkpt>
      <trkpt lat="45.56098" lon="6.82507">
        <ele>2226</ele>
        <time>2013-02-09T11:38:24Z</time>
      </trkpt>
      <trkpt lat="45.56098" lon="6.82507">
        <ele>2226</ele>
        <time>2013-02-09T11:38:29Z</time>
      </trkpt>
      <trkpt lat="45.56098" lon="6.82507">
        <ele>2226</ele>
        <time>2013-02-09T11:38:29Z</time>
      </trkpt>
      <trkpt lat="45.56098" lon="6.82507">
        <ele>2226</ele>
        <time>2013-02-09T11:40:00Z</time>
      </trkpt>
      <trkpt lat="45.56119" lon="6.82504">
        <ele>2225</ele>
        <time>2013-02-09T11:40:00Z</time>
      </trkpt>
      <trkpt lat="45.56154" lon="6.82515">
        <ele>2222</ele>
        <time>2013-02-09T11:40:11Z</time>
      </trkpt>
      <trkpt lat="45.56184" lon="6.82499">
        <ele>2214</ele>
        <time>2013-02-09T11:40:16Z</time>
      </trkpt>
      <trkpt lat="45.56204" lon="6.82483">
        <ele>2211</ele>
        <time>2013-02-09T11:40:20Z</time>
      </trkpt>
      <trkpt lat="45.56226" lon="6.82471">
        <ele>2209</ele>
        <time>2013-02-09T11:40:26Z</time>
      </trkpt>
      <trkpt lat="45.56255" lon="6.82473">
        <ele>2204</ele>
        <time>2013-02-09T11:40:32Z</time>
      </trkpt>
      <trkpt lat="45.56284" lon="6.82481">
        <ele>2202</ele>
        <time>2013-02-09T11:40:37Z</time>
      </trkpt>
      <trkpt lat="45.56311" lon="6.8248">
        <ele>2200</ele>
        <time>2013-02-09T11:40:42Z</time>
      </trkpt>
      <trkpt lat="45.56348" lon="6.82481">
        <ele>2195</ele>
        <time>2013-02-09T11:40:48Z</time>
      </trkpt>
      <trkpt lat="45.5637" lon="6.82482">
        <ele>2193</ele>
        <time>2013-02-09T11:40:53Z</time>
      </trkpt>
      <trkpt lat="45.56398" lon="6.82492">
        <ele>2192</ele>
        <time>2013-02-09T11:40:59Z</time>
      </trkpt>
      <trkpt lat="45.56426" lon="6.82505">
        <ele>2190</ele>
        <time>2013-02-09T11:41:04Z</time>
      </trkpt>
      <trkpt lat="45.56447" lon="6.82515">
        <ele>2189</ele>
        <time>2013-02-09T11:41:07Z</time>
      </trkpt>
      <trkpt lat="45.56478" lon="6.82534">
        <ele>2188</ele>
        <time>2013-02-09T11:41:12Z</time>
      </trkpt>
      <trkpt lat="45.56506" lon="6.82552">
        <ele>2183</ele>
        <time>2013-02-09T11:41:18Z</time>
      </trkpt>
      <trkpt lat="45.56524" lon="6.8257">
        <ele>2183</ele>
        <time>2013-02-09T11:41:24Z</time>
      </trkpt>
      <trkpt lat="45.56527" lon="6.82576">
        <ele>2183</ele>
        <time>2013-02-09T11:41:27Z</time>
      </trkpt>
      <trkpt lat="45.56527" lon="6.82576">
        <ele>2183</ele>
        <time>2013-02-09T11:41:32Z</time>
      </trkpt>
      <trkpt lat="45.56527" lon="6.82576">
        <ele>2183</ele>
        <time>2013-02-09T11:42:10Z</time>
      </trkpt>
      <trkpt lat="45.56541" lon="6.82603">
        <ele>2187</ele>
        <time>2013-02-09T11:42:10Z</time>
      </trkpt>
      <trkpt lat="45.5655" lon="6.82617">
        <ele>2187</ele>
        <time>2013-02-09T11:42:18Z</time>
      </trkpt>
      <trkpt lat="45.56559" lon="6.82633">
        <ele>2187</ele>
        <time>2013-02-09T11:42:27Z</time>
      </trkpt>
      <trkpt lat="45.56569" lon="6.82654">
        <ele>2187</ele>
        <time>2013-02-09T11:42:39Z</time>
      </trkpt>
      <trkpt lat="45.56584" lon="6.82678">
        <ele>2184</ele>
        <time>2013-02-09T11:42:54Z</time>
      </trkpt>
      <trkpt lat="45.56596" lon="6.82693">
        <ele>2183</ele>
        <time>2013-02-09T11:43:04Z</time>
      </trkpt>
      <trkpt lat="45.56612" lon="6.82711">
        <ele>2181</ele>
        <time>2013-02-09T11:43:15Z</time>
      </trkpt>
      <trkpt lat="45.56619" lon="6.82715">
        <ele>2181</ele>
        <time>2013-02-09T11:43:22Z</time>
      </trkpt>
      <trkpt lat="45.56624" lon="6.82716">
        <ele>2180</ele>
        <time>2013-02-09T11:43:27Z</time>
      </trkpt>
      <trkpt lat="45.56624" lon="6.82716">
        <ele>2180</ele>
        <time>2013-02-09T11:43:34Z</time>
      </trkpt>
      <trkpt lat="45.56624" lon="6.82716">
        <ele>2180</ele>
        <time>2013-02-09T11:43:38Z</time>
      </trkpt>
      <trkpt lat="45.56666" lon="6.82749">
        <ele>2173</ele>
        <time>2013-02-09T11:43:38Z</time>
      </trkpt>
      <trkpt lat="45.56712" lon="6.82819">
        <ele>2167</ele>
        <time>2013-02-09T11:43:44Z</time>
      </trkpt>
      <trkpt lat="45.56761" lon="6.82849">
        <ele>2157</ele>
        <time>2013-02-09T11:43:49Z</time>
      </trkpt>
      <trkpt lat="45.56819" lon="6.82882">
        <ele>2148</ele>
        <time>2013-02-09T11:43:54Z</time>
      </trkpt>
      <trkpt lat="45.56857" lon="6.82847">
        <ele>2136</ele>
        <time>2013-02-09T11:43:59Z</time>
      </trkpt>
      <trkpt lat="45.56922" lon="6.82799">
        <ele>2117</ele>
        <time>2013-02-09T11:44:05Z</time>
      </trkpt>
      <trkpt lat="45.5695" lon="6.82784">
        <ele>2115</ele>
        <time>2013-02-09T11:44:12Z</time>
      </trkpt>
      <trkpt lat="45.5695" lon="6.82791">
        <ele>2116</ele>
        <time>2013-02-09T11:44:15Z</time>
      </trkpt>
      <trkpt lat="45.5695" lon="6.82791">
        <ele>2116</ele>
        <time>2013-02-09T11:44:20Z</time>
      </trkpt>
      <trkpt lat="45.5695" lon="6.82791">
        <ele>2116</ele>
        <time>2013-02-09T11:46:35Z</time>
      </trkpt>
      <trkpt lat="45.56924" lon="6.82821">
        <ele>2120</ele>
        <time>2013-02-09T11:46:35Z</time>
      </trkpt>
      <trkpt lat="45.56898" lon="6.82836">
        <ele>2129</ele>
        <time>2013-02-09T11:46:41Z</time>
      </trkpt>
      <trkpt lat="45.56871" lon="6.8285">
        <ele>2134</ele>
        <time>2013-02-09T11:46:47Z</time>
      </trkpt>
      <trkpt lat="45.56856" lon="6.82856">
        <ele>2135</ele>
        <time>2013-02-09T11:46:51Z</time>
      </trkpt>
      <trkpt lat="45.56836" lon="6.82867">
        <ele>2137</ele>
        <time>2013-02-09T11:46:56Z</time>
      </trkpt>
      <trkpt lat="45.56816" lon="6.82877">
        <ele>2149</ele>
        <time>2013-02-09T11:47:01Z</time>
      </trkpt>
      <trkpt lat="45.56804" lon="6.82884">
        <ele>2150</ele>
        <time>2013-02-09T11:47:04Z</time>
      </trkpt>
      <trkpt lat="45.5678" lon="6.82895">
        <ele>2153</ele>
        <time>2013-02-09T11:47:10Z</time>
      </trkpt>
      <trkpt lat="45.56755" lon="6.82908">
        <ele>2159</ele>
        <time>2013-02-09T11:47:16Z</time>
      </trkpt>
      <trkpt lat="45.56735" lon="6.82919">
        <ele>2165</ele>
        <time>2013-02-09T11:47:21Z</time>
      </trkpt>
      <trkpt lat="45.56716" lon="6.82929">
        <ele>2168</ele>
        <time>2013-02-09T11:47:26Z</time>
      </trkpt>
      <trkpt lat="45.56693" lon="6.82941">
        <ele>2171</ele>
        <time>2013-02-09T11:47:32Z</time>
      </trkpt>
      <trkpt lat="45.56669" lon="6.82953">
        <ele>2172</ele>
        <time>2013-02-09T11:47:38Z</time>
      </trkpt>
      <trkpt lat="45.56645" lon="6.82966">
        <ele>2177</ele>
        <time>2013-02-09T11:47:44Z</time>
      </trkpt>
      <trkpt lat="45.5662" lon="6.8298">
        <ele>2177</ele>
        <time>2013-02-09T11:47:50Z</time>
      </trkpt>
      <trkpt lat="45.56595" lon="6.82993">
        <ele>2177</ele>
        <time>2013-02-09T11:47:56Z</time>
      </trkpt>
      <trkpt lat="45.56571" lon="6.83005">
        <ele>2179</ele>
        <time>2013-02-09T11:48:02Z</time>
      </trkpt>
      <trkpt lat="45.56543" lon="6.8302">
        <ele>2182</ele>
        <time>2013-02-09T11:48:09Z</time>
      </trkpt>
      <trkpt lat="45.56523" lon="6.83031">
        <ele>2183</ele>
        <time>2013-02-09T11:48:14Z</time>
      </trkpt>
      <trkpt lat="45.56499" lon="6.83045">
        <ele>2196</ele>
        <time>2013-02-09T11:48:20Z</time>
      </trkpt>
      <trkpt lat="45.56475" lon="6.83058">
        <ele>2199</ele>
        <time>2013-02-09T11:48:26Z</time>
      </trkpt>
      <trkpt lat="45.56463" lon="6.83065">
        <ele>2200</ele>
        <time>2013-02-09T11:48:29Z</time>
      </trkpt>
      <trkpt lat="45.56444" lon="6.83075">
        <ele>2205</ele>
        <time>2013-02-09T11:48:34Z</time>
      </trkpt>
      <trkpt lat="45.56421" lon="6.83088">
        <ele>2214</ele>
        <time>2013-02-09T11:48:40Z</time>
      </trkpt>
      <trkpt lat="45.56409" lon="6.83094">
        <ele>2219</ele>
        <time>2013-02-09T11:48:43Z</time>
      </trkpt>
      <trkpt lat="45.56398" lon="6.831">
        <ele>2221</ele>
        <time>2013-02-09T11:48:46Z</time>
      </trkpt>
      <trkpt lat="45.56374" lon="6.83113">
        <ele>2224</ele>
        <time>2013-02-09T11:48:52Z</time>
      </trkpt>
      <trkpt lat="45.5635" lon="6.83127">
        <ele>2225</ele>
        <time>2013-02-09T11:48:58Z</time>
      </trkpt>
      <trkpt lat="45.56337" lon="6.83133">
        <ele>2226</ele>
        <time>2013-02-09T11:49:01Z</time>
      </trkpt>
      <trkpt lat="45.56325" lon="6.83139">
        <ele>2231</ele>
        <time>2013-02-09T11:49:04Z</time>
      </trkpt>
      <trkpt lat="45.56305" lon="6.83149">
        <ele>2232</ele>
        <time>2013-02-09T11:49:09Z</time>
      </trkpt>
      <trkpt lat="45.56282" lon="6.83162">
        <ele>2233</ele>
        <time>2013-02-09T11:49:15Z</time>
      </trkpt>
      <trkpt lat="45.56258" lon="6.83174">
        <ele>2234</ele>
        <time>2013-02-09T11:49:21Z</time>
      </trkpt>
      <trkpt lat="45.56237" lon="6.83185">
        <ele>2243</ele>
        <time>2013-02-09T11:49:26Z</time>
      </trkpt>
      <trkpt lat="45.56213" lon="6.83197">
        <ele>2248</ele>
        <time>2013-02-09T11:49:32Z</time>
      </trkpt>
      <trkpt lat="45.56189" lon="6.8321">
        <ele>2251</ele>
        <time>2013-02-09T11:49:38Z</time>
      </trkpt>
      <trkpt lat="45.56166" lon="6.83223">
        <ele>2277</ele>
        <time>2013-02-09T11:49:44Z</time>
      </trkpt>
      <trkpt lat="45.56147" lon="6.83233">
        <ele>2279</ele>
        <time>2013-02-09T11:49:49Z</time>
      </trkpt>
      <trkpt lat="45.56126" lon="6.83244">
        <ele>2288</ele>
        <time>2013-02-09T11:49:55Z</time>
      </trkpt>
      <trkpt lat="45.56116" lon="6.8325">
        <ele>2293</ele>
        <time>2013-02-09T11:49:58Z</time>
      </trkpt>
      <trkpt lat="45.56092" lon="6.83263">
        <ele>2299</ele>
        <time>2013-02-09T11:50:05Z</time>
      </trkpt>
      <trkpt lat="45.56072" lon="6.83274">
        <ele>2326</ele>
        <time>2013-02-09T11:50:11Z</time>
      </trkpt>
      <trkpt lat="45.56046" lon="6.83288">
        <ele>2333</ele>
        <time>2013-02-09T11:50:18Z</time>
      </trkpt>
      <trkpt lat="45.56027" lon="6.83299">
        <ele>2339</ele>
        <time>2013-02-09T11:50:23Z</time>
      </trkpt>
      <trkpt lat="45.56007" lon="6.8331">
        <ele>2345</ele>
        <time>2013-02-09T11:50:29Z</time>
      </trkpt>
      <trkpt lat="45.55988" lon="6.8332">
        <ele>2371</ele>
        <time>2013-02-09T11:50:34Z</time>
      </trkpt>
      <trkpt lat="45.55968" lon="6.83331">
        <ele>2379</ele>
        <time>2013-02-09T11:50:40Z</time>
      </trkpt>
      <trkpt lat="45.55944" lon="6.83342">
        <ele>2390</ele>
        <time>2013-02-09T11:50:46Z</time>
      </trkpt>
      <trkpt lat="45.55922" lon="6.83354">
        <ele>2396</ele>
        <time>2013-02-09T11:50:52Z</time>
      </trkpt>
      <trkpt lat="45.55899" lon="6.83366">
        <ele>2430</ele>
        <time>2013-02-09T11:50:58Z</time>
      </trkpt>
      <trkpt lat="45.55882" lon="6.83376">
        <ele>2436</ele>
        <time>2013-02-09T11:51:03Z</time>
      </trkpt>
      <trkpt lat="45.55861" lon="6.83388">
        <ele>2444</ele>
        <time>2013-02-09T11:51:09Z</time>
      </trkpt>
      <trkpt lat="45.55848" lon="6.83395">
        <ele>2449</ele>
        <time>2013-02-09T11:51:13Z</time>
      </trkpt>
      <trkpt lat="45.55825" lon="6.83407">
        <ele>2475</ele>
        <time>2013-02-09T11:51:20Z</time>
      </trkpt>
      <trkpt lat="45.55804" lon="6.83418">
        <ele>2488</ele>
        <time>2013-02-09T11:51:26Z</time>
      </trkpt>
      <trkpt lat="45.55782" lon="6.8343">
        <ele>2497</ele>
        <time>2013-02-09T11:51:32Z</time>
      </trkpt>
      <trkpt lat="45.55764" lon="6.83439">
        <ele>2502</ele>
        <time>2013-02-09T11:51:37Z</time>
      </trkpt>
      <trkpt lat="45.55742" lon="6.8345">
        <ele>2524</ele>
        <time>2013-02-09T11:51:43Z</time>
      </trkpt>
      <trkpt lat="45.55722" lon="6.83461">
        <ele>2527</ele>
        <time>2013-02-09T11:51:48Z</time>
      </trkpt>
      <trkpt lat="45.55706" lon="6.8347">
        <ele>2529</ele>
        <time>2013-02-09T11:51:53Z</time>
      </trkpt>
      <trkpt lat="45.5568" lon="6.83484">
        <ele>2531</ele>
        <time>2013-02-09T11:52:00Z</time>
      </trkpt>
      <trkpt lat="45.5566" lon="6.83494">
        <ele>2551</ele>
        <time>2013-02-09T11:52:06Z</time>
      </trkpt>
      <trkpt lat="45.55635" lon="6.83507">
        <ele>2586.9</ele>
        <time>2013-02-09T11:52:13Z</time>
      </trkpt>
      <trkpt lat="45.55614" lon="6.83519">
        <ele>2600.7</ele>
        <time>2013-02-09T11:52:19Z</time>
      </trkpt>
      <trkpt lat="45.55592" lon="6.8353">
        <ele>2615.1</ele>
        <time>2013-02-09T11:52:25Z</time>
      </trkpt>
      <trkpt lat="45.55571" lon="6.83542">
        <ele>2627.5</ele>
        <time>2013-02-09T11:52:31Z</time>
      </trkpt>
      <trkpt lat="45.55548" lon="6.83555">
        <ele>2643.2</ele>
        <time>2013-02-09T11:52:38Z</time>
      </trkpt>
      <trkpt lat="45.55537" lon="6.8356">
        <ele>2652</ele>
        <time>2013-02-09T11:52:41Z</time>
      </trkpt>
      <trkpt lat="45.55516" lon="6.83572">
        <ele>2667.3</ele>
        <time>2013-02-09T11:52:47Z</time>
      </trkpt>
      <trkpt lat="45.55498" lon="6.83582">
        <ele>2677.8</ele>
        <time>2013-02-09T11:52:52Z</time>
      </trkpt>
      <trkpt lat="45.55495" lon="6.83583">
        <ele>2678.1</ele>
        <time>2013-02-09T11:52:54Z</time>
      </trkpt>
      <trkpt lat="45.55495" lon="6.83583">
        <ele>2678.1</ele>
        <time>2013-02-09T11:53:00Z</time>
      </trkpt>
      <trkpt lat="45.55495" lon="6.83583">
        <ele>2678.1</ele>
        <time>2013-02-09T11:53:32Z</time>
      </trkpt>
      <trkpt lat="45.55466" lon="6.83576">
        <ele>2676.6</ele>
        <time>2013-02-09T11:53:32Z</time>
      </trkpt>
      <trkpt lat="45.55456" lon="6.83589">
        <ele>2675</ele>
        <time>2013-02-09T11:53:39Z</time>
      </trkpt>
      <trkpt lat="45.55461" lon="6.8361">
        <ele>2678.9</ele>
        <time>2013-02-09T11:53:53Z</time>
      </trkpt>
      <trkpt lat="45.55461" lon="6.8361">
        <ele>2678.9</ele>
        <time>2013-02-09T11:54:00Z</time>
      </trkpt>
      <trkpt lat="45.55461" lon="6.8361">
        <ele>2678.9</ele>
        <time>2013-02-09T11:54:00Z</time>
      </trkpt>
      <trkpt lat="45.55461" lon="6.8361">
        <ele>2678.9</ele>
        <time>2013-02-09T11:58:34Z</time>
      </trkpt>
      <trkpt lat="45.55463" lon="6.83647">
        <ele>2680.2</ele>
        <time>2013-02-09T11:58:34Z</time>
      </trkpt>
      <trkpt lat="45.55446" lon="6.83673">
        <ele>2674.8</ele>
        <time>2013-02-09T11:58:39Z</time>
      </trkpt>
      <trkpt lat="45.55432" lon="6.83722">
        <ele>2677.3</ele>
        <time>2013-02-09T11:58:44Z</time>
      </trkpt>
      <trkpt lat="45.55424" lon="6.83752">
        <ele>2684.3</ele>
        <time>2013-02-09T11:58:47Z</time>
      </trkpt>
      <trkpt lat="45.55408" lon="6.83811">
        <ele>2699.6</ele>
        <time>2013-02-09T11:58:52Z</time>
      </trkpt>
      <trkpt lat="45.55393" lon="6.83867">
        <ele>2710.1</ele>
        <time>2013-02-09T11:58:57Z</time>
      </trkpt>
      <trkpt lat="45.55375" lon="6.83932">
        <ele>2730.2</ele>
        <time>2013-02-09T11:59:03Z</time>
      </trkpt>
      <trkpt lat="45.55359" lon="6.83998">
        <ele>2761.2</ele>
        <time>2013-02-09T11:59:09Z</time>
      </trkpt>
      <trkpt lat="45.55351" lon="6.84031">
        <ele>2828</ele>
        <time>2013-02-09T11:59:12Z</time>
      </trkpt>
      <trkpt lat="45.5534" lon="6.84092">
        <ele>2848</ele>
        <time>2013-02-09T11:59:17Z</time>
      </trkpt>
      <trkpt lat="45.55323" lon="6.84159">
        <ele>2853</ele>
        <time>2013-02-09T11:59:23Z</time>
      </trkpt>
      <trkpt lat="45.55309" lon="6.84207">
        <ele>2872</ele>
        <time>2013-02-09T11:59:28Z</time>
      </trkpt>
      <trkpt lat="45.55293" lon="6.84256">
        <ele>2908</ele>
        <time>2013-02-09T11:59:33Z</time>
      </trkpt>
      <trkpt lat="45.55261" lon="6.84316">
        <ele>2923</ele>
        <time>2013-02-09T11:59:39Z</time>
      </trkpt>
      <trkpt lat="45.55249" lon="6.84366">
        <ele>2966</ele>
        <time>2013-02-09T11:59:44Z</time>
      </trkpt>
      <trkpt lat="45.55228" lon="6.84423">
        <ele>3013</ele>
        <time>2013-02-09T11:59:49Z</time>
      </trkpt>
      <trkpt lat="45.55214" lon="6.84478">
        <ele>3034</ele>
        <time>2013-02-09T11:59:54Z</time>
      </trkpt>
      <trkpt lat="45.55176" lon="6.8455">
        <ele>3082</ele>
        <time>2013-02-09T12:00:01Z</time>
      </trkpt>
      <trkpt lat="45.55135" lon="6.84603">
        <ele>3126</ele>
        <time>2013-02-09T12:00:06Z</time>
      </trkpt>
      <trkpt lat="45.55108" lon="6.8464">
        <ele>3138</ele>
        <time>2013-02-09T12:00:11Z</time>
      </trkpt>
      <trkpt lat="45.55102" lon="6.84663">
        <ele>3145</ele>
        <time>2013-02-09T12:00:14Z</time>
      </trkpt>
      <trkpt lat="45.55073" lon="6.84684">
        <ele>3149</ele>
        <time>2013-02-09T12:00:19Z</time>
      </trkpt>
      <trkpt lat="45.55075" lon="6.84709">
        <ele>3147</ele>
        <time>2013-02-09T12:00:25Z</time>
      </trkpt>
      <trkpt lat="45.55056" lon="6.84731">
        <ele>3144</ele>
        <time>2013-02-09T12:00:34Z</time>
      </trkpt>
      <trkpt lat="45.55076" lon="6.84739">
        <ele>3150</ele>
        <time>2013-02-09T12:00:42Z</time>
      </trkpt>
      <trkpt lat="45.55095" lon="6.84738">
        <ele>3161</ele>
        <time>2013-02-09T12:00:47Z</time>
      </trkpt>
      <trkpt lat="45.55112" lon="6.8474">
        <ele>3164</ele>
        <time>2013-02-09T12:00:53Z</time>
      </trkpt>
      <trkpt lat="45.55128" lon="6.8474">
        <ele>3167</ele>
        <time>2013-02-09T12:01:01Z</time>
      </trkpt>
      <trkpt lat="45.55144" lon="6.84741">
        <ele>3172</ele>
        <time>2013-02-09T12:01:13Z</time>
      </trkpt>
      <trkpt lat="45.5516" lon="6.8474">
        <ele>3178</ele>
        <time>2013-02-09T12:01:29Z</time>
      </trkpt>
      <trkpt lat="45.5516" lon="6.8474">
        <ele>3178</ele>
        <time>2013-02-09T12:01:36Z</time>
      </trkpt>
      <trkpt lat="45.5516" lon="6.8474">
        <ele>3178</ele>
        <time>2013-02-09T12:01:43Z</time>
      </trkpt>
      <trkpt lat="45.55164" lon="6.84739">
        <ele>3178</ele>
        <time>2013-02-09T12:01:43Z</time>
      </trkpt>
      <trkpt lat="45.55164" lon="6.84739">
        <ele>3178</ele>
        <time>2013-02-09T12:04:01Z</time>
      </trkpt>
      <trkpt lat="45.55155" lon="6.84778">
        <ele>3178</ele>
        <time>2013-02-09T12:06:03Z</time>
      </trkpt>
      <trkpt lat="45.5516" lon="6.84814">
        <ele>3185</ele>
        <time>2013-02-09T12:07:00Z</time>
      </trkpt>
      <trkpt lat="45.55163" lon="6.84826">
        <ele>3193</ele>
        <time>2013-02-09T12:07:09Z</time>
      </trkpt>
      <trkpt lat="45.55163" lon="6.84826">
        <ele>3193</ele>
        <time>2013-02-09T12:07:16Z</time>
      </trkpt>
      <trkpt lat="45.55163" lon="6.84826">
        <ele>3193</ele>
        <time>2013-02-09T12:07:17Z</time>
      </trkpt>
      <trkpt lat="45.55163" lon="6.84826">
        <ele>3193</ele>
        <time>2013-02-09T12:07:43Z</time>
      </trkpt>
      <trkpt lat="45.55174" lon="6.84842">
        <ele>3198</ele>
        <time>2013-02-09T12:07:43Z</time>
      </trkpt>
      <trkpt lat="45.55184" lon="6.84863">
        <ele>3193</ele>
        <time>2013-02-09T12:08:01Z</time>
      </trkpt>
      <trkpt lat="45.55184" lon="6.84863">
        <ele>3193</ele>
        <time>2013-02-09T12:11:21Z</time>
      </trkpt>
      <trkpt lat="45.55185" lon="6.84842">
        <ele>3196</ele>
        <time>2013-02-09T12:11:32Z</time>
      </trkpt>
      <trkpt lat="45.55185" lon="6.84812">
        <ele>3190</ele>
        <time>2013-02-09T12:11:45Z</time>
      </trkpt>
      <trkpt lat="45.55177" lon="6.84782">
        <ele>3187</ele>
        <time>2013-02-09T12:12:03Z</time>
      </trkpt>
      <trkpt lat="45.5517" lon="6.84771">
        <ele>3186</ele>
        <time>2013-02-09T12:12:16Z</time>
      </trkpt>
      <trkpt lat="45.5517" lon="6.84771">
        <ele>3186</ele>
        <time>2013-02-09T12:12:25Z</time>
      </trkpt>
      <trkpt lat="45.5517" lon="6.84771">
        <ele>3186</ele>
        <time>2013-02-09T12:13:02Z</time>
      </trkpt>
      <trkpt lat="45.55185" lon="6.84785">
        <ele>3186</ele>
        <time>2013-02-09T12:13:02Z</time>
      </trkpt>
      <trkpt lat="45.5522" lon="6.84785">
        <ele>3182</ele>
        <time>2013-02-09T12:14:20Z</time>
      </trkpt>
      <trkpt lat="45.55245" lon="6.84785">
        <ele>3179</ele>
        <time>2013-02-09T12:14:25Z</time>
      </trkpt>
      <trkpt lat="45.55274" lon="6.84784">
        <ele>3154</ele>
        <time>2013-02-09T12:14:30Z</time>
      </trkpt>
      <trkpt lat="45.55299" lon="6.84791">
        <ele>3149</ele>
        <time>2013-02-09T12:14:36Z</time>
      </trkpt>
      <trkpt lat="45.55311" lon="6.84763">
        <ele>3140</ele>
        <time>2013-02-09T12:14:42Z</time>
      </trkpt>
      <trkpt lat="45.5528" lon="6.84724">
        <ele>3132</ele>
        <time>2013-02-09T12:14:48Z</time>
      </trkpt>
      <trkpt lat="45.55287" lon="6.8472">
        <ele>3130</ele>
        <time>2013-02-09T12:14:56Z</time>
      </trkpt>
      <trkpt lat="45.55305" lon="6.84732">
        <ele>3127</ele>
        <time>2013-02-09T12:15:01Z</time>
      </trkpt>
      <trkpt lat="45.55305" lon="6.84732">
        <ele>3127</ele>
        <time>2013-02-09T12:15:07Z</time>
      </trkpt>
      <trkpt lat="45.55305" lon="6.84732">
        <ele>3127</ele>
        <time>2013-02-09T12:15:07Z</time>
      </trkpt>
      <trkpt lat="45.55305" lon="6.84732">
        <ele>3127</ele>
        <time>2013-02-09T12:15:13Z</time>
      </trkpt>
      <trkpt lat="45.55323" lon="6.84724">
        <ele>3124</ele>
        <time>2013-02-09T12:15:13Z</time>
      </trkpt>
      <trkpt lat="45.55346" lon="6.8473">
        <ele>3105</ele>
        <time>2013-02-09T12:15:19Z</time>
      </trkpt>
      <trkpt lat="45.55358" lon="6.84765">
        <ele>3109</ele>
        <time>2013-02-09T12:15:25Z</time>
      </trkpt>
      <trkpt lat="45.5537" lon="6.8479">
        <ele>3106</ele>
        <time>2013-02-09T12:15:30Z</time>
      </trkpt>
      <trkpt lat="45.55378" lon="6.848">
        <ele>3103</ele>
        <time>2013-02-09T12:15:35Z</time>
      </trkpt>
      <trkpt lat="45.55394" lon="6.8481">
        <ele>3098</ele>
        <time>2013-02-09T12:15:43Z</time>
      </trkpt>
      <trkpt lat="45.55414" lon="6.84827">
        <ele>3085</ele>
        <time>2013-02-09T12:15:53Z</time>
      </trkpt>
      <trkpt lat="45.55415" lon="6.84859">
        <ele>3092</ele>
        <time>2013-02-09T12:16:00Z</time>
      </trkpt>
      <trkpt lat="45.55416" lon="6.84892">
        <ele>3090</ele>
        <time>2013-02-09T12:16:06Z</time>
      </trkpt>
      <trkpt lat="45.55428" lon="6.84923">
        <ele>3065</ele>
        <time>2013-02-09T12:16:11Z</time>
      </trkpt>
      <trkpt lat="45.5545" lon="6.84955">
        <ele>3057</ele>
        <time>2013-02-09T12:16:16Z</time>
      </trkpt>
      <trkpt lat="45.55486" lon="6.84993">
        <ele>3046</ele>
        <time>2013-02-09T12:16:22Z</time>
      </trkpt>
      <trkpt lat="45.55529" lon="6.85022">
        <ele>3028</ele>
        <time>2013-02-09T12:16:27Z</time>
      </trkpt>
      <trkpt lat="45.55552" lon="6.85032">
        <ele>3024</ele>
        <time>2013-02-09T12:16:30Z</time>
      </trkpt>
      <trkpt lat="45.55583" lon="6.85048">
        <ele>3021</ele>
        <time>2013-02-09T12:16:34Z</time>
      </trkpt>
      <trkpt lat="45.55601" lon="6.85066">
        <ele>3006</ele>
        <time>2013-02-09T12:16:37Z</time>
      </trkpt>
      <trkpt lat="45.5564" lon="6.85057">
        <ele>2999</ele>
        <time>2013-02-09T12:16:42Z</time>
      </trkpt>
      <trkpt lat="45.55685" lon="6.8505">
        <ele>2982</ele>
        <time>2013-02-09T12:16:47Z</time>
      </trkpt>
      <trkpt lat="45.55719" lon="6.8502">
        <ele>2973</ele>
        <time>2013-02-09T12:16:52Z</time>
      </trkpt>
      <trkpt lat="45.55765" lon="6.85013">
        <ele>2956</ele>
        <time>2013-02-09T12:16:58Z</time>
      </trkpt>
      <trkpt lat="45.55776" lon="6.84994">
        <ele>2936</ele>
        <time>2013-02-09T12:17:05Z</time>
      </trkpt>
      <trkpt lat="45.55776" lon="6.84994">
        <ele>2936</ele>
        <time>2013-02-09T12:17:11Z</time>
      </trkpt>
      <trkpt lat="45.55776" lon="6.84994">
        <ele>2936</ele>
        <time>2013-02-09T12:17:11Z</time>
      </trkpt>
      <trkpt lat="45.55776" lon="6.84994">
        <ele>2936</ele>
        <time>2013-02-09T12:17:23Z</time>
      </trkpt>
      <trkpt lat="45.55792" lon="6.84967">
        <ele>2928</ele>
        <time>2013-02-09T12:17:23Z</time>
      </trkpt>
      <trkpt lat="45.55836" lon="6.84936">
        <ele>2903</ele>
        <time>2013-02-09T12:17:30Z</time>
      </trkpt>
      <trkpt lat="45.55899" lon="6.84876">
        <ele>2874</ele>
        <time>2013-02-09T12:17:36Z</time>
      </trkpt>
      <trkpt lat="45.55953" lon="6.84889">
        <ele>2864</ele>
        <time>2013-02-09T12:17:42Z</time>
      </trkpt>
      <trkpt lat="45.55989" lon="6.84888">
        <ele>2863</ele>
        <time>2013-02-09T12:17:47Z</time>
      </trkpt>
      <trkpt lat="45.56026" lon="6.84863">
        <ele>2853</ele>
        <time>2013-02-09T12:17:52Z</time>
      </trkpt>
      <trkpt lat="45.56076" lon="6.84818">
        <ele>2831</ele>
        <time>2013-02-09T12:17:57Z</time>
      </trkpt>
      <trkpt lat="45.5614" lon="6.84761">
        <ele>2832</ele>
        <time>2013-02-09T12:18:02Z</time>
      </trkpt>
      <trkpt lat="45.56184" lon="6.84717">
        <ele>2791.7</ele>
        <time>2013-02-09T12:18:08Z</time>
      </trkpt>
      <trkpt lat="45.56214" lon="6.84714">
        <ele>2783.7</ele>
        <time>2013-02-09T12:18:11Z</time>
      </trkpt>
      <trkpt lat="45.56228" lon="6.84781">
        <ele>2832</ele>
        <time>2013-02-09T12:18:15Z</time>
      </trkpt>
      <trkpt lat="45.56258" lon="6.84856">
        <ele>2770.4</ele>
        <time>2013-02-09T12:18:21Z</time>
      </trkpt>
      <trkpt lat="45.56303" lon="6.8491">
        <ele>2752.4</ele>
        <time>2013-02-09T12:18:26Z</time>
      </trkpt>
      <trkpt lat="45.56352" lon="6.84926">
        <ele>2732.6</ele>
        <time>2013-02-09T12:18:31Z</time>
      </trkpt>
      <trkpt lat="45.56404" lon="6.84931">
        <ele>2714.2</ele>
        <time>2013-02-09T12:18:36Z</time>
      </trkpt>
      <trkpt lat="45.56428" lon="6.8491">
        <ele>2701.8</ele>
        <time>2013-02-09T12:18:39Z</time>
      </trkpt>
      <trkpt lat="45.56479" lon="6.84888">
        <ele>2680.3</ele>
        <time>2013-02-09T12:18:44Z</time>
      </trkpt>
      <trkpt lat="45.56536" lon="6.84893">
        <ele>2661.4</ele>
        <time>2013-02-09T12:18:49Z</time>
      </trkpt>
      <trkpt lat="45.56574" lon="6.84893">
        <ele>2650.6</ele>
        <time>2013-02-09T12:18:52Z</time>
      </trkpt>
      <trkpt lat="45.56605" lon="6.84878">
        <ele>2642.7</ele>
        <time>2013-02-09T12:18:55Z</time>
      </trkpt>
      <trkpt lat="45.56626" lon="6.84847">
        <ele>2629.4</ele>
        <time>2013-02-09T12:18:58Z</time>
      </trkpt>
      <trkpt lat="45.56692" lon="6.84824">
        <ele>2618.4</ele>
        <time>2013-02-09T12:19:04Z</time>
      </trkpt>
      <trkpt lat="45.56753" lon="6.84768">
        <ele>2605.4</ele>
        <time>2013-02-09T12:19:09Z</time>
      </trkpt>
      <trkpt lat="45.56781" lon="6.84735">
        <ele>2600.4</ele>
        <time>2013-02-09T12:19:12Z</time>
      </trkpt>
      <trkpt lat="45.56808" lon="6.84691">
        <ele>2595.3</ele>
        <time>2013-02-09T12:19:17Z</time>
      </trkpt>
      <trkpt lat="45.56812" lon="6.84678">
        <ele>2593.2</ele>
        <time>2013-02-09T12:19:19Z</time>
      </trkpt>
      <trkpt lat="45.56812" lon="6.84678">
        <ele>2593.2</ele>
        <time>2013-02-09T12:19:31Z</time>
      </trkpt>
      <trkpt lat="45.56812" lon="6.84678">
        <ele>2593.2</ele>
        <time>2013-02-09T12:22:21Z</time>
      </trkpt>
      <trkpt lat="45.5684" lon="6.84691">
        <ele>2591.3</ele>
        <time>2013-02-09T12:22:21Z</time>
      </trkpt>
      <trkpt lat="45.56868" lon="6.84666">
        <ele>2545</ele>
        <time>2013-02-09T12:22:25Z</time>
      </trkpt>
      <trkpt lat="45.56928" lon="6.84631">
        <ele>2546</ele>
        <time>2013-02-09T12:22:31Z</time>
      </trkpt>
      <trkpt lat="45.56977" lon="6.8458">
        <ele>2536</ele>
        <time>2013-02-09T12:22:36Z</time>
      </trkpt>
      <trkpt lat="45.57009" lon="6.84509">
        <ele>2519</ele>
        <time>2013-02-09T12:22:42Z</time>
      </trkpt>
      <trkpt lat="45.57024" lon="6.84466">
        <ele>2506</ele>
        <time>2013-02-09T12:22:45Z</time>
      </trkpt>
      <trkpt lat="45.57044" lon="6.84397">
        <ele>2488</ele>
        <time>2013-02-09T12:22:49Z</time>
      </trkpt>
      <trkpt lat="45.57078" lon="6.84325">
        <ele>2470</ele>
        <time>2013-02-09T12:22:54Z</time>
      </trkpt>
      <trkpt lat="45.57124" lon="6.84257">
        <ele>2455</ele>
        <time>2013-02-09T12:22:59Z</time>
      </trkpt>
      <trkpt lat="45.57157" lon="6.84227">
        <ele>2437</ele>
        <time>2013-02-09T12:23:02Z</time>
      </trkpt>
      <trkpt lat="45.5718" lon="6.84195">
        <ele>2426</ele>
        <time>2013-02-09T12:23:05Z</time>
      </trkpt>
      <trkpt lat="45.57244" lon="6.84184">
        <ele>2416</ele>
        <time>2013-02-09T12:23:12Z</time>
      </trkpt>
      <trkpt lat="45.57307" lon="6.84185">
        <ele>2403</ele>
        <time>2013-02-09T12:23:18Z</time>
      </trkpt>
      <trkpt lat="45.57356" lon="6.8419">
        <ele>2382</ele>
        <time>2013-02-09T12:23:23Z</time>
      </trkpt>
      <trkpt lat="45.57428" lon="6.84203">
        <ele>2353</ele>
        <time>2013-02-09T12:23:29Z</time>
      </trkpt>
      <trkpt lat="45.575" lon="6.84222">
        <ele>2346</ele>
        <time>2013-02-09T12:23:35Z</time>
      </trkpt>
      <trkpt lat="45.57534" lon="6.84226">
        <ele>2321</ele>
        <time>2013-02-09T12:23:38Z</time>
      </trkpt>
      <trkpt lat="45.57579" lon="6.84238">
        <ele>2313</ele>
        <time>2013-02-09T12:23:42Z</time>
      </trkpt>
      <trkpt lat="45.57646" lon="6.84241">
        <ele>2287</ele>
        <time>2013-02-09T12:23:47Z</time>
      </trkpt>
      <trkpt lat="45.57744" lon="6.84224">
        <ele>2269</ele>
        <time>2013-02-09T12:23:53Z</time>
      </trkpt>
      <trkpt lat="45.57823" lon="6.84222">
        <ele>2262</ele>
        <time>2013-02-09T12:23:58Z</time>
      </trkpt>
      <trkpt lat="45.57897" lon="6.84234">
        <ele>2254</ele>
        <time>2013-02-09T12:24:05Z</time>
      </trkpt>
      <trkpt lat="45.5791" lon="6.84239">
        <ele>2255</ele>
        <time>2013-02-09T12:24:08Z</time>
      </trkpt>
      <trkpt lat="45.5791" lon="6.84239">
        <ele>2255</ele>
        <time>2013-02-09T12:24:14Z</time>
      </trkpt>
      <trkpt lat="45.5791" lon="6.84239">
        <ele>2255</ele>
        <time>2013-02-09T12:24:39Z</time>
      </trkpt>
      <trkpt lat="45.57986" lon="6.84232">
        <ele>2233</ele>
        <time>2013-02-09T12:24:39Z</time>
      </trkpt>
      <trkpt lat="45.58075" lon="6.84256">
        <ele>2216</ele>
        <time>2013-02-09T12:24:46Z</time>
      </trkpt>
      <trkpt lat="45.58149" lon="6.84287">
        <ele>2193</ele>
        <time>2013-02-09T12:24:53Z</time>
      </trkpt>
      <trkpt lat="45.58203" lon="6.84307">
        <ele>2165</ele>
        <time>2013-02-09T12:24:59Z</time>
      </trkpt>
      <trkpt lat="45.58283" lon="6.84327">
        <ele>2137</ele>
        <time>2013-02-09T12:25:06Z</time>
      </trkpt>
      <trkpt lat="45.58348" lon="6.84406">
        <ele>2110</ele>
        <time>2013-02-09T12:25:13Z</time>
      </trkpt>
      <trkpt lat="45.58381" lon="6.8447">
        <ele>2095</ele>
        <time>2013-02-09T12:25:18Z</time>
      </trkpt>
      <trkpt lat="45.58399" lon="6.84512">
        <ele>2079</ele>
        <time>2013-02-09T12:25:21Z</time>
      </trkpt>
      <trkpt lat="45.58402" lon="6.84557">
        <ele>2073</ele>
        <time>2013-02-09T12:25:24Z</time>
      </trkpt>
      <trkpt lat="45.58413" lon="6.84598">
        <ele>2056</ele>
        <time>2013-02-09T12:25:27Z</time>
      </trkpt>
      <trkpt lat="45.58413" lon="6.84598">
        <ele>2056</ele>
        <time>2013-02-09T12:25:32Z</time>
      </trkpt>
      <trkpt lat="45.58413" lon="6.84598">
        <ele>2056</ele>
        <time>2013-02-09T12:25:32Z</time>
      </trkpt>
      <trkpt lat="45.58413" lon="6.84598">
        <ele>2056</ele>
        <time>2013-02-09T12:26:38Z</time>
      </trkpt>
      <trkpt lat="45.58441" lon="6.84592">
        <ele>2038</ele>
        <time>2013-02-09T12:26:38Z</time>
      </trkpt>
      <trkpt lat="45.58467" lon="6.84611">
        <ele>2031</ele>
        <time>2013-02-09T12:26:46Z</time>
      </trkpt>
      <trkpt lat="45.58491" lon="6.84629">
        <ele>2025</ele>
        <time>2013-02-09T12:26:55Z</time>
      </trkpt>
      <trkpt lat="45.5847" lon="6.84686">
        <ele>2007</ele>
        <time>2013-02-09T12:27:03Z</time>
      </trkpt>
      <trkpt lat="45.58443" lon="6.84718">
        <ele>2006</ele>
        <time>2013-02-09T12:27:10Z</time>
      </trkpt>
      <trkpt lat="45.58445" lon="6.84742">
        <ele>2003</ele>
        <time>2013-02-09T12:27:16Z</time>
      </trkpt>
      <trkpt lat="45.58463" lon="6.84776">
        <ele>1981</ele>
        <time>2013-02-09T12:27:24Z</time>
      </trkpt>
      <trkpt lat="45.58477" lon="6.84792">
        <ele>1977</ele>
        <time>2013-02-09T12:27:30Z</time>
      </trkpt>
      <trkpt lat="45.58493" lon="6.84815">
        <ele>1968</ele>
        <time>2013-02-09T12:27:36Z</time>
      </trkpt>
      <trkpt lat="45.58514" lon="6.84846">
        <ele>1937</ele>
        <time>2013-02-09T12:27:44Z</time>
      </trkpt>
      <trkpt lat="45.58528" lon="6.84859">
        <ele>1930</ele>
        <time>2013-02-09T12:27:50Z</time>
      </trkpt>
      <trkpt lat="45.58543" lon="6.84869">
        <ele>1925</ele>
        <time>2013-02-09T12:27:56Z</time>
      </trkpt>
      <trkpt lat="45.58559" lon="6.84888">
        <ele>1919</ele>
        <time>2013-02-09T12:28:03Z</time>
      </trkpt>
      <trkpt lat="45.58547" lon="6.849">
        <ele>1919</ele>
        <time>2013-02-09T12:28:08Z</time>
      </trkpt>
      <trkpt lat="45.58547" lon="6.849">
        <ele>1919</ele>
        <time>2013-02-09T12:28:13Z</time>
      </trkpt>
      <trkpt lat="45.58547" lon="6.849">
        <ele>1919</ele>
        <time>2013-02-09T12:28:57Z</time>
      </trkpt>
      <trkpt lat="45.58521" lon="6.85028">
        <ele>1882</ele>
        <time>2013-02-09T12:28:57Z</time>
      </trkpt>
      <trkpt lat="45.58515" lon="6.85071">
        <ele>1876</ele>
        <time>2013-02-09T12:29:00Z</time>
      </trkpt>
      <trkpt lat="45.58494" lon="6.85161">
        <ele>1865</ele>
        <time>2013-02-09T12:29:06Z</time>
      </trkpt>
      <trkpt lat="45.58486" lon="6.85207">
        <ele>1860</ele>
        <time>2013-02-09T12:29:09Z</time>
      </trkpt>
      <trkpt lat="45.58477" lon="6.85251">
        <ele>1845</ele>
        <time>2013-02-09T12:29:12Z</time>
      </trkpt>
      <trkpt lat="45.58472" lon="6.85286">
        <ele>1845</ele>
        <time>2013-02-09T12:29:15Z</time>
      </trkpt>
      <trkpt lat="45.58482" lon="6.85319">
        <ele>1838</ele>
        <time>2013-02-09T12:29:18Z</time>
      </trkpt>
      <trkpt lat="45.58538" lon="6.85352">
        <ele>1805</ele>
        <time>2013-02-09T12:29:24Z</time>
      </trkpt>
      <trkpt lat="45.58588" lon="6.85357">
        <ele>1779</ele>
        <time>2013-02-09T12:29:29Z</time>
      </trkpt>
      <trkpt lat="45.58648" lon="6.85362">
        <ele>1767</ele>
        <time>2013-02-09T12:29:35Z</time>
      </trkpt>
      <trkpt lat="45.58698" lon="6.8533">
        <ele>1748</ele>
        <time>2013-02-09T12:29:40Z</time>
      </trkpt>
      <trkpt lat="45.58722" lon="6.85274">
        <ele>1745</ele>
        <time>2013-02-09T12:29:45Z</time>
      </trkpt>
      <trkpt lat="45.5877" lon="6.85228">
        <ele>1732</ele>
        <time>2013-02-09T12:29:51Z</time>
      </trkpt>
      <trkpt lat="45.58811" lon="6.85195">
        <ele>1729</ele>
        <time>2013-02-09T12:29:56Z</time>
      </trkpt>
      <trkpt lat="45.58853" lon="6.85187">
        <ele>1709</ele>
        <time>2013-02-09T12:30:01Z</time>
      </trkpt>
      <trkpt lat="45.58871" lon="6.85169">
        <ele>1705</ele>
        <time>2013-02-09T12:30:04Z</time>
      </trkpt>
      <trkpt lat="45.58901" lon="6.85165">
        <ele>1702</ele>
        <time>2013-02-09T12:30:09Z</time>
      </trkpt>
      <trkpt lat="45.58933" lon="6.85154">
        <ele>1682</ele>
        <time>2013-02-09T12:30:14Z</time>
      </trkpt>
      <trkpt lat="45.58946" lon="6.85134">
        <ele>1678</ele>
        <time>2013-02-09T12:30:17Z</time>
      </trkpt>
      <trkpt lat="45.58976" lon="6.85126">
        <ele>1672</ele>
        <time>2013-02-09T12:30:22Z</time>
      </trkpt>
      <trkpt lat="45.59017" lon="6.85138">
        <ele>1644</ele>
        <time>2013-02-09T12:30:28Z</time>
      </trkpt>
      <trkpt lat="45.59079" lon="6.85118">
        <ele>1632</ele>
        <time>2013-02-09T12:30:36Z</time>
      </trkpt>
      <trkpt lat="45.59125" lon="6.85142">
        <ele>1599</ele>
        <time>2013-02-09T12:30:42Z</time>
      </trkpt>
      <trkpt lat="45.59132" lon="6.85177">
        <ele>1586</ele>
        <time>2013-02-09T12:30:45Z</time>
      </trkpt>
      <trkpt lat="45.59145" lon="6.85206">
        <ele>1582</ele>
        <time>2013-02-09T12:30:48Z</time>
      </trkpt>
      <trkpt lat="45.59174" lon="6.85239">
        <ele>1556</ele>
        <time>2013-02-09T12:30:54Z</time>
      </trkpt>
      <trkpt lat="45.59218" lon="6.85271">
        <ele>1541</ele>
        <time>2013-02-09T12:30:59Z</time>
      </trkpt>
      <trkpt lat="45.5924" lon="6.8529">
        <ele>1537</ele>
        <time>2013-02-09T12:31:04Z</time>
      </trkpt>
      <trkpt lat="45.59276" lon="6.85336">
        <ele>1502</ele>
        <time>2013-02-09T12:31:11Z</time>
      </trkpt>
      <trkpt lat="45.59328" lon="6.85393">
        <ele>1484</ele>
        <time>2013-02-09T12:31:17Z</time>
      </trkpt>
      <trkpt lat="45.59366" lon="6.85437">
        <ele>1450</ele>
        <time>2013-02-09T12:31:23Z</time>
      </trkpt>
      <trkpt lat="45.59397" lon="6.85491">
        <ele>1437</ele>
        <time>2013-02-09T12:31:28Z</time>
      </trkpt>
      <trkpt lat="45.59398" lon="6.85492">
        <ele>1437</ele>
        <time>2013-02-09T12:31:34Z</time>
      </trkpt>
      <trkpt lat="45.59401" lon="6.85491">
        <ele>1436</ele>
        <time>2013-02-09T12:31:39Z</time>
      </trkpt>
      <trkpt lat="45.59401" lon="6.85491">
        <ele>1436</ele>
        <time>2013-02-09T12:31:44Z</time>
      </trkpt>
      <trkpt lat="45.59401" lon="6.85491">
        <ele>1436</ele>
        <time>2013-02-09T12:31:59Z</time>
      </trkpt>
      <trkpt lat="45.59407" lon="6.85475">
        <ele>1438</ele>
        <time>2013-02-09T12:31:59Z</time>
      </trkpt>
      <trkpt lat="45.5943" lon="6.85445">
        <ele>1418</ele>
        <time>2013-02-09T12:32:07Z</time>
      </trkpt>
      <trkpt lat="45.59464" lon="6.85457">
        <ele>1409</ele>
        <time>2013-02-09T12:32:14Z</time>
      </trkpt>
      <trkpt lat="45.59485" lon="6.85481">
        <ele>1401</ele>
        <time>2013-02-09T12:32:19Z</time>
      </trkpt>
      <trkpt lat="45.59502" lon="6.85532">
        <ele>1371</ele>
        <time>2013-02-09T12:32:25Z</time>
      </trkpt>
      <trkpt lat="45.59504" lon="6.85603">
        <ele>1360</ele>
        <time>2013-02-09T12:32:30Z</time>
      </trkpt>
      <trkpt lat="45.59484" lon="6.85662">
        <ele>1370</ele>
        <time>2013-02-09T12:32:35Z</time>
      </trkpt>
      <trkpt lat="45.59463" lon="6.85718">
        <ele>1363</ele>
        <time>2013-02-09T12:32:40Z</time>
      </trkpt>
      <trkpt lat="45.59438" lon="6.85792">
        <ele>1346</ele>
        <time>2013-02-09T12:32:46Z</time>
      </trkpt>
      <trkpt lat="45.59425" lon="6.85827">
        <ele>1347</ele>
        <time>2013-02-09T12:32:49Z</time>
      </trkpt>
      <trkpt lat="45.59406" lon="6.85872">
        <ele>1347</ele>
        <time>2013-02-09T12:32:54Z</time>
      </trkpt>
      <trkpt lat="45.59393" lon="6.85907">
        <ele>1342</ele>
        <time>2013-02-09T12:32:58Z</time>
      </trkpt>
      <trkpt lat="45.59375" lon="6.85946">
        <ele>1329</ele>
        <time>2013-02-09T12:33:03Z</time>
      </trkpt>
      <trkpt lat="45.59348" lon="6.85988">
        <ele>1332</ele>
        <time>2013-02-09T12:33:09Z</time>
      </trkpt>
      <trkpt lat="45.59357" lon="6.86018">
        <ele>1318</ele>
        <time>2013-02-09T12:33:12Z</time>
      </trkpt>
      <trkpt lat="45.59335" lon="6.8607">
        <ele>1318</ele>
        <time>2013-02-09T12:33:18Z</time>
      </trkpt>
      <trkpt lat="45.59332" lon="6.86102">
        <ele>1325</ele>
        <time>2013-02-09T12:33:21Z</time>
      </trkpt>
      <trkpt lat="45.59328" lon="6.86134">
        <ele>1321</ele>
        <time>2013-02-09T12:33:24Z</time>
      </trkpt>
      <trkpt lat="45.59302" lon="6.86192">
        <ele>1308</ele>
        <time>2013-02-09T12:33:30Z</time>
      </trkpt>
      <trkpt lat="45.59275" lon="6.86251">
        <ele>1298</ele>
        <time>2013-02-09T12:33:36Z</time>
      </trkpt>
      <trkpt lat="45.59251" lon="6.863">
        <ele>1291</ele>
        <time>2013-02-09T12:33:41Z</time>
      </trkpt>
      <trkpt lat="45.59225" lon="6.86361">
        <ele>1301</ele>
        <time>2013-02-09T12:33:47Z</time>
      </trkpt>
      <trkpt lat="45.59212" lon="6.86397">
        <ele>1300</ele>
        <time>2013-02-09T12:33:50Z</time>
      </trkpt>
      <trkpt lat="45.59207" lon="6.86465">
        <ele>1282</ele>
        <time>2013-02-09T12:33:55Z</time>
      </trkpt>
      <trkpt lat="45.5921" lon="6.86527">
        <ele>1265</ele>
        <time>2013-02-09T12:34:00Z</time>
      </trkpt>
      <trkpt lat="45.59197" lon="6.86586">
        <ele>1254</ele>
        <time>2013-02-09T12:34:05Z</time>
      </trkpt>
      <trkpt lat="45.59218" lon="6.86575">
        <ele>1257</ele>
        <time>2013-02-09T12:34:11Z</time>
      </trkpt>
      <trkpt lat="45.59239" lon="6.86527">
        <ele>1259</ele>
        <time>2013-02-09T12:34:16Z</time>
      </trkpt>
      <trkpt lat="45.59256" lon="6.86477">
        <ele>1249</ele>
        <time>2013-02-09T12:34:21Z</time>
      </trkpt>
      <trkpt lat="45.59267" lon="6.86452">
        <ele>1250</ele>
        <time>2013-02-09T12:34:24Z</time>
      </trkpt>
      <trkpt lat="45.59286" lon="6.86435">
        <ele>1249</ele>
        <time>2013-02-09T12:34:27Z</time>
      </trkpt>
      <trkpt lat="45.59315" lon="6.86413">
        <ele>1252</ele>
        <time>2013-02-09T12:34:32Z</time>
      </trkpt>
      <trkpt lat="45.59332" lon="6.86393">
        <ele>1253</ele>
        <time>2013-02-09T12:34:35Z</time>
      </trkpt>
      <trkpt lat="45.59352" lon="6.86376">
        <ele>1237</ele>
        <time>2013-02-09T12:34:38Z</time>
      </trkpt>
      <trkpt lat="45.59381" lon="6.8634">
        <ele>1234</ele>
        <time>2013-02-09T12:34:45Z</time>
      </trkpt>
      <trkpt lat="45.59381" lon="6.8634">
        <ele>1234</ele>
        <time>2013-02-09T12:34:50Z</time>
      </trkpt>
      <trkpt lat="45.59381" lon="6.8634">
        <ele>1234</ele>
        <time>2013-02-09T12:34:50Z</time>
      </trkpt>
      <trkpt lat="45.59381" lon="6.8634">
        <ele>1234</ele>
        <time>2013-02-09T12:35:06Z</time>
      </trkpt>
      <trkpt lat="45.59377" lon="6.86364">
        <ele>1233</ele>
        <time>2013-02-09T12:35:06Z</time>
      </trkpt>
      <trkpt lat="45.59429" lon="6.86426">
        <ele>1207</ele>
        <time>2013-02-09T12:35:14Z</time>
      </trkpt>
      <trkpt lat="45.59427" lon="6.86451">
        <ele>1204</ele>
        <time>2013-02-09T12:35:19Z</time>
      </trkpt>
      <trkpt lat="45.59427" lon="6.86451">
        <ele>1204</ele>
        <time>2013-02-09T12:35:24Z</time>
      </trkpt>
      <trkpt lat="45.59427" lon="6.86451">
        <ele>1204</ele>
        <time>2013-02-09T12:35:24Z</time>
      </trkpt>
      <trkpt lat="45.59427" lon="6.86451">
        <ele>1204</ele>
        <time>2013-02-09T12:35:44Z</time>
      </trkpt>
      <trkpt lat="45.5942" lon="6.86429">
        <ele>1208</ele>
        <time>2013-02-09T12:35:44Z</time>
      </trkpt>
      <trkpt lat="45.59403" lon="6.86401">
        <ele>1223</ele>
        <time>2013-02-09T12:35:58Z</time>
      </trkpt>
      <trkpt lat="45.59391" lon="6.8638">
        <ele>1229</ele>
        <time>2013-02-09T12:36:09Z</time>
      </trkpt>
      <trkpt lat="45.5938" lon="6.86359">
        <ele>1233</ele>
        <time>2013-02-09T12:36:21Z</time>
      </trkpt>
      <trkpt lat="45.59371" lon="6.86345">
        <ele>1236</ele>
        <time>2013-02-09T12:36:28Z</time>
      </trkpt>
      <trkpt lat="45.59359" lon="6.86324">
        <ele>1251</ele>
        <time>2013-02-09T12:36:39Z</time>
      </trkpt>
      <trkpt lat="45.59352" lon="6.86311">
        <ele>1252</ele>
        <time>2013-02-09T12:36:46Z</time>
      </trkpt>
      <trkpt lat="45.5934" lon="6.86291">
        <ele>1256</ele>
        <time>2013-02-09T12:36:58Z</time>
      </trkpt>
      <trkpt lat="45.59323" lon="6.8627">
        <ele>1281</ele>
        <time>2013-02-09T12:37:13Z</time>
      </trkpt>
      <trkpt lat="45.59302" lon="6.86265">
        <ele>1286</ele>
        <time>2013-02-09T12:37:23Z</time>
      </trkpt>
      <trkpt lat="45.59296" lon="6.86244">
        <ele>1303</ele>
        <time>2013-02-09T12:37:32Z</time>
      </trkpt>
      <trkpt lat="45.59288" lon="6.86226">
        <ele>1308</ele>
        <time>2013-02-09T12:37:38Z</time>
      </trkpt>
      <trkpt lat="45.59288" lon="6.86226">
        <ele>1308</ele>
        <time>2013-02-09T12:37:43Z</time>
      </trkpt>
      <trkpt lat="45.59288" lon="6.86226">
        <ele>1308</ele>
        <time>2013-02-09T12:37:45Z</time>
      </trkpt>
      <trkpt lat="45.59279" lon="6.86223">
        <ele>1310</ele>
        <time>2013-02-09T12:37:45Z</time>
      </trkpt>
      <trkpt lat="45.59275" lon="6.86199">
        <ele>1315</ele>
        <time>2013-02-09T12:37:51Z</time>
      </trkpt>
      <trkpt lat="45.59267" lon="6.86182">
        <ele>1322</ele>
        <time>2013-02-09T12:38:00Z</time>
      </trkpt>
      <trkpt lat="45.59257" lon="6.86162">
        <ele>1340</ele>
        <time>2013-02-09T12:38:10Z</time>
      </trkpt>
      <trkpt lat="45.59244" lon="6.86142">
        <ele>1364</ele>
        <time>2013-02-09T12:38:21Z</time>
      </trkpt>
      <trkpt lat="45.59232" lon="6.86126">
        <ele>1371</ele>
        <time>2013-02-09T12:38:32Z</time>
      </trkpt>
      <trkpt lat="45.59226" lon="6.86123">
        <ele>1373</ele>
        <time>2013-02-09T12:38:35Z</time>
      </trkpt>
      <trkpt lat="45.59226" lon="6.86123">
        <ele>1373</ele>
        <time>2013-02-09T12:38:40Z</time>
      </trkpt>
      <trkpt lat="45.59226" lon="6.86123">
        <ele>1373</ele>
        <time>2013-02-09T12:38:43Z</time>
      </trkpt>
      <trkpt lat="45.59221" lon="6.86114">
        <ele>1375</ele>
        <time>2013-02-09T12:38:43Z</time>
      </trkpt>
      <trkpt lat="45.59224" lon="6.86082">
        <ele>1386</ele>
        <time>2013-02-09T12:38:57Z</time>
      </trkpt>
      <trkpt lat="45.59208" lon="6.86069">
        <ele>1394</ele>
        <time>2013-02-09T12:39:05Z</time>
      </trkpt>
      <trkpt lat="45.59203" lon="6.86048">
        <ele>1397</ele>
        <time>2013-02-09T12:39:15Z</time>
      </trkpt>
      <trkpt lat="45.59193" lon="6.86028">
        <ele>1402</ele>
        <time>2013-02-09T12:39:27Z</time>
      </trkpt>
      <trkpt lat="45.59184" lon="6.86004">
        <ele>1411</ele>
        <time>2013-02-09T12:39:41Z</time>
      </trkpt>
      <trkpt lat="45.5917" lon="6.85977">
        <ele>1416</ele>
        <time>2013-02-09T12:39:54Z</time>
      </trkpt>
      <trkpt lat="45.59161" lon="6.85962">
        <ele>1437</ele>
        <time>2013-02-09T12:40:04Z</time>
      </trkpt>
      <trkpt lat="45.59158" lon="6.85936">
        <ele>1437</ele>
        <time>2013-02-09T12:40:12Z</time>
      </trkpt>
      <trkpt lat="45.59158" lon="6.85936">
        <ele>1437</ele>
        <time>2013-02-09T12:40:19Z</time>
      </trkpt>
      <trkpt lat="45.59158" lon="6.85936">
        <ele>1437</ele>
        <time>2013-02-09T12:40:26Z</time>
      </trkpt>
      <trkpt lat="45.59159" lon="6.85925">
        <ele>1435</ele>
        <time>2013-02-09T12:40:26Z</time>
      </trkpt>
      <trkpt lat="45.59163" lon="6.85909">
        <ele>1436</ele>
        <time>2013-02-09T12:40:39Z</time>
      </trkpt>
      <trkpt lat="45.59169" lon="6.859">
        <ele>1423</ele>
        <time>2013-02-09T12:40:45Z</time>
      </trkpt>
      <trkpt lat="45.59174" lon="6.85888">
        <ele>1421</ele>
        <time>2013-02-09T12:40:50Z</time>
      </trkpt>
      <trkpt lat="45.59182" lon="6.85848">
        <ele>1423</ele>
        <time>2013-02-09T12:41:02Z</time>
      </trkpt>
      <trkpt lat="45.59202" lon="6.85808">
        <ele>1429</ele>
        <time>2013-02-09T12:41:08Z</time>
      </trkpt>
      <trkpt lat="45.5923" lon="6.85801">
        <ele>1425</ele>
        <time>2013-02-09T12:41:13Z</time>
      </trkpt>
      <trkpt lat="45.59251" lon="6.85801">
        <ele>1408</ele>
        <time>2013-02-09T12:41:16Z</time>
      </trkpt>
      <trkpt lat="45.59281" lon="6.85783">
        <ele>1407</ele>
        <time>2013-02-09T12:41:21Z</time>
      </trkpt>
      <trkpt lat="45.59299" lon="6.85766">
        <ele>1406</ele>
        <time>2013-02-09T12:41:24Z</time>
      </trkpt>
      <trkpt lat="45.59338" lon="6.85721">
        <ele>1402</ele>
        <time>2013-02-09T12:41:30Z</time>
      </trkpt>
      <trkpt lat="45.5934" lon="6.85708">
        <ele>1403</ele>
        <time>2013-02-09T12:41:33Z</time>
      </trkpt>
      <trkpt lat="45.5934" lon="6.85708">
        <ele>1403</ele>
        <time>2013-02-09T12:41:38Z</time>
      </trkpt>
      <trkpt lat="45.5934" lon="6.85708">
        <ele>1403</ele>
        <time>2013-02-09T12:42:29Z</time>
      </trkpt>
      <trkpt lat="45.59321" lon="6.85687">
        <ele>1421</ele>
        <time>2013-02-09T12:42:29Z</time>
      </trkpt>
      <trkpt lat="45.59298" lon="6.85665">
        <ele>1439</ele>
        <time>2013-02-09T12:42:43Z</time>
      </trkpt>
      <trkpt lat="45.59285" lon="6.85645">
        <ele>1444</ele>
        <time>2013-02-09T12:42:55Z</time>
      </trkpt>
      <trkpt lat="45.59272" lon="6.85625">
        <ele>1449</ele>
        <time>2013-02-09T12:43:05Z</time>
      </trkpt>
      <trkpt lat="45.59257" lon="6.85604">
        <ele>1459</ele>
        <time>2013-02-09T12:43:17Z</time>
      </trkpt>
      <trkpt lat="45.59248" lon="6.85592">
        <ele>1478</ele>
        <time>2013-02-09T12:43:25Z</time>
      </trkpt>
      <trkpt lat="45.59233" lon="6.85572">
        <ele>1495</ele>
        <time>2013-02-09T12:43:36Z</time>
      </trkpt>
      <trkpt lat="45.59224" lon="6.85553">
        <ele>1502</ele>
        <time>2013-02-09T12:43:49Z</time>
      </trkpt>
      <trkpt lat="45.59218" lon="6.85534">
        <ele>1506</ele>
        <time>2013-02-09T12:44:08Z</time>
      </trkpt>
      <trkpt lat="45.59203" lon="6.85512">
        <ele>1512</ele>
        <time>2013-02-09T12:44:19Z</time>
      </trkpt>
      <trkpt lat="45.59188" lon="6.85487">
        <ele>1526</ele>
        <time>2013-02-09T12:44:31Z</time>
      </trkpt>
      <trkpt lat="45.59178" lon="6.85473">
        <ele>1528</ele>
        <time>2013-02-09T12:44:38Z</time>
      </trkpt>
      <trkpt lat="45.59167" lon="6.8545">
        <ele>1558</ele>
        <time>2013-02-09T12:44:49Z</time>
      </trkpt>
      <trkpt lat="45.59154" lon="6.85429">
        <ele>1557</ele>
        <time>2013-02-09T12:45:00Z</time>
      </trkpt>
      <trkpt lat="45.59145" lon="6.85404">
        <ele>1564</ele>
        <time>2013-02-09T12:45:12Z</time>
      </trkpt>
      <trkpt lat="45.59128" lon="6.85388">
        <ele>1571</ele>
        <time>2013-02-09T12:45:22Z</time>
      </trkpt>
      <trkpt lat="45.59105" lon="6.85369">
        <ele>1576</ele>
        <time>2013-02-09T12:45:33Z</time>
      </trkpt>
      <trkpt lat="45.59092" lon="6.85358">
        <ele>1580</ele>
        <time>2013-02-09T12:45:44Z</time>
      </trkpt>
      <trkpt lat="45.59062" lon="6.85298">
        <ele>1614</ele>
        <time>2013-02-09T12:46:01Z</time>
      </trkpt>
      <trkpt lat="45.59049" lon="6.85285">
        <ele>1618</ele>
        <time>2013-02-09T12:46:10Z</time>
      </trkpt>
      <trkpt lat="45.59041" lon="6.85273">
        <ele>1621</ele>
        <time>2013-02-09T12:46:17Z</time>
      </trkpt>
      <trkpt lat="45.59041" lon="6.85273">
        <ele>1621</ele>
        <time>2013-02-09T12:46:22Z</time>
      </trkpt>
      <trkpt lat="45.59041" lon="6.85273">
        <ele>1621</ele>
        <time>2013-02-09T12:46:24Z</time>
      </trkpt>
      <trkpt lat="45.59037" lon="6.85268">
        <ele>1622</ele>
        <time>2013-02-09T12:46:24Z</time>
      </trkpt>
      <trkpt lat="45.59025" lon="6.8525">
        <ele>1633</ele>
        <time>2013-02-09T12:46:34Z</time>
      </trkpt>
      <trkpt lat="45.59018" lon="6.85238">
        <ele>1635</ele>
        <time>2013-02-09T12:46:40Z</time>
      </trkpt>
      <trkpt lat="45.59007" lon="6.85222">
        <ele>1636</ele>
        <time>2013-02-09T12:46:48Z</time>
      </trkpt>
      <trkpt lat="45.58998" lon="6.85209">
        <ele>1660</ele>
        <time>2013-02-09T12:46:55Z</time>
      </trkpt>
      <trkpt lat="45.58985" lon="6.85189">
        <ele>1662</ele>
        <time>2013-02-09T12:47:05Z</time>
      </trkpt>
      <trkpt lat="45.58973" lon="6.85171">
        <ele>1664</ele>
        <time>2013-02-09T12:47:14Z</time>
      </trkpt>
      <trkpt lat="45.5896" lon="6.85152">
        <ele>1674</ele>
        <time>2013-02-09T12:47:24Z</time>
      </trkpt>
      <trkpt lat="45.58948" lon="6.85134">
        <ele>1678</ele>
        <time>2013-02-09T12:47:33Z</time>
      </trkpt>
      <trkpt lat="45.58939" lon="6.85119">
        <ele>1681</ele>
        <time>2013-02-09T12:47:40Z</time>
      </trkpt>
      <trkpt lat="45.58923" lon="6.85095">
        <ele>1690</ele>
        <time>2013-02-09T12:47:52Z</time>
      </trkpt>
      <trkpt lat="45.58913" lon="6.85081">
        <ele>1706</ele>
        <time>2013-02-09T12:47:59Z</time>
      </trkpt>
      <trkpt lat="45.58909" lon="6.85075">
        <ele>1713</ele>
        <time>2013-02-09T12:48:02Z</time>
      </trkpt>
      <trkpt lat="45.58896" lon="6.85055">
        <ele>1726</ele>
        <time>2013-02-09T12:48:12Z</time>
      </trkpt>
      <trkpt lat="45.58883" lon="6.85036">
        <ele>1733</ele>
        <time>2013-02-09T12:48:22Z</time>
      </trkpt>
      <trkpt lat="45.58874" lon="6.85021">
        <ele>1737</ele>
        <time>2013-02-09T12:48:30Z</time>
      </trkpt>
      <trkpt lat="45.58862" lon="6.85">
        <ele>1745</ele>
        <time>2013-02-09T12:48:41Z</time>
      </trkpt>
      <trkpt lat="45.58851" lon="6.84981">
        <ele>1764</ele>
        <time>2013-02-09T12:48:52Z</time>
      </trkpt>
      <trkpt lat="45.58844" lon="6.8497">
        <ele>1766</ele>
        <time>2013-02-09T12:48:58Z</time>
      </trkpt>
      <trkpt lat="45.58827" lon="6.84946">
        <ele>1801</ele>
        <time>2013-02-09T12:49:12Z</time>
      </trkpt>
      <trkpt lat="45.5882" lon="6.84924">
        <ele>1804</ele>
        <time>2013-02-09T12:49:24Z</time>
      </trkpt>
      <trkpt lat="45.58806" lon="6.84907">
        <ele>1827</ele>
        <time>2013-02-09T12:49:34Z</time>
      </trkpt>
      <trkpt lat="45.58794" lon="6.84887">
        <ele>1836</ele>
        <time>2013-02-09T12:49:46Z</time>
      </trkpt>
      <trkpt lat="45.58777" lon="6.84864">
        <ele>1845</ele>
        <time>2013-02-09T12:50:00Z</time>
      </trkpt>
      <trkpt lat="45.58764" lon="6.84844">
        <ele>1857</ele>
        <time>2013-02-09T12:50:11Z</time>
      </trkpt>
      <trkpt lat="45.58746" lon="6.84821">
        <ele>1885</ele>
        <time>2013-02-09T12:50:23Z</time>
      </trkpt>
      <trkpt lat="45.58731" lon="6.84801">
        <ele>1894</ele>
        <time>2013-02-09T12:50:33Z</time>
      </trkpt>
      <trkpt lat="45.5872" lon="6.84783">
        <ele>1899</ele>
        <time>2013-02-09T12:50:42Z</time>
      </trkpt>
      <trkpt lat="45.5871" lon="6.84761">
        <ele>1904</ele>
        <time>2013-02-09T12:50:53Z</time>
      </trkpt>
      <trkpt lat="45.58705" lon="6.84749">
        <ele>1921</ele>
        <time>2013-02-09T12:50:59Z</time>
      </trkpt>
      <trkpt lat="45.58691" lon="6.84727">
        <ele>1925</ele>
        <time>2013-02-09T12:51:11Z</time>
      </trkpt>
      <trkpt lat="45.58674" lon="6.84702">
        <ele>1930</ele>
        <time>2013-02-09T12:51:24Z</time>
      </trkpt>
      <trkpt lat="45.58656" lon="6.84675">
        <ele>1949</ele>
        <time>2013-02-09T12:51:38Z</time>
      </trkpt>
      <trkpt lat="45.58637" lon="6.84656">
        <ele>1968</ele>
        <time>2013-02-09T12:51:48Z</time>
      </trkpt>
      <trkpt lat="45.58626" lon="6.84638">
        <ele>1973</ele>
        <time>2013-02-09T12:51:58Z</time>
      </trkpt>
      <trkpt lat="45.58607" lon="6.84608">
        <ele>1982</ele>
        <time>2013-02-09T12:52:13Z</time>
      </trkpt>
      <trkpt lat="45.58598" lon="6.84594">
        <ele>1988</ele>
        <time>2013-02-09T12:52:20Z</time>
      </trkpt>
      <trkpt lat="45.58593" lon="6.84588">
        <ele>1992</ele>
        <time>2013-02-09T12:52:23Z</time>
      </trkpt>
      <trkpt lat="45.5858" lon="6.84568">
        <ele>2015</ele>
        <time>2013-02-09T12:52:34Z</time>
      </trkpt>
      <trkpt lat="45.58569" lon="6.8455">
        <ele>2025</ele>
        <time>2013-02-09T12:52:44Z</time>
      </trkpt>
      <trkpt lat="45.58549" lon="6.84523">
        <ele>2033</ele>
        <time>2013-02-09T12:52:57Z</time>
      </trkpt>
      <trkpt lat="45.58535" lon="6.84503">
        <ele>2038</ele>
        <time>2013-02-09T12:53:06Z</time>
      </trkpt>
      <trkpt lat="45.58523" lon="6.84479">
        <ele>2058</ele>
        <time>2013-02-09T12:53:12Z</time>
      </trkpt>
      <trkpt lat="45.58508" lon="6.84458">
        <ele>2063</ele>
        <time>2013-02-09T12:53:22Z</time>
      </trkpt>
      <trkpt lat="45.58506" lon="6.84455">
        <ele>2064</ele>
        <time>2013-02-09T12:53:23Z</time>
      </trkpt>
      <trkpt lat="45.58506" lon="6.84455">
        <ele>2064</ele>
        <time>2013-02-09T12:53:29Z</time>
      </trkpt>
      <trkpt lat="45.58506" lon="6.84455">
        <ele>2064</ele>
        <time>2013-02-09T12:53:35Z</time>
      </trkpt>
      <trkpt lat="45.58492" lon="6.84436">
        <ele>2081</ele>
        <time>2013-02-09T12:53:35Z</time>
      </trkpt>
      <trkpt lat="45.58489" lon="6.84432">
        <ele>2082</ele>
        <time>2013-02-09T12:53:36Z</time>
      </trkpt>
      <trkpt lat="45.58489" lon="6.84432">
        <ele>2082</ele>
        <time>2013-02-09T12:53:41Z</time>
      </trkpt>
      <trkpt lat="45.58489" lon="6.84432">
        <ele>2082</ele>
        <time>2013-02-09T12:53:50Z</time>
      </trkpt>
      <trkpt lat="45.58479" lon="6.84421">
        <ele>2082</ele>
        <time>2013-02-09T12:53:50Z</time>
      </trkpt>
      <trkpt lat="45.58471" lon="6.84405">
        <ele>2096</ele>
        <time>2013-02-09T12:53:57Z</time>
      </trkpt>
      <trkpt lat="45.58457" lon="6.84386">
        <ele>2099</ele>
        <time>2013-02-09T12:54:06Z</time>
      </trkpt>
      <trkpt lat="45.58445" lon="6.84366">
        <ele>2102</ele>
        <time>2013-02-09T12:54:16Z</time>
      </trkpt>
      <trkpt lat="45.58434" lon="6.84347">
        <ele>2105</ele>
        <time>2013-02-09T12:54:25Z</time>
      </trkpt>
      <trkpt lat="45.58415" lon="6.84331">
        <ele>2114</ele>
        <time>2013-02-09T12:54:36Z</time>
      </trkpt>
      <trkpt lat="45.58398" lon="6.84292">
        <ele>2119</ele>
        <time>2013-02-09T12:54:49Z</time>
      </trkpt>
      <trkpt lat="45.58393" lon="6.84274">
        <ele>2119</ele>
        <time>2013-02-09T12:54:57Z</time>
      </trkpt>
      <trkpt lat="45.58393" lon="6.84274">
        <ele>2119</ele>
        <time>2013-02-09T12:55:04Z</time>
      </trkpt>
      <trkpt lat="45.58393" lon="6.84274">
        <ele>2119</ele>
        <time>2013-02-09T12:55:04Z</time>
      </trkpt>
      <trkpt lat="45.58393" lon="6.84274">
        <ele>2119</ele>
        <time>2013-02-09T12:55:21Z</time>
      </trkpt>
      <trkpt lat="45.58378" lon="6.84268">
        <ele>2120</ele>
        <time>2013-02-09T12:55:21Z</time>
      </trkpt>
      <trkpt lat="45.58365" lon="6.84267">
        <ele>2121</ele>
        <time>2013-02-09T12:55:27Z</time>
      </trkpt>
      <trkpt lat="45.58346" lon="6.84266">
        <ele>2123</ele>
        <time>2013-02-09T12:55:37Z</time>
      </trkpt>
      <trkpt lat="45.5833" lon="6.84263">
        <ele>2130</ele>
        <time>2013-02-09T12:55:46Z</time>
      </trkpt>
      <trkpt lat="45.58309" lon="6.84263">
        <ele>2134</ele>
        <time>2013-02-09T12:55:58Z</time>
      </trkpt>
      <trkpt lat="45.5829" lon="6.84264">
        <ele>2137</ele>
        <time>2013-02-09T12:56:08Z</time>
      </trkpt>
      <trkpt lat="45.58272" lon="6.84262">
        <ele>2141</ele>
        <time>2013-02-09T12:56:17Z</time>
      </trkpt>
      <trkpt lat="45.58257" lon="6.84256">
        <ele>2146</ele>
        <time>2013-02-09T12:56:27Z</time>
      </trkpt>
      <trkpt lat="45.58239" lon="6.84256">
        <ele>2155</ele>
        <time>2013-02-09T12:56:36Z</time>
      </trkpt>
      <trkpt lat="45.58219" lon="6.84256">
        <ele>2161</ele>
        <time>2013-02-09T12:56:47Z</time>
      </trkpt>
      <trkpt lat="45.58204" lon="6.84256">
        <ele>2164</ele>
        <time>2013-02-09T12:56:55Z</time>
      </trkpt>
      <trkpt lat="45.58191" lon="6.84255">
        <ele>2167</ele>
        <time>2013-02-09T12:57:02Z</time>
      </trkpt>
      <trkpt lat="45.58175" lon="6.84253">
        <ele>2172</ele>
        <time>2013-02-09T12:57:11Z</time>
      </trkpt>
      <trkpt lat="45.58163" lon="6.84253">
        <ele>2179</ele>
        <time>2013-02-09T12:57:18Z</time>
      </trkpt>
      <trkpt lat="45.58153" lon="6.84252">
        <ele>2185</ele>
        <time>2013-02-09T12:57:24Z</time>
      </trkpt>
      <trkpt lat="45.58138" lon="6.8425">
        <ele>2191</ele>
        <time>2013-02-09T12:57:33Z</time>
      </trkpt>
      <trkpt lat="45.58115" lon="6.84249">
        <ele>2188</ele>
        <time>2013-02-09T12:57:44Z</time>
      </trkpt>
      <trkpt lat="45.58089" lon="6.84245">
        <ele>2201</ele>
        <time>2013-02-09T12:57:59Z</time>
      </trkpt>
      <trkpt lat="45.58065" lon="6.84243">
        <ele>2209</ele>
        <time>2013-02-09T12:58:13Z</time>
      </trkpt>
      <trkpt lat="45.58045" lon="6.84241">
        <ele>2212</ele>
        <time>2013-02-09T12:58:24Z</time>
      </trkpt>
      <trkpt lat="45.58028" lon="6.8424">
        <ele>2217</ele>
        <time>2013-02-09T12:58:33Z</time>
      </trkpt>
      <trkpt lat="45.58014" lon="6.8424">
        <ele>2222</ele>
        <time>2013-02-09T12:58:41Z</time>
      </trkpt>
      <trkpt lat="45.57992" lon="6.84239">
        <ele>2234</ele>
        <time>2013-02-09T12:58:53Z</time>
      </trkpt>
      <trkpt lat="45.57977" lon="6.84237">
        <ele>2235</ele>
        <time>2013-02-09T12:59:01Z</time>
      </trkpt>
      <trkpt lat="45.57951" lon="6.84234">
        <ele>2238</ele>
        <time>2013-02-09T12:59:15Z</time>
      </trkpt>
      <trkpt lat="45.57934" lon="6.84229">
        <ele>2241</ele>
        <time>2013-02-09T12:59:26Z</time>
      </trkpt>
      <trkpt lat="45.57908" lon="6.84232">
        <ele>2254</ele>
        <time>2013-02-09T12:59:39Z</time>
      </trkpt>
      <trkpt lat="45.57889" lon="6.84227">
        <ele>2253</ele>
        <time>2013-02-09T12:59:49Z</time>
      </trkpt>
      <trkpt lat="45.57873" lon="6.84229">
        <ele>2254</ele>
        <time>2013-02-09T12:59:57Z</time>
      </trkpt>
      <trkpt lat="45.57857" lon="6.84227">
        <ele>2256</ele>
        <time>2013-02-09T13:00:06Z</time>
      </trkpt>
      <trkpt lat="45.57838" lon="6.84226">
        <ele>2258</ele>
        <time>2013-02-09T13:00:16Z</time>
      </trkpt>
      <trkpt lat="45.57815" lon="6.84223">
        <ele>2262</ele>
        <time>2013-02-09T13:00:28Z</time>
      </trkpt>
      <trkpt lat="45.57797" lon="6.84221">
        <ele>2261</ele>
        <time>2013-02-09T13:00:38Z</time>
      </trkpt>
      <trkpt lat="45.57772" lon="6.84219">
        <ele>2262</ele>
        <time>2013-02-09T13:00:51Z</time>
      </trkpt>
      <trkpt lat="45.57751" lon="6.84219">
        <ele>2263</ele>
        <time>2013-02-09T13:01:02Z</time>
      </trkpt>
      <trkpt lat="45.57735" lon="6.84218">
        <ele>2268</ele>
        <time>2013-02-09T13:01:10Z</time>
      </trkpt>
      <trkpt lat="45.57713" lon="6.84217">
        <ele>2268</ele>
        <time>2013-02-09T13:01:21Z</time>
      </trkpt>
      <trkpt lat="45.57696" lon="6.84216">
        <ele>2269</ele>
        <time>2013-02-09T13:01:30Z</time>
      </trkpt>
      <trkpt lat="45.57676" lon="6.84214">
        <ele>2270</ele>
        <time>2013-02-09T13:01:40Z</time>
      </trkpt>
      <trkpt lat="45.57659" lon="6.84212">
        <ele>2282</ele>
        <time>2013-02-09T13:01:49Z</time>
      </trkpt>
      <trkpt lat="45.57641" lon="6.84211">
        <ele>2284</ele>
        <time>2013-02-09T13:01:59Z</time>
      </trkpt>
      <trkpt lat="45.5763" lon="6.8421">
        <ele>2285</ele>
        <time>2013-02-09T13:02:05Z</time>
      </trkpt>
      <trkpt lat="45.57619" lon="6.84209">
        <ele>2287</ele>
        <time>2013-02-09T13:02:11Z</time>
      </trkpt>
      <trkpt lat="45.57602" lon="6.84208">
        <ele>2289</ele>
        <time>2013-02-09T13:02:20Z</time>
      </trkpt>
      <trkpt lat="45.5758" lon="6.84206">
        <ele>2309</ele>
        <time>2013-02-09T13:02:32Z</time>
      </trkpt>
      <trkpt lat="45.57566" lon="6.84206">
        <ele>2311</ele>
        <time>2013-02-09T13:02:40Z</time>
      </trkpt>
      <trkpt lat="45.57554" lon="6.84205">
        <ele>2313</ele>
        <time>2013-02-09T13:02:47Z</time>
      </trkpt>
      <trkpt lat="45.57536" lon="6.84204">
        <ele>2317</ele>
        <time>2013-02-09T13:02:57Z</time>
      </trkpt>
      <trkpt lat="45.57516" lon="6.84199">
        <ele>2320</ele>
        <time>2013-02-09T13:03:09Z</time>
      </trkpt>
      <trkpt lat="45.575" lon="6.84199">
        <ele>2342</ele>
        <time>2013-02-09T13:03:18Z</time>
      </trkpt>
      <trkpt lat="45.5748" lon="6.84198">
        <ele>2344</ele>
        <time>2013-02-09T13:03:29Z</time>
      </trkpt>
      <trkpt lat="45.57458" lon="6.84179">
        <ele>2346</ele>
        <time>2013-02-09T13:03:41Z</time>
      </trkpt>
      <trkpt lat="45.57436" lon="6.84141">
        <ele>2329</ele>
        <time>2013-02-09T13:04:59Z</time>
      </trkpt>
      <trkpt lat="45.57419" lon="6.84065">
        <ele>2307</ele>
        <time>2013-02-09T13:05:05Z</time>
      </trkpt>
      <trkpt lat="45.57397" lon="6.83994">
        <ele>2293</ele>
        <time>2013-02-09T13:05:10Z</time>
      </trkpt>
      <trkpt lat="45.57376" lon="6.83929">
        <ele>2288</ele>
        <time>2013-02-09T13:05:15Z</time>
      </trkpt>
      <trkpt lat="45.57338" lon="6.83877">
        <ele>2267</ele>
        <time>2013-02-09T13:05:20Z</time>
      </trkpt>
      <trkpt lat="45.57296" lon="6.8383">
        <ele>2251</ele>
        <time>2013-02-09T13:05:25Z</time>
      </trkpt>
      <trkpt lat="45.5727" lon="6.83802">
        <ele>2249</ele>
        <time>2013-02-09T13:05:28Z</time>
      </trkpt>
      <trkpt lat="45.57248" lon="6.83776">
        <ele>2251</ele>
        <time>2013-02-09T13:05:31Z</time>
      </trkpt>
      <trkpt lat="45.57224" lon="6.83758">
        <ele>2250</ele>
        <time>2013-02-09T13:05:34Z</time>
      </trkpt>
      <trkpt lat="45.572" lon="6.83746">
        <ele>2234</ele>
        <time>2013-02-09T13:05:37Z</time>
      </trkpt>
      <trkpt lat="45.57175" lon="6.8373">
        <ele>2235</ele>
        <time>2013-02-09T13:05:40Z</time>
      </trkpt>
      <trkpt lat="45.57152" lon="6.83714">
        <ele>2236</ele>
        <time>2013-02-09T13:05:43Z</time>
      </trkpt>
      <trkpt lat="45.57131" lon="6.83695">
        <ele>2232</ele>
        <time>2013-02-09T13:05:46Z</time>
      </trkpt>
      <trkpt lat="45.57088" lon="6.8367">
        <ele>2226</ele>
        <time>2013-02-09T13:05:52Z</time>
      </trkpt>
      <trkpt lat="45.57049" lon="6.83663">
        <ele>2212</ele>
        <time>2013-02-09T13:05:58Z</time>
      </trkpt>
      <trkpt lat="45.57013" lon="6.83674">
        <ele>2228</ele>
        <time>2013-02-09T13:06:04Z</time>
      </trkpt>
      <trkpt lat="45.5697" lon="6.8365">
        <ele>2208</ele>
        <time>2013-02-09T13:06:10Z</time>
      </trkpt>
      <trkpt lat="45.56991" lon="6.83567">
        <ele>2183</ele>
        <time>2013-02-09T13:06:16Z</time>
      </trkpt>
      <trkpt lat="45.56992" lon="6.83504">
        <ele>2172</ele>
        <time>2013-02-09T13:06:19Z</time>
      </trkpt>
      <trkpt lat="45.5698" lon="6.83437">
        <ele>2159</ele>
        <time>2013-02-09T13:06:22Z</time>
      </trkpt>
      <trkpt lat="45.56967" lon="6.83369">
        <ele>2154</ele>
        <time>2013-02-09T13:06:25Z</time>
      </trkpt>
      <trkpt lat="45.56944" lon="6.83291">
        <ele>2151</ele>
        <time>2013-02-09T13:06:29Z</time>
      </trkpt>
      <trkpt lat="45.56923" lon="6.83242">
        <ele>2148</ele>
        <time>2013-02-09T13:06:32Z</time>
      </trkpt>
      <trkpt lat="45.56914" lon="6.83164">
        <ele>2145</ele>
        <time>2013-02-09T13:06:38Z</time>
      </trkpt>
      <trkpt lat="45.56942" lon="6.83129">
        <ele>2140</ele>
        <time>2013-02-09T13:06:44Z</time>
      </trkpt>
      <trkpt lat="45.56952" lon="6.83123">
        <ele>2139</ele>
        <time>2013-02-09T13:06:46Z</time>
      </trkpt>
      <trkpt lat="45.56952" lon="6.83123">
        <ele>2139</ele>
        <time>2013-02-09T13:06:51Z</time>
      </trkpt>
      <trkpt lat="45.56952" lon="6.83123">
        <ele>2139</ele>
        <time>2013-02-09T13:07:28Z</time>
      </trkpt>
      <trkpt lat="45.56955" lon="6.83095">
        <ele>2138</ele>
        <time>2013-02-09T13:07:28Z</time>
      </trkpt>
      <trkpt lat="45.56981" lon="6.83053">
        <ele>2133</ele>
        <time>2013-02-09T13:07:33Z</time>
      </trkpt>
      <trkpt lat="45.57011" lon="6.83005">
        <ele>2124</ele>
        <time>2013-02-09T13:07:39Z</time>
      </trkpt>
      <trkpt lat="45.57004" lon="6.8296">
        <ele>2112</ele>
        <time>2013-02-09T13:07:45Z</time>
      </trkpt>
      <trkpt lat="45.5702" lon="6.82899">
        <ele>2102</ele>
        <time>2013-02-09T13:07:50Z</time>
      </trkpt>
      <trkpt lat="45.57037" lon="6.82864">
        <ele>2097</ele>
        <time>2013-02-09T13:07:53Z</time>
      </trkpt>
      <trkpt lat="45.57061" lon="6.8281">
        <ele>2088</ele>
        <time>2013-02-09T13:07:58Z</time>
      </trkpt>
      <trkpt lat="45.571" lon="6.82751">
        <ele>2072</ele>
        <time>2013-02-09T13:08:04Z</time>
      </trkpt>
      <trkpt lat="45.57133" lon="6.82734">
        <ele>2066</ele>
        <time>2013-02-09T13:08:10Z</time>
      </trkpt>
      <trkpt lat="45.57158" lon="6.82757">
        <ele>2061</ele>
        <time>2013-02-09T13:08:16Z</time>
      </trkpt>
      <trkpt lat="45.57172" lon="6.82747">
        <ele>2057</ele>
        <time>2013-02-09T13:08:25Z</time>
      </trkpt>
      <trkpt lat="45.57189" lon="6.82737">
        <ele>2054</ele>
        <time>2013-02-09T13:08:31Z</time>
      </trkpt>
      <trkpt lat="45.57205" lon="6.82726">
        <ele>2053</ele>
        <time>2013-02-09T13:08:35Z</time>
      </trkpt>
      <trkpt lat="45.57222" lon="6.82717">
        <ele>2051</ele>
        <time>2013-02-09T13:08:38Z</time>
      </trkpt>
      <trkpt lat="45.57222" lon="6.82717">
        <ele>2051</ele>
        <time>2013-02-09T13:08:44Z</time>
      </trkpt>
      <trkpt lat="45.57222" lon="6.82717">
        <ele>2051</ele>
        <time>2013-02-09T13:08:44Z</time>
      </trkpt>
      <trkpt lat="45.57222" lon="6.82717">
        <ele>2051</ele>
        <time>2013-02-09T13:10:07Z</time>
      </trkpt>
      <trkpt lat="45.57235" lon="6.82722">
        <ele>2051</ele>
        <time>2013-02-09T13:10:07Z</time>
      </trkpt>
      <trkpt lat="45.57235" lon="6.82722">
        <ele>2051</ele>
        <time>2013-02-09T13:10:15Z</time>
      </trkpt>
      <trkpt lat="45.57235" lon="6.82722">
        <ele>2051</ele>
        <time>2013-02-09T13:10:15Z</time>
      </trkpt>
      <trkpt lat="45.57235" lon="6.82722">
        <ele>2051</ele>
        <time>2013-02-09T13:11:15Z</time>
      </trkpt>
      <trkpt lat="45.57243" lon="6.82764">
        <ele>2050</ele>
        <time>2013-02-09T13:11:15Z</time>
      </trkpt>
      <trkpt lat="45.57262" lon="6.82757">
        <ele>2046</ele>
        <time>2013-02-09T13:11:24Z</time>
      </trkpt>
      <trkpt lat="45.57285" lon="6.82756">
        <ele>2045</ele>
        <time>2013-02-09T13:11:30Z</time>
      </trkpt>
      <trkpt lat="45.57295" lon="6.82762">
        <ele>2044</ele>
        <time>2013-02-09T13:11:35Z</time>
      </trkpt>
      <trkpt lat="45.57295" lon="6.82762">
        <ele>2044</ele>
        <time>2013-02-09T13:11:41Z</time>
      </trkpt>
      <trkpt lat="45.57295" lon="6.82762">
        <ele>2044</ele>
        <time>2013-02-09T13:14:34Z</time>
      </trkpt>
      <trkpt lat="45.57295" lon="6.82762">
        <ele>2044</ele>
        <time>2013-02-09T13:16:52Z</time>
      </trkpt>
      <trkpt lat="45.57295" lon="6.82762">
        <ele>2044</ele>
        <time>2013-02-09T13:56:35Z</time>
      </trkpt>
      <trkpt lat="45.57297" lon="6.82758">
        <ele>2044</ele>
        <time>2013-02-09T13:56:36Z</time>
      </trkpt>
      <trkpt lat="45.57312" lon="6.82751">
        <ele>2043</ele>
        <time>2013-02-09T14:00:07Z</time>
      </trkpt>
      <trkpt lat="45.57298" lon="6.82721">
        <ele>2043</ele>
        <time>2013-02-09T14:00:35Z</time>
      </trkpt>
      <trkpt lat="45.57298" lon="6.82721">
        <ele>2043</ele>
        <time>2013-02-09T14:00:42Z</time>
      </trkpt>
      <trkpt lat="45.57298" lon="6.82721">
        <ele>2043</ele>
        <time>2013-02-09T14:00:42Z</time>
      </trkpt>
      <trkpt lat="45.57298" lon="6.82721">
        <ele>2043</ele>
        <time>2013-02-09T14:00:51Z</time>
      </trkpt>
      <trkpt lat="45.57315" lon="6.82706">
        <ele>2042</ele>
        <time>2013-02-09T14:00:51Z</time>
      </trkpt>
      <trkpt lat="45.57315" lon="6.82706">
        <ele>2042</ele>
        <time>2013-02-09T14:00:56Z</time>
      </trkpt>
      <trkpt lat="45.57315" lon="6.82706">
        <ele>2042</ele>
        <time>2013-02-09T14:00:56Z</time>
      </trkpt>
      <trkpt lat="45.57315" lon="6.82706">
        <ele>2042</ele>
        <time>2013-02-09T14:01:12Z</time>
      </trkpt>
      <trkpt lat="45.57326" lon="6.82689">
        <ele>2040</ele>
        <time>2013-02-09T14:01:12Z</time>
      </trkpt>
      <trkpt lat="45.57321" lon="6.82663">
        <ele>2035</ele>
        <time>2013-02-09T14:01:18Z</time>
      </trkpt>
      <trkpt lat="45.57298" lon="6.8262">
        <ele>2034</ele>
        <time>2013-02-09T14:01:24Z</time>
      </trkpt>
      <trkpt lat="45.57289" lon="6.82596">
        <ele>2033</ele>
        <time>2013-02-09T14:01:27Z</time>
      </trkpt>
      <trkpt lat="45.57281" lon="6.82571">
        <ele>2029</ele>
        <time>2013-02-09T14:01:30Z</time>
      </trkpt>
      <trkpt lat="45.57298" lon="6.82512">
        <ele>2025</ele>
        <time>2013-02-09T14:01:35Z</time>
      </trkpt>
      <trkpt lat="45.57292" lon="6.82482">
        <ele>2024</ele>
        <time>2013-02-09T14:01:38Z</time>
      </trkpt>
      <trkpt lat="45.5728" lon="6.82444">
        <ele>2025</ele>
        <time>2013-02-09T14:01:44Z</time>
      </trkpt>
      <trkpt lat="45.5728" lon="6.82444">
        <ele>2025</ele>
        <time>2013-02-09T14:01:49Z</time>
      </trkpt>
      <trkpt lat="45.5728" lon="6.82444">
        <ele>2025</ele>
        <time>2013-02-09T14:01:49Z</time>
      </trkpt>
      <trkpt lat="45.5728" lon="6.82444">
        <ele>2025</ele>
        <time>2013-02-09T14:01:58Z</time>
      </trkpt>
      <trkpt lat="45.57278" lon="6.82464">
        <ele>2025</ele>
        <time>2013-02-09T14:01:58Z</time>
      </trkpt>
      <trkpt lat="45.57278" lon="6.82464">
        <ele>2025</ele>
        <time>2013-02-09T14:02:05Z</time>
      </trkpt>
      <trkpt lat="45.57278" lon="6.82464">
        <ele>2025</ele>
        <time>2013-02-09T14:02:05Z</time>
      </trkpt>
      <trkpt lat="45.57278" lon="6.82464">
        <ele>2025</ele>
        <time>2013-02-09T14:02:32Z</time>
      </trkpt>
      <trkpt lat="45.57258" lon="6.82482">
        <ele>2027</ele>
        <time>2013-02-09T14:02:32Z</time>
      </trkpt>
      <trkpt lat="45.57238" lon="6.82489">
        <ele>2035</ele>
        <time>2013-02-09T14:02:37Z</time>
      </trkpt>
      <trkpt lat="45.57219" lon="6.82495">
        <ele>2037</ele>
        <time>2013-02-09T14:02:42Z</time>
      </trkpt>
      <trkpt lat="45.57193" lon="6.82503">
        <ele>2043</ele>
        <time>2013-02-09T14:02:49Z</time>
      </trkpt>
      <trkpt lat="45.57163" lon="6.82513">
        <ele>2050</ele>
        <time>2013-02-09T14:02:57Z</time>
      </trkpt>
      <trkpt lat="45.57138" lon="6.82522">
        <ele>2054</ele>
        <time>2013-02-09T14:03:04Z</time>
      </trkpt>
      <trkpt lat="45.57107" lon="6.82532">
        <ele>2056</ele>
        <time>2013-02-09T14:03:12Z</time>
      </trkpt>
      <trkpt lat="45.5708" lon="6.82539">
        <ele>2068</ele>
        <time>2013-02-09T14:03:19Z</time>
      </trkpt>
      <trkpt lat="45.5706" lon="6.82542">
        <ele>2069</ele>
        <time>2013-02-09T14:03:24Z</time>
      </trkpt>
      <trkpt lat="45.57035" lon="6.82553">
        <ele>2073</ele>
        <time>2013-02-09T14:03:31Z</time>
      </trkpt>
      <trkpt lat="45.57012" lon="6.82559">
        <ele>2077</ele>
        <time>2013-02-09T14:03:37Z</time>
      </trkpt>
      <trkpt lat="45.56986" lon="6.82571">
        <ele>2093</ele>
        <time>2013-02-09T14:03:45Z</time>
      </trkpt>
      <trkpt lat="45.56965" lon="6.82579">
        <ele>2098</ele>
        <time>2013-02-09T14:03:51Z</time>
      </trkpt>
      <trkpt lat="45.56945" lon="6.82585">
        <ele>2104</ele>
        <time>2013-02-09T14:03:57Z</time>
      </trkpt>
      <trkpt lat="45.56912" lon="6.82591">
        <ele>2115</ele>
        <time>2013-02-09T14:04:05Z</time>
      </trkpt>
      <trkpt lat="45.56892" lon="6.82596">
        <ele>2118</ele>
        <time>2013-02-09T14:04:10Z</time>
      </trkpt>
      <trkpt lat="45.56875" lon="6.82599">
        <ele>2120</ele>
        <time>2013-02-09T14:04:14Z</time>
      </trkpt>
      <trkpt lat="45.56852" lon="6.82605">
        <ele>2122</ele>
        <time>2013-02-09T14:04:20Z</time>
      </trkpt>
      <trkpt lat="45.56825" lon="6.82612">
        <ele>2136</ele>
        <time>2013-02-09T14:04:27Z</time>
      </trkpt>
      <trkpt lat="45.56813" lon="6.82616">
        <ele>2138</ele>
        <time>2013-02-09T14:04:30Z</time>
      </trkpt>
      <trkpt lat="45.56794" lon="6.82622">
        <ele>2141</ele>
        <time>2013-02-09T14:04:35Z</time>
      </trkpt>
      <trkpt lat="45.56769" lon="6.8263">
        <ele>2145</ele>
        <time>2013-02-09T14:04:42Z</time>
      </trkpt>
      <trkpt lat="45.56743" lon="6.82639">
        <ele>2162</ele>
        <time>2013-02-09T14:04:49Z</time>
      </trkpt>
      <trkpt lat="45.56722" lon="6.82645">
        <ele>2164</ele>
        <time>2013-02-09T14:04:55Z</time>
      </trkpt>
      <trkpt lat="45.56703" lon="6.82651">
        <ele>2167</ele>
        <time>2013-02-09T14:05:00Z</time>
      </trkpt>
      <trkpt lat="45.56682" lon="6.82658">
        <ele>2171</ele>
        <time>2013-02-09T14:05:06Z</time>
      </trkpt>
      <trkpt lat="45.56664" lon="6.82664">
        <ele>2178</ele>
        <time>2013-02-09T14:05:11Z</time>
      </trkpt>
      <trkpt lat="45.56633" lon="6.82674">
        <ele>2180</ele>
        <time>2013-02-09T14:05:19Z</time>
      </trkpt>
      <trkpt lat="45.56611" lon="6.82682">
        <ele>2182</ele>
        <time>2013-02-09T14:05:25Z</time>
      </trkpt>
      <trkpt lat="45.56581" lon="6.8269">
        <ele>2190</ele>
        <time>2013-02-09T14:05:32Z</time>
      </trkpt>
      <trkpt lat="45.56556" lon="6.82693">
        <ele>2192</ele>
        <time>2013-02-09T14:05:38Z</time>
      </trkpt>
      <trkpt lat="45.56528" lon="6.82699">
        <ele>2194</ele>
        <time>2013-02-09T14:05:47Z</time>
      </trkpt>
      <trkpt lat="45.56515" lon="6.82699">
        <ele>2195</ele>
        <time>2013-02-09T14:05:55Z</time>
      </trkpt>
      <trkpt lat="45.56515" lon="6.82699">
        <ele>2195</ele>
        <time>2013-02-09T14:06:01Z</time>
      </trkpt>
      <trkpt lat="45.56515" lon="6.82699">
        <ele>2195</ele>
        <time>2013-02-09T14:06:06Z</time>
      </trkpt>
      <trkpt lat="45.56509" lon="6.82682">
        <ele>2196</ele>
        <time>2013-02-09T14:06:06Z</time>
      </trkpt>
      <trkpt lat="45.56498" lon="6.82643">
        <ele>2199</ele>
        <time>2013-02-09T14:06:20Z</time>
      </trkpt>
      <trkpt lat="45.56479" lon="6.8259">
        <ele>2194</ele>
        <time>2013-02-09T14:06:26Z</time>
      </trkpt>
      <trkpt lat="45.56466" lon="6.82529">
        <ele>2189</ele>
        <time>2013-02-09T14:06:31Z</time>
      </trkpt>
      <trkpt lat="45.5647" lon="6.82472">
        <ele>2185</ele>
        <time>2013-02-09T14:06:36Z</time>
      </trkpt>
      <trkpt lat="45.56471" lon="6.82437">
        <ele>2185</ele>
        <time>2013-02-09T14:06:42Z</time>
      </trkpt>
      <trkpt lat="45.56462" lon="6.82432">
        <ele>2185</ele>
        <time>2013-02-09T14:06:49Z</time>
      </trkpt>
      <trkpt lat="45.56462" lon="6.82432">
        <ele>2185</ele>
        <time>2013-02-09T14:06:57Z</time>
      </trkpt>
      <trkpt lat="45.56462" lon="6.82432">
        <ele>2185</ele>
        <time>2013-02-09T14:06:57Z</time>
      </trkpt>
      <trkpt lat="45.56462" lon="6.82432">
        <ele>2185</ele>
        <time>2013-02-09T14:07:45Z</time>
      </trkpt>
      <trkpt lat="45.56447" lon="6.82415">
        <ele>2186</ele>
        <time>2013-02-09T14:07:45Z</time>
      </trkpt>
      <trkpt lat="45.56422" lon="6.82389">
        <ele>2187</ele>
        <time>2013-02-09T14:07:53Z</time>
      </trkpt>
      <trkpt lat="45.56402" lon="6.82368">
        <ele>2192</ele>
        <time>2013-02-09T14:07:59Z</time>
      </trkpt>
      <trkpt lat="45.56384" lon="6.82351">
        <ele>2193</ele>
        <time>2013-02-09T14:08:04Z</time>
      </trkpt>
      <trkpt lat="45.56369" lon="6.82331">
        <ele>2197</ele>
        <time>2013-02-09T14:08:09Z</time>
      </trkpt>
      <trkpt lat="45.56353" lon="6.82318">
        <ele>2198</ele>
        <time>2013-02-09T14:08:14Z</time>
      </trkpt>
      <trkpt lat="45.56335" lon="6.823">
        <ele>2198</ele>
        <time>2013-02-09T14:08:20Z</time>
      </trkpt>
      <trkpt lat="45.56325" lon="6.8229">
        <ele>2202</ele>
        <time>2013-02-09T14:08:23Z</time>
      </trkpt>
      <trkpt lat="45.56306" lon="6.8227">
        <ele>2202</ele>
        <time>2013-02-09T14:08:29Z</time>
      </trkpt>
      <trkpt lat="45.56289" lon="6.82252">
        <ele>2203</ele>
        <time>2013-02-09T14:08:36Z</time>
      </trkpt>
      <trkpt lat="45.56279" lon="6.82243">
        <ele>2208</ele>
        <time>2013-02-09T14:08:43Z</time>
      </trkpt>
      <trkpt lat="45.56266" lon="6.8223">
        <ele>2209</ele>
        <time>2013-02-09T14:08:48Z</time>
      </trkpt>
      <trkpt lat="45.56254" lon="6.82216">
        <ele>2210</ele>
        <time>2013-02-09T14:08:52Z</time>
      </trkpt>
      <trkpt lat="45.56232" lon="6.82193">
        <ele>2217</ele>
        <time>2013-02-09T14:08:59Z</time>
      </trkpt>
      <trkpt lat="45.56213" lon="6.82174">
        <ele>2218</ele>
        <time>2013-02-09T14:09:05Z</time>
      </trkpt>
      <trkpt lat="45.56194" lon="6.82155">
        <ele>2227</ele>
        <time>2013-02-09T14:09:11Z</time>
      </trkpt>
      <trkpt lat="45.56175" lon="6.82136">
        <ele>2229</ele>
        <time>2013-02-09T14:09:17Z</time>
      </trkpt>
      <trkpt lat="45.56166" lon="6.82126">
        <ele>2234</ele>
        <time>2013-02-09T14:09:20Z</time>
      </trkpt>
      <trkpt lat="45.56151" lon="6.82112">
        <ele>2236</ele>
        <time>2013-02-09T14:09:24Z</time>
      </trkpt>
      <trkpt lat="45.56133" lon="6.82094">
        <ele>2237</ele>
        <time>2013-02-09T14:09:29Z</time>
      </trkpt>
      <trkpt lat="45.56118" lon="6.82078">
        <ele>2245</ele>
        <time>2013-02-09T14:09:34Z</time>
      </trkpt>
      <trkpt lat="45.56101" lon="6.82063">
        <ele>2246</ele>
        <time>2013-02-09T14:09:39Z</time>
      </trkpt>
      <trkpt lat="45.5608" lon="6.82043">
        <ele>2249</ele>
        <time>2013-02-09T14:09:46Z</time>
      </trkpt>
      <trkpt lat="45.56058" lon="6.82019">
        <ele>2250</ele>
        <time>2013-02-09T14:09:53Z</time>
      </trkpt>
      <trkpt lat="45.56038" lon="6.82">
        <ele>2257</ele>
        <time>2013-02-09T14:09:59Z</time>
      </trkpt>
      <trkpt lat="45.56021" lon="6.81984">
        <ele>2257</ele>
        <time>2013-02-09T14:10:04Z</time>
      </trkpt>
      <trkpt lat="45.56006" lon="6.81968">
        <ele>2258</ele>
        <time>2013-02-09T14:10:09Z</time>
      </trkpt>
      <trkpt lat="45.55979" lon="6.81941">
        <ele>2263</ele>
        <time>2013-02-09T14:10:17Z</time>
      </trkpt>
      <trkpt lat="45.55962" lon="6.81924">
        <ele>2264</ele>
        <time>2013-02-09T14:10:22Z</time>
      </trkpt>
      <trkpt lat="45.55943" lon="6.81905">
        <ele>2270</ele>
        <time>2013-02-09T14:10:28Z</time>
      </trkpt>
      <trkpt lat="45.5592" lon="6.81882">
        <ele>2271</ele>
        <time>2013-02-09T14:10:35Z</time>
      </trkpt>
      <trkpt lat="45.55902" lon="6.81864">
        <ele>2277</ele>
        <time>2013-02-09T14:10:41Z</time>
      </trkpt>
      <trkpt lat="45.55882" lon="6.81845">
        <ele>2278</ele>
        <time>2013-02-09T14:10:47Z</time>
      </trkpt>
      <trkpt lat="45.55864" lon="6.81829">
        <ele>2284</ele>
        <time>2013-02-09T14:10:52Z</time>
      </trkpt>
      <trkpt lat="45.55839" lon="6.81807">
        <ele>2285</ele>
        <time>2013-02-09T14:10:59Z</time>
      </trkpt>
      <trkpt lat="45.55821" lon="6.81789">
        <ele>2292</ele>
        <time>2013-02-09T14:11:04Z</time>
      </trkpt>
      <trkpt lat="45.5581" lon="6.81776">
        <ele>2292</ele>
        <time>2013-02-09T14:11:08Z</time>
      </trkpt>
      <trkpt lat="45.55791" lon="6.81761">
        <ele>2294</ele>
        <time>2013-02-09T14:11:13Z</time>
      </trkpt>
      <trkpt lat="45.55773" lon="6.8174">
        <ele>2300</ele>
        <time>2013-02-09T14:11:19Z</time>
      </trkpt>
      <trkpt lat="45.55757" lon="6.81724">
        <ele>2301</ele>
        <time>2013-02-09T14:11:24Z</time>
      </trkpt>
      <trkpt lat="45.55737" lon="6.81705">
        <ele>2307</ele>
        <time>2013-02-09T14:11:30Z</time>
      </trkpt>
      <trkpt lat="45.55721" lon="6.81689">
        <ele>2308</ele>
        <time>2013-02-09T14:11:35Z</time>
      </trkpt>
      <trkpt lat="45.55701" lon="6.8167">
        <ele>2310</ele>
        <time>2013-02-09T14:11:41Z</time>
      </trkpt>
      <trkpt lat="45.55686" lon="6.81653">
        <ele>2319</ele>
        <time>2013-02-09T14:11:46Z</time>
      </trkpt>
      <trkpt lat="45.55663" lon="6.81633">
        <ele>2327</ele>
        <time>2013-02-09T14:11:52Z</time>
      </trkpt>
      <trkpt lat="45.55644" lon="6.81614">
        <ele>2330</ele>
        <time>2013-02-09T14:11:58Z</time>
      </trkpt>
      <trkpt lat="45.55632" lon="6.81602">
        <ele>2331</ele>
        <time>2013-02-09T14:12:02Z</time>
      </trkpt>
      <trkpt lat="45.55623" lon="6.81593">
        <ele>2333</ele>
        <time>2013-02-09T14:12:05Z</time>
      </trkpt>
      <trkpt lat="45.55607" lon="6.81575">
        <ele>2347</ele>
        <time>2013-02-09T14:12:10Z</time>
      </trkpt>
      <trkpt lat="45.55592" lon="6.81563">
        <ele>2348</ele>
        <time>2013-02-09T14:12:15Z</time>
      </trkpt>
      <trkpt lat="45.55573" lon="6.81543">
        <ele>2354</ele>
        <time>2013-02-09T14:12:21Z</time>
      </trkpt>
      <trkpt lat="45.55553" lon="6.81523">
        <ele>2356</ele>
        <time>2013-02-09T14:12:27Z</time>
      </trkpt>
      <trkpt lat="45.55532" lon="6.81505">
        <ele>2358</ele>
        <time>2013-02-09T14:12:33Z</time>
      </trkpt>
      <trkpt lat="45.55514" lon="6.81488">
        <ele>2370</ele>
        <time>2013-02-09T14:12:39Z</time>
      </trkpt>
      <trkpt lat="45.55489" lon="6.81467">
        <ele>2381</ele>
        <time>2013-02-09T14:12:46Z</time>
      </trkpt>
      <trkpt lat="45.5547" lon="6.81445">
        <ele>2386</ele>
        <time>2013-02-09T14:12:52Z</time>
      </trkpt>
      <trkpt lat="45.5545" lon="6.81424">
        <ele>2391</ele>
        <time>2013-02-09T14:12:58Z</time>
      </trkpt>
      <trkpt lat="45.55434" lon="6.81411">
        <ele>2405</ele>
        <time>2013-02-09T14:13:04Z</time>
      </trkpt>
      <trkpt lat="45.5542" lon="6.81396">
        <ele>2407</ele>
        <time>2013-02-09T14:13:09Z</time>
      </trkpt>
      <trkpt lat="45.55406" lon="6.81383">
        <ele>2420</ele>
        <time>2013-02-09T14:13:13Z</time>
      </trkpt>
      <trkpt lat="45.55391" lon="6.81365">
        <ele>2424</ele>
        <time>2013-02-09T14:13:18Z</time>
      </trkpt>
      <trkpt lat="45.55375" lon="6.81349">
        <ele>2427</ele>
        <time>2013-02-09T14:13:23Z</time>
      </trkpt>
      <trkpt lat="45.55356" lon="6.8133">
        <ele>2440</ele>
        <time>2013-02-09T14:13:29Z</time>
      </trkpt>
      <trkpt lat="45.55335" lon="6.81307">
        <ele>2442</ele>
        <time>2013-02-09T14:13:36Z</time>
      </trkpt>
      <trkpt lat="45.55309" lon="6.81284">
        <ele>2459</ele>
        <time>2013-02-09T14:13:44Z</time>
      </trkpt>
      <trkpt lat="45.55293" lon="6.81266">
        <ele>2463</ele>
        <time>2013-02-09T14:13:49Z</time>
      </trkpt>
      <trkpt lat="45.55275" lon="6.8125">
        <ele>2468</ele>
        <time>2013-02-09T14:13:55Z</time>
      </trkpt>
      <trkpt lat="45.55254" lon="6.81232">
        <ele>2478</ele>
        <time>2013-02-09T14:14:02Z</time>
      </trkpt>
      <trkpt lat="45.55235" lon="6.81213">
        <ele>2491</ele>
        <time>2013-02-09T14:14:08Z</time>
      </trkpt>
      <trkpt lat="45.55217" lon="6.81197">
        <ele>2493</ele>
        <time>2013-02-09T14:14:14Z</time>
      </trkpt>
      <trkpt lat="45.55195" lon="6.81173">
        <ele>2498</ele>
        <time>2013-02-09T14:14:21Z</time>
      </trkpt>
      <trkpt lat="45.55174" lon="6.81154">
        <ele>2505</ele>
        <time>2013-02-09T14:14:27Z</time>
      </trkpt>
      <trkpt lat="45.55155" lon="6.81138">
        <ele>2519</ele>
        <time>2013-02-09T14:14:33Z</time>
      </trkpt>
      <trkpt lat="45.55133" lon="6.8112">
        <ele>2523</ele>
        <time>2013-02-09T14:14:41Z</time>
      </trkpt>
      <trkpt lat="45.55122" lon="6.81106">
        <ele>2526</ele>
        <time>2013-02-09T14:14:46Z</time>
      </trkpt>
      <trkpt lat="45.55095" lon="6.81084">
        <ele>2536</ele>
        <time>2013-02-09T14:14:57Z</time>
      </trkpt>
      <trkpt lat="45.5509" lon="6.81061">
        <ele>2535</ele>
        <time>2013-02-09T14:15:10Z</time>
      </trkpt>
      <trkpt lat="45.55095" lon="6.81044">
        <ele>2533</ele>
        <time>2013-02-09T14:15:22Z</time>
      </trkpt>
      <trkpt lat="45.55101" lon="6.81039">
        <ele>2533</ele>
        <time>2013-02-09T14:15:30Z</time>
      </trkpt>
      <trkpt lat="45.55101" lon="6.81039">
        <ele>2533</ele>
        <time>2013-02-09T14:15:38Z</time>
      </trkpt>
      <trkpt lat="45.55101" lon="6.81039">
        <ele>2533</ele>
        <time>2013-02-09T14:15:44Z</time>
      </trkpt>
      <trkpt lat="45.55102" lon="6.81032">
        <ele>2533</ele>
        <time>2013-02-09T14:15:44Z</time>
      </trkpt>
      <trkpt lat="45.55104" lon="6.81008">
        <ele>2534</ele>
        <time>2013-02-09T14:15:50Z</time>
      </trkpt>
      <trkpt lat="45.55104" lon="6.81008">
        <ele>2534</ele>
        <time>2013-02-09T14:15:58Z</time>
      </trkpt>
      <trkpt lat="45.55104" lon="6.81008">
        <ele>2534</ele>
        <time>2013-02-09T14:16:03Z</time>
      </trkpt>
      <trkpt lat="45.55103" lon="6.80999">
        <ele>2533</ele>
        <time>2013-02-09T14:16:03Z</time>
      </trkpt>
      <trkpt lat="45.55109" lon="6.8084">
        <ele>2521</ele>
        <time>2013-02-09T14:16:17Z</time>
      </trkpt>
      <trkpt lat="45.55121" lon="6.80778">
        <ele>2518</ele>
        <time>2013-02-09T14:16:22Z</time>
      </trkpt>
      <trkpt lat="45.55151" lon="6.80709">
        <ele>2516</ele>
        <time>2013-02-09T14:16:28Z</time>
      </trkpt>
      <trkpt lat="45.5518" lon="6.80676">
        <ele>2502</ele>
        <time>2013-02-09T14:16:33Z</time>
      </trkpt>
      <trkpt lat="45.55216" lon="6.80634">
        <ele>2503</ele>
        <time>2013-02-09T14:16:38Z</time>
      </trkpt>
      <trkpt lat="45.55257" lon="6.80602">
        <ele>2492</ele>
        <time>2013-02-09T14:16:43Z</time>
      </trkpt>
      <trkpt lat="45.55291" lon="6.80576">
        <ele>2501</ele>
        <time>2013-02-09T14:16:48Z</time>
      </trkpt>
      <trkpt lat="45.5534" lon="6.80552">
        <ele>2486</ele>
        <time>2013-02-09T14:16:55Z</time>
      </trkpt>
      <trkpt lat="45.55392" lon="6.80536">
        <ele>2484</ele>
        <time>2013-02-09T14:17:01Z</time>
      </trkpt>
      <trkpt lat="45.55457" lon="6.80526">
        <ele>2465</ele>
        <time>2013-02-09T14:17:06Z</time>
      </trkpt>
      <trkpt lat="45.55518" lon="6.80518">
        <ele>2448</ele>
        <time>2013-02-09T14:17:11Z</time>
      </trkpt>
      <trkpt lat="45.55575" lon="6.80499">
        <ele>2446</ele>
        <time>2013-02-09T14:17:16Z</time>
      </trkpt>
      <trkpt lat="45.5564" lon="6.80473">
        <ele>2438</ele>
        <time>2013-02-09T14:17:22Z</time>
      </trkpt>
      <trkpt lat="45.55681" lon="6.80459">
        <ele>2429</ele>
        <time>2013-02-09T14:17:26Z</time>
      </trkpt>
      <trkpt lat="45.5571" lon="6.80453">
        <ele>2428</ele>
        <time>2013-02-09T14:17:29Z</time>
      </trkpt>
      <trkpt lat="45.55745" lon="6.80418">
        <ele>2427</ele>
        <time>2013-02-09T14:17:34Z</time>
      </trkpt>
      <trkpt lat="45.55748" lon="6.80359">
        <ele>2421</ele>
        <time>2013-02-09T14:17:40Z</time>
      </trkpt>
      <trkpt lat="45.55738" lon="6.80343">
        <ele>2418</ele>
        <time>2013-02-09T14:17:43Z</time>
      </trkpt>
      <trkpt lat="45.55738" lon="6.80343">
        <ele>2418</ele>
        <time>2013-02-09T14:17:48Z</time>
      </trkpt>
      <trkpt lat="45.55738" lon="6.80343">
        <ele>2418</ele>
        <time>2013-02-09T14:17:58Z</time>
      </trkpt>
      <trkpt lat="45.55737" lon="6.80329">
        <ele>2408</ele>
        <time>2013-02-09T14:17:58Z</time>
      </trkpt>
      <trkpt lat="45.55725" lon="6.8031">
        <ele>2406</ele>
        <time>2013-02-09T14:18:01Z</time>
      </trkpt>
      <trkpt lat="45.55711" lon="6.8029">
        <ele>2403</ele>
        <time>2013-02-09T14:18:04Z</time>
      </trkpt>
      <trkpt lat="45.55696" lon="6.80268">
        <ele>2401</ele>
        <time>2013-02-09T14:18:07Z</time>
      </trkpt>
      <trkpt lat="45.55674" lon="6.80208">
        <ele>2370</ele>
        <time>2013-02-09T14:18:14Z</time>
      </trkpt>
      <trkpt lat="45.55678" lon="6.8016">
        <ele>2353</ele>
        <time>2013-02-09T14:18:19Z</time>
      </trkpt>
      <trkpt lat="45.55673" lon="6.80098">
        <ele>2339</ele>
        <time>2013-02-09T14:18:24Z</time>
      </trkpt>
      <trkpt lat="45.55645" lon="6.80014">
        <ele>2337</ele>
        <time>2013-02-09T14:18:30Z</time>
      </trkpt>
      <trkpt lat="45.55641" lon="6.79946">
        <ele>2324</ele>
        <time>2013-02-09T14:18:35Z</time>
      </trkpt>
      <trkpt lat="45.55613" lon="6.7989">
        <ele>2317</ele>
        <time>2013-02-09T14:18:41Z</time>
      </trkpt>
      <trkpt lat="45.55594" lon="6.79892">
        <ele>2318</ele>
        <time>2013-02-09T14:18:44Z</time>
      </trkpt>
      <trkpt lat="45.55558" lon="6.79887">
        <ele>2315</ele>
        <time>2013-02-09T14:18:50Z</time>
      </trkpt>
      <trkpt lat="45.5554" lon="6.79881">
        <ele>2313</ele>
        <time>2013-02-09T14:18:53Z</time>
      </trkpt>
      <trkpt lat="45.55523" lon="6.79873">
        <ele>2312</ele>
        <time>2013-02-09T14:18:56Z</time>
      </trkpt>
      <trkpt lat="45.55513" lon="6.79858">
        <ele>2309</ele>
        <time>2013-02-09T14:18:59Z</time>
      </trkpt>
      <trkpt lat="45.55514" lon="6.7982">
        <ele>2299</ele>
        <time>2013-02-09T14:19:03Z</time>
      </trkpt>
      <trkpt lat="45.55505" lon="6.79789">
        <ele>2295</ele>
        <time>2013-02-09T14:19:06Z</time>
      </trkpt>
      <trkpt lat="45.5547" lon="6.79757">
        <ele>2289</ele>
        <time>2013-02-09T14:19:11Z</time>
      </trkpt>
      <trkpt lat="45.55447" lon="6.797">
        <ele>2274</ele>
        <time>2013-02-09T14:19:17Z</time>
      </trkpt>
      <trkpt lat="45.55421" lon="6.79647">
        <ele>2262</ele>
        <time>2013-02-09T14:19:22Z</time>
      </trkpt>
      <trkpt lat="45.55398" lon="6.79587">
        <ele>2258</ele>
        <time>2013-02-09T14:19:27Z</time>
      </trkpt>
      <trkpt lat="45.55376" lon="6.79564">
        <ele>2250</ele>
        <time>2013-02-09T14:19:30Z</time>
      </trkpt>
      <trkpt lat="45.55357" lon="6.79543">
        <ele>2249</ele>
        <time>2013-02-09T14:19:33Z</time>
      </trkpt>
      <trkpt lat="45.55329" lon="6.79505">
        <ele>2246</ele>
        <time>2013-02-09T14:19:38Z</time>
      </trkpt>
      <trkpt lat="45.55303" lon="6.79463">
        <ele>2240</ele>
        <time>2013-02-09T14:19:43Z</time>
      </trkpt>
      <trkpt lat="45.55274" lon="6.79403">
        <ele>2230</ele>
        <time>2013-02-09T14:19:49Z</time>
      </trkpt>
      <trkpt lat="45.55267" lon="6.79341">
        <ele>2224</ele>
        <time>2013-02-09T14:19:54Z</time>
      </trkpt>
      <trkpt lat="45.55273" lon="6.79271">
        <ele>2211</ele>
        <time>2013-02-09T14:19:59Z</time>
      </trkpt>
      <trkpt lat="45.55248" lon="6.79191">
        <ele>2201</ele>
        <time>2013-02-09T14:20:05Z</time>
      </trkpt>
      <trkpt lat="45.55244" lon="6.79148">
        <ele>2194</ele>
        <time>2013-02-09T14:20:08Z</time>
      </trkpt>
      <trkpt lat="45.55237" lon="6.79075">
        <ele>2181</ele>
        <time>2013-02-09T14:20:14Z</time>
      </trkpt>
      <trkpt lat="45.55224" lon="6.79043">
        <ele>2178</ele>
        <time>2013-02-09T14:20:17Z</time>
      </trkpt>
      <trkpt lat="45.55213" lon="6.79013">
        <ele>2176</ele>
        <time>2013-02-09T14:20:20Z</time>
      </trkpt>
      <trkpt lat="45.55169" lon="6.78987">
        <ele>2167</ele>
        <time>2013-02-09T14:20:25Z</time>
      </trkpt>
      <trkpt lat="45.55144" lon="6.78978">
        <ele>2168</ele>
        <time>2013-02-09T14:20:28Z</time>
      </trkpt>
      <trkpt lat="45.55116" lon="6.78958">
        <ele>2166</ele>
        <time>2013-02-09T14:20:34Z</time>
      </trkpt>
      <trkpt lat="45.55116" lon="6.78958">
        <ele>2166</ele>
        <time>2013-02-09T14:20:40Z</time>
      </trkpt>
      <trkpt lat="45.55116" lon="6.78958">
        <ele>2166</ele>
        <time>2013-02-09T14:20:40Z</time>
      </trkpt>
      <trkpt lat="45.55116" lon="6.78958">
        <ele>2166</ele>
        <time>2013-02-09T14:21:37Z</time>
      </trkpt>
      <trkpt lat="45.55132" lon="6.78943">
        <ele>2164</ele>
        <time>2013-02-09T14:21:37Z</time>
      </trkpt>
      <trkpt lat="45.55143" lon="6.78908">
        <ele>2149</ele>
        <time>2013-02-09T14:21:42Z</time>
      </trkpt>
      <trkpt lat="45.55164" lon="6.78858">
        <ele>2143</ele>
        <time>2013-02-09T14:21:47Z</time>
      </trkpt>
      <trkpt lat="45.55206" lon="6.78801">
        <ele>2126</ele>
        <time>2013-02-09T14:21:54Z</time>
      </trkpt>
      <trkpt lat="45.55205" lon="6.78743">
        <ele>2114</ele>
        <time>2013-02-09T14:22:00Z</time>
      </trkpt>
      <trkpt lat="45.55225" lon="6.78684">
        <ele>2107</ele>
        <time>2013-02-09T14:22:05Z</time>
      </trkpt>
      <trkpt lat="45.55222" lon="6.78595">
        <ele>2096</ele>
        <time>2013-02-09T14:22:11Z</time>
      </trkpt>
      <trkpt lat="45.5522" lon="6.78554">
        <ele>2089</ele>
        <time>2013-02-09T14:22:14Z</time>
      </trkpt>
      <trkpt lat="45.55228" lon="6.78477">
        <ele>2079</ele>
        <time>2013-02-09T14:22:20Z</time>
      </trkpt>
      <trkpt lat="45.55208" lon="6.78421">
        <ele>2076</ele>
        <time>2013-02-09T14:22:25Z</time>
      </trkpt>
      <trkpt lat="45.55196" lon="6.7836">
        <ele>2061</ele>
        <time>2013-02-09T14:22:30Z</time>
      </trkpt>
      <trkpt lat="45.55208" lon="6.78282">
        <ele>2044</ele>
        <time>2013-02-09T14:22:36Z</time>
      </trkpt>
      <trkpt lat="45.55245" lon="6.78219">
        <ele>2027</ele>
        <time>2013-02-09T14:22:42Z</time>
      </trkpt>
      <trkpt lat="45.55255" lon="6.78161">
        <ele>2010</ele>
        <time>2013-02-09T14:22:47Z</time>
      </trkpt>
      <trkpt lat="45.55255" lon="6.78096">
        <ele>2000</ele>
        <time>2013-02-09T14:22:52Z</time>
      </trkpt>
      <trkpt lat="45.55256" lon="6.78052">
        <ele>1990</ele>
        <time>2013-02-09T14:22:55Z</time>
      </trkpt>
      <trkpt lat="45.55242" lon="6.77979">
        <ele>1980</ele>
        <time>2013-02-09T14:23:00Z</time>
      </trkpt>
      <trkpt lat="45.55254" lon="6.77896">
        <ele>1959</ele>
        <time>2013-02-09T14:23:06Z</time>
      </trkpt>
      <trkpt lat="45.55262" lon="6.77814">
        <ele>1943</ele>
        <time>2013-02-09T14:23:11Z</time>
      </trkpt>
      <trkpt lat="45.55298" lon="6.77749">
        <ele>1924</ele>
        <time>2013-02-09T14:23:17Z</time>
      </trkpt>
      <trkpt lat="45.55346" lon="6.77665">
        <ele>1904</ele>
        <time>2013-02-09T14:23:23Z</time>
      </trkpt>
      <trkpt lat="45.55398" lon="6.77596">
        <ele>1893</ele>
        <time>2013-02-09T14:23:29Z</time>
      </trkpt>
      <trkpt lat="45.55411" lon="6.77515">
        <ele>1874</ele>
        <time>2013-02-09T14:23:35Z</time>
      </trkpt>
      <trkpt lat="45.55422" lon="6.7744">
        <ele>1856</ele>
        <time>2013-02-09T14:23:40Z</time>
      </trkpt>
      <trkpt lat="45.55443" lon="6.77361">
        <ele>1838</ele>
        <time>2013-02-09T14:23:46Z</time>
      </trkpt>
      <trkpt lat="45.55462" lon="6.77298">
        <ele>1819</ele>
        <time>2013-02-09T14:23:51Z</time>
      </trkpt>
      <trkpt lat="45.55509" lon="6.77205">
        <ele>1785</ele>
        <time>2013-02-09T14:23:58Z</time>
      </trkpt>
      <trkpt lat="45.55528" lon="6.77133">
        <ele>1763</ele>
        <time>2013-02-09T14:24:04Z</time>
      </trkpt>
      <trkpt lat="45.55539" lon="6.77068">
        <ele>1742</ele>
        <time>2013-02-09T14:24:09Z</time>
      </trkpt>
      <trkpt lat="45.55542" lon="6.76988">
        <ele>1720</ele>
        <time>2013-02-09T14:24:15Z</time>
      </trkpt>
      <trkpt lat="45.5552" lon="6.76898">
        <ele>1701</ele>
        <time>2013-02-09T14:24:21Z</time>
      </trkpt>
      <trkpt lat="45.55496" lon="6.76804">
        <ele>1690</ele>
        <time>2013-02-09T14:24:27Z</time>
      </trkpt>
      <trkpt lat="45.55487" lon="6.76728">
        <ele>1671</ele>
        <time>2013-02-09T14:24:32Z</time>
      </trkpt>
      <trkpt lat="45.55486" lon="6.76679">
        <ele>1662</ele>
        <time>2013-02-09T14:24:35Z</time>
      </trkpt>
      <trkpt lat="45.55543" lon="6.76614">
        <ele>1635</ele>
        <time>2013-02-09T14:24:41Z</time>
      </trkpt>
      <trkpt lat="45.5556" lon="6.7652">
        <ele>1618</ele>
        <time>2013-02-09T14:24:47Z</time>
      </trkpt>
      <trkpt lat="45.55556" lon="6.76477">
        <ele>1608</ele>
        <time>2013-02-09T14:24:52Z</time>
      </trkpt>
      <trkpt lat="45.55556" lon="6.76477">
        <ele>1608</ele>
        <time>2013-02-09T14:24:58Z</time>
      </trkpt>
      <trkpt lat="45.55556" lon="6.76477">
        <ele>1608</ele>
        <time>2013-02-09T14:25:19Z</time>
      </trkpt>
      <trkpt lat="45.55551" lon="6.76493">
        <ele>1609</ele>
        <time>2013-02-09T14:25:19Z</time>
      </trkpt>
      <trkpt lat="45.55545" lon="6.76526">
        <ele>1619</ele>
        <time>2013-02-09T14:25:48Z</time>
      </trkpt>
      <trkpt lat="45.55536" lon="6.76561">
        <ele>1623</ele>
        <time>2013-02-09T14:25:54Z</time>
      </trkpt>
      <trkpt lat="45.55531" lon="6.76577">
        <ele>1624</ele>
        <time>2013-02-09T14:25:57Z</time>
      </trkpt>
      <trkpt lat="45.55527" lon="6.76592">
        <ele>1634</ele>
        <time>2013-02-09T14:26:00Z</time>
      </trkpt>
      <trkpt lat="45.55518" lon="6.76622">
        <ele>1637</ele>
        <time>2013-02-09T14:26:06Z</time>
      </trkpt>
      <trkpt lat="45.55507" lon="6.76658">
        <ele>1644</ele>
        <time>2013-02-09T14:26:13Z</time>
      </trkpt>
      <trkpt lat="45.55499" lon="6.76689">
        <ele>1663</ele>
        <time>2013-02-09T14:26:19Z</time>
      </trkpt>
      <trkpt lat="45.5549" lon="6.76721">
        <ele>1670</ele>
        <time>2013-02-09T14:26:25Z</time>
      </trkpt>
      <trkpt lat="45.55486" lon="6.76737">
        <ele>1671</ele>
        <time>2013-02-09T14:26:28Z</time>
      </trkpt>
      <trkpt lat="45.55477" lon="6.76767">
        <ele>1686</ele>
        <time>2013-02-09T14:26:34Z</time>
      </trkpt>
      <trkpt lat="45.55469" lon="6.76797">
        <ele>1692</ele>
        <time>2013-02-09T14:26:40Z</time>
      </trkpt>
      <trkpt lat="45.55464" lon="6.76816">
        <ele>1695</ele>
        <time>2013-02-09T14:26:44Z</time>
      </trkpt>
      <trkpt lat="45.55456" lon="6.76845">
        <ele>1713</ele>
        <time>2013-02-09T14:26:50Z</time>
      </trkpt>
      <trkpt lat="45.55448" lon="6.76874">
        <ele>1718</ele>
        <time>2013-02-09T14:26:56Z</time>
      </trkpt>
      <trkpt lat="45.55444" lon="6.76889">
        <ele>1721</ele>
        <time>2013-02-09T14:26:59Z</time>
      </trkpt>
      <trkpt lat="45.55436" lon="6.76918">
        <ele>1741</ele>
        <time>2013-02-09T14:27:05Z</time>
      </trkpt>
      <trkpt lat="45.55427" lon="6.76956">
        <ele>1743</ele>
        <time>2013-02-09T14:27:13Z</time>
      </trkpt>
      <trkpt lat="45.5542" lon="6.76981">
        <ele>1751</ele>
        <time>2013-02-09T14:27:18Z</time>
      </trkpt>
      <trkpt lat="45.55413" lon="6.77006">
        <ele>1770</ele>
        <time>2013-02-09T14:27:23Z</time>
      </trkpt>
      <trkpt lat="45.55406" lon="6.7703">
        <ele>1779</ele>
        <time>2013-02-09T14:27:28Z</time>
      </trkpt>
      <trkpt lat="45.55387" lon="6.77075">
        <ele>1786</ele>
        <time>2013-02-09T14:27:37Z</time>
      </trkpt>
      <trkpt lat="45.5538" lon="6.77105">
        <ele>1799</ele>
        <time>2013-02-09T14:27:43Z</time>
      </trkpt>
      <trkpt lat="45.55373" lon="6.7714">
        <ele>1803</ele>
        <time>2013-02-09T14:27:50Z</time>
      </trkpt>
      <trkpt lat="45.55363" lon="6.77182">
        <ele>1817</ele>
        <time>2013-02-09T14:27:58Z</time>
      </trkpt>
      <trkpt lat="45.55357" lon="6.77207">
        <ele>1819</ele>
        <time>2013-02-09T14:28:03Z</time>
      </trkpt>
      <trkpt lat="45.55349" lon="6.77236">
        <ele>1824</ele>
        <time>2013-02-09T14:28:09Z</time>
      </trkpt>
      <trkpt lat="45.55339" lon="6.77272">
        <ele>1833</ele>
        <time>2013-02-09T14:28:16Z</time>
      </trkpt>
      <trkpt lat="45.55335" lon="6.77288">
        <ele>1834</ele>
        <time>2013-02-09T14:28:19Z</time>
      </trkpt>
      <trkpt lat="45.55331" lon="6.77303">
        <ele>1842</ele>
        <time>2013-02-09T14:28:22Z</time>
      </trkpt>
      <trkpt lat="45.55328" lon="6.77317">
        <ele>1843</ele>
        <time>2013-02-09T14:28:25Z</time>
      </trkpt>
      <trkpt lat="45.55318" lon="6.77353">
        <ele>1851</ele>
        <time>2013-02-09T14:28:32Z</time>
      </trkpt>
      <trkpt lat="45.5531" lon="6.77384">
        <ele>1855</ele>
        <time>2013-02-09T14:28:38Z</time>
      </trkpt>
      <trkpt lat="45.55302" lon="6.77414">
        <ele>1856</ele>
        <time>2013-02-09T14:28:44Z</time>
      </trkpt>
      <trkpt lat="45.55294" lon="6.77439">
        <ele>1867</ele>
        <time>2013-02-09T14:28:49Z</time>
      </trkpt>
      <trkpt lat="45.5529" lon="6.77454">
        <ele>1869</ele>
        <time>2013-02-09T14:28:52Z</time>
      </trkpt>
      <trkpt lat="45.55286" lon="6.7747">
        <ele>1870</ele>
        <time>2013-02-09T14:28:55Z</time>
      </trkpt>
      <trkpt lat="45.55282" lon="6.77486">
        <ele>1872</ele>
        <time>2013-02-09T14:28:58Z</time>
      </trkpt>
      <trkpt lat="45.55273" lon="6.77517">
        <ele>1885</ele>
        <time>2013-02-09T14:29:04Z</time>
      </trkpt>
      <trkpt lat="45.55264" lon="6.77552">
        <ele>1890</ele>
        <time>2013-02-09T14:29:09Z</time>
      </trkpt>
      <trkpt lat="45.5526" lon="6.77567">
        <ele>1893</ele>
        <time>2013-02-09T14:29:12Z</time>
      </trkpt>
      <trkpt lat="45.55255" lon="6.77583">
        <ele>1898</ele>
        <time>2013-02-09T14:29:15Z</time>
      </trkpt>
      <trkpt lat="45.55246" lon="6.77617">
        <ele>1911</ele>
        <time>2013-02-09T14:29:22Z</time>
      </trkpt>
      <trkpt lat="45.55238" lon="6.77648">
        <ele>1916</ele>
        <time>2013-02-09T14:29:28Z</time>
      </trkpt>
      <trkpt lat="45.55233" lon="6.77663">
        <ele>1917</ele>
        <time>2013-02-09T14:29:31Z</time>
      </trkpt>
      <trkpt lat="45.55225" lon="6.77694">
        <ele>1928</ele>
        <time>2013-02-09T14:29:39Z</time>
      </trkpt>
      <trkpt lat="45.55216" lon="6.77723">
        <ele>1932</ele>
        <time>2013-02-09T14:29:44Z</time>
      </trkpt>
      <trkpt lat="45.55212" lon="6.77739">
        <ele>1933</ele>
        <time>2013-02-09T14:29:47Z</time>
      </trkpt>
      <trkpt lat="45.55208" lon="6.77754">
        <ele>1943</ele>
        <time>2013-02-09T14:29:50Z</time>
      </trkpt>
      <trkpt lat="45.552" lon="6.77784">
        <ele>1945</ele>
        <time>2013-02-09T14:29:56Z</time>
      </trkpt>
      <trkpt lat="45.55193" lon="6.7781">
        <ele>1948</ele>
        <time>2013-02-09T14:30:01Z</time>
      </trkpt>
      <trkpt lat="45.55186" lon="6.77836">
        <ele>1958</ele>
        <time>2013-02-09T14:30:06Z</time>
      </trkpt>
      <trkpt lat="45.55178" lon="6.77867">
        <ele>1960</ele>
        <time>2013-02-09T14:30:12Z</time>
      </trkpt>
      <trkpt lat="45.55171" lon="6.77892">
        <ele>1964</ele>
        <time>2013-02-09T14:30:17Z</time>
      </trkpt>
      <trkpt lat="45.55163" lon="6.77922">
        <ele>1976</ele>
        <time>2013-02-09T14:30:23Z</time>
      </trkpt>
      <trkpt lat="45.55154" lon="6.77957">
        <ele>1988</ele>
        <time>2013-02-09T14:30:30Z</time>
      </trkpt>
      <trkpt lat="45.55146" lon="6.77986">
        <ele>1992</ele>
        <time>2013-02-09T14:30:36Z</time>
      </trkpt>
      <trkpt lat="45.55136" lon="6.78021">
        <ele>2006</ele>
        <time>2013-02-09T14:30:43Z</time>
      </trkpt>
      <trkpt lat="45.55132" lon="6.78036">
        <ele>2008</ele>
        <time>2013-02-09T14:30:46Z</time>
      </trkpt>
      <trkpt lat="45.55128" lon="6.78051">
        <ele>2010</ele>
        <time>2013-02-09T14:30:49Z</time>
      </trkpt>
      <trkpt lat="45.55118" lon="6.78087">
        <ele>2021</ele>
        <time>2013-02-09T14:30:56Z</time>
      </trkpt>
      <trkpt lat="45.55115" lon="6.78103">
        <ele>2022</ele>
        <time>2013-02-09T14:30:59Z</time>
      </trkpt>
      <trkpt lat="45.55106" lon="6.78134">
        <ele>2024</ele>
        <time>2013-02-09T14:31:05Z</time>
      </trkpt>
      <trkpt lat="45.55099" lon="6.7816">
        <ele>2027</ele>
        <time>2013-02-09T14:31:10Z</time>
      </trkpt>
      <trkpt lat="45.55089" lon="6.78196">
        <ele>2034</ele>
        <time>2013-02-09T14:31:17Z</time>
      </trkpt>
      <trkpt lat="45.55085" lon="6.78211">
        <ele>2035</ele>
        <time>2013-02-09T14:31:20Z</time>
      </trkpt>
      <trkpt lat="45.55077" lon="6.78242">
        <ele>2040</ele>
        <time>2013-02-09T14:31:26Z</time>
      </trkpt>
      <trkpt lat="45.55073" lon="6.78257">
        <ele>2045</ele>
        <time>2013-02-09T14:31:29Z</time>
      </trkpt>
      <trkpt lat="45.55069" lon="6.78272">
        <ele>2047</ele>
        <time>2013-02-09T14:31:32Z</time>
      </trkpt>
      <trkpt lat="45.55061" lon="6.78303">
        <ele>2050</ele>
        <time>2013-02-09T14:31:38Z</time>
      </trkpt>
      <trkpt lat="45.55052" lon="6.78333">
        <ele>2052</ele>
        <time>2013-02-09T14:31:45Z</time>
      </trkpt>
      <trkpt lat="45.55043" lon="6.78369">
        <ele>2065</ele>
        <time>2013-02-09T14:31:51Z</time>
      </trkpt>
      <trkpt lat="45.55039" lon="6.78384">
        <ele>2067</ele>
        <time>2013-02-09T14:31:54Z</time>
      </trkpt>
      <trkpt lat="45.55032" lon="6.7841">
        <ele>2069</ele>
        <time>2013-02-09T14:31:59Z</time>
      </trkpt>
      <trkpt lat="45.55024" lon="6.7844">
        <ele>2083</ele>
        <time>2013-02-09T14:32:05Z</time>
      </trkpt>
      <trkpt lat="45.55015" lon="6.78471">
        <ele>2088</ele>
        <time>2013-02-09T14:32:11Z</time>
      </trkpt>
      <trkpt lat="45.55007" lon="6.78502">
        <ele>2099</ele>
        <time>2013-02-09T14:32:17Z</time>
      </trkpt>
      <trkpt lat="45.55003" lon="6.78516">
        <ele>2101</ele>
        <time>2013-02-09T14:32:21Z</time>
      </trkpt>
      <trkpt lat="45.54993" lon="6.78552">
        <ele>2109</ele>
        <time>2013-02-09T14:32:28Z</time>
      </trkpt>
      <trkpt lat="45.54985" lon="6.78583">
        <ele>2112</ele>
        <time>2013-02-09T14:32:34Z</time>
      </trkpt>
      <trkpt lat="45.54981" lon="6.78598">
        <ele>2120</ele>
        <time>2013-02-09T14:32:37Z</time>
      </trkpt>
      <trkpt lat="45.54972" lon="6.78629">
        <ele>2124</ele>
        <time>2013-02-09T14:32:43Z</time>
      </trkpt>
      <trkpt lat="45.54963" lon="6.78664">
        <ele>2127</ele>
        <time>2013-02-09T14:32:50Z</time>
      </trkpt>
      <trkpt lat="45.54955" lon="6.78694">
        <ele>2140</ele>
        <time>2013-02-09T14:32:56Z</time>
      </trkpt>
      <trkpt lat="45.54945" lon="6.7873">
        <ele>2145</ele>
        <time>2013-02-09T14:33:03Z</time>
      </trkpt>
      <trkpt lat="45.54936" lon="6.7876">
        <ele>2157</ele>
        <time>2013-02-09T14:33:09Z</time>
      </trkpt>
      <trkpt lat="45.54932" lon="6.78776">
        <ele>2158</ele>
        <time>2013-02-09T14:33:12Z</time>
      </trkpt>
      <trkpt lat="45.54924" lon="6.78806">
        <ele>2163</ele>
        <time>2013-02-09T14:33:18Z</time>
      </trkpt>
      <trkpt lat="45.54919" lon="6.78821">
        <ele>2168</ele>
        <time>2013-02-09T14:33:21Z</time>
      </trkpt>
      <trkpt lat="45.5491" lon="6.78857">
        <ele>2180</ele>
        <time>2013-02-09T14:33:28Z</time>
      </trkpt>
      <trkpt lat="45.54902" lon="6.78883">
        <ele>2184</ele>
        <time>2013-02-09T14:33:33Z</time>
      </trkpt>
      <trkpt lat="45.54895" lon="6.78912">
        <ele>2187</ele>
        <time>2013-02-09T14:33:39Z</time>
      </trkpt>
      <trkpt lat="45.54886" lon="6.78943">
        <ele>2199</ele>
        <time>2013-02-09T14:33:45Z</time>
      </trkpt>
      <trkpt lat="45.54882" lon="6.78958">
        <ele>2200</ele>
        <time>2013-02-09T14:33:48Z</time>
      </trkpt>
      <trkpt lat="45.54875" lon="6.78983">
        <ele>2203</ele>
        <time>2013-02-09T14:33:53Z</time>
      </trkpt>
      <trkpt lat="45.54867" lon="6.79013">
        <ele>2217</ele>
        <time>2013-02-09T14:33:59Z</time>
      </trkpt>
      <trkpt lat="45.54862" lon="6.79028">
        <ele>2219</ele>
        <time>2013-02-09T14:34:02Z</time>
      </trkpt>
      <trkpt lat="45.54852" lon="6.79063">
        <ele>2225</ele>
        <time>2013-02-09T14:34:09Z</time>
      </trkpt>
      <trkpt lat="45.54844" lon="6.79094">
        <ele>2238</ele>
        <time>2013-02-09T14:34:15Z</time>
      </trkpt>
      <trkpt lat="45.54832" lon="6.79144">
        <ele>2249</ele>
        <time>2013-02-09T14:34:26Z</time>
      </trkpt>
      <trkpt lat="45.54832" lon="6.79172">
        <ele>2260</ele>
        <time>2013-02-09T14:34:33Z</time>
      </trkpt>
      <trkpt lat="45.54817" lon="6.79214">
        <ele>2268</ele>
        <time>2013-02-09T14:34:40Z</time>
      </trkpt>
      <trkpt lat="45.5481" lon="6.79232">
        <ele>2270</ele>
        <time>2013-02-09T14:34:45Z</time>
      </trkpt>
      <trkpt lat="45.54793" lon="6.79252">
        <ele>2284</ele>
        <time>2013-02-09T14:34:58Z</time>
      </trkpt>
      <trkpt lat="45.54791" lon="6.79259">
        <ele>2284</ele>
        <time>2013-02-09T14:35:02Z</time>
      </trkpt>
      <trkpt lat="45.54791" lon="6.79259">
        <ele>2284</ele>
        <time>2013-02-09T14:35:10Z</time>
      </trkpt>
      <trkpt lat="45.54791" lon="6.79259">
        <ele>2284</ele>
        <time>2013-02-09T14:35:46Z</time>
      </trkpt>
      <trkpt lat="45.54794" lon="6.79227">
        <ele>2269</ele>
        <time>2013-02-09T14:35:46Z</time>
      </trkpt>
      <trkpt lat="45.54795" lon="6.792">
        <ele>2266</ele>
        <time>2013-02-09T14:35:52Z</time>
      </trkpt>
      <trkpt lat="45.54844" lon="6.79147">
        <ele>2248</ele>
        <time>2013-02-09T14:35:59Z</time>
      </trkpt>
      <trkpt lat="45.54896" lon="6.79055">
        <ele>2221</ele>
        <time>2013-02-09T14:36:06Z</time>
      </trkpt>
      <trkpt lat="45.54918" lon="6.78994">
        <ele>2204</ele>
        <time>2013-02-09T14:36:11Z</time>
      </trkpt>
      <trkpt lat="45.54927" lon="6.7894">
        <ele>2192</ele>
        <time>2013-02-09T14:36:15Z</time>
      </trkpt>
      <trkpt lat="45.54922" lon="6.78887">
        <ele>2180</ele>
        <time>2013-02-09T14:36:19Z</time>
      </trkpt>
      <trkpt lat="45.54928" lon="6.78861">
        <ele>2176</ele>
        <time>2013-02-09T14:36:22Z</time>
      </trkpt>
      <trkpt lat="45.54956" lon="6.78748">
        <ele>2144</ele>
        <time>2013-02-09T14:36:30Z</time>
      </trkpt>
      <trkpt lat="45.54972" lon="6.78683">
        <ele>2137</ele>
        <time>2013-02-09T14:36:35Z</time>
      </trkpt>
      <trkpt lat="45.54985" lon="6.78606">
        <ele>2121</ele>
        <time>2013-02-09T14:36:41Z</time>
      </trkpt>
      <trkpt lat="45.54988" lon="6.78531">
        <ele>2106</ele>
        <time>2013-02-09T14:36:47Z</time>
      </trkpt>
      <trkpt lat="45.54988" lon="6.78463">
        <ele>2090</ele>
        <time>2013-02-09T14:36:54Z</time>
      </trkpt>
      <trkpt lat="45.55017" lon="6.78404">
        <ele>2070</ele>
        <time>2013-02-09T14:37:00Z</time>
      </trkpt>
      <trkpt lat="45.55013" lon="6.7831">
        <ele>2052</ele>
        <time>2013-02-09T14:37:06Z</time>
      </trkpt>
      <trkpt lat="45.55052" lon="6.78241">
        <ele>2039</ele>
        <time>2013-02-09T14:37:11Z</time>
      </trkpt>
      <trkpt lat="45.55066" lon="6.78162">
        <ele>2029</ele>
        <time>2013-02-09T14:37:16Z</time>
      </trkpt>
      <trkpt lat="45.55062" lon="6.7808">
        <ele>2020</ele>
        <time>2013-02-09T14:37:22Z</time>
      </trkpt>
      <trkpt lat="45.55055" lon="6.78059">
        <ele>2019</ele>
        <time>2013-02-09T14:37:25Z</time>
      </trkpt>
      <trkpt lat="45.55033" lon="6.78018">
        <ele>2017</ele>
        <time>2013-02-09T14:37:31Z</time>
      </trkpt>
      <trkpt lat="45.55035" lon="6.7796">
        <ele>2003</ele>
        <time>2013-02-09T14:37:36Z</time>
      </trkpt>
      <trkpt lat="45.55039" lon="6.77891">
        <ele>1985</ele>
        <time>2013-02-09T14:37:41Z</time>
      </trkpt>
      <trkpt lat="45.55052" lon="6.77793">
        <ele>1963</ele>
        <time>2013-02-09T14:37:48Z</time>
      </trkpt>
      <trkpt lat="45.55062" lon="6.77715">
        <ele>1943</ele>
        <time>2013-02-09T14:37:54Z</time>
      </trkpt>
      <trkpt lat="45.55072" lon="6.77676">
        <ele>1936</ele>
        <time>2013-02-09T14:37:57Z</time>
      </trkpt>
      <trkpt lat="45.55085" lon="6.77629">
        <ele>1922</ele>
        <time>2013-02-09T14:38:00Z</time>
      </trkpt>
      <trkpt lat="45.55104" lon="6.7754">
        <ele>1908</ele>
        <time>2013-02-09T14:38:06Z</time>
      </trkpt>
      <trkpt lat="45.55104" lon="6.77495">
        <ele>1899</ele>
        <time>2013-02-09T14:38:09Z</time>
      </trkpt>
      <trkpt lat="45.55123" lon="6.77464">
        <ele>1895</ele>
        <time>2013-02-09T14:38:12Z</time>
      </trkpt>
      <trkpt lat="45.55168" lon="6.77398">
        <ele>1876</ele>
        <time>2013-02-09T14:38:18Z</time>
      </trkpt>
      <trkpt lat="45.55216" lon="6.77353">
        <ele>1866</ele>
        <time>2013-02-09T14:38:24Z</time>
      </trkpt>
      <trkpt lat="45.55223" lon="6.77288">
        <ele>1853</ele>
        <time>2013-02-09T14:38:29Z</time>
      </trkpt>
      <trkpt lat="45.55246" lon="6.77256">
        <ele>1844</ele>
        <time>2013-02-09T14:38:33Z</time>
      </trkpt>
      <trkpt lat="45.55261" lon="6.7716">
        <ele>1823</ele>
        <time>2013-02-09T14:38:40Z</time>
      </trkpt>
      <trkpt lat="45.55277" lon="6.77043">
        <ele>1800</ele>
        <time>2013-02-09T14:38:48Z</time>
      </trkpt>
      <trkpt lat="45.55267" lon="6.76988">
        <ele>1785</ele>
        <time>2013-02-09T14:38:55Z</time>
      </trkpt>
      <trkpt lat="45.55273" lon="6.76948">
        <ele>1777</ele>
        <time>2013-02-09T14:39:01Z</time>
      </trkpt>
      <trkpt lat="45.55271" lon="6.76899">
        <ele>1759</ele>
        <time>2013-02-09T14:39:06Z</time>
      </trkpt>
      <trkpt lat="45.55275" lon="6.76845">
        <ele>1749</ele>
        <time>2013-02-09T14:39:12Z</time>
      </trkpt>
      <trkpt lat="45.55276" lon="6.76789">
        <ele>1730</ele>
        <time>2013-02-09T14:39:18Z</time>
      </trkpt>
      <trkpt lat="45.55272" lon="6.76731">
        <ele>1712</ele>
        <time>2013-02-09T14:39:25Z</time>
      </trkpt>
      <trkpt lat="45.55264" lon="6.76698">
        <ele>1707</ele>
        <time>2013-02-09T14:39:32Z</time>
      </trkpt>
      <trkpt lat="45.55261" lon="6.76629">
        <ele>1689</ele>
        <time>2013-02-09T14:39:40Z</time>
      </trkpt>
      <trkpt lat="45.55236" lon="6.7657">
        <ele>1667</ele>
        <time>2013-02-09T14:39:46Z</time>
      </trkpt>
      <trkpt lat="45.55172" lon="6.76522">
        <ele>1654</ele>
        <time>2013-02-09T14:39:54Z</time>
      </trkpt>
      <trkpt lat="45.5513" lon="6.76491">
        <ele>1637</ele>
        <time>2013-02-09T14:40:00Z</time>
      </trkpt>
      <trkpt lat="45.55119" lon="6.76433">
        <ele>1631</ele>
        <time>2013-02-09T14:40:06Z</time>
      </trkpt>
      <trkpt lat="45.55114" lon="6.76406">
        <ele>1618</ele>
        <time>2013-02-09T14:40:09Z</time>
      </trkpt>
      <trkpt lat="45.55118" lon="6.76364">
        <ele>1614</ele>
        <time>2013-02-09T14:40:14Z</time>
      </trkpt>
      <trkpt lat="45.55113" lon="6.76346">
        <ele>1613</ele>
        <time>2013-02-09T14:40:18Z</time>
      </trkpt>
      <trkpt lat="45.55113" lon="6.76346">
        <ele>1613</ele>
        <time>2013-02-09T14:40:24Z</time>
      </trkpt>
      <trkpt lat="45.55113" lon="6.76346">
        <ele>1613</ele>
        <time>2013-02-09T14:44:35Z</time>
      </trkpt>
      <trkpt lat="45.55119" lon="6.76297">
        <ele>1598</ele>
        <time>2013-02-09T14:44:35Z</time>
      </trkpt>
      <trkpt lat="45.55119" lon="6.76227">
        <ele>1577</ele>
        <time>2013-02-09T14:44:42Z</time>
      </trkpt>
      <trkpt lat="45.55108" lon="6.76157">
        <ele>1554</ele>
        <time>2013-02-09T14:44:48Z</time>
      </trkpt>
      <trkpt lat="45.55104" lon="6.76071">
        <ele>1529</ele>
        <time>2013-02-09T14:44:54Z</time>
      </trkpt>
      <trkpt lat="45.55096" lon="6.76008">
        <ele>1517</ele>
        <time>2013-02-09T14:44:59Z</time>
      </trkpt>
      <trkpt lat="45.55089" lon="6.75944">
        <ele>1489</ele>
        <time>2013-02-09T14:45:04Z</time>
      </trkpt>
      <trkpt lat="45.55086" lon="6.75907">
        <ele>1475</ele>
        <time>2013-02-09T14:45:07Z</time>
      </trkpt>
      <trkpt lat="45.55076" lon="6.75838">
        <ele>1455</ele>
        <time>2013-02-09T14:45:13Z</time>
      </trkpt>
      <trkpt lat="45.55077" lon="6.75771">
        <ele>1432</ele>
        <time>2013-02-09T14:45:18Z</time>
      </trkpt>
      <trkpt lat="45.55079" lon="6.75696">
        <ele>1403</ele>
        <time>2013-02-09T14:45:24Z</time>
      </trkpt>
      <trkpt lat="45.55072" lon="6.75619">
        <ele>1373</ele>
        <time>2013-02-09T14:45:30Z</time>
      </trkpt>
      <trkpt lat="45.5507" lon="6.75582">
        <ele>1353</ele>
        <time>2013-02-09T14:45:33Z</time>
      </trkpt>
      <trkpt lat="45.55052" lon="6.75506">
        <ele>1338</ele>
        <time>2013-02-09T14:45:39Z</time>
      </trkpt>
      <trkpt lat="45.55049" lon="6.75425">
        <ele>1313</ele>
        <time>2013-02-09T14:45:45Z</time>
      </trkpt>
      <trkpt lat="45.55045" lon="6.75363">
        <ele>1297</ele>
        <time>2013-02-09T14:45:50Z</time>
      </trkpt>
      <trkpt lat="45.55037" lon="6.753">
        <ele>1279</ele>
        <time>2013-02-09T14:45:55Z</time>
      </trkpt>
      <trkpt lat="45.55034" lon="6.75236">
        <ele>1258</ele>
        <time>2013-02-09T14:46:00Z</time>
      </trkpt>
      <trkpt lat="45.55033" lon="6.75157">
        <ele>1233</ele>
        <time>2013-02-09T14:46:06Z</time>
      </trkpt>
      <trkpt lat="45.55028" lon="6.75107">
        <ele>1227</ele>
        <time>2013-02-09T14:46:11Z</time>
      </trkpt>
      <trkpt lat="45.55019" lon="6.7503">
        <ele>1197</ele>
        <time>2013-02-09T14:46:16Z</time>
      </trkpt>
      <trkpt lat="45.55016" lon="6.74991">
        <ele>1176</ele>
        <time>2013-02-09T14:46:19Z</time>
      </trkpt>
      <trkpt lat="45.55013" lon="6.74953">
        <ele>1165</ele>
        <time>2013-02-09T14:46:22Z</time>
      </trkpt>
      <trkpt lat="45.55009" lon="6.74891">
        <ele>1141</ele>
        <time>2013-02-09T14:46:27Z</time>
      </trkpt>
      <trkpt lat="45.55001" lon="6.74803">
        <ele>1119</ele>
        <time>2013-02-09T14:46:34Z</time>
      </trkpt>
      <trkpt lat="45.54999" lon="6.74739">
        <ele>1131</ele>
        <time>2013-02-09T14:46:39Z</time>
      </trkpt>
      <trkpt lat="45.54998" lon="6.74664">
        <ele>1169</ele>
        <time>2013-02-09T14:46:45Z</time>
      </trkpt>
      <trkpt lat="45.54988" lon="6.74626">
        <ele>1202</ele>
        <time>2013-02-09T14:46:48Z</time>
      </trkpt>
      <trkpt lat="45.54979" lon="6.74548">
        <ele>1263</ele>
        <time>2013-02-09T14:46:54Z</time>
      </trkpt>
      <trkpt lat="45.54977" lon="6.7451">
        <ele>1279</ele>
        <time>2013-02-09T14:46:57Z</time>
      </trkpt>
      <trkpt lat="45.54974" lon="6.74472">
        <ele>1329</ele>
        <time>2013-02-09T14:47:00Z</time>
      </trkpt>
      <trkpt lat="45.54971" lon="6.74434">
        <ele>1346</ele>
        <time>2013-02-09T14:47:03Z</time>
      </trkpt>
      <trkpt lat="45.5497" lon="6.74398">
        <ele>1392</ele>
        <time>2013-02-09T14:47:06Z</time>
      </trkpt>
      <trkpt lat="45.54969" lon="6.74359">
        <ele>1404</ele>
        <time>2013-02-09T14:47:09Z</time>
      </trkpt>
      <trkpt lat="45.54961" lon="6.74294">
        <ele>1444</ele>
        <time>2013-02-09T14:47:14Z</time>
      </trkpt>
      <trkpt lat="45.54954" lon="6.74233">
        <ele>1473</ele>
        <time>2013-02-09T14:47:19Z</time>
      </trkpt>
      <trkpt lat="45.54948" lon="6.74194">
        <ele>1480</ele>
        <time>2013-02-09T14:47:22Z</time>
      </trkpt>
      <trkpt lat="45.54943" lon="6.74131">
        <ele>1500</ele>
        <time>2013-02-09T14:47:27Z</time>
      </trkpt>
      <trkpt lat="45.54932" lon="6.74049">
        <ele>1521</ele>
        <time>2013-02-09T14:47:34Z</time>
      </trkpt>
      <trkpt lat="45.54925" lon="6.74012">
        <ele>1530</ele>
        <time>2013-02-09T14:47:39Z</time>
      </trkpt>
      <trkpt lat="45.54927" lon="6.73989">
        <ele>1537</ele>
        <time>2013-02-09T14:47:45Z</time>
      </trkpt>
      <trkpt lat="45.54922" lon="6.73976">
        <ele>1537</ele>
        <time>2013-02-09T14:47:57Z</time>
      </trkpt>
      <trkpt lat="45.54928" lon="6.73964">
        <ele>1537</ele>
        <time>2013-02-09T14:48:10Z</time>
      </trkpt>
      <trkpt lat="45.54928" lon="6.73964">
        <ele>1537</ele>
        <time>2013-02-09T14:48:17Z</time>
      </trkpt>
      <trkpt lat="45.54928" lon="6.73964">
        <ele>1537</ele>
        <time>2013-02-09T14:49:35Z</time>
      </trkpt>
      <trkpt lat="45.54943" lon="6.73943">
        <ele>1537</ele>
        <time>2013-02-09T14:49:35Z</time>
      </trkpt>
      <trkpt lat="45.54943" lon="6.73943">
        <ele>1537</ele>
        <time>2013-02-09T14:49:42Z</time>
      </trkpt>
      <trkpt lat="45.54943" lon="6.73943">
        <ele>1537</ele>
        <time>2013-02-09T14:49:42Z</time>
      </trkpt>
      <trkpt lat="45.54943" lon="6.73943">
        <ele>1537</ele>
        <time>2013-02-09T14:49:57Z</time>
      </trkpt>
      <trkpt lat="45.54937" lon="6.73928">
        <ele>1540</ele>
        <time>2013-02-09T14:49:57Z</time>
      </trkpt>
      <trkpt lat="45.54937" lon="6.73907">
        <ele>1544</ele>
        <time>2013-02-09T14:50:12Z</time>
      </trkpt>
      <trkpt lat="45.54942" lon="6.73887">
        <ele>1542</ele>
        <time>2013-02-09T14:50:29Z</time>
      </trkpt>
      <trkpt lat="45.54937" lon="6.7386">
        <ele>1544</ele>
        <time>2013-02-09T14:50:46Z</time>
      </trkpt>
      <trkpt lat="45.54929" lon="6.73843">
        <ele>1547</ele>
        <time>2013-02-09T14:51:04Z</time>
      </trkpt>
      <trkpt lat="45.54924" lon="6.73802">
        <ele>1541</ele>
        <time>2013-02-09T14:51:54Z</time>
      </trkpt>
      <trkpt lat="45.54916" lon="6.73784">
        <ele>1559</ele>
        <time>2013-02-09T14:52:01Z</time>
      </trkpt>
      <trkpt lat="45.54912" lon="6.73777">
        <ele>1558</ele>
        <time>2013-02-09T14:52:05Z</time>
      </trkpt>
      <trkpt lat="45.54912" lon="6.73777">
        <ele>1558</ele>
        <time>2013-02-09T14:52:11Z</time>
      </trkpt>
      <trkpt lat="45.54912" lon="6.73777">
        <ele>1558</ele>
        <time>2013-02-09T14:52:26Z</time>
      </trkpt>
      <trkpt lat="45.54902" lon="6.73743">
        <ele>1549</ele>
        <time>2013-02-09T14:52:26Z</time>
      </trkpt>
      <trkpt lat="45.54895" lon="6.73698">
        <ele>1550</ele>
        <time>2013-02-09T14:52:31Z</time>
      </trkpt>
      <trkpt lat="45.5489" lon="6.73643">
        <ele>1543</ele>
        <time>2013-02-09T14:52:37Z</time>
      </trkpt>
      <trkpt lat="45.54876" lon="6.73594">
        <ele>1545</ele>
        <time>2013-02-09T14:52:43Z</time>
      </trkpt>
      <trkpt lat="45.54884" lon="6.73552">
        <ele>1545</ele>
        <time>2013-02-09T14:52:49Z</time>
      </trkpt>
      <trkpt lat="45.54915" lon="6.73511">
        <ele>1539</ele>
        <time>2013-02-09T14:52:55Z</time>
      </trkpt>
      <trkpt lat="45.54933" lon="6.73487">
        <ele>1529</ele>
        <time>2013-02-09T14:52:58Z</time>
      </trkpt>
      <trkpt lat="45.54947" lon="6.73437">
        <ele>1526</ele>
        <time>2013-02-09T14:53:03Z</time>
      </trkpt>
      <trkpt lat="45.54974" lon="6.73381">
        <ele>1527</ele>
        <time>2013-02-09T14:53:09Z</time>
      </trkpt>
      <trkpt lat="45.54988" lon="6.73356">
        <ele>1524</ele>
        <time>2013-02-09T14:53:12Z</time>
      </trkpt>
      <trkpt lat="45.55017" lon="6.73319">
        <ele>1514</ele>
        <time>2013-02-09T14:53:17Z</time>
      </trkpt>
      <trkpt lat="45.55035" lon="6.73316">
        <ele>1512</ele>
        <time>2013-02-09T14:53:23Z</time>
      </trkpt>
      <trkpt lat="45.55068" lon="6.73353">
        <ele>1501</ele>
        <time>2013-02-09T14:53:30Z</time>
      </trkpt>
      <trkpt lat="45.5509" lon="6.73377">
        <ele>1488</ele>
        <time>2013-02-09T14:53:33Z</time>
      </trkpt>
      <trkpt lat="45.55122" lon="6.73405">
        <ele>1484</ele>
        <time>2013-02-09T14:53:36Z</time>
      </trkpt>
      <trkpt lat="45.55183" lon="6.73401">
        <ele>1468</ele>
        <time>2013-02-09T14:53:41Z</time>
      </trkpt>
      <trkpt lat="45.55267" lon="6.73385">
        <ele>1449</ele>
        <time>2013-02-09T14:53:48Z</time>
      </trkpt>
      <trkpt lat="45.55319" lon="6.73318">
        <ele>1446</ele>
        <time>2013-02-09T14:53:54Z</time>
      </trkpt>
      <trkpt lat="45.55345" lon="6.73272">
        <ele>1436</ele>
        <time>2013-02-09T14:53:59Z</time>
      </trkpt>
      <trkpt lat="45.55361" lon="6.73225">
        <ele>1431</ele>
        <time>2013-02-09T14:54:04Z</time>
      </trkpt>
      <trkpt lat="45.55381" lon="6.73127">
        <ele>1420</ele>
        <time>2013-02-09T14:54:11Z</time>
      </trkpt>
      <trkpt lat="45.55367" lon="6.73035">
        <ele>1415</ele>
        <time>2013-02-09T14:54:18Z</time>
      </trkpt>
      <trkpt lat="45.55373" lon="6.72984">
        <ele>1410</ele>
        <time>2013-02-09T14:54:23Z</time>
      </trkpt>
      <trkpt lat="45.55392" lon="6.72949">
        <ele>1404</ele>
        <time>2013-02-09T14:54:28Z</time>
      </trkpt>
      <trkpt lat="45.55406" lon="6.72928">
        <ele>1396</ele>
        <time>2013-02-09T14:54:31Z</time>
      </trkpt>
      <trkpt lat="45.55427" lon="6.72892">
        <ele>1380</ele>
        <time>2013-02-09T14:54:36Z</time>
      </trkpt>
      <trkpt lat="45.55453" lon="6.72858">
        <ele>1376</ele>
        <time>2013-02-09T14:54:42Z</time>
      </trkpt>
      <trkpt lat="45.55453" lon="6.72858">
        <ele>1376</ele>
        <time>2013-02-09T14:54:48Z</time>
      </trkpt>
      <trkpt lat="45.55453" lon="6.72858">
        <ele>1376</ele>
        <time>2013-02-09T14:54:48Z</time>
      </trkpt>
      <trkpt lat="45.55453" lon="6.72858">
        <ele>1376</ele>
        <time>2013-02-09T14:55:25Z</time>
      </trkpt>
      <trkpt lat="45.55454" lon="6.72832">
        <ele>1375</ele>
        <time>2013-02-09T14:55:25Z</time>
      </trkpt>
      <trkpt lat="45.55444" lon="6.72826">
        <ele>1377</ele>
        <time>2013-02-09T14:55:34Z</time>
      </trkpt>
      <trkpt lat="45.55432" lon="6.7283">
        <ele>1379</ele>
        <time>2013-02-09T14:55:37Z</time>
      </trkpt>
      <trkpt lat="45.5541" lon="6.72826">
        <ele>1388</ele>
        <time>2013-02-09T14:55:43Z</time>
      </trkpt>
      <trkpt lat="45.5539" lon="6.72821">
        <ele>1395</ele>
        <time>2013-02-09T14:55:49Z</time>
      </trkpt>
      <trkpt lat="45.55367" lon="6.72817">
        <ele>1401</ele>
        <time>2013-02-09T14:55:55Z</time>
      </trkpt>
      <trkpt lat="45.55342" lon="6.72811">
        <ele>1406</ele>
        <time>2013-02-09T14:56:01Z</time>
      </trkpt>
      <trkpt lat="45.55312" lon="6.72806">
        <ele>1427</ele>
        <time>2013-02-09T14:56:08Z</time>
      </trkpt>
      <trkpt lat="45.55283" lon="6.72803">
        <ele>1434</ele>
        <time>2013-02-09T14:56:14Z</time>
      </trkpt>
      <trkpt lat="45.55268" lon="6.72791">
        <ele>1437</ele>
        <time>2013-02-09T14:56:22Z</time>
      </trkpt>
      <trkpt lat="45.55233" lon="6.72773">
        <ele>1458</ele>
        <time>2013-02-09T14:56:32Z</time>
      </trkpt>
      <trkpt lat="45.55212" lon="6.72763">
        <ele>1462</ele>
        <time>2013-02-09T14:56:38Z</time>
      </trkpt>
      <trkpt lat="45.55201" lon="6.72759">
        <ele>1465</ele>
        <time>2013-02-09T14:56:41Z</time>
      </trkpt>
      <trkpt lat="45.55186" lon="6.72753">
        <ele>1469</ele>
        <time>2013-02-09T14:56:45Z</time>
      </trkpt>
      <trkpt lat="45.55167" lon="6.72747">
        <ele>1474</ele>
        <time>2013-02-09T14:56:50Z</time>
      </trkpt>
      <trkpt lat="45.55141" lon="6.72739">
        <ele>1482</ele>
        <time>2013-02-09T14:56:57Z</time>
      </trkpt>
      <trkpt lat="45.55115" lon="6.7273">
        <ele>1486</ele>
        <time>2013-02-09T14:57:04Z</time>
      </trkpt>
      <trkpt lat="45.55088" lon="6.72719">
        <ele>1489</ele>
        <time>2013-02-09T14:57:11Z</time>
      </trkpt>
      <trkpt lat="45.55056" lon="6.72706">
        <ele>1510</ele>
        <time>2013-02-09T14:57:19Z</time>
      </trkpt>
      <trkpt lat="45.55038" lon="6.72701">
        <ele>1513</ele>
        <time>2013-02-09T14:57:24Z</time>
      </trkpt>
      <trkpt lat="45.55012" lon="6.72687">
        <ele>1518</ele>
        <time>2013-02-09T14:57:31Z</time>
      </trkpt>
      <trkpt lat="45.54994" lon="6.72681">
        <ele>1538</ele>
        <time>2013-02-09T14:57:36Z</time>
      </trkpt>
      <trkpt lat="45.54972" lon="6.72673">
        <ele>1545</ele>
        <time>2013-02-09T14:57:42Z</time>
      </trkpt>
      <trkpt lat="45.54942" lon="6.72658">
        <ele>1554</ele>
        <time>2013-02-09T14:57:50Z</time>
      </trkpt>
      <trkpt lat="45.54919" lon="6.72657">
        <ele>1563</ele>
        <time>2013-02-09T14:57:57Z</time>
      </trkpt>
      <trkpt lat="45.54898" lon="6.72653">
        <ele>1584</ele>
        <time>2013-02-09T14:58:03Z</time>
      </trkpt>
      <trkpt lat="45.54881" lon="6.72646">
        <ele>1590</ele>
        <time>2013-02-09T14:58:08Z</time>
      </trkpt>
      <trkpt lat="45.54861" lon="6.7264">
        <ele>1597</ele>
        <time>2013-02-09T14:58:14Z</time>
      </trkpt>
      <trkpt lat="45.54842" lon="6.72638">
        <ele>1601</ele>
        <time>2013-02-09T14:58:20Z</time>
      </trkpt>
      <trkpt lat="45.54825" lon="6.72641">
        <ele>1627</ele>
        <time>2013-02-09T14:58:25Z</time>
      </trkpt>
      <trkpt lat="45.54805" lon="6.7264">
        <ele>1632</ele>
        <time>2013-02-09T14:58:31Z</time>
      </trkpt>
      <trkpt lat="45.5478" lon="6.72638">
        <ele>1638</ele>
        <time>2013-02-09T14:58:38Z</time>
      </trkpt>
      <trkpt lat="45.54755" lon="6.72636">
        <ele>1643</ele>
        <time>2013-02-09T14:58:45Z</time>
      </trkpt>
      <trkpt lat="45.54734" lon="6.7263">
        <ele>1667</ele>
        <time>2013-02-09T14:58:51Z</time>
      </trkpt>
      <trkpt lat="45.54716" lon="6.72623">
        <ele>1670</ele>
        <time>2013-02-09T14:58:56Z</time>
      </trkpt>
      <trkpt lat="45.5469" lon="6.72615">
        <ele>1675</ele>
        <time>2013-02-09T14:59:03Z</time>
      </trkpt>
      <trkpt lat="45.54669" lon="6.72613">
        <ele>1678</ele>
        <time>2013-02-09T14:59:09Z</time>
      </trkpt>
      <trkpt lat="45.54642" lon="6.72599">
        <ele>1695</ele>
        <time>2013-02-09T14:59:16Z</time>
      </trkpt>
      <trkpt lat="45.5462" lon="6.72585">
        <ele>1699</ele>
        <time>2013-02-09T14:59:22Z</time>
      </trkpt>
      <trkpt lat="45.54588" lon="6.72565">
        <ele>1702</ele>
        <time>2013-02-09T14:59:30Z</time>
      </trkpt>
      <trkpt lat="45.54568" lon="6.72551">
        <ele>1714</ele>
        <time>2013-02-09T14:59:35Z</time>
      </trkpt>
      <trkpt lat="45.54545" lon="6.7254">
        <ele>1717</ele>
        <time>2013-02-09T14:59:41Z</time>
      </trkpt>
      <trkpt lat="45.54523" lon="6.72528">
        <ele>1719</ele>
        <time>2013-02-09T14:59:47Z</time>
      </trkpt>
      <trkpt lat="45.54503" lon="6.72519">
        <ele>1722</ele>
        <time>2013-02-09T14:59:52Z</time>
      </trkpt>
      <trkpt lat="45.54484" lon="6.72508">
        <ele>1731</ele>
        <time>2013-02-09T14:59:57Z</time>
      </trkpt>
      <trkpt lat="45.5446" lon="6.72499">
        <ele>1734</ele>
        <time>2013-02-09T15:00:03Z</time>
      </trkpt>
      <trkpt lat="45.54438" lon="6.72492">
        <ele>1738</ele>
        <time>2013-02-09T15:00:09Z</time>
      </trkpt>
      <trkpt lat="45.54416" lon="6.72487">
        <ele>1748</ele>
        <time>2013-02-09T15:00:15Z</time>
      </trkpt>
      <trkpt lat="45.54401" lon="6.72481">
        <ele>1751</ele>
        <time>2013-02-09T15:00:19Z</time>
      </trkpt>
      <trkpt lat="45.54382" lon="6.72476">
        <ele>1754</ele>
        <time>2013-02-09T15:00:24Z</time>
      </trkpt>
      <trkpt lat="45.5436" lon="6.72471">
        <ele>1757</ele>
        <time>2013-02-09T15:00:30Z</time>
      </trkpt>
      <trkpt lat="45.54336" lon="6.7247">
        <ele>1760</ele>
        <time>2013-02-09T15:00:36Z</time>
      </trkpt>
      <trkpt lat="45.54318" lon="6.72461">
        <ele>1776</ele>
        <time>2013-02-09T15:00:41Z</time>
      </trkpt>
      <trkpt lat="45.54292" lon="6.72459">
        <ele>1781</ele>
        <time>2013-02-09T15:00:48Z</time>
      </trkpt>
      <trkpt lat="45.54277" lon="6.72459">
        <ele>1783</ele>
        <time>2013-02-09T15:00:53Z</time>
      </trkpt>
      <trkpt lat="45.54254" lon="6.72447">
        <ele>1787</ele>
        <time>2013-02-09T15:00:59Z</time>
      </trkpt>
      <trkpt lat="45.54229" lon="6.7244">
        <ele>1806</ele>
        <time>2013-02-09T15:01:06Z</time>
      </trkpt>
      <trkpt lat="45.54205" lon="6.72435">
        <ele>1810</ele>
        <time>2013-02-09T15:01:12Z</time>
      </trkpt>
      <trkpt lat="45.54183" lon="6.72431">
        <ele>1815</ele>
        <time>2013-02-09T15:01:18Z</time>
      </trkpt>
      <trkpt lat="45.54168" lon="6.72425">
        <ele>1819</ele>
        <time>2013-02-09T15:01:22Z</time>
      </trkpt>
      <trkpt lat="45.54147" lon="6.724">
        <ele>1829</ele>
        <time>2013-02-09T15:01:28Z</time>
      </trkpt>
      <trkpt lat="45.54126" lon="6.72393">
        <ele>1832</ele>
        <time>2013-02-09T15:01:33Z</time>
      </trkpt>
      <trkpt lat="45.54103" lon="6.72381">
        <ele>1834</ele>
        <time>2013-02-09T15:01:39Z</time>
      </trkpt>
      <trkpt lat="45.54073" lon="6.7237">
        <ele>1851</ele>
        <time>2013-02-09T15:01:47Z</time>
      </trkpt>
      <trkpt lat="45.54052" lon="6.72366">
        <ele>1853</ele>
        <time>2013-02-09T15:01:53Z</time>
      </trkpt>
      <trkpt lat="45.54029" lon="6.72355">
        <ele>1858</ele>
        <time>2013-02-09T15:01:59Z</time>
      </trkpt>
      <trkpt lat="45.54005" lon="6.72343">
        <ele>1865</ele>
        <time>2013-02-09T15:02:05Z</time>
      </trkpt>
      <trkpt lat="45.53985" lon="6.72333">
        <ele>1874</ele>
        <time>2013-02-09T15:02:10Z</time>
      </trkpt>
      <trkpt lat="45.53964" lon="6.72329">
        <ele>1879</ele>
        <time>2013-02-09T15:02:16Z</time>
      </trkpt>
      <trkpt lat="45.53955" lon="6.72322">
        <ele>1880</ele>
        <time>2013-02-09T15:02:27Z</time>
      </trkpt>
      <trkpt lat="45.5395" lon="6.72339">
        <ele>1878</ele>
        <time>2013-02-09T15:02:35Z</time>
      </trkpt>
      <trkpt lat="45.53974" lon="6.72396">
        <ele>1874</ele>
        <time>2013-02-09T15:02:48Z</time>
      </trkpt>
      <trkpt lat="45.54021" lon="6.72414">
        <ele>1858</ele>
        <time>2013-02-09T15:02:53Z</time>
      </trkpt>
      <trkpt lat="45.54087" lon="6.72455">
        <ele>1834</ele>
        <time>2013-02-09T15:02:59Z</time>
      </trkpt>
      <trkpt lat="45.54147" lon="6.72474">
        <ele>1829</ele>
        <time>2013-02-09T15:03:06Z</time>
      </trkpt>
      <trkpt lat="45.54133" lon="6.72496">
        <ele>1830</ele>
        <time>2013-02-09T15:03:12Z</time>
      </trkpt>
      <trkpt lat="45.54133" lon="6.72496">
        <ele>1830</ele>
        <time>2013-02-09T15:03:17Z</time>
      </trkpt>
      <trkpt lat="45.54133" lon="6.72496">
        <ele>1830</ele>
        <time>2013-02-09T15:03:17Z</time>
      </trkpt>
      <trkpt lat="45.54133" lon="6.72496">
        <ele>1830</ele>
        <time>2013-02-09T15:04:12Z</time>
      </trkpt>
      <trkpt lat="45.54122" lon="6.72478">
        <ele>1832</ele>
        <time>2013-02-09T15:04:12Z</time>
      </trkpt>
      <trkpt lat="45.54116" lon="6.72477">
        <ele>1832</ele>
        <time>2013-02-09T15:04:16Z</time>
      </trkpt>
      <trkpt lat="45.54116" lon="6.72477">
        <ele>1832</ele>
        <time>2013-02-09T15:04:21Z</time>
      </trkpt>
      <trkpt lat="45.54116" lon="6.72477">
        <ele>1832</ele>
        <time>2013-02-09T15:04:24Z</time>
      </trkpt>
      <trkpt lat="45.54104" lon="6.72471">
        <ele>1833</ele>
        <time>2013-02-09T15:04:24Z</time>
      </trkpt>
      <trkpt lat="45.54086" lon="6.72473">
        <ele>1835</ele>
        <time>2013-02-09T15:04:29Z</time>
      </trkpt>
      <trkpt lat="45.54061" lon="6.72473">
        <ele>1848</ele>
        <time>2013-02-09T15:04:36Z</time>
      </trkpt>
      <trkpt lat="45.54041" lon="6.72471">
        <ele>1850</ele>
        <time>2013-02-09T15:04:41Z</time>
      </trkpt>
      <trkpt lat="45.5403" lon="6.7247">
        <ele>1852</ele>
        <time>2013-02-09T15:04:44Z</time>
      </trkpt>
      <trkpt lat="45.54008" lon="6.72468">
        <ele>1854</ele>
        <time>2013-02-09T15:04:50Z</time>
      </trkpt>
      <trkpt lat="45.53982" lon="6.72467">
        <ele>1870</ele>
        <time>2013-02-09T15:04:57Z</time>
      </trkpt>
      <trkpt lat="45.53964" lon="6.72464">
        <ele>1872</ele>
        <time>2013-02-09T15:05:02Z</time>
      </trkpt>
      <trkpt lat="45.53945" lon="6.72461">
        <ele>1875</ele>
        <time>2013-02-09T15:05:07Z</time>
      </trkpt>
      <trkpt lat="45.53934" lon="6.7246">
        <ele>1876</ele>
        <time>2013-02-09T15:05:10Z</time>
      </trkpt>
      <trkpt lat="45.53913" lon="6.72458">
        <ele>1897</ele>
        <time>2013-02-09T15:05:16Z</time>
      </trkpt>
      <trkpt lat="45.53891" lon="6.72456">
        <ele>1900</ele>
        <time>2013-02-09T15:05:22Z</time>
      </trkpt>
      <trkpt lat="45.53869" lon="6.72454">
        <ele>1905</ele>
        <time>2013-02-09T15:05:28Z</time>
      </trkpt>
      <trkpt lat="45.53843" lon="6.72451">
        <ele>1910</ele>
        <time>2013-02-09T15:05:35Z</time>
      </trkpt>
      <trkpt lat="45.53833" lon="6.72449">
        <ele>1935</ele>
        <time>2013-02-09T15:05:38Z</time>
      </trkpt>
      <trkpt lat="45.53811" lon="6.72447">
        <ele>1938</ele>
        <time>2013-02-09T15:05:44Z</time>
      </trkpt>
      <trkpt lat="45.5379" lon="6.72445">
        <ele>1944</ele>
        <time>2013-02-09T15:05:50Z</time>
      </trkpt>
      <trkpt lat="45.5377" lon="6.72443">
        <ele>1949</ele>
        <time>2013-02-09T15:05:56Z</time>
      </trkpt>
      <trkpt lat="45.53749" lon="6.72441">
        <ele>1977</ele>
        <time>2013-02-09T15:06:02Z</time>
      </trkpt>
      <trkpt lat="45.53728" lon="6.72438">
        <ele>1982</ele>
        <time>2013-02-09T15:06:08Z</time>
      </trkpt>
      <trkpt lat="45.53708" lon="6.72436">
        <ele>1990</ele>
        <time>2013-02-09T15:06:14Z</time>
      </trkpt>
      <trkpt lat="45.53684" lon="6.72434">
        <ele>1999</ele>
        <time>2013-02-09T15:06:21Z</time>
      </trkpt>
      <trkpt lat="45.53674" lon="6.72433">
        <ele>2002</ele>
        <time>2013-02-09T15:06:24Z</time>
      </trkpt>
      <trkpt lat="45.53651" lon="6.7243">
        <ele>2029</ele>
        <time>2013-02-09T15:06:31Z</time>
      </trkpt>
      <trkpt lat="45.53638" lon="6.72428">
        <ele>2035</ele>
        <time>2013-02-09T15:06:35Z</time>
      </trkpt>
      <trkpt lat="45.53618" lon="6.72426">
        <ele>2044</ele>
        <time>2013-02-09T15:06:41Z</time>
      </trkpt>
      <trkpt lat="45.53597" lon="6.72425">
        <ele>2052</ele>
        <time>2013-02-09T15:06:47Z</time>
      </trkpt>
      <trkpt lat="45.53577" lon="6.72422">
        <ele>2071</ele>
        <time>2013-02-09T15:06:53Z</time>
      </trkpt>
      <trkpt lat="45.53563" lon="6.72421">
        <ele>2081</ele>
        <time>2013-02-09T15:06:58Z</time>
      </trkpt>
      <trkpt lat="45.53539" lon="6.72418">
        <ele>2094</ele>
        <time>2013-02-09T15:07:04Z</time>
      </trkpt>
      <trkpt lat="45.53525" lon="6.72417">
        <ele>2100</ele>
        <time>2013-02-09T15:07:08Z</time>
      </trkpt>
      <trkpt lat="45.53506" lon="6.72416">
        <ele>2108</ele>
        <time>2013-02-09T15:07:14Z</time>
      </trkpt>
      <trkpt lat="45.53482" lon="6.72414">
        <ele>2123</ele>
        <time>2013-02-09T15:07:21Z</time>
      </trkpt>
      <trkpt lat="45.53461" lon="6.72411">
        <ele>2131</ele>
        <time>2013-02-09T15:07:27Z</time>
      </trkpt>
      <trkpt lat="45.53436" lon="6.72409">
        <ele>2142</ele>
        <time>2013-02-09T15:07:34Z</time>
      </trkpt>
      <trkpt lat="45.53418" lon="6.72406">
        <ele>2149</ele>
        <time>2013-02-09T15:07:39Z</time>
      </trkpt>
      <trkpt lat="45.53396" lon="6.72404">
        <ele>2165</ele>
        <time>2013-02-09T15:07:45Z</time>
      </trkpt>
      <trkpt lat="45.53372" lon="6.72401">
        <ele>2170</ele>
        <time>2013-02-09T15:07:51Z</time>
      </trkpt>
      <trkpt lat="45.5336" lon="6.724">
        <ele>2173</ele>
        <time>2013-02-09T15:07:54Z</time>
      </trkpt>
      <trkpt lat="45.53349" lon="6.72399">
        <ele>2176</ele>
        <time>2013-02-09T15:07:57Z</time>
      </trkpt>
      <trkpt lat="45.53337" lon="6.72398">
        <ele>2178</ele>
        <time>2013-02-09T15:08:00Z</time>
      </trkpt>
      <trkpt lat="45.53314" lon="6.72395">
        <ele>2190</ele>
        <time>2013-02-09T15:08:06Z</time>
      </trkpt>
      <trkpt lat="45.53295" lon="6.72393">
        <ele>2191</ele>
        <time>2013-02-09T15:08:11Z</time>
      </trkpt>
      <trkpt lat="45.53272" lon="6.7239">
        <ele>2193</ele>
        <time>2013-02-09T15:08:17Z</time>
      </trkpt>
      <trkpt lat="45.53246" lon="6.72387">
        <ele>2201</ele>
        <time>2013-02-09T15:08:24Z</time>
      </trkpt>
      <trkpt lat="45.53227" lon="6.72385">
        <ele>2202</ele>
        <time>2013-02-09T15:08:29Z</time>
      </trkpt>
      <trkpt lat="45.53207" lon="6.72383">
        <ele>2203</ele>
        <time>2013-02-09T15:08:34Z</time>
      </trkpt>
      <trkpt lat="45.53183" lon="6.72381">
        <ele>2205</ele>
        <time>2013-02-09T15:08:40Z</time>
      </trkpt>
      <trkpt lat="45.5316" lon="6.72379">
        <ele>2216</ele>
        <time>2013-02-09T15:08:46Z</time>
      </trkpt>
      <trkpt lat="45.53137" lon="6.72377">
        <ele>2219</ele>
        <time>2013-02-09T15:08:52Z</time>
      </trkpt>
      <trkpt lat="45.53118" lon="6.72375">
        <ele>2221</ele>
        <time>2013-02-09T15:08:57Z</time>
      </trkpt>
      <trkpt lat="45.53092" lon="6.72372">
        <ele>2223</ele>
        <time>2013-02-09T15:09:04Z</time>
      </trkpt>
      <trkpt lat="45.53072" lon="6.7237">
        <ele>2236</ele>
        <time>2013-02-09T15:09:09Z</time>
      </trkpt>
      <trkpt lat="45.53046" lon="6.72367">
        <ele>2238</ele>
        <time>2013-02-09T15:09:16Z</time>
      </trkpt>
      <trkpt lat="45.53023" lon="6.72364">
        <ele>2241</ele>
        <time>2013-02-09T15:09:22Z</time>
      </trkpt>
      <trkpt lat="45.53" lon="6.72362">
        <ele>2242</ele>
        <time>2013-02-09T15:09:28Z</time>
      </trkpt>
      <trkpt lat="45.52977" lon="6.72359">
        <ele>2253</ele>
        <time>2013-02-09T15:09:34Z</time>
      </trkpt>
      <trkpt lat="45.52958" lon="6.72357">
        <ele>2255</ele>
        <time>2013-02-09T15:09:39Z</time>
      </trkpt>
      <trkpt lat="45.52947" lon="6.72355">
        <ele>2257</ele>
        <time>2013-02-09T15:09:42Z</time>
      </trkpt>
      <trkpt lat="45.5292" lon="6.72352">
        <ele>2260</ele>
        <time>2013-02-09T15:09:49Z</time>
      </trkpt>
      <trkpt lat="45.529" lon="6.7235">
        <ele>2269</ele>
        <time>2013-02-09T15:09:54Z</time>
      </trkpt>
      <trkpt lat="45.52877" lon="6.72348">
        <ele>2272</ele>
        <time>2013-02-09T15:10:00Z</time>
      </trkpt>
      <trkpt lat="45.52853" lon="6.72345">
        <ele>2275</ele>
        <time>2013-02-09T15:10:06Z</time>
      </trkpt>
      <trkpt lat="45.52827" lon="6.72343">
        <ele>2280</ele>
        <time>2013-02-09T15:10:13Z</time>
      </trkpt>
      <trkpt lat="45.52812" lon="6.72342">
        <ele>2279</ele>
        <time>2013-02-09T15:10:17Z</time>
      </trkpt>
      <trkpt lat="45.528" lon="6.7234">
        <ele>2278</ele>
        <time>2013-02-09T15:10:25Z</time>
      </trkpt>
      <trkpt lat="45.52797" lon="6.72339">
        <ele>2278</ele>
        <time>2013-02-09T15:10:30Z</time>
      </trkpt>
      <trkpt lat="45.52797" lon="6.72339">
        <ele>2278</ele>
        <time>2013-02-09T15:10:37Z</time>
      </trkpt>
      <trkpt lat="45.52797" lon="6.72339">
        <ele>2278</ele>
        <time>2013-02-09T15:11:24Z</time>
      </trkpt>
      <trkpt lat="45.52778" lon="6.72335">
        <ele>2278</ele>
        <time>2013-02-09T15:11:24Z</time>
      </trkpt>
      <trkpt lat="45.52761" lon="6.72328">
        <ele>2281</ele>
        <time>2013-02-09T15:11:42Z</time>
      </trkpt>
      <trkpt lat="45.52751" lon="6.72323">
        <ele>2281</ele>
        <time>2013-02-09T15:11:56Z</time>
      </trkpt>
      <trkpt lat="45.52614" lon="6.7235">
        <ele>2236</ele>
        <time>2013-02-09T15:12:13Z</time>
      </trkpt>
      <trkpt lat="45.52535" lon="6.72342">
        <ele>2211</ele>
        <time>2013-02-09T15:12:19Z</time>
      </trkpt>
      <trkpt lat="45.52458" lon="6.72331">
        <ele>2196</ele>
        <time>2013-02-09T15:12:25Z</time>
      </trkpt>
      <trkpt lat="45.52458" lon="6.72299">
        <ele>2197</ele>
        <time>2013-02-09T15:12:41Z</time>
      </trkpt>
      <trkpt lat="45.52458" lon="6.72299">
        <ele>2197</ele>
        <time>2013-02-09T15:12:48Z</time>
      </trkpt>
      <trkpt lat="45.52458" lon="6.72299">
        <ele>2197</ele>
        <time>2013-02-09T15:12:48Z</time>
      </trkpt>
      <trkpt lat="45.52458" lon="6.72299">
        <ele>2197</ele>
        <time>2013-02-09T15:12:54Z</time>
      </trkpt>
      <trkpt lat="45.52461" lon="6.72275">
        <ele>2198</ele>
        <time>2013-02-09T15:12:54Z</time>
      </trkpt>
      <trkpt lat="45.52458" lon="6.72248">
        <ele>2206</ele>
        <time>2013-02-09T15:13:05Z</time>
      </trkpt>
      <trkpt lat="45.52449" lon="6.72222">
        <ele>2207</ele>
        <time>2013-02-09T15:13:19Z</time>
      </trkpt>
      <trkpt lat="45.52444" lon="6.72191">
        <ele>2209</ele>
        <time>2013-02-09T15:13:32Z</time>
      </trkpt>
      <trkpt lat="45.52441" lon="6.72174">
        <ele>2209</ele>
        <time>2013-02-09T15:13:40Z</time>
      </trkpt>
      <trkpt lat="45.52439" lon="6.7216">
        <ele>2221</ele>
        <time>2013-02-09T15:13:46Z</time>
      </trkpt>
      <trkpt lat="45.52434" lon="6.72135">
        <ele>2226</ele>
        <time>2013-02-09T15:13:59Z</time>
      </trkpt>
      <trkpt lat="45.52428" lon="6.72109">
        <ele>2231</ele>
        <time>2013-02-09T15:14:12Z</time>
      </trkpt>
      <trkpt lat="45.52423" lon="6.72088">
        <ele>2234</ele>
        <time>2013-02-09T15:14:22Z</time>
      </trkpt>
      <trkpt lat="45.5242" lon="6.72072">
        <ele>2244</ele>
        <time>2013-02-09T15:14:27Z</time>
      </trkpt>
      <trkpt lat="45.52416" lon="6.72054">
        <ele>2241</ele>
        <time>2013-02-09T15:14:37Z</time>
      </trkpt>
      <trkpt lat="45.52408" lon="6.72029">
        <ele>2248</ele>
        <time>2013-02-09T15:14:50Z</time>
      </trkpt>
      <trkpt lat="45.52404" lon="6.72012">
        <ele>2253</ele>
        <time>2013-02-09T15:14:58Z</time>
      </trkpt>
      <trkpt lat="45.52399" lon="6.71987">
        <ele>2269</ele>
        <time>2013-02-09T15:15:10Z</time>
      </trkpt>
      <trkpt lat="45.52392" lon="6.71961">
        <ele>2274</ele>
        <time>2013-02-09T15:15:21Z</time>
      </trkpt>
      <trkpt lat="45.52389" lon="6.7194">
        <ele>2277</ele>
        <time>2013-02-09T15:15:31Z</time>
      </trkpt>
      <trkpt lat="45.52383" lon="6.71918">
        <ele>2279</ele>
        <time>2013-02-09T15:15:42Z</time>
      </trkpt>
      <trkpt lat="45.52373" lon="6.71886">
        <ele>2294</ele>
        <time>2013-02-09T15:15:57Z</time>
      </trkpt>
      <trkpt lat="45.52369" lon="6.71871">
        <ele>2296</ele>
        <time>2013-02-09T15:16:08Z</time>
      </trkpt>
      <trkpt lat="45.5236" lon="6.71832">
        <ele>2308</ele>
        <time>2013-02-09T15:16:24Z</time>
      </trkpt>
      <trkpt lat="45.52351" lon="6.71794">
        <ele>2311</ele>
        <time>2013-02-09T15:16:38Z</time>
      </trkpt>
      <trkpt lat="45.52347" lon="6.71775">
        <ele>2315</ele>
        <time>2013-02-09T15:16:46Z</time>
      </trkpt>
      <trkpt lat="45.5234" lon="6.71745">
        <ele>2326</ele>
        <time>2013-02-09T15:17:01Z</time>
      </trkpt>
      <trkpt lat="45.52334" lon="6.71714">
        <ele>2322</ele>
        <time>2013-02-09T15:17:13Z</time>
      </trkpt>
      <trkpt lat="45.5233" lon="6.71693">
        <ele>2336</ele>
        <time>2013-02-09T15:17:23Z</time>
      </trkpt>
      <trkpt lat="45.52325" lon="6.71667">
        <ele>2335</ele>
        <time>2013-02-09T15:17:34Z</time>
      </trkpt>
      <trkpt lat="45.52319" lon="6.71647">
        <ele>2336</ele>
        <time>2013-02-09T15:17:42Z</time>
      </trkpt>
      <trkpt lat="45.52316" lon="6.71623">
        <ele>2336</ele>
        <time>2013-02-09T15:17:49Z</time>
      </trkpt>
      <trkpt lat="45.52322" lon="6.71603">
        <ele>2337</ele>
        <time>2013-02-09T15:17:55Z</time>
      </trkpt>
      <trkpt lat="45.5233" lon="6.71595">
        <ele>2337</ele>
        <time>2013-02-09T15:18:01Z</time>
      </trkpt>
      <trkpt lat="45.52336" lon="6.71587">
        <ele>2335</ele>
        <time>2013-02-09T15:18:09Z</time>
      </trkpt>
      <trkpt lat="45.52347" lon="6.71577">
        <ele>2335</ele>
        <time>2013-02-09T15:18:28Z</time>
      </trkpt>
      <trkpt lat="45.52351" lon="6.71575">
        <ele>2334</ele>
        <time>2013-02-09T15:18:33Z</time>
      </trkpt>
      <trkpt lat="45.52351" lon="6.71575">
        <ele>2334</ele>
        <time>2013-02-09T15:18:41Z</time>
      </trkpt>
      <trkpt lat="45.52351" lon="6.71575">
        <ele>2334</ele>
        <time>2013-02-09T15:21:23Z</time>
      </trkpt>
      <trkpt lat="45.52337" lon="6.71582">
        <ele>2336</ele>
        <time>2013-02-09T15:21:23Z</time>
      </trkpt>
      <trkpt lat="45.52337" lon="6.71582">
        <ele>2336</ele>
        <time>2013-02-09T15:21:30Z</time>
      </trkpt>
      <trkpt lat="45.52337" lon="6.71582">
        <ele>2336</ele>
        <time>2013-02-09T15:21:30Z</time>
      </trkpt>
      <trkpt lat="45.52337" lon="6.71582">
        <ele>2336</ele>
        <time>2013-02-09T15:22:03Z</time>
      </trkpt>
      <trkpt lat="45.52317" lon="6.71607">
        <ele>2337</ele>
        <time>2013-02-09T15:22:14Z</time>
      </trkpt>
      <trkpt lat="45.52307" lon="6.71606">
        <ele>2337</ele>
        <time>2013-02-09T15:22:20Z</time>
      </trkpt>
      <trkpt lat="45.52307" lon="6.71606">
        <ele>2337</ele>
        <time>2013-02-09T15:22:28Z</time>
      </trkpt>
      <trkpt lat="45.52307" lon="6.71606">
        <ele>2337</ele>
        <time>2013-02-09T15:22:35Z</time>
      </trkpt>
      <trkpt lat="45.52302" lon="6.71619">
        <ele>2337</ele>
        <time>2013-02-09T15:22:35Z</time>
      </trkpt>
      <trkpt lat="45.52294" lon="6.71631">
        <ele>2337</ele>
        <time>2013-02-09T15:22:47Z</time>
      </trkpt>
      <trkpt lat="45.52298" lon="6.71674">
        <ele>2338</ele>
        <time>2013-02-09T15:24:26Z</time>
      </trkpt>
      <trkpt lat="45.52333" lon="6.7174">
        <ele>2333</ele>
        <time>2013-02-09T15:24:35Z</time>
      </trkpt>
      <trkpt lat="45.52365" lon="6.71831">
        <ele>2307</ele>
        <time>2013-02-09T15:24:41Z</time>
      </trkpt>
      <trkpt lat="45.52396" lon="6.71905">
        <ele>2290</ele>
        <time>2013-02-09T15:24:46Z</time>
      </trkpt>
      <trkpt lat="45.52444" lon="6.7196">
        <ele>2277</ele>
        <time>2013-02-09T15:24:52Z</time>
      </trkpt>
      <trkpt lat="45.52461" lon="6.71987">
        <ele>2277</ele>
        <time>2013-02-09T15:24:55Z</time>
      </trkpt>
      <trkpt lat="45.52481" lon="6.72003">
        <ele>2271</ele>
        <time>2013-02-09T15:24:58Z</time>
      </trkpt>
      <trkpt lat="45.52498" lon="6.72005">
        <ele>2279</ele>
        <time>2013-02-09T15:25:01Z</time>
      </trkpt>
      <trkpt lat="45.52512" lon="6.72045">
        <ele>2277</ele>
        <time>2013-02-09T15:25:07Z</time>
      </trkpt>
      <trkpt lat="45.52528" lon="6.72108">
        <ele>2259</ele>
        <time>2013-02-09T15:25:12Z</time>
      </trkpt>
      <trkpt lat="45.52553" lon="6.72178">
        <ele>2242</ele>
        <time>2013-02-09T15:25:17Z</time>
      </trkpt>
      <trkpt lat="45.52579" lon="6.72244">
        <ele>2238</ele>
        <time>2013-02-09T15:25:22Z</time>
      </trkpt>
      <trkpt lat="45.52589" lon="6.72321">
        <ele>2234</ele>
        <time>2013-02-09T15:25:28Z</time>
      </trkpt>
      <trkpt lat="45.52552" lon="6.72351">
        <ele>2214</ele>
        <time>2013-02-09T15:25:33Z</time>
      </trkpt>
      <trkpt lat="45.52496" lon="6.72389">
        <ele>2194</ele>
        <time>2013-02-09T15:25:39Z</time>
      </trkpt>
      <trkpt lat="45.52444" lon="6.72421">
        <ele>2181</ele>
        <time>2013-02-09T15:25:44Z</time>
      </trkpt>
      <trkpt lat="45.52384" lon="6.72453">
        <ele>2172</ele>
        <time>2013-02-09T15:25:49Z</time>
      </trkpt>
      <trkpt lat="45.52361" lon="6.72519">
        <ele>2161</ele>
        <time>2013-02-09T15:25:54Z</time>
      </trkpt>
      <trkpt lat="45.52372" lon="6.72607">
        <ele>2144</ele>
        <time>2013-02-09T15:26:00Z</time>
      </trkpt>
      <trkpt lat="45.52366" lon="6.72679">
        <ele>2126</ele>
        <time>2013-02-09T15:26:06Z</time>
      </trkpt>
      <trkpt lat="45.52357" lon="6.72745">
        <ele>2119</ele>
        <time>2013-02-09T15:26:12Z</time>
      </trkpt>
      <trkpt lat="45.52332" lon="6.72816">
        <ele>2101</ele>
        <time>2013-02-09T15:26:18Z</time>
      </trkpt>
      <trkpt lat="45.52317" lon="6.72877">
        <ele>2085</ele>
        <time>2013-02-09T15:26:23Z</time>
      </trkpt>
      <trkpt lat="45.52306" lon="6.72942">
        <ele>2070</ele>
        <time>2013-02-09T15:26:29Z</time>
      </trkpt>
      <trkpt lat="45.52299" lon="6.72966">
        <ele>2067</ele>
        <time>2013-02-09T15:26:50Z</time>
      </trkpt>
      <trkpt lat="45.52287" lon="6.73024">
        <ele>2052</ele>
        <time>2013-02-09T15:26:59Z</time>
      </trkpt>
      <trkpt lat="45.52297" lon="6.73048">
        <ele>2050</ele>
        <time>2013-02-09T15:27:02Z</time>
      </trkpt>
      <trkpt lat="45.5231" lon="6.7304">
        <ele>2051</ele>
        <time>2013-02-09T15:27:07Z</time>
      </trkpt>
      <trkpt lat="45.5231" lon="6.7304">
        <ele>2051</ele>
        <time>2013-02-09T15:27:12Z</time>
      </trkpt>
      <trkpt lat="45.5231" lon="6.7304">
        <ele>2051</ele>
        <time>2013-02-09T15:27:12Z</time>
      </trkpt>
      <trkpt lat="45.5231" lon="6.7304">
        <ele>2051</ele>
        <time>2013-02-09T15:27:45Z</time>
      </trkpt>
      <trkpt lat="45.52293" lon="6.73006">
        <ele>2054</ele>
        <time>2013-02-09T15:27:45Z</time>
      </trkpt>
      <trkpt lat="45.52289" lon="6.72994">
        <ele>2064</ele>
        <time>2013-02-09T15:27:51Z</time>
      </trkpt>
      <trkpt lat="45.52272" lon="6.72963">
        <ele>2066</ele>
        <time>2013-02-09T15:28:05Z</time>
      </trkpt>
      <trkpt lat="45.5226" lon="6.72936">
        <ele>2070</ele>
        <time>2013-02-09T15:28:17Z</time>
      </trkpt>
      <trkpt lat="45.5225" lon="6.72916">
        <ele>2074</ele>
        <time>2013-02-09T15:28:26Z</time>
      </trkpt>
      <trkpt lat="45.52244" lon="6.72903">
        <ele>2079</ele>
        <time>2013-02-09T15:28:32Z</time>
      </trkpt>
      <trkpt lat="45.52237" lon="6.7289">
        <ele>2083</ele>
        <time>2013-02-09T15:28:38Z</time>
      </trkpt>
      <trkpt lat="45.52231" lon="6.72877">
        <ele>2085</ele>
        <time>2013-02-09T15:28:44Z</time>
      </trkpt>
      <trkpt lat="45.52219" lon="6.72856">
        <ele>2088</ele>
        <time>2013-02-09T15:28:55Z</time>
      </trkpt>
      <trkpt lat="45.52206" lon="6.72828">
        <ele>2101</ele>
        <time>2013-02-09T15:29:08Z</time>
      </trkpt>
      <trkpt lat="45.52196" lon="6.72809">
        <ele>2102</ele>
        <time>2013-02-09T15:29:17Z</time>
      </trkpt>
      <trkpt lat="45.5219" lon="6.72797">
        <ele>2103</ele>
        <time>2013-02-09T15:29:23Z</time>
      </trkpt>
      <trkpt lat="45.52184" lon="6.72783">
        <ele>2104</ele>
        <time>2013-02-09T15:29:29Z</time>
      </trkpt>
      <trkpt lat="45.52171" lon="6.72757">
        <ele>2108</ele>
        <time>2013-02-09T15:29:41Z</time>
      </trkpt>
      <trkpt lat="45.52161" lon="6.72735">
        <ele>2117</ele>
        <time>2013-02-09T15:29:51Z</time>
      </trkpt>
      <trkpt lat="45.52148" lon="6.7271">
        <ele>2124</ele>
        <time>2013-02-09T15:30:04Z</time>
      </trkpt>
      <trkpt lat="45.52138" lon="6.7269">
        <ele>2128</ele>
        <time>2013-02-09T15:30:14Z</time>
      </trkpt>
      <trkpt lat="45.52128" lon="6.7267">
        <ele>2130</ele>
        <time>2013-02-09T15:30:24Z</time>
      </trkpt>
      <trkpt lat="45.52117" lon="6.72647">
        <ele>2152</ele>
        <time>2013-02-09T15:30:36Z</time>
      </trkpt>
      <trkpt lat="45.52109" lon="6.72632">
        <ele>2156</ele>
        <time>2013-02-09T15:30:44Z</time>
      </trkpt>
      <trkpt lat="45.52096" lon="6.72605">
        <ele>2165</ele>
        <time>2013-02-09T15:30:57Z</time>
      </trkpt>
      <trkpt lat="45.52093" lon="6.726">
        <ele>2168</ele>
        <time>2013-02-09T15:31:00Z</time>
      </trkpt>
      <trkpt lat="45.52093" lon="6.726">
        <ele>2168</ele>
        <time>2013-02-09T15:31:05Z</time>
      </trkpt>
      <trkpt lat="45.52093" lon="6.726">
        <ele>2168</ele>
        <time>2013-02-09T15:31:49Z</time>
      </trkpt>
      <trkpt lat="45.52077" lon="6.72567">
        <ele>2191</ele>
        <time>2013-02-09T15:31:49Z</time>
      </trkpt>
      <trkpt lat="45.52066" lon="6.72546">
        <ele>2196</ele>
        <time>2013-02-09T15:31:59Z</time>
      </trkpt>
      <trkpt lat="45.52054" lon="6.72521">
        <ele>2200</ele>
        <time>2013-02-09T15:32:10Z</time>
      </trkpt>
      <trkpt lat="45.52047" lon="6.72505">
        <ele>2202</ele>
        <time>2013-02-09T15:32:17Z</time>
      </trkpt>
      <trkpt lat="45.52039" lon="6.7249">
        <ele>2215</ele>
        <time>2013-02-09T15:32:24Z</time>
      </trkpt>
      <trkpt lat="45.52031" lon="6.72476">
        <ele>2217</ele>
        <time>2013-02-09T15:32:30Z</time>
      </trkpt>
      <trkpt lat="45.52026" lon="6.72464">
        <ele>2218</ele>
        <time>2013-02-09T15:32:35Z</time>
      </trkpt>
      <trkpt lat="45.52016" lon="6.72444">
        <ele>2222</ele>
        <time>2013-02-09T15:32:44Z</time>
      </trkpt>
      <trkpt lat="45.52006" lon="6.72423">
        <ele>2228</ele>
        <time>2013-02-09T15:32:53Z</time>
      </trkpt>
      <trkpt lat="45.51994" lon="6.72398">
        <ele>2238</ele>
        <time>2013-02-09T15:33:04Z</time>
      </trkpt>
      <trkpt lat="45.5198" lon="6.72372">
        <ele>2242</ele>
        <time>2013-02-09T15:33:16Z</time>
      </trkpt>
      <trkpt lat="45.51969" lon="6.72344">
        <ele>2244</ele>
        <time>2013-02-09T15:33:27Z</time>
      </trkpt>
      <trkpt lat="45.51957" lon="6.72314">
        <ele>2255</ele>
        <time>2013-02-09T15:33:37Z</time>
      </trkpt>
      <trkpt lat="45.51942" lon="6.7229">
        <ele>2258</ele>
        <time>2013-02-09T15:33:49Z</time>
      </trkpt>
      <trkpt lat="45.51931" lon="6.72264">
        <ele>2263</ele>
        <time>2013-02-09T15:34:00Z</time>
      </trkpt>
      <trkpt lat="45.51924" lon="6.72249">
        <ele>2271</ele>
        <time>2013-02-09T15:34:06Z</time>
      </trkpt>
      <trkpt lat="45.51913" lon="6.72227">
        <ele>2278</ele>
        <time>2013-02-09T15:34:15Z</time>
      </trkpt>
      <trkpt lat="45.51905" lon="6.72209">
        <ele>2280</ele>
        <time>2013-02-09T15:34:23Z</time>
      </trkpt>
      <trkpt lat="45.51893" lon="6.72185">
        <ele>2282</ele>
        <time>2013-02-09T15:34:35Z</time>
      </trkpt>
      <trkpt lat="45.51879" lon="6.72158">
        <ele>2287</ele>
        <time>2013-02-09T15:34:47Z</time>
      </trkpt>
      <trkpt lat="45.51865" lon="6.7213">
        <ele>2289</ele>
        <time>2013-02-09T15:34:59Z</time>
      </trkpt>
      <trkpt lat="45.51858" lon="6.72113">
        <ele>2289</ele>
        <time>2013-02-09T15:35:07Z</time>
      </trkpt>
      <trkpt lat="45.51851" lon="6.72098">
        <ele>2290</ele>
        <time>2013-02-09T15:35:14Z</time>
      </trkpt>
      <trkpt lat="45.51843" lon="6.72081">
        <ele>2296</ele>
        <time>2013-02-09T15:35:22Z</time>
      </trkpt>
      <trkpt lat="45.51832" lon="6.72059">
        <ele>2302</ele>
        <time>2013-02-09T15:35:30Z</time>
      </trkpt>
      <trkpt lat="45.51821" lon="6.7204">
        <ele>2306</ele>
        <time>2013-02-09T15:35:37Z</time>
      </trkpt>
      <trkpt lat="45.51814" lon="6.72027">
        <ele>2307</ele>
        <time>2013-02-09T15:35:43Z</time>
      </trkpt>
      <trkpt lat="45.51802" lon="6.72004">
        <ele>2309</ele>
        <time>2013-02-09T15:35:54Z</time>
      </trkpt>
      <trkpt lat="45.51794" lon="6.71988">
        <ele>2329</ele>
        <time>2013-02-09T15:36:01Z</time>
      </trkpt>
      <trkpt lat="45.51785" lon="6.71969">
        <ele>2333</ele>
        <time>2013-02-09T15:36:08Z</time>
      </trkpt>
      <trkpt lat="45.51777" lon="6.71952">
        <ele>2338</ele>
        <time>2013-02-09T15:36:15Z</time>
      </trkpt>
      <trkpt lat="45.51769" lon="6.71935">
        <ele>2344</ele>
        <time>2013-02-09T15:36:23Z</time>
      </trkpt>
      <trkpt lat="45.51769" lon="6.71935">
        <ele>2344</ele>
        <time>2013-02-09T15:36:30Z</time>
      </trkpt>
      <trkpt lat="45.51769" lon="6.71935">
        <ele>2344</ele>
        <time>2013-02-09T15:36:30Z</time>
      </trkpt>
      <trkpt lat="45.51769" lon="6.71935">
        <ele>2344</ele>
        <time>2013-02-09T15:36:36Z</time>
      </trkpt>
      <trkpt lat="45.51766" lon="6.71922">
        <ele>2348</ele>
        <time>2013-02-09T15:36:36Z</time>
      </trkpt>
      <trkpt lat="45.51737" lon="6.71893">
        <ele>2355</ele>
        <time>2013-02-09T15:36:55Z</time>
      </trkpt>
      <trkpt lat="45.5171" lon="6.71894">
        <ele>2355</ele>
        <time>2013-02-09T15:38:34Z</time>
      </trkpt>
      <trkpt lat="45.51695" lon="6.71901">
        <ele>2355</ele>
        <time>2013-02-09T15:38:44Z</time>
      </trkpt>
      <trkpt lat="45.51683" lon="6.71913">
        <ele>2356</ele>
        <time>2013-02-09T15:38:52Z</time>
      </trkpt>
      <trkpt lat="45.51665" lon="6.71919">
        <ele>2360</ele>
        <time>2013-02-09T15:39:00Z</time>
      </trkpt>
      <trkpt lat="45.51656" lon="6.71923">
        <ele>2363</ele>
        <time>2013-02-09T15:39:04Z</time>
      </trkpt>
      <trkpt lat="45.51656" lon="6.71923">
        <ele>2363</ele>
        <time>2013-02-09T15:39:10Z</time>
      </trkpt>
      <trkpt lat="45.51656" lon="6.71923">
        <ele>2363</ele>
        <time>2013-02-09T15:39:33Z</time>
      </trkpt>
      <trkpt lat="45.51643" lon="6.71938">
        <ele>2366</ele>
        <time>2013-02-09T15:39:33Z</time>
      </trkpt>
      <trkpt lat="45.51619" lon="6.71968">
        <ele>2369</ele>
        <time>2013-02-09T15:39:40Z</time>
      </trkpt>
      <trkpt lat="45.51607" lon="6.71983">
        <ele>2372</ele>
        <time>2013-02-09T15:39:43Z</time>
      </trkpt>
      <trkpt lat="45.5159" lon="6.7201">
        <ele>2370</ele>
        <time>2013-02-09T15:39:49Z</time>
      </trkpt>
      <trkpt lat="45.5159" lon="6.7201">
        <ele>2370</ele>
        <time>2013-02-09T15:39:55Z</time>
      </trkpt>
      <trkpt lat="45.5159" lon="6.7201">
        <ele>2370</ele>
        <time>2013-02-09T15:39:55Z</time>
      </trkpt>
      <trkpt lat="45.5159" lon="6.7201">
        <ele>2370</ele>
        <time>2013-02-09T15:40:10Z</time>
      </trkpt>
      <trkpt lat="45.51591" lon="6.72039">
        <ele>2358</ele>
        <time>2013-02-09T15:40:10Z</time>
      </trkpt>
      <trkpt lat="45.51598" lon="6.72071">
        <ele>2353</ele>
        <time>2013-02-09T15:40:15Z</time>
      </trkpt>
      <trkpt lat="45.51634" lon="6.72097">
        <ele>2337</ele>
        <time>2013-02-09T15:40:20Z</time>
      </trkpt>
      <trkpt lat="45.51668" lon="6.72116">
        <ele>2320</ele>
        <time>2013-02-09T15:40:25Z</time>
      </trkpt>
      <trkpt lat="45.5174" lon="6.72109">
        <ele>2312</ele>
        <time>2013-02-09T15:40:32Z</time>
      </trkpt>
      <trkpt lat="45.51778" lon="6.72126">
        <ele>2300</ele>
        <time>2013-02-09T15:40:38Z</time>
      </trkpt>
      <trkpt lat="45.51782" lon="6.72147">
        <ele>2300</ele>
        <time>2013-02-09T15:40:41Z</time>
      </trkpt>
      <trkpt lat="45.51777" lon="6.72176">
        <ele>2297</ele>
        <time>2013-02-09T15:40:44Z</time>
      </trkpt>
      <trkpt lat="45.51798" lon="6.72218">
        <ele>2293</ele>
        <time>2013-02-09T15:40:49Z</time>
      </trkpt>
      <trkpt lat="45.51819" lon="6.72267">
        <ele>2285</ele>
        <time>2013-02-09T15:40:55Z</time>
      </trkpt>
      <trkpt lat="45.5183" lon="6.72288">
        <ele>2283</ele>
        <time>2013-02-09T15:41:01Z</time>
      </trkpt>
      <trkpt lat="45.51854" lon="6.72332">
        <ele>2271</ele>
        <time>2013-02-09T15:41:12Z</time>
      </trkpt>
      <trkpt lat="45.51873" lon="6.72382">
        <ele>2258</ele>
        <time>2013-02-09T15:41:18Z</time>
      </trkpt>
      <trkpt lat="45.51887" lon="6.72409">
        <ele>2253</ele>
        <time>2013-02-09T15:41:22Z</time>
      </trkpt>
      <trkpt lat="45.51911" lon="6.72438">
        <ele>2240</ele>
        <time>2013-02-09T15:41:27Z</time>
      </trkpt>
      <trkpt lat="45.51922" lon="6.72484">
        <ele>2227</ele>
        <time>2013-02-09T15:41:33Z</time>
      </trkpt>
      <trkpt lat="45.5194" lon="6.72503">
        <ele>2217</ele>
        <time>2013-02-09T15:41:39Z</time>
      </trkpt>
      <trkpt lat="45.5196" lon="6.72538">
        <ele>2211</ele>
        <time>2013-02-09T15:41:45Z</time>
      </trkpt>
      <trkpt lat="45.51974" lon="6.72571">
        <ele>2204</ele>
        <time>2013-02-09T15:41:50Z</time>
      </trkpt>
      <trkpt lat="45.51982" lon="6.72614">
        <ele>2187</ele>
        <time>2013-02-09T15:41:56Z</time>
      </trkpt>
      <trkpt lat="45.52004" lon="6.72605">
        <ele>2179</ele>
        <time>2013-02-09T15:42:02Z</time>
      </trkpt>
      <trkpt lat="45.52022" lon="6.72622">
        <ele>2173</ele>
        <time>2013-02-09T15:42:09Z</time>
      </trkpt>
      <trkpt lat="45.52042" lon="6.72635">
        <ele>2169</ele>
        <time>2013-02-09T15:42:14Z</time>
      </trkpt>
      <trkpt lat="45.52043" lon="6.72658">
        <ele>2165</ele>
        <time>2013-02-09T15:42:20Z</time>
      </trkpt>
      <trkpt lat="45.52045" lon="6.72692">
        <ele>2143</ele>
        <time>2013-02-09T15:42:28Z</time>
      </trkpt>
      <trkpt lat="45.52066" lon="6.72716">
        <ele>2137</ele>
        <time>2013-02-09T15:42:33Z</time>
      </trkpt>
      <trkpt lat="45.52077" lon="6.72702">
        <ele>2139</ele>
        <time>2013-02-09T15:42:38Z</time>
      </trkpt>
      <trkpt lat="45.52079" lon="6.72699">
        <ele>2140</ele>
        <time>2013-02-09T15:42:41Z</time>
      </trkpt>
      <trkpt lat="45.52079" lon="6.72699">
        <ele>2140</ele>
        <time>2013-02-09T15:42:46Z</time>
      </trkpt>
      <trkpt lat="45.52079" lon="6.72699">
        <ele>2140</ele>
        <time>2013-02-09T15:42:58Z</time>
      </trkpt>
      <trkpt lat="45.52089" lon="6.7272">
        <ele>2125</ele>
        <time>2013-02-09T15:42:58Z</time>
      </trkpt>
      <trkpt lat="45.52102" lon="6.72761">
        <ele>2111</ele>
        <time>2013-02-09T15:43:04Z</time>
      </trkpt>
      <trkpt lat="45.52128" lon="6.72772">
        <ele>2107</ele>
        <time>2013-02-09T15:43:10Z</time>
      </trkpt>
      <trkpt lat="45.52139" lon="6.72835">
        <ele>2092</ele>
        <time>2013-02-09T15:43:17Z</time>
      </trkpt>
    </trkseg>
  </trk>
</gpx>